<?xml version="1.0" encoding="UTF-8"?>
<gpx
  version="1.0"
  creator="GPSBabel - http://www.gpsbabel.org"
  xmlns:xsi="http://www.w3.org/2001/XMLSchema-instance"
  xmlns="http://www.topografix.com/GPX/1/0"
  xsi:schemaLocation="http://www.topografix.com/GPX/1/0 http://www.topografix.com/GPX/1/0/gpx.xsd">
<time>2012-06-20T16:17:36Z</time>
<bounds minlat="46.150820000" minlon="7.423030000" maxlat="46.253960000" maxlon="7.488130000"/>
<trk>
  <name>
    </name>
<trkseg>
<trkpt lat="46.251700000" lon="7.462820000">
  <ele>515.799990</ele>
  <time>2012-05-06T13:00:30Z</time>
</trkpt>
<trkpt lat="46.251700000" lon="7.462820000">
  <ele>515.940430</ele>
  <time>2012-05-06T13:00:33Z</time>
</trkpt>
<trkpt lat="46.251700000" lon="7.462820000">
  <ele>515.987240</ele>
  <time>2012-05-06T13:00:34Z</time>
</trkpt>
<trkpt lat="46.251700000" lon="7.462820000">
  <ele>516.034060</ele>
  <time>2012-05-06T13:00:35Z</time>
</trkpt>
<trkpt lat="46.251700000" lon="7.462820000">
  <ele>516.080810</ele>
  <time>2012-05-06T13:00:36Z</time>
</trkpt>
<trkpt lat="46.251700000" lon="7.462780000">
  <ele>516.268070</ele>
  <time>2012-05-06T13:00:40Z</time>
</trkpt>
<trkpt lat="46.251650000" lon="7.462630000">
  <ele>516.502140</ele>
  <time>2012-05-06T13:00:45Z</time>
</trkpt>
<trkpt lat="46.251640000" lon="7.462490000">
  <ele>516.642520</ele>
  <time>2012-05-06T13:00:48Z</time>
</trkpt>
<trkpt lat="46.251640000" lon="7.462440000">
  <ele>516.689330</ele>
  <time>2012-05-06T13:00:49Z</time>
</trkpt>
<trkpt lat="46.251630000" lon="7.462080000">
  <ele>516.970210</ele>
  <time>2012-05-06T13:00:55Z</time>
</trkpt>
<trkpt lat="46.251610000" lon="7.461590000">
  <ele>517.344670</ele>
  <time>2012-05-06T13:01:03Z</time>
</trkpt>
<trkpt lat="46.251580000" lon="7.461240000">
  <ele>517.672360</ele>
  <time>2012-05-06T13:01:10Z</time>
</trkpt>
<trkpt lat="46.251550000" lon="7.461050000">
  <ele>517.859560</ele>
  <time>2012-05-06T13:01:14Z</time>
</trkpt>
<trkpt lat="46.251540000" lon="7.461000000">
  <ele>517.906370</ele>
  <time>2012-05-06T13:01:15Z</time>
</trkpt>
<trkpt lat="46.251530000" lon="7.460950000">
  <ele>517.953190</ele>
  <time>2012-05-06T13:01:16Z</time>
</trkpt>
<trkpt lat="46.251520000" lon="7.460850000">
  <ele>518.000000</ele>
  <time>2012-05-06T13:01:17Z</time>
</trkpt>
<trkpt lat="46.251520000" lon="7.460850000">
  <ele>518.000000</ele>
  <time>2012-05-06T13:01:19Z</time>
</trkpt>
<trkpt lat="46.251450000" lon="7.460480000">
  <ele>519.272710</ele>
  <time>2012-05-06T13:01:26Z</time>
</trkpt>
<trkpt lat="46.251430000" lon="7.460430000">
  <ele>519.454530</ele>
  <time>2012-05-06T13:01:27Z</time>
</trkpt>
<trkpt lat="46.251420000" lon="7.460390000">
  <ele>519.636350</ele>
  <time>2012-05-06T13:01:28Z</time>
</trkpt>
<trkpt lat="46.251420000" lon="7.460340000">
  <ele>519.818180</ele>
  <time>2012-05-06T13:01:29Z</time>
</trkpt>
<trkpt lat="46.251400000" lon="7.460290000">
  <ele>520.000000</ele>
  <time>2012-05-06T13:01:30Z</time>
</trkpt>
<trkpt lat="46.251380000" lon="7.460150000">
  <ele>520.000000</ele>
  <time>2012-05-06T13:01:33Z</time>
</trkpt>
<trkpt lat="46.251370000" lon="7.460110000">
  <ele>520.174990</ele>
  <time>2012-05-06T13:01:34Z</time>
</trkpt>
<trkpt lat="46.251360000" lon="7.460060000">
  <ele>520.349980</ele>
  <time>2012-05-06T13:01:35Z</time>
</trkpt>
<trkpt lat="46.251310000" lon="7.459800000">
  <ele>521.400020</ele>
  <time>2012-05-06T13:01:41Z</time>
</trkpt>
<trkpt lat="46.251250000" lon="7.459580000">
  <ele>522.275020</ele>
  <time>2012-05-06T13:01:46Z</time>
</trkpt>
<trkpt lat="46.251230000" lon="7.459540000">
  <ele>522.450010</ele>
  <time>2012-05-06T13:01:47Z</time>
</trkpt>
<trkpt lat="46.251220000" lon="7.459500000">
  <ele>522.625000</ele>
  <time>2012-05-06T13:01:48Z</time>
</trkpt>
<trkpt lat="46.251200000" lon="7.459460000">
  <ele>522.799990</ele>
  <time>2012-05-06T13:01:49Z</time>
</trkpt>
<trkpt lat="46.251180000" lon="7.459420000">
  <ele>522.975040</ele>
  <time>2012-05-06T13:01:50Z</time>
</trkpt>
<trkpt lat="46.251080000" lon="7.459300000">
  <ele>523.674990</ele>
  <time>2012-05-06T13:01:54Z</time>
</trkpt>
<trkpt lat="46.251050000" lon="7.459290000">
  <ele>523.850040</ele>
  <time>2012-05-06T13:01:55Z</time>
</trkpt>
<trkpt lat="46.251020000" lon="7.459310000">
  <ele>524.025020</ele>
  <time>2012-05-06T13:01:56Z</time>
</trkpt>
<trkpt lat="46.250990000" lon="7.459330000">
  <ele>524.200010</ele>
  <time>2012-05-06T13:01:57Z</time>
</trkpt>
<trkpt lat="46.250970000" lon="7.459360000">
  <ele>524.200010</ele>
  <time>2012-05-06T13:01:58Z</time>
</trkpt>
<trkpt lat="46.250920000" lon="7.459470000">
  <ele>524.859990</ele>
  <time>2012-05-06T13:02:01Z</time>
</trkpt>
<trkpt lat="46.250890000" lon="7.459560000">
  <ele>525.520020</ele>
  <time>2012-05-06T13:02:04Z</time>
</trkpt>
<trkpt lat="46.250870000" lon="7.459590000">
  <ele>525.739990</ele>
  <time>2012-05-06T13:02:05Z</time>
</trkpt>
<trkpt lat="46.250860000" lon="7.459610000">
  <ele>525.960020</ele>
  <time>2012-05-06T13:02:06Z</time>
</trkpt>
<trkpt lat="46.250850000" lon="7.459640000">
  <ele>526.180050</ele>
  <time>2012-05-06T13:02:07Z</time>
</trkpt>
<trkpt lat="46.250840000" lon="7.459670000">
  <ele>526.400020</ele>
  <time>2012-05-06T13:02:08Z</time>
</trkpt>
<trkpt lat="46.250820000" lon="7.459730000">
  <ele>526.400020</ele>
  <time>2012-05-06T13:02:10Z</time>
</trkpt>
<trkpt lat="46.250770000" lon="7.459880000">
  <ele>527.622190</ele>
  <time>2012-05-06T13:02:15Z</time>
</trkpt>
<trkpt lat="46.250760000" lon="7.459910000">
  <ele>527.866640</ele>
  <time>2012-05-06T13:02:16Z</time>
</trkpt>
<trkpt lat="46.250750000" lon="7.459940000">
  <ele>528.111080</ele>
  <time>2012-05-06T13:02:17Z</time>
</trkpt>
<trkpt lat="46.250740000" lon="7.459970000">
  <ele>528.355530</ele>
  <time>2012-05-06T13:02:18Z</time>
</trkpt>
<trkpt lat="46.250740000" lon="7.460010000">
  <ele>528.599980</ele>
  <time>2012-05-06T13:02:19Z</time>
</trkpt>
<trkpt lat="46.250730000" lon="7.460040000">
  <ele>528.599980</ele>
  <time>2012-05-06T13:02:20Z</time>
</trkpt>
<trkpt lat="46.250720000" lon="7.460100000">
  <ele>529.333310</ele>
  <time>2012-05-06T13:02:22Z</time>
</trkpt>
<trkpt lat="46.250710000" lon="7.460130000">
  <ele>529.699950</ele>
  <time>2012-05-06T13:02:23Z</time>
</trkpt>
<trkpt lat="46.250700000" lon="7.460160000">
  <ele>530.066650</ele>
  <time>2012-05-06T13:02:24Z</time>
</trkpt>
<trkpt lat="46.250690000" lon="7.460190000">
  <ele>530.433350</ele>
  <time>2012-05-06T13:02:25Z</time>
</trkpt>
<trkpt lat="46.250690000" lon="7.460220000">
  <ele>530.799990</ele>
  <time>2012-05-06T13:02:26Z</time>
</trkpt>
<trkpt lat="46.250690000" lon="7.460250000">
  <ele>530.799990</ele>
  <time>2012-05-06T13:02:27Z</time>
</trkpt>
<trkpt lat="46.250680000" lon="7.460290000">
  <ele>531.022220</ele>
  <time>2012-05-06T13:02:28Z</time>
</trkpt>
<trkpt lat="46.250670000" lon="7.460320000">
  <ele>531.244450</ele>
  <time>2012-05-06T13:02:29Z</time>
</trkpt>
<trkpt lat="46.250650000" lon="7.460400000">
  <ele>531.911070</ele>
  <time>2012-05-06T13:02:32Z</time>
</trkpt>
<trkpt lat="46.250640000" lon="7.460430000">
  <ele>532.133300</ele>
  <time>2012-05-06T13:02:33Z</time>
</trkpt>
<trkpt lat="46.250630000" lon="7.460460000">
  <ele>532.355530</ele>
  <time>2012-05-06T13:02:34Z</time>
</trkpt>
<trkpt lat="46.250620000" lon="7.460490000">
  <ele>532.577760</ele>
  <time>2012-05-06T13:02:35Z</time>
</trkpt>
<trkpt lat="46.250610000" lon="7.460510000">
  <ele>532.799990</ele>
  <time>2012-05-06T13:02:36Z</time>
</trkpt>
<trkpt lat="46.250570000" lon="7.460630000">
  <ele>532.799990</ele>
  <time>2012-05-06T13:02:40Z</time>
</trkpt>
<trkpt lat="46.250560000" lon="7.460660000">
  <ele>533.239990</ele>
  <time>2012-05-06T13:02:41Z</time>
</trkpt>
<trkpt lat="46.250560000" lon="7.460690000">
  <ele>533.679990</ele>
  <time>2012-05-06T13:02:42Z</time>
</trkpt>
<trkpt lat="46.250550000" lon="7.460730000">
  <ele>534.120000</ele>
  <time>2012-05-06T13:02:43Z</time>
</trkpt>
<trkpt lat="46.250540000" lon="7.460760000">
  <ele>534.560000</ele>
  <time>2012-05-06T13:02:44Z</time>
</trkpt>
<trkpt lat="46.250530000" lon="7.460790000">
  <ele>535.000000</ele>
  <time>2012-05-06T13:02:45Z</time>
</trkpt>
<trkpt lat="46.250510000" lon="7.460880000">
  <ele>535.000000</ele>
  <time>2012-05-06T13:02:48Z</time>
</trkpt>
<trkpt lat="46.250500000" lon="7.460940000">
  <ele>535.666690</ele>
  <time>2012-05-06T13:02:50Z</time>
</trkpt>
<trkpt lat="46.250500000" lon="7.460970000">
  <ele>536.000000</ele>
  <time>2012-05-06T13:02:51Z</time>
</trkpt>
<trkpt lat="46.250490000" lon="7.461010000">
  <ele>536.333310</ele>
  <time>2012-05-06T13:02:52Z</time>
</trkpt>
<trkpt lat="46.250490000" lon="7.461040000">
  <ele>536.666690</ele>
  <time>2012-05-06T13:02:53Z</time>
</trkpt>
<trkpt lat="46.250490000" lon="7.461070000">
  <ele>537.000000</ele>
  <time>2012-05-06T13:02:54Z</time>
</trkpt>
<trkpt lat="46.250490000" lon="7.461100000">
  <ele>537.000000</ele>
  <time>2012-05-06T13:02:55Z</time>
</trkpt>
<trkpt lat="46.250470000" lon="7.461250000">
  <ele>537.833310</ele>
  <time>2012-05-06T13:03:00Z</time>
</trkpt>
<trkpt lat="46.250470000" lon="7.461350000">
  <ele>538.333310</ele>
  <time>2012-05-06T13:03:03Z</time>
</trkpt>
<trkpt lat="46.250460000" lon="7.461370000">
  <ele>538.500000</ele>
  <time>2012-05-06T13:03:04Z</time>
</trkpt>
<trkpt lat="46.250460000" lon="7.461400000">
  <ele>538.666690</ele>
  <time>2012-05-06T13:03:05Z</time>
</trkpt>
<trkpt lat="46.250450000" lon="7.461430000">
  <ele>538.833310</ele>
  <time>2012-05-06T13:03:06Z</time>
</trkpt>
<trkpt lat="46.250440000" lon="7.461460000">
  <ele>539.000000</ele>
  <time>2012-05-06T13:03:07Z</time>
</trkpt>
<trkpt lat="46.250430000" lon="7.461490000">
  <ele>539.000000</ele>
  <time>2012-05-06T13:03:08Z</time>
</trkpt>
<trkpt lat="46.250390000" lon="7.461570000">
  <ele>539.768010</ele>
  <time>2012-05-06T13:03:11Z</time>
</trkpt>
<trkpt lat="46.250380000" lon="7.461600000">
  <ele>540.023990</ele>
  <time>2012-05-06T13:03:12Z</time>
</trkpt>
<trkpt lat="46.250370000" lon="7.461630000">
  <ele>540.280030</ele>
  <time>2012-05-06T13:03:13Z</time>
</trkpt>
<trkpt lat="46.250360000" lon="7.461650000">
  <ele>540.536010</ele>
  <time>2012-05-06T13:03:14Z</time>
</trkpt>
<trkpt lat="46.250350000" lon="7.461680000">
  <ele>540.791990</ele>
  <time>2012-05-06T13:03:15Z</time>
</trkpt>
<trkpt lat="46.250340000" lon="7.461710000">
  <ele>541.048030</ele>
  <time>2012-05-06T13:03:16Z</time>
</trkpt>
<trkpt lat="46.250310000" lon="7.461850000">
  <ele>542.328000</ele>
  <time>2012-05-06T13:03:21Z</time>
</trkpt>
<trkpt lat="46.250300000" lon="7.461880000">
  <ele>542.583980</ele>
  <time>2012-05-06T13:03:22Z</time>
</trkpt>
<trkpt lat="46.250290000" lon="7.461910000">
  <ele>542.840030</ele>
  <time>2012-05-06T13:03:23Z</time>
</trkpt>
<trkpt lat="46.250290000" lon="7.461940000">
  <ele>543.096010</ele>
  <time>2012-05-06T13:03:24Z</time>
</trkpt>
<trkpt lat="46.250290000" lon="7.461970000">
  <ele>543.351990</ele>
  <time>2012-05-06T13:03:25Z</time>
</trkpt>
<trkpt lat="46.250280000" lon="7.462130000">
  <ele>544.632020</ele>
  <time>2012-05-06T13:03:30Z</time>
</trkpt>
<trkpt lat="46.250290000" lon="7.462170000">
  <ele>544.888000</ele>
  <time>2012-05-06T13:03:31Z</time>
</trkpt>
<trkpt lat="46.250290000" lon="7.462200000">
  <ele>545.144040</ele>
  <time>2012-05-06T13:03:32Z</time>
</trkpt>
<trkpt lat="46.250290000" lon="7.462230000">
  <ele>545.400020</ele>
  <time>2012-05-06T13:03:33Z</time>
</trkpt>
<trkpt lat="46.250310000" lon="7.462380000">
  <ele>545.400020</ele>
  <time>2012-05-06T13:03:38Z</time>
</trkpt>
<trkpt lat="46.250320000" lon="7.462410000">
  <ele>545.800050</ele>
  <time>2012-05-06T13:03:39Z</time>
</trkpt>
<trkpt lat="46.250320000" lon="7.462440000">
  <ele>546.200010</ele>
  <time>2012-05-06T13:03:40Z</time>
</trkpt>
<trkpt lat="46.250320000" lon="7.462470000">
  <ele>546.600040</ele>
  <time>2012-05-06T13:03:41Z</time>
</trkpt>
<trkpt lat="46.250330000" lon="7.462500000">
  <ele>547.000000</ele>
  <time>2012-05-06T13:03:42Z</time>
</trkpt>
<trkpt lat="46.250330000" lon="7.462540000">
  <ele>547.400020</ele>
  <time>2012-05-06T13:03:43Z</time>
</trkpt>
<trkpt lat="46.250340000" lon="7.462630000">
  <ele>547.400020</ele>
  <time>2012-05-06T13:03:46Z</time>
</trkpt>
<trkpt lat="46.250350000" lon="7.462660000">
  <ele>547.714290</ele>
  <time>2012-05-06T13:03:47Z</time>
</trkpt>
<trkpt lat="46.250350000" lon="7.462690000">
  <ele>548.028560</ele>
  <time>2012-05-06T13:03:48Z</time>
</trkpt>
<trkpt lat="46.250350000" lon="7.462730000">
  <ele>548.342830</ele>
  <time>2012-05-06T13:03:49Z</time>
</trkpt>
<trkpt lat="46.250350000" lon="7.462760000">
  <ele>548.657170</ele>
  <time>2012-05-06T13:03:50Z</time>
</trkpt>
<trkpt lat="46.250360000" lon="7.462790000">
  <ele>548.971440</ele>
  <time>2012-05-06T13:03:51Z</time>
</trkpt>
<trkpt lat="46.250360000" lon="7.462820000">
  <ele>549.285710</ele>
  <time>2012-05-06T13:03:52Z</time>
</trkpt>
<trkpt lat="46.250360000" lon="7.462860000">
  <ele>549.599980</ele>
  <time>2012-05-06T13:03:53Z</time>
</trkpt>
<trkpt lat="46.250360000" lon="7.462890000">
  <ele>549.599980</ele>
  <time>2012-05-06T13:03:54Z</time>
</trkpt>
<trkpt lat="46.250360000" lon="7.462920000">
  <ele>549.820680</ele>
  <time>2012-05-06T13:03:55Z</time>
</trkpt>
<trkpt lat="46.250360000" lon="7.462950000">
  <ele>550.041380</ele>
  <time>2012-05-06T13:03:56Z</time>
</trkpt>
<trkpt lat="46.250360000" lon="7.463010000">
  <ele>550.482730</ele>
  <time>2012-05-06T13:03:58Z</time>
</trkpt>
<trkpt lat="46.250360000" lon="7.463070000">
  <ele>550.924130</ele>
  <time>2012-05-06T13:04:00Z</time>
</trkpt>
<trkpt lat="46.250360000" lon="7.463110000">
  <ele>551.144840</ele>
  <time>2012-05-06T13:04:01Z</time>
</trkpt>
<trkpt lat="46.250360000" lon="7.463140000">
  <ele>551.365480</ele>
  <time>2012-05-06T13:04:02Z</time>
</trkpt>
<trkpt lat="46.250360000" lon="7.463170000">
  <ele>551.586180</ele>
  <time>2012-05-06T13:04:03Z</time>
</trkpt>
<trkpt lat="46.250360000" lon="7.463200000">
  <ele>551.806880</ele>
  <time>2012-05-06T13:04:04Z</time>
</trkpt>
<trkpt lat="46.250360000" lon="7.463360000">
  <ele>552.910340</ele>
  <time>2012-05-06T13:04:09Z</time>
</trkpt>
<trkpt lat="46.250360000" lon="7.463390000">
  <ele>553.131040</ele>
  <time>2012-05-06T13:04:10Z</time>
</trkpt>
<trkpt lat="46.250360000" lon="7.463420000">
  <ele>553.351680</ele>
  <time>2012-05-06T13:04:11Z</time>
</trkpt>
<trkpt lat="46.250350000" lon="7.463450000">
  <ele>553.572390</ele>
  <time>2012-05-06T13:04:12Z</time>
</trkpt>
<trkpt lat="46.250350000" lon="7.463480000">
  <ele>553.793090</ele>
  <time>2012-05-06T13:04:13Z</time>
</trkpt>
<trkpt lat="46.250390000" lon="7.463700000">
  <ele>555.337950</ele>
  <time>2012-05-06T13:04:20Z</time>
</trkpt>
<trkpt lat="46.250390000" lon="7.463730000">
  <ele>555.558590</ele>
  <time>2012-05-06T13:04:21Z</time>
</trkpt>
<trkpt lat="46.250400000" lon="7.463760000">
  <ele>555.779300</ele>
  <time>2012-05-06T13:04:22Z</time>
</trkpt>
<trkpt lat="46.250420000" lon="7.463780000">
  <ele>556.000000</ele>
  <time>2012-05-06T13:04:23Z</time>
</trkpt>
<trkpt lat="46.250460000" lon="7.463870000">
  <ele>556.000000</ele>
  <time>2012-05-06T13:04:26Z</time>
</trkpt>
<trkpt lat="46.250510000" lon="7.463980000">
  <ele>557.099980</ele>
  <time>2012-05-06T13:04:30Z</time>
</trkpt>
<trkpt lat="46.250520000" lon="7.464010000">
  <ele>557.375000</ele>
  <time>2012-05-06T13:04:31Z</time>
</trkpt>
<trkpt lat="46.250530000" lon="7.464040000">
  <ele>557.650020</ele>
  <time>2012-05-06T13:04:32Z</time>
</trkpt>
<trkpt lat="46.250540000" lon="7.464070000">
  <ele>557.924990</ele>
  <time>2012-05-06T13:04:33Z</time>
</trkpt>
<trkpt lat="46.250550000" lon="7.464090000">
  <ele>558.200010</ele>
  <time>2012-05-06T13:04:34Z</time>
</trkpt>
<trkpt lat="46.250560000" lon="7.464200000">
  <ele>558.200010</ele>
  <time>2012-05-06T13:04:38Z</time>
</trkpt>
<trkpt lat="46.250570000" lon="7.464230000">
  <ele>558.566650</ele>
  <time>2012-05-06T13:04:39Z</time>
</trkpt>
<trkpt lat="46.250570000" lon="7.464250000">
  <ele>558.933350</ele>
  <time>2012-05-06T13:04:40Z</time>
</trkpt>
<trkpt lat="46.250570000" lon="7.464290000">
  <ele>559.300050</ele>
  <time>2012-05-06T13:04:41Z</time>
</trkpt>
<trkpt lat="46.250570000" lon="7.464320000">
  <ele>559.666690</ele>
  <time>2012-05-06T13:04:42Z</time>
</trkpt>
<trkpt lat="46.250570000" lon="7.464350000">
  <ele>560.033330</ele>
  <time>2012-05-06T13:04:43Z</time>
</trkpt>
<trkpt lat="46.250570000" lon="7.464380000">
  <ele>560.400020</ele>
  <time>2012-05-06T13:04:44Z</time>
</trkpt>
<trkpt lat="46.250570000" lon="7.464410000">
  <ele>560.400020</ele>
  <time>2012-05-06T13:04:45Z</time>
</trkpt>
<trkpt lat="46.250570000" lon="7.464490000">
  <ele>561.066710</ele>
  <time>2012-05-06T13:04:48Z</time>
</trkpt>
<trkpt lat="46.250570000" lon="7.464540000">
  <ele>561.511110</ele>
  <time>2012-05-06T13:04:50Z</time>
</trkpt>
<trkpt lat="46.250560000" lon="7.464570000">
  <ele>561.733340</ele>
  <time>2012-05-06T13:04:51Z</time>
</trkpt>
<trkpt lat="46.250560000" lon="7.464610000">
  <ele>561.955570</ele>
  <time>2012-05-06T13:04:52Z</time>
</trkpt>
<trkpt lat="46.250560000" lon="7.464640000">
  <ele>562.177800</ele>
  <time>2012-05-06T13:04:53Z</time>
</trkpt>
<trkpt lat="46.250560000" lon="7.464680000">
  <ele>562.400020</ele>
  <time>2012-05-06T13:04:54Z</time>
</trkpt>
<trkpt lat="46.250570000" lon="7.464740000">
  <ele>562.400020</ele>
  <time>2012-05-06T13:04:56Z</time>
</trkpt>
<trkpt lat="46.250610000" lon="7.464890000">
  <ele>563.622190</ele>
  <time>2012-05-06T13:05:01Z</time>
</trkpt>
<trkpt lat="46.250620000" lon="7.464920000">
  <ele>563.866640</ele>
  <time>2012-05-06T13:05:02Z</time>
</trkpt>
<trkpt lat="46.250630000" lon="7.464950000">
  <ele>564.111080</ele>
  <time>2012-05-06T13:05:03Z</time>
</trkpt>
<trkpt lat="46.250640000" lon="7.464980000">
  <ele>564.355530</ele>
  <time>2012-05-06T13:05:04Z</time>
</trkpt>
<trkpt lat="46.250660000" lon="7.465010000">
  <ele>564.599980</ele>
  <time>2012-05-06T13:05:05Z</time>
</trkpt>
<trkpt lat="46.250690000" lon="7.465090000">
  <ele>564.599980</ele>
  <time>2012-05-06T13:05:08Z</time>
</trkpt>
<trkpt lat="46.250730000" lon="7.465200000">
  <ele>565.488890</ele>
  <time>2012-05-06T13:05:12Z</time>
</trkpt>
<trkpt lat="46.250740000" lon="7.465230000">
  <ele>565.711060</ele>
  <time>2012-05-06T13:05:13Z</time>
</trkpt>
<trkpt lat="46.250750000" lon="7.465260000">
  <ele>565.933290</ele>
  <time>2012-05-06T13:05:14Z</time>
</trkpt>
<trkpt lat="46.250760000" lon="7.465290000">
  <ele>566.155520</ele>
  <time>2012-05-06T13:05:15Z</time>
</trkpt>
<trkpt lat="46.250820000" lon="7.465490000">
  <ele>567.711060</ele>
  <time>2012-05-06T13:05:22Z</time>
</trkpt>
<trkpt lat="46.250820000" lon="7.465530000">
  <ele>567.933290</ele>
  <time>2012-05-06T13:05:23Z</time>
</trkpt>
<trkpt lat="46.250830000" lon="7.465560000">
  <ele>568.155520</ele>
  <time>2012-05-06T13:05:24Z</time>
</trkpt>
<trkpt lat="46.250840000" lon="7.465590000">
  <ele>568.377750</ele>
  <time>2012-05-06T13:05:25Z</time>
</trkpt>
<trkpt lat="46.250840000" lon="7.465620000">
  <ele>568.599980</ele>
  <time>2012-05-06T13:05:26Z</time>
</trkpt>
<trkpt lat="46.250870000" lon="7.465750000">
  <ele>568.599980</ele>
  <time>2012-05-06T13:05:30Z</time>
</trkpt>
<trkpt lat="46.250880000" lon="7.465820000">
  <ele>569.333310</ele>
  <time>2012-05-06T13:05:32Z</time>
</trkpt>
<trkpt lat="46.250890000" lon="7.465850000">
  <ele>569.699950</ele>
  <time>2012-05-06T13:05:33Z</time>
</trkpt>
<trkpt lat="46.250900000" lon="7.465890000">
  <ele>570.066650</ele>
  <time>2012-05-06T13:05:34Z</time>
</trkpt>
<trkpt lat="46.250910000" lon="7.465920000">
  <ele>570.433350</ele>
  <time>2012-05-06T13:05:35Z</time>
</trkpt>
<trkpt lat="46.250920000" lon="7.465950000">
  <ele>570.799990</ele>
  <time>2012-05-06T13:05:36Z</time>
</trkpt>
<trkpt lat="46.250920000" lon="7.465980000">
  <ele>570.799990</ele>
  <time>2012-05-06T13:05:37Z</time>
</trkpt>
<trkpt lat="46.250970000" lon="7.466160000">
  <ele>572.120000</ele>
  <time>2012-05-06T13:05:43Z</time>
</trkpt>
<trkpt lat="46.250970000" lon="7.466190000">
  <ele>572.339970</ele>
  <time>2012-05-06T13:05:44Z</time>
</trkpt>
<trkpt lat="46.250980000" lon="7.466220000">
  <ele>572.560000</ele>
  <time>2012-05-06T13:05:45Z</time>
</trkpt>
<trkpt lat="46.250980000" lon="7.466250000">
  <ele>572.780030</ele>
  <time>2012-05-06T13:05:46Z</time>
</trkpt>
<trkpt lat="46.250980000" lon="7.466280000">
  <ele>573.000000</ele>
  <time>2012-05-06T13:05:47Z</time>
</trkpt>
<trkpt lat="46.251000000" lon="7.466400000">
  <ele>573.000000</ele>
  <time>2012-05-06T13:05:51Z</time>
</trkpt>
<trkpt lat="46.251010000" lon="7.466470000">
  <ele>573.666690</ele>
  <time>2012-05-06T13:05:53Z</time>
</trkpt>
<trkpt lat="46.251010000" lon="7.466510000">
  <ele>574.000000</ele>
  <time>2012-05-06T13:05:54Z</time>
</trkpt>
<trkpt lat="46.251020000" lon="7.466540000">
  <ele>574.333310</ele>
  <time>2012-05-06T13:05:55Z</time>
</trkpt>
<trkpt lat="46.251020000" lon="7.466570000">
  <ele>574.666690</ele>
  <time>2012-05-06T13:05:56Z</time>
</trkpt>
<trkpt lat="46.251020000" lon="7.466610000">
  <ele>575.000000</ele>
  <time>2012-05-06T13:05:57Z</time>
</trkpt>
<trkpt lat="46.251030000" lon="7.466640000">
  <ele>575.000000</ele>
  <time>2012-05-06T13:05:58Z</time>
</trkpt>
<trkpt lat="46.251030000" lon="7.466780000">
  <ele>576.000000</ele>
  <time>2012-05-06T13:06:02Z</time>
</trkpt>
<trkpt lat="46.251020000" lon="7.466820000">
  <ele>576.250000</ele>
  <time>2012-05-06T13:06:03Z</time>
</trkpt>
<trkpt lat="46.251010000" lon="7.466850000">
  <ele>576.500000</ele>
  <time>2012-05-06T13:06:04Z</time>
</trkpt>
<trkpt lat="46.251000000" lon="7.466890000">
  <ele>576.750000</ele>
  <time>2012-05-06T13:06:05Z</time>
</trkpt>
<trkpt lat="46.251000000" lon="7.466910000">
  <ele>577.000000</ele>
  <time>2012-05-06T13:06:06Z</time>
</trkpt>
<trkpt lat="46.250940000" lon="7.467020000">
  <ele>578.000000</ele>
  <time>2012-05-06T13:06:10Z</time>
</trkpt>
<trkpt lat="46.250920000" lon="7.467040000">
  <ele>578.250000</ele>
  <time>2012-05-06T13:06:11Z</time>
</trkpt>
<trkpt lat="46.250900000" lon="7.467070000">
  <ele>578.500000</ele>
  <time>2012-05-06T13:06:12Z</time>
</trkpt>
<trkpt lat="46.250890000" lon="7.467100000">
  <ele>578.750000</ele>
  <time>2012-05-06T13:06:13Z</time>
</trkpt>
<trkpt lat="46.250870000" lon="7.467130000">
  <ele>579.000000</ele>
  <time>2012-05-06T13:06:14Z</time>
</trkpt>
<trkpt lat="46.250860000" lon="7.467190000">
  <ele>579.000000</ele>
  <time>2012-05-06T13:06:16Z</time>
</trkpt>
<trkpt lat="46.250840000" lon="7.467320000">
  <ele>580.099980</ele>
  <time>2012-05-06T13:06:20Z</time>
</trkpt>
<trkpt lat="46.250840000" lon="7.467350000">
  <ele>580.375000</ele>
  <time>2012-05-06T13:06:21Z</time>
</trkpt>
<trkpt lat="46.250840000" lon="7.467390000">
  <ele>580.650020</ele>
  <time>2012-05-06T13:06:22Z</time>
</trkpt>
<trkpt lat="46.250840000" lon="7.467430000">
  <ele>580.924990</ele>
  <time>2012-05-06T13:06:23Z</time>
</trkpt>
<trkpt lat="46.250850000" lon="7.467460000">
  <ele>581.200010</ele>
  <time>2012-05-06T13:06:24Z</time>
</trkpt>
<trkpt lat="46.250860000" lon="7.467490000">
  <ele>581.200010</ele>
  <time>2012-05-06T13:06:25Z</time>
</trkpt>
<trkpt lat="46.250990000" lon="7.467630000">
  <ele>582.400020</ele>
  <time>2012-05-06T13:06:31Z</time>
</trkpt>
<trkpt lat="46.251010000" lon="7.467650000">
  <ele>582.600040</ele>
  <time>2012-05-06T13:06:32Z</time>
</trkpt>
<trkpt lat="46.251030000" lon="7.467670000">
  <ele>582.799990</ele>
  <time>2012-05-06T13:06:33Z</time>
</trkpt>
<trkpt lat="46.251050000" lon="7.467690000">
  <ele>583.000000</ele>
  <time>2012-05-06T13:06:34Z</time>
</trkpt>
<trkpt lat="46.251070000" lon="7.467700000">
  <ele>583.200010</ele>
  <time>2012-05-06T13:06:35Z</time>
</trkpt>
<trkpt lat="46.251140000" lon="7.467730000">
  <ele>583.200010</ele>
  <time>2012-05-06T13:06:38Z</time>
</trkpt>
<trkpt lat="46.251170000" lon="7.467780000">
  <ele>583.933350</ele>
  <time>2012-05-06T13:06:40Z</time>
</trkpt>
<trkpt lat="46.251180000" lon="7.467810000">
  <ele>584.300050</ele>
  <time>2012-05-06T13:06:41Z</time>
</trkpt>
<trkpt lat="46.251200000" lon="7.467840000">
  <ele>584.666690</ele>
  <time>2012-05-06T13:06:42Z</time>
</trkpt>
<trkpt lat="46.251210000" lon="7.467870000">
  <ele>585.033330</ele>
  <time>2012-05-06T13:06:43Z</time>
</trkpt>
<trkpt lat="46.251220000" lon="7.467900000">
  <ele>585.400020</ele>
  <time>2012-05-06T13:06:44Z</time>
</trkpt>
<trkpt lat="46.251230000" lon="7.467970000">
  <ele>585.400020</ele>
  <time>2012-05-06T13:06:46Z</time>
</trkpt>
<trkpt lat="46.251230000" lon="7.468040000">
  <ele>586.066710</ele>
  <time>2012-05-06T13:06:48Z</time>
</trkpt>
<trkpt lat="46.251240000" lon="7.468080000">
  <ele>586.400020</ele>
  <time>2012-05-06T13:06:49Z</time>
</trkpt>
<trkpt lat="46.251240000" lon="7.468120000">
  <ele>586.733340</ele>
  <time>2012-05-06T13:06:50Z</time>
</trkpt>
<trkpt lat="46.251240000" lon="7.468150000">
  <ele>587.066710</ele>
  <time>2012-05-06T13:06:51Z</time>
</trkpt>
<trkpt lat="46.251240000" lon="7.468190000">
  <ele>587.400020</ele>
  <time>2012-05-06T13:06:52Z</time>
</trkpt>
<trkpt lat="46.251260000" lon="7.468330000">
  <ele>587.400020</ele>
  <time>2012-05-06T13:06:56Z</time>
</trkpt>
<trkpt lat="46.251260000" lon="7.468430000">
  <ele>588.342830</ele>
  <time>2012-05-06T13:06:59Z</time>
</trkpt>
<trkpt lat="46.251260000" lon="7.468470000">
  <ele>588.657170</ele>
  <time>2012-05-06T13:07:00Z</time>
</trkpt>
<trkpt lat="46.251260000" lon="7.468500000">
  <ele>588.971440</ele>
  <time>2012-05-06T13:07:01Z</time>
</trkpt>
<trkpt lat="46.251260000" lon="7.468540000">
  <ele>589.285710</ele>
  <time>2012-05-06T13:07:02Z</time>
</trkpt>
<trkpt lat="46.251260000" lon="7.468570000">
  <ele>589.599980</ele>
  <time>2012-05-06T13:07:03Z</time>
</trkpt>
<trkpt lat="46.251270000" lon="7.468780000">
  <ele>589.599980</ele>
  <time>2012-05-06T13:07:09Z</time>
</trkpt>
<trkpt lat="46.251270000" lon="7.468810000">
  <ele>590.039980</ele>
  <time>2012-05-06T13:07:10Z</time>
</trkpt>
<trkpt lat="46.251270000" lon="7.468850000">
  <ele>590.479980</ele>
  <time>2012-05-06T13:07:11Z</time>
</trkpt>
<trkpt lat="46.251270000" lon="7.468880000">
  <ele>590.919980</ele>
  <time>2012-05-06T13:07:12Z</time>
</trkpt>
<trkpt lat="46.251260000" lon="7.468910000">
  <ele>591.359990</ele>
  <time>2012-05-06T13:07:13Z</time>
</trkpt>
<trkpt lat="46.251260000" lon="7.468940000">
  <ele>591.799990</ele>
  <time>2012-05-06T13:07:14Z</time>
</trkpt>
<trkpt lat="46.251250000" lon="7.469030000">
  <ele>591.799990</ele>
  <time>2012-05-06T13:07:17Z</time>
</trkpt>
<trkpt lat="46.251250000" lon="7.469070000">
  <ele>592.239990</ele>
  <time>2012-05-06T13:07:18Z</time>
</trkpt>
<trkpt lat="46.251240000" lon="7.469100000">
  <ele>592.679990</ele>
  <time>2012-05-06T13:07:19Z</time>
</trkpt>
<trkpt lat="46.251230000" lon="7.469120000">
  <ele>593.120000</ele>
  <time>2012-05-06T13:07:20Z</time>
</trkpt>
<trkpt lat="46.251220000" lon="7.469150000">
  <ele>593.560000</ele>
  <time>2012-05-06T13:07:21Z</time>
</trkpt>
<trkpt lat="46.251220000" lon="7.469180000">
  <ele>594.000000</ele>
  <time>2012-05-06T13:07:22Z</time>
</trkpt>
<trkpt lat="46.251210000" lon="7.469200000">
  <ele>594.000000</ele>
  <time>2012-05-06T13:07:23Z</time>
</trkpt>
<trkpt lat="46.251170000" lon="7.469350000">
  <ele>595.222230</ele>
  <time>2012-05-06T13:07:28Z</time>
</trkpt>
<trkpt lat="46.251170000" lon="7.469380000">
  <ele>595.466670</ele>
  <time>2012-05-06T13:07:29Z</time>
</trkpt>
<trkpt lat="46.251160000" lon="7.469410000">
  <ele>595.711120</ele>
  <time>2012-05-06T13:07:30Z</time>
</trkpt>
<trkpt lat="46.251150000" lon="7.469440000">
  <ele>595.955570</ele>
  <time>2012-05-06T13:07:31Z</time>
</trkpt>
<trkpt lat="46.251140000" lon="7.469470000">
  <ele>596.200010</ele>
  <time>2012-05-06T13:07:32Z</time>
</trkpt>
<trkpt lat="46.251140000" lon="7.469540000">
  <ele>596.200010</ele>
  <time>2012-05-06T13:07:34Z</time>
</trkpt>
<trkpt lat="46.251140000" lon="7.469640000">
  <ele>597.025020</ele>
  <time>2012-05-06T13:07:37Z</time>
</trkpt>
<trkpt lat="46.251140000" lon="7.469680000">
  <ele>597.299990</ele>
  <time>2012-05-06T13:07:38Z</time>
</trkpt>
<trkpt lat="46.251140000" lon="7.469710000">
  <ele>597.575010</ele>
  <time>2012-05-06T13:07:39Z</time>
</trkpt>
<trkpt lat="46.251150000" lon="7.469750000">
  <ele>597.849980</ele>
  <time>2012-05-06T13:07:40Z</time>
</trkpt>
<trkpt lat="46.251170000" lon="7.469930000">
  <ele>599.500000</ele>
  <time>2012-05-06T13:07:46Z</time>
</trkpt>
<trkpt lat="46.251180000" lon="7.469960000">
  <ele>599.774960</ele>
  <time>2012-05-06T13:07:47Z</time>
</trkpt>
<trkpt lat="46.251190000" lon="7.469990000">
  <ele>600.049990</ele>
  <time>2012-05-06T13:07:48Z</time>
</trkpt>
<trkpt lat="46.251200000" lon="7.470020000">
  <ele>600.324950</ele>
  <time>2012-05-06T13:07:49Z</time>
</trkpt>
<trkpt lat="46.251210000" lon="7.470050000">
  <ele>600.599980</ele>
  <time>2012-05-06T13:07:50Z</time>
</trkpt>
<trkpt lat="46.251280000" lon="7.470170000">
  <ele>600.599980</ele>
  <time>2012-05-06T13:07:54Z</time>
</trkpt>
<trkpt lat="46.251310000" lon="7.470230000">
  <ele>601.266660</ele>
  <time>2012-05-06T13:07:56Z</time>
</trkpt>
<trkpt lat="46.251320000" lon="7.470260000">
  <ele>601.599980</ele>
  <time>2012-05-06T13:07:57Z</time>
</trkpt>
<trkpt lat="46.251340000" lon="7.470280000">
  <ele>601.933290</ele>
  <time>2012-05-06T13:07:58Z</time>
</trkpt>
<trkpt lat="46.251350000" lon="7.470310000">
  <ele>602.266660</ele>
  <time>2012-05-06T13:07:59Z</time>
</trkpt>
<trkpt lat="46.251370000" lon="7.470340000">
  <ele>602.599980</ele>
  <time>2012-05-06T13:08:00Z</time>
</trkpt>
<trkpt lat="46.251410000" lon="7.470430000">
  <ele>602.599980</ele>
  <time>2012-05-06T13:08:03Z</time>
</trkpt>
<trkpt lat="46.251420000" lon="7.470460000">
  <ele>603.000000</ele>
  <time>2012-05-06T13:08:04Z</time>
</trkpt>
<trkpt lat="46.251420000" lon="7.470500000">
  <ele>603.399960</ele>
  <time>2012-05-06T13:08:05Z</time>
</trkpt>
<trkpt lat="46.251430000" lon="7.470530000">
  <ele>603.799990</ele>
  <time>2012-05-06T13:08:06Z</time>
</trkpt>
<trkpt lat="46.251430000" lon="7.470560000">
  <ele>604.199950</ele>
  <time>2012-05-06T13:08:07Z</time>
</trkpt>
<trkpt lat="46.251430000" lon="7.470590000">
  <ele>604.599980</ele>
  <time>2012-05-06T13:08:08Z</time>
</trkpt>
<trkpt lat="46.251440000" lon="7.470650000">
  <ele>604.599980</ele>
  <time>2012-05-06T13:08:10Z</time>
</trkpt>
<trkpt lat="46.251460000" lon="7.470780000">
  <ele>605.623960</ele>
  <time>2012-05-06T13:08:14Z</time>
</trkpt>
<trkpt lat="46.251470000" lon="7.470820000">
  <ele>605.880000</ele>
  <time>2012-05-06T13:08:15Z</time>
</trkpt>
<trkpt lat="46.251470000" lon="7.470850000">
  <ele>606.135990</ele>
  <time>2012-05-06T13:08:16Z</time>
</trkpt>
<trkpt lat="46.251480000" lon="7.470880000">
  <ele>606.391970</ele>
  <time>2012-05-06T13:08:17Z</time>
</trkpt>
<trkpt lat="46.251480000" lon="7.470920000">
  <ele>606.648010</ele>
  <time>2012-05-06T13:08:18Z</time>
</trkpt>
<trkpt lat="46.251510000" lon="7.471110000">
  <ele>608.183960</ele>
  <time>2012-05-06T13:08:24Z</time>
</trkpt>
<trkpt lat="46.251510000" lon="7.471150000">
  <ele>608.440000</ele>
  <time>2012-05-06T13:08:25Z</time>
</trkpt>
<trkpt lat="46.251510000" lon="7.471180000">
  <ele>608.695980</ele>
  <time>2012-05-06T13:08:26Z</time>
</trkpt>
<trkpt lat="46.251520000" lon="7.471210000">
  <ele>608.951970</ele>
  <time>2012-05-06T13:08:27Z</time>
</trkpt>
<trkpt lat="46.251510000" lon="7.471240000">
  <ele>609.208010</ele>
  <time>2012-05-06T13:08:28Z</time>
</trkpt>
<trkpt lat="46.251490000" lon="7.471330000">
  <ele>609.976010</ele>
  <time>2012-05-06T13:08:31Z</time>
</trkpt>
<trkpt lat="46.251480000" lon="7.471360000">
  <ele>610.231990</ele>
  <time>2012-05-06T13:08:32Z</time>
</trkpt>
<trkpt lat="46.251470000" lon="7.471390000">
  <ele>610.487980</ele>
  <time>2012-05-06T13:08:33Z</time>
</trkpt>
<trkpt lat="46.251460000" lon="7.471420000">
  <ele>610.744020</ele>
  <time>2012-05-06T13:08:34Z</time>
</trkpt>
<trkpt lat="46.251450000" lon="7.471440000">
  <ele>611.000000</ele>
  <time>2012-05-06T13:08:35Z</time>
</trkpt>
<trkpt lat="46.251380000" lon="7.471580000">
  <ele>611.000000</ele>
  <time>2012-05-06T13:08:40Z</time>
</trkpt>
<trkpt lat="46.251370000" lon="7.471620000">
  <ele>611.440000</ele>
  <time>2012-05-06T13:08:41Z</time>
</trkpt>
<trkpt lat="46.251350000" lon="7.471640000">
  <ele>611.880000</ele>
  <time>2012-05-06T13:08:42Z</time>
</trkpt>
<trkpt lat="46.251340000" lon="7.471670000">
  <ele>612.320010</ele>
  <time>2012-05-06T13:08:43Z</time>
</trkpt>
<trkpt lat="46.251330000" lon="7.471700000">
  <ele>612.760010</ele>
  <time>2012-05-06T13:08:44Z</time>
</trkpt>
<trkpt lat="46.251310000" lon="7.471720000">
  <ele>613.200010</ele>
  <time>2012-05-06T13:08:45Z</time>
</trkpt>
<trkpt lat="46.251280000" lon="7.471770000">
  <ele>613.200010</ele>
  <time>2012-05-06T13:08:47Z</time>
</trkpt>
<trkpt lat="46.251220000" lon="7.471850000">
  <ele>614.250000</ele>
  <time>2012-05-06T13:08:51Z</time>
</trkpt>
<trkpt lat="46.251200000" lon="7.471880000">
  <ele>614.512510</ele>
  <time>2012-05-06T13:08:52Z</time>
</trkpt>
<trkpt lat="46.251180000" lon="7.471900000">
  <ele>614.775020</ele>
  <time>2012-05-06T13:08:53Z</time>
</trkpt>
<trkpt lat="46.251160000" lon="7.471920000">
  <ele>615.037540</ele>
  <time>2012-05-06T13:08:54Z</time>
</trkpt>
<trkpt lat="46.251060000" lon="7.472020000">
  <ele>616.350040</ele>
  <time>2012-05-06T13:08:59Z</time>
</trkpt>
<trkpt lat="46.251040000" lon="7.472050000">
  <ele>616.612550</ele>
  <time>2012-05-06T13:09:00Z</time>
</trkpt>
<trkpt lat="46.251030000" lon="7.472070000">
  <ele>616.875000</ele>
  <time>2012-05-06T13:09:01Z</time>
</trkpt>
<trkpt lat="46.251010000" lon="7.472100000">
  <ele>617.137510</ele>
  <time>2012-05-06T13:09:02Z</time>
</trkpt>
<trkpt lat="46.251000000" lon="7.472130000">
  <ele>617.400020</ele>
  <time>2012-05-06T13:09:03Z</time>
</trkpt>
<trkpt lat="46.250990000" lon="7.472200000">
  <ele>617.400020</ele>
  <time>2012-05-06T13:09:05Z</time>
</trkpt>
<trkpt lat="46.251010000" lon="7.472340000">
  <ele>618.200010</ele>
  <time>2012-05-06T13:09:09Z</time>
</trkpt>
<trkpt lat="46.251030000" lon="7.472400000">
  <ele>618.599980</ele>
  <time>2012-05-06T13:09:11Z</time>
</trkpt>
<trkpt lat="46.251050000" lon="7.472440000">
  <ele>618.799990</ele>
  <time>2012-05-06T13:09:12Z</time>
</trkpt>
<trkpt lat="46.251060000" lon="7.472460000">
  <ele>619.000000</ele>
  <time>2012-05-06T13:09:13Z</time>
</trkpt>
<trkpt lat="46.251070000" lon="7.472480000">
  <ele>619.200010</ele>
  <time>2012-05-06T13:09:14Z</time>
</trkpt>
<trkpt lat="46.251090000" lon="7.472500000">
  <ele>619.399960</ele>
  <time>2012-05-06T13:09:15Z</time>
</trkpt>
<trkpt lat="46.251120000" lon="7.472510000">
  <ele>619.599980</ele>
  <time>2012-05-06T13:09:16Z</time>
</trkpt>
<trkpt lat="46.251190000" lon="7.472520000">
  <ele>619.599980</ele>
  <time>2012-05-06T13:09:19Z</time>
</trkpt>
<trkpt lat="46.251280000" lon="7.472490000">
  <ele>620.599980</ele>
  <time>2012-05-06T13:09:23Z</time>
</trkpt>
<trkpt lat="46.251300000" lon="7.472490000">
  <ele>620.849980</ele>
  <time>2012-05-06T13:09:24Z</time>
</trkpt>
<trkpt lat="46.251330000" lon="7.472490000">
  <ele>621.099980</ele>
  <time>2012-05-06T13:09:25Z</time>
</trkpt>
<trkpt lat="46.251350000" lon="7.472490000">
  <ele>621.349980</ele>
  <time>2012-05-06T13:09:26Z</time>
</trkpt>
<trkpt lat="46.251370000" lon="7.472480000">
  <ele>621.599980</ele>
  <time>2012-05-06T13:09:27Z</time>
</trkpt>
<trkpt lat="46.251480000" lon="7.472500000">
  <ele>621.599980</ele>
  <time>2012-05-06T13:09:32Z</time>
</trkpt>
<trkpt lat="46.251520000" lon="7.472520000">
  <ele>622.181820</ele>
  <time>2012-05-06T13:09:34Z</time>
</trkpt>
<trkpt lat="46.251540000" lon="7.472520000">
  <ele>622.472720</ele>
  <time>2012-05-06T13:09:35Z</time>
</trkpt>
<trkpt lat="46.251560000" lon="7.472540000">
  <ele>622.763610</ele>
  <time>2012-05-06T13:09:36Z</time>
</trkpt>
<trkpt lat="46.251580000" lon="7.472550000">
  <ele>623.054500</ele>
  <time>2012-05-06T13:09:37Z</time>
</trkpt>
<trkpt lat="46.251600000" lon="7.472570000">
  <ele>623.345460</ele>
  <time>2012-05-06T13:09:38Z</time>
</trkpt>
<trkpt lat="46.251660000" lon="7.472670000">
  <ele>624.509090</ele>
  <time>2012-05-06T13:09:42Z</time>
</trkpt>
<trkpt lat="46.251680000" lon="7.472700000">
  <ele>624.799990</ele>
  <time>2012-05-06T13:09:43Z</time>
</trkpt>
<trkpt lat="46.251690000" lon="7.472730000">
  <ele>625.090880</ele>
  <time>2012-05-06T13:09:44Z</time>
</trkpt>
<trkpt lat="46.251700000" lon="7.472760000">
  <ele>625.381840</ele>
  <time>2012-05-06T13:09:45Z</time>
</trkpt>
<trkpt lat="46.251720000" lon="7.472910000">
  <ele>626.836360</ele>
  <time>2012-05-06T13:09:50Z</time>
</trkpt>
<trkpt lat="46.251720000" lon="7.472940000">
  <ele>627.127260</ele>
  <time>2012-05-06T13:09:51Z</time>
</trkpt>
<trkpt lat="46.251730000" lon="7.472970000">
  <ele>627.418150</ele>
  <time>2012-05-06T13:09:52Z</time>
</trkpt>
<trkpt lat="46.251730000" lon="7.473000000">
  <ele>627.709110</ele>
  <time>2012-05-06T13:09:53Z</time>
</trkpt>
<trkpt lat="46.251730000" lon="7.473030000">
  <ele>628.000000</ele>
  <time>2012-05-06T13:09:54Z</time>
</trkpt>
<trkpt lat="46.251740000" lon="7.473060000">
  <ele>628.000000</ele>
  <time>2012-05-06T13:09:55Z</time>
</trkpt>
<trkpt lat="46.251740000" lon="7.473150000">
  <ele>628.733340</ele>
  <time>2012-05-06T13:09:58Z</time>
</trkpt>
<trkpt lat="46.251750000" lon="7.473210000">
  <ele>629.222230</ele>
  <time>2012-05-06T13:10:00Z</time>
</trkpt>
<trkpt lat="46.251750000" lon="7.473250000">
  <ele>629.466670</ele>
  <time>2012-05-06T13:10:01Z</time>
</trkpt>
<trkpt lat="46.251750000" lon="7.473280000">
  <ele>629.711120</ele>
  <time>2012-05-06T13:10:02Z</time>
</trkpt>
<trkpt lat="46.251760000" lon="7.473310000">
  <ele>629.955570</ele>
  <time>2012-05-06T13:10:03Z</time>
</trkpt>
<trkpt lat="46.251770000" lon="7.473340000">
  <ele>630.200010</ele>
  <time>2012-05-06T13:10:04Z</time>
</trkpt>
<trkpt lat="46.251770000" lon="7.473370000">
  <ele>630.200010</ele>
  <time>2012-05-06T13:10:05Z</time>
</trkpt>
<trkpt lat="46.251790000" lon="7.473460000">
  <ele>631.057130</ele>
  <time>2012-05-06T13:10:08Z</time>
</trkpt>
<trkpt lat="46.251790000" lon="7.473490000">
  <ele>631.342900</ele>
  <time>2012-05-06T13:10:09Z</time>
</trkpt>
<trkpt lat="46.251800000" lon="7.473520000">
  <ele>631.628600</ele>
  <time>2012-05-06T13:10:10Z</time>
</trkpt>
<trkpt lat="46.251800000" lon="7.473560000">
  <ele>631.914310</ele>
  <time>2012-05-06T13:10:11Z</time>
</trkpt>
<trkpt lat="46.251820000" lon="7.473590000">
  <ele>632.200010</ele>
  <time>2012-05-06T13:10:12Z</time>
</trkpt>
<trkpt lat="46.251820000" lon="7.473620000">
  <ele>632.200010</ele>
  <time>2012-05-06T13:10:13Z</time>
</trkpt>
<trkpt lat="46.251880000" lon="7.473800000">
  <ele>633.666690</ele>
  <time>2012-05-06T13:10:19Z</time>
</trkpt>
<trkpt lat="46.251900000" lon="7.473830000">
  <ele>633.911130</ele>
  <time>2012-05-06T13:10:20Z</time>
</trkpt>
<trkpt lat="46.251910000" lon="7.473860000">
  <ele>634.155580</ele>
  <time>2012-05-06T13:10:21Z</time>
</trkpt>
<trkpt lat="46.251910000" lon="7.473890000">
  <ele>634.400020</ele>
  <time>2012-05-06T13:10:22Z</time>
</trkpt>
<trkpt lat="46.251920000" lon="7.473920000">
  <ele>634.644410</ele>
  <time>2012-05-06T13:10:23Z</time>
</trkpt>
<trkpt lat="46.251970000" lon="7.474070000">
  <ele>635.866640</ele>
  <time>2012-05-06T13:10:28Z</time>
</trkpt>
<trkpt lat="46.251980000" lon="7.474100000">
  <ele>636.111080</ele>
  <time>2012-05-06T13:10:29Z</time>
</trkpt>
<trkpt lat="46.251980000" lon="7.474120000">
  <ele>636.355530</ele>
  <time>2012-05-06T13:10:30Z</time>
</trkpt>
<trkpt lat="46.251990000" lon="7.474150000">
  <ele>636.599980</ele>
  <time>2012-05-06T13:10:31Z</time>
</trkpt>
<trkpt lat="46.252030000" lon="7.474300000">
  <ele>636.599980</ele>
  <time>2012-05-06T13:10:36Z</time>
</trkpt>
<trkpt lat="46.252030000" lon="7.474330000">
  <ele>637.079960</ele>
  <time>2012-05-06T13:10:37Z</time>
</trkpt>
<trkpt lat="46.252040000" lon="7.474370000">
  <ele>637.560000</ele>
  <time>2012-05-06T13:10:38Z</time>
</trkpt>
<trkpt lat="46.252050000" lon="7.474400000">
  <ele>638.039980</ele>
  <time>2012-05-06T13:10:39Z</time>
</trkpt>
<trkpt lat="46.252060000" lon="7.474430000">
  <ele>638.520020</ele>
  <time>2012-05-06T13:10:40Z</time>
</trkpt>
<trkpt lat="46.252070000" lon="7.474460000">
  <ele>639.000000</ele>
  <time>2012-05-06T13:10:41Z</time>
</trkpt>
<trkpt lat="46.252090000" lon="7.474520000">
  <ele>639.000000</ele>
  <time>2012-05-06T13:10:43Z</time>
</trkpt>
<trkpt lat="46.252110000" lon="7.474590000">
  <ele>639.666690</ele>
  <time>2012-05-06T13:10:45Z</time>
</trkpt>
<trkpt lat="46.252120000" lon="7.474620000">
  <ele>640.000000</ele>
  <time>2012-05-06T13:10:46Z</time>
</trkpt>
<trkpt lat="46.252120000" lon="7.474650000">
  <ele>640.333310</ele>
  <time>2012-05-06T13:10:47Z</time>
</trkpt>
<trkpt lat="46.252130000" lon="7.474690000">
  <ele>640.666690</ele>
  <time>2012-05-06T13:10:48Z</time>
</trkpt>
<trkpt lat="46.252140000" lon="7.474720000">
  <ele>641.000000</ele>
  <time>2012-05-06T13:10:49Z</time>
</trkpt>
<trkpt lat="46.252160000" lon="7.474790000">
  <ele>641.000000</ele>
  <time>2012-05-06T13:10:51Z</time>
</trkpt>
<trkpt lat="46.252190000" lon="7.474940000">
  <ele>642.157900</ele>
  <time>2012-05-06T13:10:56Z</time>
</trkpt>
<trkpt lat="46.252190000" lon="7.474970000">
  <ele>642.389470</ele>
  <time>2012-05-06T13:10:57Z</time>
</trkpt>
<trkpt lat="46.252200000" lon="7.475000000">
  <ele>642.621030</ele>
  <time>2012-05-06T13:10:58Z</time>
</trkpt>
<trkpt lat="46.252200000" lon="7.475040000">
  <ele>642.852660</ele>
  <time>2012-05-06T13:10:59Z</time>
</trkpt>
<trkpt lat="46.252270000" lon="7.475250000">
  <ele>644.473690</ele>
  <time>2012-05-06T13:11:06Z</time>
</trkpt>
<trkpt lat="46.252270000" lon="7.475280000">
  <ele>644.705260</ele>
  <time>2012-05-06T13:11:07Z</time>
</trkpt>
<trkpt lat="46.252280000" lon="7.475310000">
  <ele>644.936890</ele>
  <time>2012-05-06T13:11:08Z</time>
</trkpt>
<trkpt lat="46.252290000" lon="7.475330000">
  <ele>645.168460</ele>
  <time>2012-05-06T13:11:09Z</time>
</trkpt>
<trkpt lat="46.252300000" lon="7.475360000">
  <ele>645.400020</ele>
  <time>2012-05-06T13:11:10Z</time>
</trkpt>
<trkpt lat="46.252340000" lon="7.475490000">
  <ele>645.400020</ele>
  <time>2012-05-06T13:11:14Z</time>
</trkpt>
<trkpt lat="46.252340000" lon="7.475530000">
  <ele>645.800050</ele>
  <time>2012-05-06T13:11:15Z</time>
</trkpt>
<trkpt lat="46.252350000" lon="7.475560000">
  <ele>646.200010</ele>
  <time>2012-05-06T13:11:16Z</time>
</trkpt>
<trkpt lat="46.252350000" lon="7.475590000">
  <ele>646.600040</ele>
  <time>2012-05-06T13:11:17Z</time>
</trkpt>
<trkpt lat="46.252350000" lon="7.475630000">
  <ele>647.000000</ele>
  <time>2012-05-06T13:11:18Z</time>
</trkpt>
<trkpt lat="46.252350000" lon="7.475660000">
  <ele>647.400020</ele>
  <time>2012-05-06T13:11:19Z</time>
</trkpt>
<trkpt lat="46.252350000" lon="7.475730000">
  <ele>647.400020</ele>
  <time>2012-05-06T13:11:21Z</time>
</trkpt>
<trkpt lat="46.252340000" lon="7.475790000">
  <ele>647.960020</ele>
  <time>2012-05-06T13:11:23Z</time>
</trkpt>
<trkpt lat="46.252330000" lon="7.475820000">
  <ele>648.239990</ele>
  <time>2012-05-06T13:11:24Z</time>
</trkpt>
<trkpt lat="46.252330000" lon="7.475860000">
  <ele>648.520020</ele>
  <time>2012-05-06T13:11:25Z</time>
</trkpt>
<trkpt lat="46.252320000" lon="7.475890000">
  <ele>648.799990</ele>
  <time>2012-05-06T13:11:26Z</time>
</trkpt>
<trkpt lat="46.252310000" lon="7.475920000">
  <ele>649.080020</ele>
  <time>2012-05-06T13:11:27Z</time>
</trkpt>
<trkpt lat="46.252260000" lon="7.476070000">
  <ele>650.479980</ele>
  <time>2012-05-06T13:11:32Z</time>
</trkpt>
<trkpt lat="46.252250000" lon="7.476100000">
  <ele>650.760010</ele>
  <time>2012-05-06T13:11:33Z</time>
</trkpt>
<trkpt lat="46.252240000" lon="7.476130000">
  <ele>651.039980</ele>
  <time>2012-05-06T13:11:34Z</time>
</trkpt>
<trkpt lat="46.252230000" lon="7.476160000">
  <ele>651.320010</ele>
  <time>2012-05-06T13:11:35Z</time>
</trkpt>
<trkpt lat="46.252220000" lon="7.476190000">
  <ele>651.599980</ele>
  <time>2012-05-06T13:11:36Z</time>
</trkpt>
<trkpt lat="46.252170000" lon="7.476390000">
  <ele>651.599980</ele>
  <time>2012-05-06T13:11:42Z</time>
</trkpt>
<trkpt lat="46.252170000" lon="7.476420000">
  <ele>652.149960</ele>
  <time>2012-05-06T13:11:43Z</time>
</trkpt>
<trkpt lat="46.252160000" lon="7.476460000">
  <ele>652.699950</ele>
  <time>2012-05-06T13:11:44Z</time>
</trkpt>
<trkpt lat="46.252160000" lon="7.476490000">
  <ele>653.250000</ele>
  <time>2012-05-06T13:11:45Z</time>
</trkpt>
<trkpt lat="46.252160000" lon="7.476520000">
  <ele>653.799990</ele>
  <time>2012-05-06T13:11:46Z</time>
</trkpt>
<trkpt lat="46.252170000" lon="7.476630000">
  <ele>653.799990</ele>
  <time>2012-05-06T13:11:49Z</time>
</trkpt>
<trkpt lat="46.252190000" lon="7.476690000">
  <ele>654.533330</ele>
  <time>2012-05-06T13:11:51Z</time>
</trkpt>
<trkpt lat="46.252200000" lon="7.476720000">
  <ele>654.900020</ele>
  <time>2012-05-06T13:11:52Z</time>
</trkpt>
<trkpt lat="46.252210000" lon="7.476750000">
  <ele>655.266660</ele>
  <time>2012-05-06T13:11:53Z</time>
</trkpt>
<trkpt lat="46.252220000" lon="7.476780000">
  <ele>655.633300</ele>
  <time>2012-05-06T13:11:54Z</time>
</trkpt>
<trkpt lat="46.252240000" lon="7.476800000">
  <ele>656.000000</ele>
  <time>2012-05-06T13:11:55Z</time>
</trkpt>
<trkpt lat="46.252360000" lon="7.476930000">
  <ele>656.000000</ele>
  <time>2012-05-06T13:12:01Z</time>
</trkpt>
<trkpt lat="46.252420000" lon="7.476980000">
  <ele>656.900020</ele>
  <time>2012-05-06T13:12:04Z</time>
</trkpt>
<trkpt lat="46.252440000" lon="7.477000000">
  <ele>657.200010</ele>
  <time>2012-05-06T13:12:05Z</time>
</trkpt>
<trkpt lat="46.252460000" lon="7.477020000">
  <ele>657.500000</ele>
  <time>2012-05-06T13:12:06Z</time>
</trkpt>
<trkpt lat="46.252480000" lon="7.477030000">
  <ele>657.799990</ele>
  <time>2012-05-06T13:12:07Z</time>
</trkpt>
<trkpt lat="46.252510000" lon="7.477050000">
  <ele>658.099980</ele>
  <time>2012-05-06T13:12:08Z</time>
</trkpt>
<trkpt lat="46.252570000" lon="7.477100000">
  <ele>659.000000</ele>
  <time>2012-05-06T13:12:11Z</time>
</trkpt>
<trkpt lat="46.252590000" lon="7.477120000">
  <ele>659.299990</ele>
  <time>2012-05-06T13:12:12Z</time>
</trkpt>
<trkpt lat="46.252610000" lon="7.477150000">
  <ele>659.600040</ele>
  <time>2012-05-06T13:12:13Z</time>
</trkpt>
<trkpt lat="46.252630000" lon="7.477170000">
  <ele>659.900020</ele>
  <time>2012-05-06T13:12:14Z</time>
</trkpt>
<trkpt lat="46.252640000" lon="7.477200000">
  <ele>660.200010</ele>
  <time>2012-05-06T13:12:15Z</time>
</trkpt>
<trkpt lat="46.252660000" lon="7.477220000">
  <ele>660.200010</ele>
  <time>2012-05-06T13:12:16Z</time>
</trkpt>
<trkpt lat="46.252720000" lon="7.477330000">
  <ele>661.086490</ele>
  <time>2012-05-06T13:12:20Z</time>
</trkpt>
<trkpt lat="46.252730000" lon="7.477360000">
  <ele>661.308110</ele>
  <time>2012-05-06T13:12:21Z</time>
</trkpt>
<trkpt lat="46.252740000" lon="7.477390000">
  <ele>661.529720</ele>
  <time>2012-05-06T13:12:22Z</time>
</trkpt>
<trkpt lat="46.252750000" lon="7.477420000">
  <ele>661.751340</ele>
  <time>2012-05-06T13:12:23Z</time>
</trkpt>
<trkpt lat="46.252760000" lon="7.477450000">
  <ele>661.972960</ele>
  <time>2012-05-06T13:12:24Z</time>
</trkpt>
<trkpt lat="46.252830000" lon="7.477630000">
  <ele>663.302730</ele>
  <time>2012-05-06T13:12:30Z</time>
</trkpt>
<trkpt lat="46.252840000" lon="7.477660000">
  <ele>663.524350</ele>
  <time>2012-05-06T13:12:31Z</time>
</trkpt>
<trkpt lat="46.252850000" lon="7.477690000">
  <ele>663.745970</ele>
  <time>2012-05-06T13:12:32Z</time>
</trkpt>
<trkpt lat="46.252860000" lon="7.477720000">
  <ele>663.967590</ele>
  <time>2012-05-06T13:12:33Z</time>
</trkpt>
<trkpt lat="46.252870000" lon="7.477760000">
  <ele>664.189210</ele>
  <time>2012-05-06T13:12:34Z</time>
</trkpt>
<trkpt lat="46.252910000" lon="7.477950000">
  <ele>665.518920</ele>
  <time>2012-05-06T13:12:40Z</time>
</trkpt>
<trkpt lat="46.252920000" lon="7.477990000">
  <ele>665.740540</ele>
  <time>2012-05-06T13:12:41Z</time>
</trkpt>
<trkpt lat="46.252930000" lon="7.478020000">
  <ele>665.962160</ele>
  <time>2012-05-06T13:12:42Z</time>
</trkpt>
<trkpt lat="46.252930000" lon="7.478050000">
  <ele>666.183780</ele>
  <time>2012-05-06T13:12:43Z</time>
</trkpt>
<trkpt lat="46.252940000" lon="7.478080000">
  <ele>666.405460</ele>
  <time>2012-05-06T13:12:44Z</time>
</trkpt>
<trkpt lat="46.252940000" lon="7.478250000">
  <ele>667.513550</ele>
  <time>2012-05-06T13:12:49Z</time>
</trkpt>
<trkpt lat="46.252940000" lon="7.478280000">
  <ele>667.735170</ele>
  <time>2012-05-06T13:12:50Z</time>
</trkpt>
<trkpt lat="46.252940000" lon="7.478320000">
  <ele>667.956790</ele>
  <time>2012-05-06T13:12:51Z</time>
</trkpt>
<trkpt lat="46.252940000" lon="7.478350000">
  <ele>668.178410</ele>
  <time>2012-05-06T13:12:52Z</time>
</trkpt>
<trkpt lat="46.252930000" lon="7.478390000">
  <ele>668.400020</ele>
  <time>2012-05-06T13:12:53Z</time>
</trkpt>
<trkpt lat="46.252910000" lon="7.478520000">
  <ele>668.400020</ele>
  <time>2012-05-06T13:12:57Z</time>
</trkpt>
<trkpt lat="46.252900000" lon="7.478580000">
  <ele>669.280030</ele>
  <time>2012-05-06T13:12:59Z</time>
</trkpt>
<trkpt lat="46.252890000" lon="7.478610000">
  <ele>669.719970</ele>
  <time>2012-05-06T13:13:00Z</time>
</trkpt>
<trkpt lat="46.252880000" lon="7.478640000">
  <ele>670.159970</ele>
  <time>2012-05-06T13:13:01Z</time>
</trkpt>
<trkpt lat="46.252880000" lon="7.478670000">
  <ele>670.599980</ele>
  <time>2012-05-06T13:13:02Z</time>
</trkpt>
<trkpt lat="46.252840000" lon="7.478760000">
  <ele>670.599980</ele>
  <time>2012-05-06T13:13:05Z</time>
</trkpt>
<trkpt lat="46.252830000" lon="7.478780000">
  <ele>671.039980</ele>
  <time>2012-05-06T13:13:06Z</time>
</trkpt>
<trkpt lat="46.252820000" lon="7.478810000">
  <ele>671.479980</ele>
  <time>2012-05-06T13:13:07Z</time>
</trkpt>
<trkpt lat="46.252810000" lon="7.478840000">
  <ele>671.919980</ele>
  <time>2012-05-06T13:13:08Z</time>
</trkpt>
<trkpt lat="46.252800000" lon="7.478870000">
  <ele>672.359990</ele>
  <time>2012-05-06T13:13:09Z</time>
</trkpt>
<trkpt lat="46.252780000" lon="7.478890000">
  <ele>672.799990</ele>
  <time>2012-05-06T13:13:10Z</time>
</trkpt>
<trkpt lat="46.252750000" lon="7.478940000">
  <ele>672.799990</ele>
  <time>2012-05-06T13:13:12Z</time>
</trkpt>
<trkpt lat="46.252710000" lon="7.479030000">
  <ele>673.742860</ele>
  <time>2012-05-06T13:13:15Z</time>
</trkpt>
<trkpt lat="46.252700000" lon="7.479060000">
  <ele>674.057130</ele>
  <time>2012-05-06T13:13:16Z</time>
</trkpt>
<trkpt lat="46.252700000" lon="7.479100000">
  <ele>674.371400</ele>
  <time>2012-05-06T13:13:17Z</time>
</trkpt>
<trkpt lat="46.252700000" lon="7.479140000">
  <ele>674.685730</ele>
  <time>2012-05-06T13:13:18Z</time>
</trkpt>
<trkpt lat="46.252700000" lon="7.479170000">
  <ele>675.000000</ele>
  <time>2012-05-06T13:13:19Z</time>
</trkpt>
<trkpt lat="46.252710000" lon="7.479300000">
  <ele>675.000000</ele>
  <time>2012-05-06T13:13:23Z</time>
</trkpt>
<trkpt lat="46.252720000" lon="7.479410000">
  <ele>675.741150</ele>
  <time>2012-05-06T13:13:26Z</time>
</trkpt>
<trkpt lat="46.252720000" lon="7.479430000">
  <ele>675.988220</ele>
  <time>2012-05-06T13:13:27Z</time>
</trkpt>
<trkpt lat="46.252730000" lon="7.479470000">
  <ele>676.235290</ele>
  <time>2012-05-06T13:13:28Z</time>
</trkpt>
<trkpt lat="46.252730000" lon="7.479500000">
  <ele>676.482360</ele>
  <time>2012-05-06T13:13:29Z</time>
</trkpt>
<trkpt lat="46.252740000" lon="7.479540000">
  <ele>676.729430</ele>
  <time>2012-05-06T13:13:30Z</time>
</trkpt>
<trkpt lat="46.252750000" lon="7.479730000">
  <ele>678.211790</ele>
  <time>2012-05-06T13:13:36Z</time>
</trkpt>
<trkpt lat="46.252750000" lon="7.479760000">
  <ele>678.458860</ele>
  <time>2012-05-06T13:13:37Z</time>
</trkpt>
<trkpt lat="46.252750000" lon="7.479790000">
  <ele>678.705870</ele>
  <time>2012-05-06T13:13:38Z</time>
</trkpt>
<trkpt lat="46.252750000" lon="7.479820000">
  <ele>678.952940</ele>
  <time>2012-05-06T13:13:39Z</time>
</trkpt>
<trkpt lat="46.252760000" lon="7.479860000">
  <ele>679.200010</ele>
  <time>2012-05-06T13:13:40Z</time>
</trkpt>
<trkpt lat="46.252770000" lon="7.480020000">
  <ele>679.200010</ele>
  <time>2012-05-06T13:13:45Z</time>
</trkpt>
<trkpt lat="46.252770000" lon="7.480050000">
  <ele>679.640010</ele>
  <time>2012-05-06T13:13:46Z</time>
</trkpt>
<trkpt lat="46.252770000" lon="7.480080000">
  <ele>680.080020</ele>
  <time>2012-05-06T13:13:47Z</time>
</trkpt>
<trkpt lat="46.252780000" lon="7.480120000">
  <ele>680.520020</ele>
  <time>2012-05-06T13:13:48Z</time>
</trkpt>
<trkpt lat="46.252780000" lon="7.480150000">
  <ele>680.960020</ele>
  <time>2012-05-06T13:13:49Z</time>
</trkpt>
<trkpt lat="46.252780000" lon="7.480190000">
  <ele>681.400020</ele>
  <time>2012-05-06T13:13:50Z</time>
</trkpt>
<trkpt lat="46.252790000" lon="7.480280000">
  <ele>681.400020</ele>
  <time>2012-05-06T13:13:53Z</time>
</trkpt>
<trkpt lat="46.252800000" lon="7.480310000">
  <ele>681.880000</ele>
  <time>2012-05-06T13:13:54Z</time>
</trkpt>
<trkpt lat="46.252800000" lon="7.480350000">
  <ele>682.359990</ele>
  <time>2012-05-06T13:13:55Z</time>
</trkpt>
<trkpt lat="46.252800000" lon="7.480380000">
  <ele>682.840030</ele>
  <time>2012-05-06T13:13:56Z</time>
</trkpt>
<trkpt lat="46.252800000" lon="7.480410000">
  <ele>683.320010</ele>
  <time>2012-05-06T13:13:57Z</time>
</trkpt>
<trkpt lat="46.252800000" lon="7.480450000">
  <ele>683.799990</ele>
  <time>2012-05-06T13:13:58Z</time>
</trkpt>
<trkpt lat="46.252800000" lon="7.480520000">
  <ele>683.799990</ele>
  <time>2012-05-06T13:14:00Z</time>
</trkpt>
<trkpt lat="46.252780000" lon="7.480650000">
  <ele>684.799990</ele>
  <time>2012-05-06T13:14:04Z</time>
</trkpt>
<trkpt lat="46.252780000" lon="7.480680000">
  <ele>685.049990</ele>
  <time>2012-05-06T13:14:05Z</time>
</trkpt>
<trkpt lat="46.252780000" lon="7.480710000">
  <ele>685.299990</ele>
  <time>2012-05-06T13:14:06Z</time>
</trkpt>
<trkpt lat="46.252770000" lon="7.480750000">
  <ele>685.549990</ele>
  <time>2012-05-06T13:14:07Z</time>
</trkpt>
<trkpt lat="46.252770000" lon="7.480780000">
  <ele>685.799990</ele>
  <time>2012-05-06T13:14:08Z</time>
</trkpt>
<trkpt lat="46.252760000" lon="7.480940000">
  <ele>685.799990</ele>
  <time>2012-05-06T13:14:13Z</time>
</trkpt>
<trkpt lat="46.252760000" lon="7.480980000">
  <ele>686.349980</ele>
  <time>2012-05-06T13:14:14Z</time>
</trkpt>
<trkpt lat="46.252760000" lon="7.481010000">
  <ele>686.900020</ele>
  <time>2012-05-06T13:14:15Z</time>
</trkpt>
<trkpt lat="46.252760000" lon="7.481050000">
  <ele>687.450010</ele>
  <time>2012-05-06T13:14:16Z</time>
</trkpt>
<trkpt lat="46.252760000" lon="7.481080000">
  <ele>688.000000</ele>
  <time>2012-05-06T13:14:17Z</time>
</trkpt>
<trkpt lat="46.252750000" lon="7.481180000">
  <ele>688.000000</ele>
  <time>2012-05-06T13:14:20Z</time>
</trkpt>
<trkpt lat="46.252760000" lon="7.481280000">
  <ele>688.768010</ele>
  <time>2012-05-06T13:14:23Z</time>
</trkpt>
<trkpt lat="46.252760000" lon="7.481320000">
  <ele>689.023990</ele>
  <time>2012-05-06T13:14:24Z</time>
</trkpt>
<trkpt lat="46.252760000" lon="7.481350000">
  <ele>689.280030</ele>
  <time>2012-05-06T13:14:25Z</time>
</trkpt>
<trkpt lat="46.252760000" lon="7.481380000">
  <ele>689.536010</ele>
  <time>2012-05-06T13:14:26Z</time>
</trkpt>
<trkpt lat="46.252770000" lon="7.481420000">
  <ele>689.791990</ele>
  <time>2012-05-06T13:14:27Z</time>
</trkpt>
<trkpt lat="46.252780000" lon="7.481590000">
  <ele>691.072020</ele>
  <time>2012-05-06T13:14:32Z</time>
</trkpt>
<trkpt lat="46.252790000" lon="7.481620000">
  <ele>691.328000</ele>
  <time>2012-05-06T13:14:33Z</time>
</trkpt>
<trkpt lat="46.252790000" lon="7.481650000">
  <ele>691.583980</ele>
  <time>2012-05-06T13:14:34Z</time>
</trkpt>
<trkpt lat="46.252800000" lon="7.481690000">
  <ele>691.840030</ele>
  <time>2012-05-06T13:14:35Z</time>
</trkpt>
<trkpt lat="46.252800000" lon="7.481720000">
  <ele>692.096010</ele>
  <time>2012-05-06T13:14:36Z</time>
</trkpt>
<trkpt lat="46.252830000" lon="7.481890000">
  <ele>693.376040</ele>
  <time>2012-05-06T13:14:41Z</time>
</trkpt>
<trkpt lat="46.252840000" lon="7.481920000">
  <ele>693.632020</ele>
  <time>2012-05-06T13:14:42Z</time>
</trkpt>
<trkpt lat="46.252850000" lon="7.481950000">
  <ele>693.888000</ele>
  <time>2012-05-06T13:14:43Z</time>
</trkpt>
<trkpt lat="46.252850000" lon="7.481980000">
  <ele>694.144040</ele>
  <time>2012-05-06T13:14:44Z</time>
</trkpt>
<trkpt lat="46.252860000" lon="7.482010000">
  <ele>694.400020</ele>
  <time>2012-05-06T13:14:45Z</time>
</trkpt>
<trkpt lat="46.252890000" lon="7.482140000">
  <ele>694.400020</ele>
  <time>2012-05-06T13:14:49Z</time>
</trkpt>
<trkpt lat="46.252900000" lon="7.482170000">
  <ele>694.723080</ele>
  <time>2012-05-06T13:14:50Z</time>
</trkpt>
<trkpt lat="46.252900000" lon="7.482200000">
  <ele>695.046140</ele>
  <time>2012-05-06T13:14:51Z</time>
</trkpt>
<trkpt lat="46.252910000" lon="7.482240000">
  <ele>695.369260</ele>
  <time>2012-05-06T13:14:52Z</time>
</trkpt>
<trkpt lat="46.252910000" lon="7.482270000">
  <ele>695.692320</ele>
  <time>2012-05-06T13:14:53Z</time>
</trkpt>
<trkpt lat="46.252920000" lon="7.482310000">
  <ele>696.015380</ele>
  <time>2012-05-06T13:14:54Z</time>
</trkpt>
<trkpt lat="46.252920000" lon="7.482450000">
  <ele>697.307680</ele>
  <time>2012-05-06T13:14:58Z</time>
</trkpt>
<trkpt lat="46.252910000" lon="7.482480000">
  <ele>697.630740</ele>
  <time>2012-05-06T13:14:59Z</time>
</trkpt>
<trkpt lat="46.252910000" lon="7.482520000">
  <ele>697.953860</ele>
  <time>2012-05-06T13:15:00Z</time>
</trkpt>
<trkpt lat="46.252900000" lon="7.482550000">
  <ele>698.276920</ele>
  <time>2012-05-06T13:15:01Z</time>
</trkpt>
<trkpt lat="46.252890000" lon="7.482580000">
  <ele>698.599980</ele>
  <time>2012-05-06T13:15:02Z</time>
</trkpt>
<trkpt lat="46.252850000" lon="7.482700000">
  <ele>698.599980</ele>
  <time>2012-05-06T13:15:06Z</time>
</trkpt>
<trkpt lat="46.252840000" lon="7.482730000">
  <ele>699.000000</ele>
  <time>2012-05-06T13:15:07Z</time>
</trkpt>
<trkpt lat="46.252830000" lon="7.482760000">
  <ele>699.399960</ele>
  <time>2012-05-06T13:15:08Z</time>
</trkpt>
<trkpt lat="46.252820000" lon="7.482780000">
  <ele>699.799990</ele>
  <time>2012-05-06T13:15:09Z</time>
</trkpt>
<trkpt lat="46.252800000" lon="7.482820000">
  <ele>700.199950</ele>
  <time>2012-05-06T13:15:10Z</time>
</trkpt>
<trkpt lat="46.252790000" lon="7.482840000">
  <ele>700.599980</ele>
  <time>2012-05-06T13:15:11Z</time>
</trkpt>
<trkpt lat="46.252770000" lon="7.482900000">
  <ele>700.599980</ele>
  <time>2012-05-06T13:15:13Z</time>
</trkpt>
<trkpt lat="46.252730000" lon="7.482990000">
  <ele>701.457090</ele>
  <time>2012-05-06T13:15:16Z</time>
</trkpt>
<trkpt lat="46.252700000" lon="7.483010000">
  <ele>701.742860</ele>
  <time>2012-05-06T13:15:17Z</time>
</trkpt>
<trkpt lat="46.252690000" lon="7.483040000">
  <ele>702.028560</ele>
  <time>2012-05-06T13:15:18Z</time>
</trkpt>
<trkpt lat="46.252680000" lon="7.483070000">
  <ele>702.314270</ele>
  <time>2012-05-06T13:15:19Z</time>
</trkpt>
<trkpt lat="46.252670000" lon="7.483110000">
  <ele>702.599980</ele>
  <time>2012-05-06T13:15:20Z</time>
</trkpt>
<trkpt lat="46.252690000" lon="7.483290000">
  <ele>702.599980</ele>
  <time>2012-05-06T13:15:25Z</time>
</trkpt>
<trkpt lat="46.252700000" lon="7.483350000">
  <ele>703.479980</ele>
  <time>2012-05-06T13:15:27Z</time>
</trkpt>
<trkpt lat="46.252710000" lon="7.483390000">
  <ele>703.919980</ele>
  <time>2012-05-06T13:15:28Z</time>
</trkpt>
<trkpt lat="46.252730000" lon="7.483420000">
  <ele>704.359990</ele>
  <time>2012-05-06T13:15:29Z</time>
</trkpt>
<trkpt lat="46.252740000" lon="7.483450000">
  <ele>704.799990</ele>
  <time>2012-05-06T13:15:30Z</time>
</trkpt>
<trkpt lat="46.252750000" lon="7.483480000">
  <ele>704.799990</ele>
  <time>2012-05-06T13:15:31Z</time>
</trkpt>
<trkpt lat="46.252760000" lon="7.483520000">
  <ele>705.062500</ele>
  <time>2012-05-06T13:15:32Z</time>
</trkpt>
<trkpt lat="46.252800000" lon="7.483610000">
  <ele>705.849980</ele>
  <time>2012-05-06T13:15:35Z</time>
</trkpt>
<trkpt lat="46.252810000" lon="7.483650000">
  <ele>706.112490</ele>
  <time>2012-05-06T13:15:36Z</time>
</trkpt>
<trkpt lat="46.252820000" lon="7.483690000">
  <ele>706.375000</ele>
  <time>2012-05-06T13:15:37Z</time>
</trkpt>
<trkpt lat="46.252820000" lon="7.483720000">
  <ele>706.637510</ele>
  <time>2012-05-06T13:15:38Z</time>
</trkpt>
<trkpt lat="46.252830000" lon="7.483750000">
  <ele>706.900020</ele>
  <time>2012-05-06T13:15:39Z</time>
</trkpt>
<trkpt lat="46.252820000" lon="7.483880000">
  <ele>707.950010</ele>
  <time>2012-05-06T13:15:43Z</time>
</trkpt>
<trkpt lat="46.252820000" lon="7.483910000">
  <ele>708.212520</ele>
  <time>2012-05-06T13:15:44Z</time>
</trkpt>
<trkpt lat="46.252810000" lon="7.483940000">
  <ele>708.474980</ele>
  <time>2012-05-06T13:15:45Z</time>
</trkpt>
<trkpt lat="46.252810000" lon="7.483970000">
  <ele>708.737490</ele>
  <time>2012-05-06T13:15:46Z</time>
</trkpt>
<trkpt lat="46.252810000" lon="7.484000000">
  <ele>709.000000</ele>
  <time>2012-05-06T13:15:47Z</time>
</trkpt>
<trkpt lat="46.252800000" lon="7.484130000">
  <ele>709.000000</ele>
  <time>2012-05-06T13:15:51Z</time>
</trkpt>
<trkpt lat="46.252800000" lon="7.484160000">
  <ele>709.338440</ele>
  <time>2012-05-06T13:15:52Z</time>
</trkpt>
<trkpt lat="46.252800000" lon="7.484190000">
  <ele>709.676940</ele>
  <time>2012-05-06T13:15:53Z</time>
</trkpt>
<trkpt lat="46.252800000" lon="7.484220000">
  <ele>710.015380</ele>
  <time>2012-05-06T13:15:54Z</time>
</trkpt>
<trkpt lat="46.252800000" lon="7.484260000">
  <ele>710.353880</ele>
  <time>2012-05-06T13:15:55Z</time>
</trkpt>
<trkpt lat="46.252790000" lon="7.484410000">
  <ele>712.046140</ele>
  <time>2012-05-06T13:16:00Z</time>
</trkpt>
<trkpt lat="46.252780000" lon="7.484440000">
  <ele>712.384640</ele>
  <time>2012-05-06T13:16:01Z</time>
</trkpt>
<trkpt lat="46.252770000" lon="7.484470000">
  <ele>712.723080</ele>
  <time>2012-05-06T13:16:02Z</time>
</trkpt>
<trkpt lat="46.252760000" lon="7.484500000">
  <ele>713.061580</ele>
  <time>2012-05-06T13:16:03Z</time>
</trkpt>
<trkpt lat="46.252750000" lon="7.484520000">
  <ele>713.400020</ele>
  <time>2012-05-06T13:16:04Z</time>
</trkpt>
<trkpt lat="46.252710000" lon="7.484600000">
  <ele>713.400020</ele>
  <time>2012-05-06T13:16:07Z</time>
</trkpt>
<trkpt lat="46.252680000" lon="7.484640000">
  <ele>714.066710</ele>
  <time>2012-05-06T13:16:09Z</time>
</trkpt>
<trkpt lat="46.252670000" lon="7.484670000">
  <ele>714.400020</ele>
  <time>2012-05-06T13:16:10Z</time>
</trkpt>
<trkpt lat="46.252650000" lon="7.484700000">
  <ele>714.733340</ele>
  <time>2012-05-06T13:16:11Z</time>
</trkpt>
<trkpt lat="46.252640000" lon="7.484730000">
  <ele>715.066710</ele>
  <time>2012-05-06T13:16:12Z</time>
</trkpt>
<trkpt lat="46.252620000" lon="7.484760000">
  <ele>715.400020</ele>
  <time>2012-05-06T13:16:13Z</time>
</trkpt>
<trkpt lat="46.252610000" lon="7.484790000">
  <ele>715.400020</ele>
  <time>2012-05-06T13:16:14Z</time>
</trkpt>
<trkpt lat="46.252590000" lon="7.484890000">
  <ele>716.257140</ele>
  <time>2012-05-06T13:16:17Z</time>
</trkpt>
<trkpt lat="46.252580000" lon="7.484920000">
  <ele>716.542910</ele>
  <time>2012-05-06T13:16:18Z</time>
</trkpt>
<trkpt lat="46.252580000" lon="7.484960000">
  <ele>716.828610</ele>
  <time>2012-05-06T13:16:19Z</time>
</trkpt>
<trkpt lat="46.252580000" lon="7.484990000">
  <ele>717.114320</ele>
  <time>2012-05-06T13:16:20Z</time>
</trkpt>
<trkpt lat="46.252590000" lon="7.485020000">
  <ele>717.400020</ele>
  <time>2012-05-06T13:16:21Z</time>
</trkpt>
<trkpt lat="46.252630000" lon="7.485240000">
  <ele>717.400020</ele>
  <time>2012-05-06T13:16:28Z</time>
</trkpt>
<trkpt lat="46.252640000" lon="7.485270000">
  <ele>717.840030</ele>
  <time>2012-05-06T13:16:29Z</time>
</trkpt>
<trkpt lat="46.252660000" lon="7.485300000">
  <ele>718.280030</ele>
  <time>2012-05-06T13:16:30Z</time>
</trkpt>
<trkpt lat="46.252670000" lon="7.485330000">
  <ele>718.719970</ele>
  <time>2012-05-06T13:16:31Z</time>
</trkpt>
<trkpt lat="46.252680000" lon="7.485360000">
  <ele>719.159970</ele>
  <time>2012-05-06T13:16:32Z</time>
</trkpt>
<trkpt lat="46.252690000" lon="7.485390000">
  <ele>719.599980</ele>
  <time>2012-05-06T13:16:33Z</time>
</trkpt>
<trkpt lat="46.252700000" lon="7.485460000">
  <ele>719.599980</ele>
  <time>2012-05-06T13:16:35Z</time>
</trkpt>
<trkpt lat="46.252720000" lon="7.485550000">
  <ele>720.367980</ele>
  <time>2012-05-06T13:16:38Z</time>
</trkpt>
<trkpt lat="46.252720000" lon="7.485590000">
  <ele>720.623960</ele>
  <time>2012-05-06T13:16:39Z</time>
</trkpt>
<trkpt lat="46.252720000" lon="7.485620000">
  <ele>720.880000</ele>
  <time>2012-05-06T13:16:40Z</time>
</trkpt>
<trkpt lat="46.252710000" lon="7.485650000">
  <ele>721.135990</ele>
  <time>2012-05-06T13:16:41Z</time>
</trkpt>
<trkpt lat="46.252710000" lon="7.485690000">
  <ele>721.391970</ele>
  <time>2012-05-06T13:16:42Z</time>
</trkpt>
<trkpt lat="46.252700000" lon="7.485860000">
  <ele>722.672000</ele>
  <time>2012-05-06T13:16:47Z</time>
</trkpt>
<trkpt lat="46.252710000" lon="7.485890000">
  <ele>722.927980</ele>
  <time>2012-05-06T13:16:48Z</time>
</trkpt>
<trkpt lat="46.252710000" lon="7.485920000">
  <ele>723.183960</ele>
  <time>2012-05-06T13:16:49Z</time>
</trkpt>
<trkpt lat="46.252720000" lon="7.485960000">
  <ele>723.440000</ele>
  <time>2012-05-06T13:16:50Z</time>
</trkpt>
<trkpt lat="46.252730000" lon="7.485990000">
  <ele>723.695980</ele>
  <time>2012-05-06T13:16:51Z</time>
</trkpt>
<trkpt lat="46.252750000" lon="7.486160000">
  <ele>724.976010</ele>
  <time>2012-05-06T13:16:56Z</time>
</trkpt>
<trkpt lat="46.252750000" lon="7.486190000">
  <ele>725.231990</ele>
  <time>2012-05-06T13:16:57Z</time>
</trkpt>
<trkpt lat="46.252750000" lon="7.486230000">
  <ele>725.487980</ele>
  <time>2012-05-06T13:16:58Z</time>
</trkpt>
<trkpt lat="46.252740000" lon="7.486260000">
  <ele>725.744020</ele>
  <time>2012-05-06T13:16:59Z</time>
</trkpt>
<trkpt lat="46.252740000" lon="7.486300000">
  <ele>726.000000</ele>
  <time>2012-05-06T13:17:00Z</time>
</trkpt>
<trkpt lat="46.252750000" lon="7.486470000">
  <ele>726.000000</ele>
  <time>2012-05-06T13:17:05Z</time>
</trkpt>
<trkpt lat="46.252750000" lon="7.486500000">
  <ele>726.549990</ele>
  <time>2012-05-06T13:17:06Z</time>
</trkpt>
<trkpt lat="46.252760000" lon="7.486530000">
  <ele>727.099980</ele>
  <time>2012-05-06T13:17:07Z</time>
</trkpt>
<trkpt lat="46.252760000" lon="7.486560000">
  <ele>727.650020</ele>
  <time>2012-05-06T13:17:08Z</time>
</trkpt>
<trkpt lat="46.252770000" lon="7.486590000">
  <ele>728.200010</ele>
  <time>2012-05-06T13:17:09Z</time>
</trkpt>
<trkpt lat="46.252800000" lon="7.486680000">
  <ele>728.200010</ele>
  <time>2012-05-06T13:17:12Z</time>
</trkpt>
<trkpt lat="46.252830000" lon="7.486810000">
  <ele>729.141170</ele>
  <time>2012-05-06T13:17:16Z</time>
</trkpt>
<trkpt lat="46.252840000" lon="7.486840000">
  <ele>729.376460</ele>
  <time>2012-05-06T13:17:17Z</time>
</trkpt>
<trkpt lat="46.252840000" lon="7.486870000">
  <ele>729.611760</ele>
  <time>2012-05-06T13:17:18Z</time>
</trkpt>
<trkpt lat="46.252840000" lon="7.486890000">
  <ele>729.847050</ele>
  <time>2012-05-06T13:17:19Z</time>
</trkpt>
<trkpt lat="46.252840000" lon="7.486920000">
  <ele>730.082340</ele>
  <time>2012-05-06T13:17:20Z</time>
</trkpt>
<trkpt lat="46.252850000" lon="7.487070000">
  <ele>731.258850</ele>
  <time>2012-05-06T13:17:25Z</time>
</trkpt>
<trkpt lat="46.252860000" lon="7.487100000">
  <ele>731.494140</ele>
  <time>2012-05-06T13:17:26Z</time>
</trkpt>
<trkpt lat="46.252860000" lon="7.487120000">
  <ele>731.729430</ele>
  <time>2012-05-06T13:17:27Z</time>
</trkpt>
<trkpt lat="46.252880000" lon="7.487150000">
  <ele>731.964720</ele>
  <time>2012-05-06T13:17:28Z</time>
</trkpt>
<trkpt lat="46.252890000" lon="7.487180000">
  <ele>732.200010</ele>
  <time>2012-05-06T13:17:29Z</time>
</trkpt>
<trkpt lat="46.252940000" lon="7.487270000">
  <ele>732.200010</ele>
  <time>2012-05-06T13:17:33Z</time>
</trkpt>
<trkpt lat="46.253020000" lon="7.487420000">
  <ele>733.422240</ele>
  <time>2012-05-06T13:17:38Z</time>
</trkpt>
<trkpt lat="46.253030000" lon="7.487450000">
  <ele>733.666690</ele>
  <time>2012-05-06T13:17:39Z</time>
</trkpt>
<trkpt lat="46.253040000" lon="7.487470000">
  <ele>733.911130</ele>
  <time>2012-05-06T13:17:40Z</time>
</trkpt>
<trkpt lat="46.253050000" lon="7.487500000">
  <ele>734.155580</ele>
  <time>2012-05-06T13:17:41Z</time>
</trkpt>
<trkpt lat="46.253050000" lon="7.487520000">
  <ele>734.400020</ele>
  <time>2012-05-06T13:17:42Z</time>
</trkpt>
<trkpt lat="46.253090000" lon="7.487610000">
  <ele>734.400020</ele>
  <time>2012-05-06T13:17:45Z</time>
</trkpt>
<trkpt lat="46.253100000" lon="7.487670000">
  <ele>735.280030</ele>
  <time>2012-05-06T13:17:47Z</time>
</trkpt>
<trkpt lat="46.253100000" lon="7.487700000">
  <ele>735.719970</ele>
  <time>2012-05-06T13:17:48Z</time>
</trkpt>
<trkpt lat="46.253110000" lon="7.487740000">
  <ele>736.159970</ele>
  <time>2012-05-06T13:17:49Z</time>
</trkpt>
<trkpt lat="46.253130000" lon="7.487770000">
  <ele>736.599980</ele>
  <time>2012-05-06T13:17:50Z</time>
</trkpt>
<trkpt lat="46.253140000" lon="7.487790000">
  <ele>736.599980</ele>
  <time>2012-05-06T13:17:51Z</time>
</trkpt>
<trkpt lat="46.253260000" lon="7.487890000">
  <ele>737.599980</ele>
  <time>2012-05-06T13:17:56Z</time>
</trkpt>
<trkpt lat="46.253280000" lon="7.487900000">
  <ele>737.799990</ele>
  <time>2012-05-06T13:17:57Z</time>
</trkpt>
<trkpt lat="46.253300000" lon="7.487910000">
  <ele>738.000000</ele>
  <time>2012-05-06T13:17:58Z</time>
</trkpt>
<trkpt lat="46.253330000" lon="7.487920000">
  <ele>738.199950</ele>
  <time>2012-05-06T13:17:59Z</time>
</trkpt>
<trkpt lat="46.253360000" lon="7.487920000">
  <ele>738.399960</ele>
  <time>2012-05-06T13:18:00Z</time>
</trkpt>
<trkpt lat="46.253390000" lon="7.487930000">
  <ele>738.599980</ele>
  <time>2012-05-06T13:18:01Z</time>
</trkpt>
<trkpt lat="46.253410000" lon="7.487930000">
  <ele>738.599980</ele>
  <time>2012-05-06T13:18:02Z</time>
</trkpt>
<trkpt lat="46.253510000" lon="7.487970000">
  <ele>739.635250</ele>
  <time>2012-05-06T13:18:06Z</time>
</trkpt>
<trkpt lat="46.253530000" lon="7.487980000">
  <ele>739.894100</ele>
  <time>2012-05-06T13:18:07Z</time>
</trkpt>
<trkpt lat="46.253560000" lon="7.487990000">
  <ele>740.152950</ele>
  <time>2012-05-06T13:18:08Z</time>
</trkpt>
<trkpt lat="46.253590000" lon="7.488000000">
  <ele>740.411740</ele>
  <time>2012-05-06T13:18:09Z</time>
</trkpt>
<trkpt lat="46.253610000" lon="7.488000000">
  <ele>740.670590</ele>
  <time>2012-05-06T13:18:10Z</time>
</trkpt>
<trkpt lat="46.253730000" lon="7.487980000">
  <ele>741.964720</ele>
  <time>2012-05-06T13:18:15Z</time>
</trkpt>
<trkpt lat="46.253760000" lon="7.487970000">
  <ele>742.223510</ele>
  <time>2012-05-06T13:18:16Z</time>
</trkpt>
<trkpt lat="46.253790000" lon="7.487970000">
  <ele>742.482360</ele>
  <time>2012-05-06T13:18:17Z</time>
</trkpt>
<trkpt lat="46.253810000" lon="7.487970000">
  <ele>742.741150</ele>
  <time>2012-05-06T13:18:18Z</time>
</trkpt>
<trkpt lat="46.253840000" lon="7.487960000">
  <ele>743.000000</ele>
  <time>2012-05-06T13:18:19Z</time>
</trkpt>
<trkpt lat="46.253940000" lon="7.487980000">
  <ele>743.000000</ele>
  <time>2012-05-06T13:18:23Z</time>
</trkpt>
<trkpt lat="46.253960000" lon="7.488080000">
  <ele>743.720030</ele>
  <time>2012-05-06T13:18:26Z</time>
</trkpt>
<trkpt lat="46.253900000" lon="7.488120000">
  <ele>744.440000</ele>
  <time>2012-05-06T13:18:29Z</time>
</trkpt>
<trkpt lat="46.253880000" lon="7.488130000">
  <ele>744.679990</ele>
  <time>2012-05-06T13:18:30Z</time>
</trkpt>
<trkpt lat="46.253850000" lon="7.488130000">
  <ele>744.920040</ele>
  <time>2012-05-06T13:18:31Z</time>
</trkpt>
<trkpt lat="46.253830000" lon="7.488120000">
  <ele>745.160030</ele>
  <time>2012-05-06T13:18:32Z</time>
</trkpt>
<trkpt lat="46.253800000" lon="7.488120000">
  <ele>745.400020</ele>
  <time>2012-05-06T13:18:33Z</time>
</trkpt>
<trkpt lat="46.253720000" lon="7.488110000">
  <ele>745.400020</ele>
  <time>2012-05-06T13:18:36Z</time>
</trkpt>
<trkpt lat="46.253670000" lon="7.488100000">
  <ele>746.200010</ele>
  <time>2012-05-06T13:18:38Z</time>
</trkpt>
<trkpt lat="46.253650000" lon="7.488100000">
  <ele>746.600040</ele>
  <time>2012-05-06T13:18:39Z</time>
</trkpt>
<trkpt lat="46.253620000" lon="7.488100000">
  <ele>747.000000</ele>
  <time>2012-05-06T13:18:40Z</time>
</trkpt>
<trkpt lat="46.253590000" lon="7.488090000">
  <ele>747.400020</ele>
  <time>2012-05-06T13:18:41Z</time>
</trkpt>
<trkpt lat="46.253540000" lon="7.488080000">
  <ele>747.400020</ele>
  <time>2012-05-06T13:18:43Z</time>
</trkpt>
<trkpt lat="46.253450000" lon="7.488080000">
  <ele>748.400020</ele>
  <time>2012-05-06T13:18:47Z</time>
</trkpt>
<trkpt lat="46.253420000" lon="7.488080000">
  <ele>748.650020</ele>
  <time>2012-05-06T13:18:48Z</time>
</trkpt>
<trkpt lat="46.253400000" lon="7.488080000">
  <ele>748.900020</ele>
  <time>2012-05-06T13:18:49Z</time>
</trkpt>
<trkpt lat="46.253370000" lon="7.488080000">
  <ele>749.150020</ele>
  <time>2012-05-06T13:18:50Z</time>
</trkpt>
<trkpt lat="46.253340000" lon="7.488090000">
  <ele>749.400020</ele>
  <time>2012-05-06T13:18:51Z</time>
</trkpt>
<trkpt lat="46.253190000" lon="7.488120000">
  <ele>749.400020</ele>
  <time>2012-05-06T13:18:57Z</time>
</trkpt>
<trkpt lat="46.253110000" lon="7.488060000">
  <ele>750.450010</ele>
  <time>2012-05-06T13:19:00Z</time>
</trkpt>
<trkpt lat="46.253080000" lon="7.488040000">
  <ele>750.799990</ele>
  <time>2012-05-06T13:19:01Z</time>
</trkpt>
<trkpt lat="46.253070000" lon="7.488020000">
  <ele>751.150020</ele>
  <time>2012-05-06T13:19:02Z</time>
</trkpt>
<trkpt lat="46.253050000" lon="7.487990000">
  <ele>751.500000</ele>
  <time>2012-05-06T13:19:03Z</time>
</trkpt>
<trkpt lat="46.253040000" lon="7.487960000">
  <ele>751.849980</ele>
  <time>2012-05-06T13:19:04Z</time>
</trkpt>
<trkpt lat="46.253030000" lon="7.487930000">
  <ele>752.200010</ele>
  <time>2012-05-06T13:19:05Z</time>
</trkpt>
<trkpt lat="46.253010000" lon="7.487890000">
  <ele>752.549990</ele>
  <time>2012-05-06T13:19:06Z</time>
</trkpt>
<trkpt lat="46.253000000" lon="7.487850000">
  <ele>752.899960</ele>
  <time>2012-05-06T13:19:07Z</time>
</trkpt>
<trkpt lat="46.252980000" lon="7.487820000">
  <ele>753.250000</ele>
  <time>2012-05-06T13:19:08Z</time>
</trkpt>
<trkpt lat="46.252960000" lon="7.487790000">
  <ele>753.599980</ele>
  <time>2012-05-06T13:19:09Z</time>
</trkpt>
<trkpt lat="46.252870000" lon="7.487700000">
  <ele>753.599980</ele>
  <time>2012-05-06T13:19:13Z</time>
</trkpt>
<trkpt lat="46.252830000" lon="7.487660000">
  <ele>754.228580</ele>
  <time>2012-05-06T13:19:15Z</time>
</trkpt>
<trkpt lat="46.252810000" lon="7.487620000">
  <ele>754.542850</ele>
  <time>2012-05-06T13:19:16Z</time>
</trkpt>
<trkpt lat="46.252780000" lon="7.487600000">
  <ele>754.857120</ele>
  <time>2012-05-06T13:19:17Z</time>
</trkpt>
<trkpt lat="46.252760000" lon="7.487570000">
  <ele>755.171390</ele>
  <time>2012-05-06T13:19:18Z</time>
</trkpt>
<trkpt lat="46.252740000" lon="7.487540000">
  <ele>755.485720</ele>
  <time>2012-05-06T13:19:19Z</time>
</trkpt>
<trkpt lat="46.252660000" lon="7.487440000">
  <ele>756.742860</ele>
  <time>2012-05-06T13:19:23Z</time>
</trkpt>
<trkpt lat="46.252640000" lon="7.487410000">
  <ele>757.057130</ele>
  <time>2012-05-06T13:19:24Z</time>
</trkpt>
<trkpt lat="46.252620000" lon="7.487380000">
  <ele>757.371400</ele>
  <time>2012-05-06T13:19:25Z</time>
</trkpt>
<trkpt lat="46.252610000" lon="7.487340000">
  <ele>757.685730</ele>
  <time>2012-05-06T13:19:26Z</time>
</trkpt>
<trkpt lat="46.252590000" lon="7.487310000">
  <ele>758.000000</ele>
  <time>2012-05-06T13:19:27Z</time>
</trkpt>
<trkpt lat="46.252570000" lon="7.487240000">
  <ele>758.000000</ele>
  <time>2012-05-06T13:19:29Z</time>
</trkpt>
<trkpt lat="46.252550000" lon="7.487100000">
  <ele>759.000000</ele>
  <time>2012-05-06T13:19:33Z</time>
</trkpt>
<trkpt lat="46.252550000" lon="7.487060000">
  <ele>759.250000</ele>
  <time>2012-05-06T13:19:34Z</time>
</trkpt>
<trkpt lat="46.252540000" lon="7.487030000">
  <ele>759.500000</ele>
  <time>2012-05-06T13:19:35Z</time>
</trkpt>
<trkpt lat="46.252540000" lon="7.486990000">
  <ele>759.750000</ele>
  <time>2012-05-06T13:19:36Z</time>
</trkpt>
<trkpt lat="46.252530000" lon="7.486960000">
  <ele>760.000000</ele>
  <time>2012-05-06T13:19:37Z</time>
</trkpt>
<trkpt lat="46.252460000" lon="7.486840000">
  <ele>760.000000</ele>
  <time>2012-05-06T13:19:41Z</time>
</trkpt>
<trkpt lat="46.252450000" lon="7.486820000">
  <ele>760.479980</ele>
  <time>2012-05-06T13:19:42Z</time>
</trkpt>
<trkpt lat="46.252430000" lon="7.486790000">
  <ele>760.960020</ele>
  <time>2012-05-06T13:19:43Z</time>
</trkpt>
<trkpt lat="46.252410000" lon="7.486770000">
  <ele>761.440000</ele>
  <time>2012-05-06T13:19:44Z</time>
</trkpt>
<trkpt lat="46.252390000" lon="7.486740000">
  <ele>761.920040</ele>
  <time>2012-05-06T13:19:45Z</time>
</trkpt>
<trkpt lat="46.252370000" lon="7.486710000">
  <ele>762.400020</ele>
  <time>2012-05-06T13:19:46Z</time>
</trkpt>
<trkpt lat="46.252350000" lon="7.486690000">
  <ele>762.400020</ele>
  <time>2012-05-06T13:19:47Z</time>
</trkpt>
<trkpt lat="46.252240000" lon="7.486520000">
  <ele>763.900020</ele>
  <time>2012-05-06T13:19:53Z</time>
</trkpt>
<trkpt lat="46.252220000" lon="7.486500000">
  <ele>764.150020</ele>
  <time>2012-05-06T13:19:54Z</time>
</trkpt>
<trkpt lat="46.252210000" lon="7.486460000">
  <ele>764.400020</ele>
  <time>2012-05-06T13:19:55Z</time>
</trkpt>
<trkpt lat="46.252210000" lon="7.486430000">
  <ele>764.650020</ele>
  <time>2012-05-06T13:19:56Z</time>
</trkpt>
<trkpt lat="46.252180000" lon="7.486330000">
  <ele>765.400020</ele>
  <time>2012-05-06T13:19:59Z</time>
</trkpt>
<trkpt lat="46.252170000" lon="7.486300000">
  <ele>765.650020</ele>
  <time>2012-05-06T13:20:00Z</time>
</trkpt>
<trkpt lat="46.252170000" lon="7.486270000">
  <ele>765.900020</ele>
  <time>2012-05-06T13:20:01Z</time>
</trkpt>
<trkpt lat="46.252160000" lon="7.486230000">
  <ele>766.150020</ele>
  <time>2012-05-06T13:20:02Z</time>
</trkpt>
<trkpt lat="46.252150000" lon="7.486200000">
  <ele>766.400020</ele>
  <time>2012-05-06T13:20:03Z</time>
</trkpt>
<trkpt lat="46.252130000" lon="7.486070000">
  <ele>766.400020</ele>
  <time>2012-05-06T13:20:07Z</time>
</trkpt>
<trkpt lat="46.252140000" lon="7.485890000">
  <ele>767.622190</ele>
  <time>2012-05-06T13:20:12Z</time>
</trkpt>
<trkpt lat="46.252140000" lon="7.485850000">
  <ele>767.866640</ele>
  <time>2012-05-06T13:20:13Z</time>
</trkpt>
<trkpt lat="46.252140000" lon="7.485820000">
  <ele>768.111080</ele>
  <time>2012-05-06T13:20:14Z</time>
</trkpt>
<trkpt lat="46.252140000" lon="7.485790000">
  <ele>768.355530</ele>
  <time>2012-05-06T13:20:15Z</time>
</trkpt>
<trkpt lat="46.252140000" lon="7.485750000">
  <ele>768.599980</ele>
  <time>2012-05-06T13:20:16Z</time>
</trkpt>
<trkpt lat="46.252140000" lon="7.485580000">
  <ele>768.599980</ele>
  <time>2012-05-06T13:20:21Z</time>
</trkpt>
<trkpt lat="46.252120000" lon="7.485450000">
  <ele>769.900020</ele>
  <time>2012-05-06T13:20:25Z</time>
</trkpt>
<trkpt lat="46.252120000" lon="7.485410000">
  <ele>770.224980</ele>
  <time>2012-05-06T13:20:26Z</time>
</trkpt>
<trkpt lat="46.252100000" lon="7.485380000">
  <ele>770.549990</ele>
  <time>2012-05-06T13:20:27Z</time>
</trkpt>
<trkpt lat="46.252090000" lon="7.485360000">
  <ele>770.875000</ele>
  <time>2012-05-06T13:20:28Z</time>
</trkpt>
<trkpt lat="46.252070000" lon="7.485340000">
  <ele>771.200010</ele>
  <time>2012-05-06T13:20:29Z</time>
</trkpt>
<trkpt lat="46.252010000" lon="7.485290000">
  <ele>771.200010</ele>
  <time>2012-05-06T13:20:32Z</time>
</trkpt>
<trkpt lat="46.251970000" lon="7.485270000">
  <ele>771.741210</ele>
  <time>2012-05-06T13:20:34Z</time>
</trkpt>
<trkpt lat="46.251900000" lon="7.485230000">
  <ele>772.552920</ele>
  <time>2012-05-06T13:20:37Z</time>
</trkpt>
<trkpt lat="46.251880000" lon="7.485220000">
  <ele>772.823550</ele>
  <time>2012-05-06T13:20:38Z</time>
</trkpt>
<trkpt lat="46.251860000" lon="7.485200000">
  <ele>773.094120</ele>
  <time>2012-05-06T13:20:39Z</time>
</trkpt>
<trkpt lat="46.251830000" lon="7.485190000">
  <ele>773.364690</ele>
  <time>2012-05-06T13:20:40Z</time>
</trkpt>
<trkpt lat="46.251810000" lon="7.485180000">
  <ele>773.635310</ele>
  <time>2012-05-06T13:20:41Z</time>
</trkpt>
<trkpt lat="46.251720000" lon="7.485110000">
  <ele>774.717650</ele>
  <time>2012-05-06T13:20:45Z</time>
</trkpt>
<trkpt lat="46.251710000" lon="7.485090000">
  <ele>774.988220</ele>
  <time>2012-05-06T13:20:46Z</time>
</trkpt>
<trkpt lat="46.251690000" lon="7.485060000">
  <ele>775.258790</ele>
  <time>2012-05-06T13:20:47Z</time>
</trkpt>
<trkpt lat="46.251670000" lon="7.485030000">
  <ele>775.529420</ele>
  <time>2012-05-06T13:20:48Z</time>
</trkpt>
<trkpt lat="46.251670000" lon="7.484990000">
  <ele>775.799990</ele>
  <time>2012-05-06T13:20:49Z</time>
</trkpt>
<trkpt lat="46.251670000" lon="7.484920000">
  <ele>775.799990</ele>
  <time>2012-05-06T13:20:51Z</time>
</trkpt>
<trkpt lat="46.251670000" lon="7.484850000">
  <ele>776.533330</ele>
  <time>2012-05-06T13:20:53Z</time>
</trkpt>
<trkpt lat="46.251670000" lon="7.484820000">
  <ele>776.900020</ele>
  <time>2012-05-06T13:20:54Z</time>
</trkpt>
<trkpt lat="46.251680000" lon="7.484780000">
  <ele>777.266660</ele>
  <time>2012-05-06T13:20:55Z</time>
</trkpt>
<trkpt lat="46.251690000" lon="7.484750000">
  <ele>777.633300</ele>
  <time>2012-05-06T13:20:56Z</time>
</trkpt>
<trkpt lat="46.251700000" lon="7.484720000">
  <ele>778.000000</ele>
  <time>2012-05-06T13:20:57Z</time>
</trkpt>
<trkpt lat="46.251710000" lon="7.484680000">
  <ele>778.000000</ele>
  <time>2012-05-06T13:20:58Z</time>
</trkpt>
<trkpt lat="46.251760000" lon="7.484460000">
  <ele>778.942870</ele>
  <time>2012-05-06T13:21:04Z</time>
</trkpt>
<trkpt lat="46.251770000" lon="7.484420000">
  <ele>779.099980</ele>
  <time>2012-05-06T13:21:05Z</time>
</trkpt>
<trkpt lat="46.251800000" lon="7.484320000">
  <ele>779.571410</ele>
  <time>2012-05-06T13:21:08Z</time>
</trkpt>
<trkpt lat="46.251800000" lon="7.484290000">
  <ele>779.728580</ele>
  <time>2012-05-06T13:21:09Z</time>
</trkpt>
<trkpt lat="46.251820000" lon="7.484250000">
  <ele>779.885740</ele>
  <time>2012-05-06T13:21:10Z</time>
</trkpt>
<trkpt lat="46.251830000" lon="7.484220000">
  <ele>780.042850</ele>
  <time>2012-05-06T13:21:11Z</time>
</trkpt>
<trkpt lat="46.251840000" lon="7.484190000">
  <ele>780.200010</ele>
  <time>2012-05-06T13:21:12Z</time>
</trkpt>
<trkpt lat="46.251850000" lon="7.484160000">
  <ele>780.200010</ele>
  <time>2012-05-06T13:21:13Z</time>
</trkpt>
<trkpt lat="46.251880000" lon="7.484100000">
  <ele>780.933350</ele>
  <time>2012-05-06T13:21:15Z</time>
</trkpt>
<trkpt lat="46.251890000" lon="7.484080000">
  <ele>781.300050</ele>
  <time>2012-05-06T13:21:16Z</time>
</trkpt>
<trkpt lat="46.251900000" lon="7.484040000">
  <ele>781.666690</ele>
  <time>2012-05-06T13:21:17Z</time>
</trkpt>
<trkpt lat="46.251900000" lon="7.484010000">
  <ele>782.033330</ele>
  <time>2012-05-06T13:21:18Z</time>
</trkpt>
<trkpt lat="46.251910000" lon="7.483970000">
  <ele>782.400020</ele>
  <time>2012-05-06T13:21:19Z</time>
</trkpt>
<trkpt lat="46.251920000" lon="7.483940000">
  <ele>782.400020</ele>
  <time>2012-05-06T13:21:20Z</time>
</trkpt>
<trkpt lat="46.251920000" lon="7.483750000">
  <ele>783.635310</ele>
  <time>2012-05-06T13:21:25Z</time>
</trkpt>
<trkpt lat="46.251910000" lon="7.483710000">
  <ele>783.882390</ele>
  <time>2012-05-06T13:21:26Z</time>
</trkpt>
<trkpt lat="46.251910000" lon="7.483670000">
  <ele>784.129390</ele>
  <time>2012-05-06T13:21:27Z</time>
</trkpt>
<trkpt lat="46.251900000" lon="7.483640000">
  <ele>784.376460</ele>
  <time>2012-05-06T13:21:28Z</time>
</trkpt>
<trkpt lat="46.251900000" lon="7.483600000">
  <ele>784.623540</ele>
  <time>2012-05-06T13:21:29Z</time>
</trkpt>
<trkpt lat="46.251860000" lon="7.483450000">
  <ele>785.611760</ele>
  <time>2012-05-06T13:21:33Z</time>
</trkpt>
<trkpt lat="46.251860000" lon="7.483420000">
  <ele>785.858830</ele>
  <time>2012-05-06T13:21:34Z</time>
</trkpt>
<trkpt lat="46.251840000" lon="7.483350000">
  <ele>786.105830</ele>
  <time>2012-05-06T13:21:35Z</time>
</trkpt>
<trkpt lat="46.251830000" lon="7.483310000">
  <ele>786.599980</ele>
  <time>2012-05-06T13:21:37Z</time>
</trkpt>
<trkpt lat="46.251810000" lon="7.483170000">
  <ele>786.599980</ele>
  <time>2012-05-06T13:21:41Z</time>
</trkpt>
<trkpt lat="46.251770000" lon="7.482930000">
  <ele>788.045170</ele>
  <time>2012-05-06T13:21:48Z</time>
</trkpt>
<trkpt lat="46.251740000" lon="7.482840000">
  <ele>788.664490</ele>
  <time>2012-05-06T13:21:51Z</time>
</trkpt>
<trkpt lat="46.251730000" lon="7.482810000">
  <ele>788.870970</ele>
  <time>2012-05-06T13:21:52Z</time>
</trkpt>
<trkpt lat="46.251720000" lon="7.482770000">
  <ele>789.077390</ele>
  <time>2012-05-06T13:21:53Z</time>
</trkpt>
<trkpt lat="46.251720000" lon="7.482740000">
  <ele>789.283870</ele>
  <time>2012-05-06T13:21:54Z</time>
</trkpt>
<trkpt lat="46.251710000" lon="7.482700000">
  <ele>789.490300</ele>
  <time>2012-05-06T13:21:55Z</time>
</trkpt>
<trkpt lat="46.251680000" lon="7.482600000">
  <ele>790.109680</ele>
  <time>2012-05-06T13:21:58Z</time>
</trkpt>
<trkpt lat="46.251670000" lon="7.482570000">
  <ele>790.316100</ele>
  <time>2012-05-06T13:21:59Z</time>
</trkpt>
<trkpt lat="46.251660000" lon="7.482540000">
  <ele>790.522580</ele>
  <time>2012-05-06T13:22:00Z</time>
</trkpt>
<trkpt lat="46.251650000" lon="7.482510000">
  <ele>790.729000</ele>
  <time>2012-05-06T13:22:01Z</time>
</trkpt>
<trkpt lat="46.251640000" lon="7.482470000">
  <ele>790.935490</ele>
  <time>2012-05-06T13:22:02Z</time>
</trkpt>
<trkpt lat="46.251590000" lon="7.482260000">
  <ele>792.174190</ele>
  <time>2012-05-06T13:22:08Z</time>
</trkpt>
<trkpt lat="46.251580000" lon="7.482230000">
  <ele>792.380620</ele>
  <time>2012-05-06T13:22:09Z</time>
</trkpt>
<trkpt lat="46.251580000" lon="7.482190000">
  <ele>792.587100</ele>
  <time>2012-05-06T13:22:10Z</time>
</trkpt>
<trkpt lat="46.251570000" lon="7.482160000">
  <ele>792.793520</ele>
  <time>2012-05-06T13:22:11Z</time>
</trkpt>
<trkpt lat="46.251560000" lon="7.482130000">
  <ele>793.000000</ele>
  <time>2012-05-06T13:22:12Z</time>
</trkpt>
<trkpt lat="46.251540000" lon="7.482060000">
  <ele>793.000000</ele>
  <time>2012-05-06T13:22:14Z</time>
</trkpt>
<trkpt lat="46.251510000" lon="7.481870000">
  <ele>794.222230</ele>
  <time>2012-05-06T13:22:19Z</time>
</trkpt>
<trkpt lat="46.251500000" lon="7.481840000">
  <ele>794.466670</ele>
  <time>2012-05-06T13:22:20Z</time>
</trkpt>
<trkpt lat="46.251500000" lon="7.481800000">
  <ele>794.711120</ele>
  <time>2012-05-06T13:22:21Z</time>
</trkpt>
<trkpt lat="46.251490000" lon="7.481770000">
  <ele>794.955570</ele>
  <time>2012-05-06T13:22:22Z</time>
</trkpt>
<trkpt lat="46.251490000" lon="7.481730000">
  <ele>795.200010</ele>
  <time>2012-05-06T13:22:23Z</time>
</trkpt>
<trkpt lat="46.251460000" lon="7.481560000">
  <ele>795.200010</ele>
  <time>2012-05-06T13:22:28Z</time>
</trkpt>
<trkpt lat="46.251450000" lon="7.481520000">
  <ele>795.600040</ele>
  <time>2012-05-06T13:22:29Z</time>
</trkpt>
<trkpt lat="46.251450000" lon="7.481490000">
  <ele>796.000000</ele>
  <time>2012-05-06T13:22:30Z</time>
</trkpt>
<trkpt lat="46.251440000" lon="7.481460000">
  <ele>796.400020</ele>
  <time>2012-05-06T13:22:31Z</time>
</trkpt>
<trkpt lat="46.251430000" lon="7.481430000">
  <ele>796.799990</ele>
  <time>2012-05-06T13:22:32Z</time>
</trkpt>
<trkpt lat="46.251420000" lon="7.481390000">
  <ele>797.200010</ele>
  <time>2012-05-06T13:22:33Z</time>
</trkpt>
<trkpt lat="46.251410000" lon="7.481360000">
  <ele>797.200010</ele>
  <time>2012-05-06T13:22:34Z</time>
</trkpt>
<trkpt lat="46.251380000" lon="7.481200000">
  <ele>798.435300</ele>
  <time>2012-05-06T13:22:39Z</time>
</trkpt>
<trkpt lat="46.251370000" lon="7.481160000">
  <ele>798.682370</ele>
  <time>2012-05-06T13:22:40Z</time>
</trkpt>
<trkpt lat="46.251360000" lon="7.481130000">
  <ele>798.929440</ele>
  <time>2012-05-06T13:22:41Z</time>
</trkpt>
<trkpt lat="46.251350000" lon="7.481090000">
  <ele>799.176510</ele>
  <time>2012-05-06T13:22:42Z</time>
</trkpt>
<trkpt lat="46.251340000" lon="7.481060000">
  <ele>799.423520</ele>
  <time>2012-05-06T13:22:43Z</time>
</trkpt>
<trkpt lat="46.251320000" lon="7.480920000">
  <ele>800.411800</ele>
  <time>2012-05-06T13:22:47Z</time>
</trkpt>
<trkpt lat="46.251310000" lon="7.480880000">
  <ele>800.658870</ele>
  <time>2012-05-06T13:22:48Z</time>
</trkpt>
<trkpt lat="46.251310000" lon="7.480840000">
  <ele>800.905880</ele>
  <time>2012-05-06T13:22:49Z</time>
</trkpt>
<trkpt lat="46.251300000" lon="7.480810000">
  <ele>801.152950</ele>
  <time>2012-05-06T13:22:50Z</time>
</trkpt>
<trkpt lat="46.251300000" lon="7.480770000">
  <ele>801.400020</ele>
  <time>2012-05-06T13:22:51Z</time>
</trkpt>
<trkpt lat="46.251280000" lon="7.480630000">
  <ele>801.400020</ele>
  <time>2012-05-06T13:22:55Z</time>
</trkpt>
<trkpt lat="46.251270000" lon="7.480600000">
  <ele>801.800050</ele>
  <time>2012-05-06T13:22:56Z</time>
</trkpt>
<trkpt lat="46.251260000" lon="7.480570000">
  <ele>802.200010</ele>
  <time>2012-05-06T13:22:57Z</time>
</trkpt>
<trkpt lat="46.251260000" lon="7.480530000">
  <ele>802.600040</ele>
  <time>2012-05-06T13:22:58Z</time>
</trkpt>
<trkpt lat="46.251250000" lon="7.480500000">
  <ele>803.000000</ele>
  <time>2012-05-06T13:22:59Z</time>
</trkpt>
<trkpt lat="46.251240000" lon="7.480460000">
  <ele>803.400020</ele>
  <time>2012-05-06T13:23:00Z</time>
</trkpt>
<trkpt lat="46.251220000" lon="7.480360000">
  <ele>803.400020</ele>
  <time>2012-05-06T13:23:03Z</time>
</trkpt>
<trkpt lat="46.251170000" lon="7.480190000">
  <ele>804.511110</ele>
  <time>2012-05-06T13:23:08Z</time>
</trkpt>
<trkpt lat="46.251160000" lon="7.480150000">
  <ele>804.733340</ele>
  <time>2012-05-06T13:23:09Z</time>
</trkpt>
<trkpt lat="46.251150000" lon="7.480120000">
  <ele>804.955570</ele>
  <time>2012-05-06T13:23:10Z</time>
</trkpt>
<trkpt lat="46.251140000" lon="7.480090000">
  <ele>805.177800</ele>
  <time>2012-05-06T13:23:11Z</time>
</trkpt>
<trkpt lat="46.251120000" lon="7.480060000">
  <ele>805.400020</ele>
  <time>2012-05-06T13:23:12Z</time>
</trkpt>
<trkpt lat="46.250990000" lon="7.479930000">
  <ele>805.400020</ele>
  <time>2012-05-06T13:23:18Z</time>
</trkpt>
<trkpt lat="46.250960000" lon="7.479910000">
  <ele>805.800050</ele>
  <time>2012-05-06T13:23:19Z</time>
</trkpt>
<trkpt lat="46.250930000" lon="7.479890000">
  <ele>806.200010</ele>
  <time>2012-05-06T13:23:20Z</time>
</trkpt>
<trkpt lat="46.250910000" lon="7.479860000">
  <ele>806.600040</ele>
  <time>2012-05-06T13:23:21Z</time>
</trkpt>
<trkpt lat="46.250890000" lon="7.479840000">
  <ele>807.000000</ele>
  <time>2012-05-06T13:23:22Z</time>
</trkpt>
<trkpt lat="46.250870000" lon="7.479820000">
  <ele>807.400020</ele>
  <time>2012-05-06T13:23:23Z</time>
</trkpt>
<trkpt lat="46.250820000" lon="7.479780000">
  <ele>807.400020</ele>
  <time>2012-05-06T13:23:25Z</time>
</trkpt>
<trkpt lat="46.250680000" lon="7.479630000">
  <ele>808.866700</ele>
  <time>2012-05-06T13:23:32Z</time>
</trkpt>
<trkpt lat="46.250650000" lon="7.479610000">
  <ele>809.076170</ele>
  <time>2012-05-06T13:23:33Z</time>
</trkpt>
<trkpt lat="46.250630000" lon="7.479580000">
  <ele>809.285710</ele>
  <time>2012-05-06T13:23:34Z</time>
</trkpt>
<trkpt lat="46.250610000" lon="7.479550000">
  <ele>809.495240</ele>
  <time>2012-05-06T13:23:35Z</time>
</trkpt>
<trkpt lat="46.250600000" lon="7.479530000">
  <ele>809.704770</ele>
  <time>2012-05-06T13:23:36Z</time>
</trkpt>
<trkpt lat="46.250490000" lon="7.479360000">
  <ele>810.961910</ele>
  <time>2012-05-06T13:23:42Z</time>
</trkpt>
<trkpt lat="46.250480000" lon="7.479340000">
  <ele>811.171450</ele>
  <time>2012-05-06T13:23:43Z</time>
</trkpt>
<trkpt lat="46.250460000" lon="7.479310000">
  <ele>811.380920</ele>
  <time>2012-05-06T13:23:44Z</time>
</trkpt>
<trkpt lat="46.250440000" lon="7.479290000">
  <ele>811.590450</ele>
  <time>2012-05-06T13:23:45Z</time>
</trkpt>
<trkpt lat="46.250430000" lon="7.479260000">
  <ele>811.799990</ele>
  <time>2012-05-06T13:23:46Z</time>
</trkpt>
<trkpt lat="46.250350000" lon="7.479150000">
  <ele>811.799990</ele>
  <time>2012-05-06T13:23:50Z</time>
</trkpt>
<trkpt lat="46.250340000" lon="7.479120000">
  <ele>812.200010</ele>
  <time>2012-05-06T13:23:51Z</time>
</trkpt>
<trkpt lat="46.250310000" lon="7.479090000">
  <ele>812.599980</ele>
  <time>2012-05-06T13:23:52Z</time>
</trkpt>
<trkpt lat="46.250290000" lon="7.479070000">
  <ele>813.000000</ele>
  <time>2012-05-06T13:23:53Z</time>
</trkpt>
<trkpt lat="46.250270000" lon="7.479040000">
  <ele>813.399960</ele>
  <time>2012-05-06T13:23:54Z</time>
</trkpt>
<trkpt lat="46.250260000" lon="7.479010000">
  <ele>813.799990</ele>
  <time>2012-05-06T13:23:55Z</time>
</trkpt>
<trkpt lat="46.250240000" lon="7.478990000">
  <ele>813.799990</ele>
  <time>2012-05-06T13:23:56Z</time>
</trkpt>
<trkpt lat="46.250120000" lon="7.478820000">
  <ele>815.400020</ele>
  <time>2012-05-06T13:24:03Z</time>
</trkpt>
<trkpt lat="46.250100000" lon="7.478800000">
  <ele>815.628540</ele>
  <time>2012-05-06T13:24:04Z</time>
</trkpt>
<trkpt lat="46.250080000" lon="7.478770000">
  <ele>815.857120</ele>
  <time>2012-05-06T13:24:05Z</time>
</trkpt>
<trkpt lat="46.250060000" lon="7.478740000">
  <ele>816.085690</ele>
  <time>2012-05-06T13:24:06Z</time>
</trkpt>
<trkpt lat="46.250040000" lon="7.478710000">
  <ele>816.314270</ele>
  <time>2012-05-06T13:24:07Z</time>
</trkpt>
<trkpt lat="46.250000000" lon="7.478640000">
  <ele>817.000000</ele>
  <time>2012-05-06T13:24:10Z</time>
</trkpt>
<trkpt lat="46.249980000" lon="7.478610000">
  <ele>817.228580</ele>
  <time>2012-05-06T13:24:11Z</time>
</trkpt>
<trkpt lat="46.249970000" lon="7.478580000">
  <ele>817.457150</ele>
  <time>2012-05-06T13:24:12Z</time>
</trkpt>
<trkpt lat="46.249960000" lon="7.478540000">
  <ele>817.685730</ele>
  <time>2012-05-06T13:24:13Z</time>
</trkpt>
<trkpt lat="46.249940000" lon="7.478510000">
  <ele>817.914310</ele>
  <time>2012-05-06T13:24:14Z</time>
</trkpt>
<trkpt lat="46.249860000" lon="7.478310000">
  <ele>819.285710</ele>
  <time>2012-05-06T13:24:20Z</time>
</trkpt>
<trkpt lat="46.249840000" lon="7.478280000">
  <ele>819.514280</ele>
  <time>2012-05-06T13:24:21Z</time>
</trkpt>
<trkpt lat="46.249820000" lon="7.478250000">
  <ele>819.742860</ele>
  <time>2012-05-06T13:24:22Z</time>
</trkpt>
<trkpt lat="46.249810000" lon="7.478230000">
  <ele>819.971440</ele>
  <time>2012-05-06T13:24:23Z</time>
</trkpt>
<trkpt lat="46.249790000" lon="7.478210000">
  <ele>820.200010</ele>
  <time>2012-05-06T13:24:24Z</time>
</trkpt>
<trkpt lat="46.249760000" lon="7.478190000">
  <ele>820.200010</ele>
  <time>2012-05-06T13:24:25Z</time>
</trkpt>
<trkpt lat="46.249650000" lon="7.478190000">
  <ele>821.200010</ele>
  <time>2012-05-06T13:24:29Z</time>
</trkpt>
<trkpt lat="46.249620000" lon="7.478190000">
  <ele>821.450010</ele>
  <time>2012-05-06T13:24:30Z</time>
</trkpt>
<trkpt lat="46.249590000" lon="7.478200000">
  <ele>821.700010</ele>
  <time>2012-05-06T13:24:31Z</time>
</trkpt>
<trkpt lat="46.249570000" lon="7.478210000">
  <ele>821.950010</ele>
  <time>2012-05-06T13:24:32Z</time>
</trkpt>
<trkpt lat="46.249540000" lon="7.478230000">
  <ele>822.200010</ele>
  <time>2012-05-06T13:24:33Z</time>
</trkpt>
<trkpt lat="46.249390000" lon="7.478310000">
  <ele>822.200010</ele>
  <time>2012-05-06T13:24:39Z</time>
</trkpt>
<trkpt lat="46.249340000" lon="7.478330000">
  <ele>822.876950</ele>
  <time>2012-05-06T13:24:41Z</time>
</trkpt>
<trkpt lat="46.249320000" lon="7.478340000">
  <ele>823.215390</ele>
  <time>2012-05-06T13:24:42Z</time>
</trkpt>
<trkpt lat="46.249290000" lon="7.478350000">
  <ele>823.553830</ele>
  <time>2012-05-06T13:24:43Z</time>
</trkpt>
<trkpt lat="46.249260000" lon="7.478360000">
  <ele>823.892330</ele>
  <time>2012-05-06T13:24:44Z</time>
</trkpt>
<trkpt lat="46.249240000" lon="7.478360000">
  <ele>824.230770</ele>
  <time>2012-05-06T13:24:45Z</time>
</trkpt>
<trkpt lat="46.249130000" lon="7.478370000">
  <ele>825.584590</ele>
  <time>2012-05-06T13:24:49Z</time>
</trkpt>
<trkpt lat="46.249100000" lon="7.478370000">
  <ele>825.923030</ele>
  <time>2012-05-06T13:24:50Z</time>
</trkpt>
<trkpt lat="46.249080000" lon="7.478360000">
  <ele>826.261540</ele>
  <time>2012-05-06T13:24:51Z</time>
</trkpt>
<trkpt lat="46.249050000" lon="7.478360000">
  <ele>826.599980</ele>
  <time>2012-05-06T13:24:52Z</time>
</trkpt>
<trkpt lat="46.248910000" lon="7.478260000">
  <ele>826.599980</ele>
  <time>2012-05-06T13:24:58Z</time>
</trkpt>
<trkpt lat="46.248860000" lon="7.478190000">
  <ele>827.457090</ele>
  <time>2012-05-06T13:25:01Z</time>
</trkpt>
<trkpt lat="46.248840000" lon="7.478170000">
  <ele>827.742860</ele>
  <time>2012-05-06T13:25:02Z</time>
</trkpt>
<trkpt lat="46.248830000" lon="7.478140000">
  <ele>828.028560</ele>
  <time>2012-05-06T13:25:03Z</time>
</trkpt>
<trkpt lat="46.248810000" lon="7.478110000">
  <ele>828.314270</ele>
  <time>2012-05-06T13:25:04Z</time>
</trkpt>
<trkpt lat="46.248790000" lon="7.478080000">
  <ele>828.599980</ele>
  <time>2012-05-06T13:25:05Z</time>
</trkpt>
<trkpt lat="46.248740000" lon="7.477920000">
  <ele>828.599980</ele>
  <time>2012-05-06T13:25:10Z</time>
</trkpt>
<trkpt lat="46.248720000" lon="7.477890000">
  <ele>829.000000</ele>
  <time>2012-05-06T13:25:11Z</time>
</trkpt>
<trkpt lat="46.248710000" lon="7.477860000">
  <ele>829.399960</ele>
  <time>2012-05-06T13:25:12Z</time>
</trkpt>
<trkpt lat="46.248700000" lon="7.477830000">
  <ele>829.799990</ele>
  <time>2012-05-06T13:25:13Z</time>
</trkpt>
<trkpt lat="46.248680000" lon="7.477800000">
  <ele>830.199950</ele>
  <time>2012-05-06T13:25:14Z</time>
</trkpt>
<trkpt lat="46.248670000" lon="7.477770000">
  <ele>830.599980</ele>
  <time>2012-05-06T13:25:15Z</time>
</trkpt>
<trkpt lat="46.248640000" lon="7.477700000">
  <ele>830.599980</ele>
  <time>2012-05-06T13:25:17Z</time>
</trkpt>
<trkpt lat="46.248620000" lon="7.477620000">
  <ele>831.333310</ele>
  <time>2012-05-06T13:25:19Z</time>
</trkpt>
<trkpt lat="46.248600000" lon="7.477590000">
  <ele>831.699950</ele>
  <time>2012-05-06T13:25:20Z</time>
</trkpt>
<trkpt lat="46.248590000" lon="7.477550000">
  <ele>832.066650</ele>
  <time>2012-05-06T13:25:21Z</time>
</trkpt>
<trkpt lat="46.248580000" lon="7.477510000">
  <ele>832.433350</ele>
  <time>2012-05-06T13:25:22Z</time>
</trkpt>
<trkpt lat="46.248580000" lon="7.477480000">
  <ele>832.799990</ele>
  <time>2012-05-06T13:25:23Z</time>
</trkpt>
<trkpt lat="46.248570000" lon="7.477440000">
  <ele>832.799990</ele>
  <time>2012-05-06T13:25:24Z</time>
</trkpt>
<trkpt lat="46.248520000" lon="7.477250000">
  <ele>833.911070</ele>
  <time>2012-05-06T13:25:29Z</time>
</trkpt>
<trkpt lat="46.248520000" lon="7.477210000">
  <ele>834.133300</ele>
  <time>2012-05-06T13:25:30Z</time>
</trkpt>
<trkpt lat="46.248510000" lon="7.477180000">
  <ele>834.355530</ele>
  <time>2012-05-06T13:25:31Z</time>
</trkpt>
<trkpt lat="46.248510000" lon="7.477140000">
  <ele>834.577760</ele>
  <time>2012-05-06T13:25:32Z</time>
</trkpt>
<trkpt lat="46.248500000" lon="7.477100000">
  <ele>834.799990</ele>
  <time>2012-05-06T13:25:33Z</time>
</trkpt>
<trkpt lat="46.248500000" lon="7.477060000">
  <ele>834.799990</ele>
  <time>2012-05-06T13:25:34Z</time>
</trkpt>
<trkpt lat="46.248470000" lon="7.476870000">
  <ele>836.049990</ele>
  <time>2012-05-06T13:25:39Z</time>
</trkpt>
<trkpt lat="46.248470000" lon="7.476840000">
  <ele>836.299990</ele>
  <time>2012-05-06T13:25:40Z</time>
</trkpt>
<trkpt lat="46.248460000" lon="7.476810000">
  <ele>836.549990</ele>
  <time>2012-05-06T13:25:41Z</time>
</trkpt>
<trkpt lat="46.248440000" lon="7.476770000">
  <ele>836.799990</ele>
  <time>2012-05-06T13:25:42Z</time>
</trkpt>
<trkpt lat="46.248380000" lon="7.476600000">
  <ele>836.799990</ele>
  <time>2012-05-06T13:25:47Z</time>
</trkpt>
<trkpt lat="46.248360000" lon="7.476530000">
  <ele>837.533330</ele>
  <time>2012-05-06T13:25:49Z</time>
</trkpt>
<trkpt lat="46.248340000" lon="7.476500000">
  <ele>837.900020</ele>
  <time>2012-05-06T13:25:50Z</time>
</trkpt>
<trkpt lat="46.248330000" lon="7.476460000">
  <ele>838.266660</ele>
  <time>2012-05-06T13:25:51Z</time>
</trkpt>
<trkpt lat="46.248320000" lon="7.476430000">
  <ele>838.633300</ele>
  <time>2012-05-06T13:25:52Z</time>
</trkpt>
<trkpt lat="46.248310000" lon="7.476400000">
  <ele>839.000000</ele>
  <time>2012-05-06T13:25:53Z</time>
</trkpt>
<trkpt lat="46.248260000" lon="7.476310000">
  <ele>839.000000</ele>
  <time>2012-05-06T13:25:56Z</time>
</trkpt>
<trkpt lat="46.248190000" lon="7.476180000">
  <ele>840.066650</ele>
  <time>2012-05-06T13:26:00Z</time>
</trkpt>
<trkpt lat="46.248180000" lon="7.476150000">
  <ele>840.333310</ele>
  <time>2012-05-06T13:26:01Z</time>
</trkpt>
<trkpt lat="46.248160000" lon="7.476110000">
  <ele>840.599980</ele>
  <time>2012-05-06T13:26:02Z</time>
</trkpt>
<trkpt lat="46.248150000" lon="7.476080000">
  <ele>840.866640</ele>
  <time>2012-05-06T13:26:03Z</time>
</trkpt>
<trkpt lat="46.248130000" lon="7.476050000">
  <ele>841.133360</ele>
  <time>2012-05-06T13:26:04Z</time>
</trkpt>
<trkpt lat="46.248090000" lon="7.475940000">
  <ele>841.933350</ele>
  <time>2012-05-06T13:26:07Z</time>
</trkpt>
<trkpt lat="46.248070000" lon="7.475910000">
  <ele>842.200010</ele>
  <time>2012-05-06T13:26:08Z</time>
</trkpt>
<trkpt lat="46.248060000" lon="7.475870000">
  <ele>842.466670</ele>
  <time>2012-05-06T13:26:09Z</time>
</trkpt>
<trkpt lat="46.248050000" lon="7.475830000">
  <ele>842.733340</ele>
  <time>2012-05-06T13:26:10Z</time>
</trkpt>
<trkpt lat="46.248030000" lon="7.475790000">
  <ele>843.000000</ele>
  <time>2012-05-06T13:26:11Z</time>
</trkpt>
<trkpt lat="46.247980000" lon="7.475600000">
  <ele>843.000000</ele>
  <time>2012-05-06T13:26:16Z</time>
</trkpt>
<trkpt lat="46.247920000" lon="7.475480000">
  <ele>844.099980</ele>
  <time>2012-05-06T13:26:20Z</time>
</trkpt>
<trkpt lat="46.247890000" lon="7.475470000">
  <ele>844.375000</ele>
  <time>2012-05-06T13:26:21Z</time>
</trkpt>
<trkpt lat="46.247860000" lon="7.475480000">
  <ele>844.650020</ele>
  <time>2012-05-06T13:26:22Z</time>
</trkpt>
<trkpt lat="46.247840000" lon="7.475500000">
  <ele>844.924990</ele>
  <time>2012-05-06T13:26:23Z</time>
</trkpt>
<trkpt lat="46.247810000" lon="7.475530000">
  <ele>845.200010</ele>
  <time>2012-05-06T13:26:24Z</time>
</trkpt>
<trkpt lat="46.247790000" lon="7.475560000">
  <ele>845.200010</ele>
  <time>2012-05-06T13:26:25Z</time>
</trkpt>
<trkpt lat="46.247790000" lon="7.475700000">
  <ele>845.830020</ele>
  <time>2012-05-06T13:26:28Z</time>
</trkpt>
<trkpt lat="46.247800000" lon="7.475740000">
  <ele>846.040040</ele>
  <time>2012-05-06T13:26:29Z</time>
</trkpt>
<trkpt lat="46.247820000" lon="7.475850000">
  <ele>846.670040</ele>
  <time>2012-05-06T13:26:32Z</time>
</trkpt>
<trkpt lat="46.247820000" lon="7.475890000">
  <ele>846.880000</ele>
  <time>2012-05-06T13:26:33Z</time>
</trkpt>
<trkpt lat="46.247830000" lon="7.475930000">
  <ele>847.090030</ele>
  <time>2012-05-06T13:26:34Z</time>
</trkpt>
<trkpt lat="46.247830000" lon="7.475970000">
  <ele>847.300050</ele>
  <time>2012-05-06T13:26:35Z</time>
</trkpt>
<trkpt lat="46.247830000" lon="7.476010000">
  <ele>847.510010</ele>
  <time>2012-05-06T13:26:36Z</time>
</trkpt>
<trkpt lat="46.247850000" lon="7.476200000">
  <ele>848.560000</ele>
  <time>2012-05-06T13:26:41Z</time>
</trkpt>
<trkpt lat="46.247850000" lon="7.476240000">
  <ele>848.770020</ele>
  <time>2012-05-06T13:26:42Z</time>
</trkpt>
<trkpt lat="46.247850000" lon="7.476280000">
  <ele>848.980040</ele>
  <time>2012-05-06T13:26:43Z</time>
</trkpt>
<trkpt lat="46.247850000" lon="7.476320000">
  <ele>849.190000</ele>
  <time>2012-05-06T13:26:44Z</time>
</trkpt>
<trkpt lat="46.247850000" lon="7.476360000">
  <ele>849.400020</ele>
  <time>2012-05-06T13:26:45Z</time>
</trkpt>
<trkpt lat="46.247850000" lon="7.476440000">
  <ele>849.400020</ele>
  <time>2012-05-06T13:26:47Z</time>
</trkpt>
<trkpt lat="46.247840000" lon="7.476520000">
  <ele>850.015380</ele>
  <time>2012-05-06T13:26:49Z</time>
</trkpt>
<trkpt lat="46.247830000" lon="7.476560000">
  <ele>850.323120</ele>
  <time>2012-05-06T13:26:50Z</time>
</trkpt>
<trkpt lat="46.247830000" lon="7.476590000">
  <ele>850.630800</ele>
  <time>2012-05-06T13:26:51Z</time>
</trkpt>
<trkpt lat="46.247810000" lon="7.476630000">
  <ele>850.938480</ele>
  <time>2012-05-06T13:26:52Z</time>
</trkpt>
<trkpt lat="46.247810000" lon="7.476660000">
  <ele>851.246150</ele>
  <time>2012-05-06T13:26:53Z</time>
</trkpt>
<trkpt lat="46.247790000" lon="7.476770000">
  <ele>852.169250</ele>
  <time>2012-05-06T13:26:56Z</time>
</trkpt>
<trkpt lat="46.247790000" lon="7.476810000">
  <ele>852.476930</ele>
  <time>2012-05-06T13:26:57Z</time>
</trkpt>
<trkpt lat="46.247790000" lon="7.476860000">
  <ele>852.784670</ele>
  <time>2012-05-06T13:26:58Z</time>
</trkpt>
<trkpt lat="46.247780000" lon="7.476900000">
  <ele>853.092350</ele>
  <time>2012-05-06T13:26:59Z</time>
</trkpt>
<trkpt lat="46.247770000" lon="7.476940000">
  <ele>853.400020</ele>
  <time>2012-05-06T13:27:00Z</time>
</trkpt>
<trkpt lat="46.247780000" lon="7.477060000">
  <ele>853.400020</ele>
  <time>2012-05-06T13:27:03Z</time>
</trkpt>
<trkpt lat="46.247780000" lon="7.477090000">
  <ele>853.840030</ele>
  <time>2012-05-06T13:27:04Z</time>
</trkpt>
<trkpt lat="46.247780000" lon="7.477140000">
  <ele>854.280030</ele>
  <time>2012-05-06T13:27:05Z</time>
</trkpt>
<trkpt lat="46.247790000" lon="7.477170000">
  <ele>854.719970</ele>
  <time>2012-05-06T13:27:06Z</time>
</trkpt>
<trkpt lat="46.247800000" lon="7.477220000">
  <ele>855.159970</ele>
  <time>2012-05-06T13:27:07Z</time>
</trkpt>
<trkpt lat="46.247800000" lon="7.477260000">
  <ele>855.599980</ele>
  <time>2012-05-06T13:27:08Z</time>
</trkpt>
<trkpt lat="46.247810000" lon="7.477300000">
  <ele>855.599980</ele>
  <time>2012-05-06T13:27:09Z</time>
</trkpt>
<trkpt lat="46.247870000" lon="7.477520000">
  <ele>856.799990</ele>
  <time>2012-05-06T13:27:15Z</time>
</trkpt>
<trkpt lat="46.247880000" lon="7.477550000">
  <ele>857.000000</ele>
  <time>2012-05-06T13:27:16Z</time>
</trkpt>
<trkpt lat="46.247890000" lon="7.477590000">
  <ele>857.199950</ele>
  <time>2012-05-06T13:27:17Z</time>
</trkpt>
<trkpt lat="46.247900000" lon="7.477630000">
  <ele>857.399960</ele>
  <time>2012-05-06T13:27:18Z</time>
</trkpt>
<trkpt lat="46.247910000" lon="7.477670000">
  <ele>857.599980</ele>
  <time>2012-05-06T13:27:19Z</time>
</trkpt>
<trkpt lat="46.247940000" lon="7.477770000">
  <ele>857.599980</ele>
  <time>2012-05-06T13:27:22Z</time>
</trkpt>
<trkpt lat="46.247960000" lon="7.477830000">
  <ele>858.246150</ele>
  <time>2012-05-06T13:27:24Z</time>
</trkpt>
<trkpt lat="46.247960000" lon="7.477860000">
  <ele>858.569210</ele>
  <time>2012-05-06T13:27:25Z</time>
</trkpt>
<trkpt lat="46.247970000" lon="7.477890000">
  <ele>858.892270</ele>
  <time>2012-05-06T13:27:26Z</time>
</trkpt>
<trkpt lat="46.247980000" lon="7.477930000">
  <ele>859.215390</ele>
  <time>2012-05-06T13:27:27Z</time>
</trkpt>
<trkpt lat="46.247990000" lon="7.477960000">
  <ele>859.538450</ele>
  <time>2012-05-06T13:27:28Z</time>
</trkpt>
<trkpt lat="46.248010000" lon="7.478070000">
  <ele>860.507690</ele>
  <time>2012-05-06T13:27:31Z</time>
</trkpt>
<trkpt lat="46.248020000" lon="7.478100000">
  <ele>860.830750</ele>
  <time>2012-05-06T13:27:32Z</time>
</trkpt>
<trkpt lat="46.248030000" lon="7.478130000">
  <ele>861.153810</ele>
  <time>2012-05-06T13:27:33Z</time>
</trkpt>
<trkpt lat="46.248020000" lon="7.478160000">
  <ele>861.476930</ele>
  <time>2012-05-06T13:27:34Z</time>
</trkpt>
<trkpt lat="46.248030000" lon="7.478190000">
  <ele>861.799990</ele>
  <time>2012-05-06T13:27:35Z</time>
</trkpt>
<trkpt lat="46.248050000" lon="7.478330000">
  <ele>861.799990</ele>
  <time>2012-05-06T13:27:39Z</time>
</trkpt>
<trkpt lat="46.248060000" lon="7.478360000">
  <ele>862.239990</ele>
  <time>2012-05-06T13:27:40Z</time>
</trkpt>
<trkpt lat="46.248060000" lon="7.478400000">
  <ele>862.679990</ele>
  <time>2012-05-06T13:27:41Z</time>
</trkpt>
<trkpt lat="46.248070000" lon="7.478430000">
  <ele>863.120000</ele>
  <time>2012-05-06T13:27:42Z</time>
</trkpt>
<trkpt lat="46.248070000" lon="7.478470000">
  <ele>863.560000</ele>
  <time>2012-05-06T13:27:43Z</time>
</trkpt>
<trkpt lat="46.248070000" lon="7.478500000">
  <ele>864.000000</ele>
  <time>2012-05-06T13:27:44Z</time>
</trkpt>
<trkpt lat="46.248090000" lon="7.478640000">
  <ele>864.000000</ele>
  <time>2012-05-06T13:27:48Z</time>
</trkpt>
<trkpt lat="46.248100000" lon="7.478680000">
  <ele>864.400020</ele>
  <time>2012-05-06T13:27:49Z</time>
</trkpt>
<trkpt lat="46.248100000" lon="7.478710000">
  <ele>864.799990</ele>
  <time>2012-05-06T13:27:50Z</time>
</trkpt>
<trkpt lat="46.248110000" lon="7.478750000">
  <ele>865.200010</ele>
  <time>2012-05-06T13:27:51Z</time>
</trkpt>
<trkpt lat="46.248110000" lon="7.478790000">
  <ele>865.599980</ele>
  <time>2012-05-06T13:27:52Z</time>
</trkpt>
<trkpt lat="46.248120000" lon="7.478820000">
  <ele>866.000000</ele>
  <time>2012-05-06T13:27:53Z</time>
</trkpt>
<trkpt lat="46.248140000" lon="7.478920000">
  <ele>866.000000</ele>
  <time>2012-05-06T13:27:56Z</time>
</trkpt>
<trkpt lat="46.248190000" lon="7.479090000">
  <ele>867.235290</ele>
  <time>2012-05-06T13:28:01Z</time>
</trkpt>
<trkpt lat="46.248200000" lon="7.479130000">
  <ele>867.482360</ele>
  <time>2012-05-06T13:28:02Z</time>
</trkpt>
<trkpt lat="46.248200000" lon="7.479170000">
  <ele>867.729430</ele>
  <time>2012-05-06T13:28:03Z</time>
</trkpt>
<trkpt lat="46.248210000" lon="7.479200000">
  <ele>867.976500</ele>
  <time>2012-05-06T13:28:04Z</time>
</trkpt>
<trkpt lat="46.248210000" lon="7.479240000">
  <ele>868.223510</ele>
  <time>2012-05-06T13:28:05Z</time>
</trkpt>
<trkpt lat="46.248240000" lon="7.479360000">
  <ele>869.211790</ele>
  <time>2012-05-06T13:28:09Z</time>
</trkpt>
<trkpt lat="46.248240000" lon="7.479400000">
  <ele>869.458860</ele>
  <time>2012-05-06T13:28:10Z</time>
</trkpt>
<trkpt lat="46.248250000" lon="7.479430000">
  <ele>869.705870</ele>
  <time>2012-05-06T13:28:11Z</time>
</trkpt>
<trkpt lat="46.248250000" lon="7.479470000">
  <ele>869.952940</ele>
  <time>2012-05-06T13:28:12Z</time>
</trkpt>
<trkpt lat="46.248250000" lon="7.479500000">
  <ele>870.200010</ele>
  <time>2012-05-06T13:28:13Z</time>
</trkpt>
<trkpt lat="46.248260000" lon="7.479610000">
  <ele>870.200010</ele>
  <time>2012-05-06T13:28:16Z</time>
</trkpt>
<trkpt lat="46.248270000" lon="7.479710000">
  <ele>871.142880</ele>
  <time>2012-05-06T13:28:19Z</time>
</trkpt>
<trkpt lat="46.248270000" lon="7.479740000">
  <ele>871.457150</ele>
  <time>2012-05-06T13:28:20Z</time>
</trkpt>
<trkpt lat="46.248270000" lon="7.479770000">
  <ele>871.771420</ele>
  <time>2012-05-06T13:28:21Z</time>
</trkpt>
<trkpt lat="46.248270000" lon="7.479800000">
  <ele>872.085750</ele>
  <time>2012-05-06T13:28:22Z</time>
</trkpt>
<trkpt lat="46.248270000" lon="7.479840000">
  <ele>872.400020</ele>
  <time>2012-05-06T13:28:23Z</time>
</trkpt>
<trkpt lat="46.248320000" lon="7.479970000">
  <ele>872.400020</ele>
  <time>2012-05-06T13:28:27Z</time>
</trkpt>
<trkpt lat="46.248360000" lon="7.480070000">
  <ele>873.152950</ele>
  <time>2012-05-06T13:28:30Z</time>
</trkpt>
<trkpt lat="46.248370000" lon="7.480110000">
  <ele>873.403930</ele>
  <time>2012-05-06T13:28:31Z</time>
</trkpt>
<trkpt lat="46.248390000" lon="7.480140000">
  <ele>873.654910</ele>
  <time>2012-05-06T13:28:32Z</time>
</trkpt>
<trkpt lat="46.248410000" lon="7.480180000">
  <ele>873.905880</ele>
  <time>2012-05-06T13:28:33Z</time>
</trkpt>
<trkpt lat="46.248500000" lon="7.480410000">
  <ele>875.662780</ele>
  <time>2012-05-06T13:28:40Z</time>
</trkpt>
<trkpt lat="46.248520000" lon="7.480440000">
  <ele>875.913760</ele>
  <time>2012-05-06T13:28:41Z</time>
</trkpt>
<trkpt lat="46.248530000" lon="7.480470000">
  <ele>876.164730</ele>
  <time>2012-05-06T13:28:42Z</time>
</trkpt>
<trkpt lat="46.248550000" lon="7.480500000">
  <ele>876.415710</ele>
  <time>2012-05-06T13:28:43Z</time>
</trkpt>
<trkpt lat="46.248560000" lon="7.480530000">
  <ele>876.666690</ele>
  <time>2012-05-06T13:28:44Z</time>
</trkpt>
<trkpt lat="46.248650000" lon="7.480660000">
  <ele>877.921570</ele>
  <time>2012-05-06T13:28:49Z</time>
</trkpt>
<trkpt lat="46.248670000" lon="7.480680000">
  <ele>878.172550</ele>
  <time>2012-05-06T13:28:50Z</time>
</trkpt>
<trkpt lat="46.248700000" lon="7.480700000">
  <ele>878.423520</ele>
  <time>2012-05-06T13:28:51Z</time>
</trkpt>
<trkpt lat="46.248720000" lon="7.480720000">
  <ele>878.674500</ele>
  <time>2012-05-06T13:28:52Z</time>
</trkpt>
<trkpt lat="46.248740000" lon="7.480740000">
  <ele>878.925540</ele>
  <time>2012-05-06T13:28:53Z</time>
</trkpt>
<trkpt lat="46.248840000" lon="7.480810000">
  <ele>879.929440</ele>
  <time>2012-05-06T13:28:57Z</time>
</trkpt>
<trkpt lat="46.248860000" lon="7.480830000">
  <ele>880.180420</ele>
  <time>2012-05-06T13:28:58Z</time>
</trkpt>
<trkpt lat="46.248880000" lon="7.480850000">
  <ele>880.431400</ele>
  <time>2012-05-06T13:28:59Z</time>
</trkpt>
<trkpt lat="46.248910000" lon="7.480870000">
  <ele>880.682370</ele>
  <time>2012-05-06T13:29:00Z</time>
</trkpt>
<trkpt lat="46.249020000" lon="7.480970000">
  <ele>881.937260</ele>
  <time>2012-05-06T13:29:05Z</time>
</trkpt>
<trkpt lat="46.249040000" lon="7.480990000">
  <ele>882.188230</ele>
  <time>2012-05-06T13:29:06Z</time>
</trkpt>
<trkpt lat="46.249070000" lon="7.481010000">
  <ele>882.439210</ele>
  <time>2012-05-06T13:29:07Z</time>
</trkpt>
<trkpt lat="46.249090000" lon="7.481030000">
  <ele>882.690190</ele>
  <time>2012-05-06T13:29:08Z</time>
</trkpt>
<trkpt lat="46.249110000" lon="7.481050000">
  <ele>882.941160</ele>
  <time>2012-05-06T13:29:09Z</time>
</trkpt>
<trkpt lat="46.249210000" lon="7.481160000">
  <ele>884.196110</ele>
  <time>2012-05-06T13:29:14Z</time>
</trkpt>
<trkpt lat="46.249230000" lon="7.481190000">
  <ele>884.447080</ele>
  <time>2012-05-06T13:29:15Z</time>
</trkpt>
<trkpt lat="46.249250000" lon="7.481210000">
  <ele>884.698060</ele>
  <time>2012-05-06T13:29:16Z</time>
</trkpt>
<trkpt lat="46.249260000" lon="7.481240000">
  <ele>884.949040</ele>
  <time>2012-05-06T13:29:17Z</time>
</trkpt>
<trkpt lat="46.249280000" lon="7.481270000">
  <ele>885.200010</ele>
  <time>2012-05-06T13:29:18Z</time>
</trkpt>
<trkpt lat="46.249330000" lon="7.481360000">
  <ele>885.200010</ele>
  <time>2012-05-06T13:29:21Z</time>
</trkpt>
<trkpt lat="46.249340000" lon="7.481390000">
  <ele>885.600040</ele>
  <time>2012-05-06T13:29:22Z</time>
</trkpt>
<trkpt lat="46.249360000" lon="7.481420000">
  <ele>886.000000</ele>
  <time>2012-05-06T13:29:23Z</time>
</trkpt>
<trkpt lat="46.249370000" lon="7.481460000">
  <ele>886.400020</ele>
  <time>2012-05-06T13:29:24Z</time>
</trkpt>
<trkpt lat="46.249390000" lon="7.481490000">
  <ele>886.799990</ele>
  <time>2012-05-06T13:29:25Z</time>
</trkpt>
<trkpt lat="46.249400000" lon="7.481520000">
  <ele>887.200010</ele>
  <time>2012-05-06T13:29:26Z</time>
</trkpt>
<trkpt lat="46.249440000" lon="7.481600000">
  <ele>887.200010</ele>
  <time>2012-05-06T13:29:29Z</time>
</trkpt>
<trkpt lat="46.249500000" lon="7.481720000">
  <ele>888.160030</ele>
  <time>2012-05-06T13:29:33Z</time>
</trkpt>
<trkpt lat="46.249520000" lon="7.481760000">
  <ele>888.400020</ele>
  <time>2012-05-06T13:29:34Z</time>
</trkpt>
<trkpt lat="46.249530000" lon="7.481790000">
  <ele>888.640010</ele>
  <time>2012-05-06T13:29:35Z</time>
</trkpt>
<trkpt lat="46.249550000" lon="7.481820000">
  <ele>888.880000</ele>
  <time>2012-05-06T13:29:36Z</time>
</trkpt>
<trkpt lat="46.249560000" lon="7.481850000">
  <ele>889.120000</ele>
  <time>2012-05-06T13:29:37Z</time>
</trkpt>
<trkpt lat="46.249630000" lon="7.482030000">
  <ele>890.320010</ele>
  <time>2012-05-06T13:29:42Z</time>
</trkpt>
<trkpt lat="46.249650000" lon="7.482080000">
  <ele>890.799990</ele>
  <time>2012-05-06T13:29:44Z</time>
</trkpt>
<trkpt lat="46.249650000" lon="7.482110000">
  <ele>891.039980</ele>
  <time>2012-05-06T13:29:45Z</time>
</trkpt>
<trkpt lat="46.249700000" lon="7.482320000">
  <ele>892.479980</ele>
  <time>2012-05-06T13:29:51Z</time>
</trkpt>
<trkpt lat="46.249710000" lon="7.482350000">
  <ele>892.720030</ele>
  <time>2012-05-06T13:29:52Z</time>
</trkpt>
<trkpt lat="46.249710000" lon="7.482390000">
  <ele>892.960020</ele>
  <time>2012-05-06T13:29:53Z</time>
</trkpt>
<trkpt lat="46.249720000" lon="7.482420000">
  <ele>893.200010</ele>
  <time>2012-05-06T13:29:54Z</time>
</trkpt>
<trkpt lat="46.249730000" lon="7.482460000">
  <ele>893.440000</ele>
  <time>2012-05-06T13:29:55Z</time>
</trkpt>
<trkpt lat="46.249770000" lon="7.482690000">
  <ele>894.880000</ele>
  <time>2012-05-06T13:30:01Z</time>
</trkpt>
<trkpt lat="46.249780000" lon="7.482730000">
  <ele>895.120000</ele>
  <time>2012-05-06T13:30:02Z</time>
</trkpt>
<trkpt lat="46.249790000" lon="7.482770000">
  <ele>895.359990</ele>
  <time>2012-05-06T13:30:03Z</time>
</trkpt>
<trkpt lat="46.249800000" lon="7.482800000">
  <ele>895.599980</ele>
  <time>2012-05-06T13:30:04Z</time>
</trkpt>
<trkpt lat="46.249840000" lon="7.483020000">
  <ele>897.039980</ele>
  <time>2012-05-06T13:30:10Z</time>
</trkpt>
<trkpt lat="46.249840000" lon="7.483060000">
  <ele>897.280030</ele>
  <time>2012-05-06T13:30:11Z</time>
</trkpt>
<trkpt lat="46.249850000" lon="7.483090000">
  <ele>897.520020</ele>
  <time>2012-05-06T13:30:12Z</time>
</trkpt>
<trkpt lat="46.249860000" lon="7.483130000">
  <ele>897.760010</ele>
  <time>2012-05-06T13:30:13Z</time>
</trkpt>
<trkpt lat="46.249860000" lon="7.483170000">
  <ele>898.000000</ele>
  <time>2012-05-06T13:30:14Z</time>
</trkpt>
<trkpt lat="46.249880000" lon="7.483400000">
  <ele>898.000000</ele>
  <time>2012-05-06T13:30:20Z</time>
</trkpt>
<trkpt lat="46.249890000" lon="7.483570000">
  <ele>899.000000</ele>
  <time>2012-05-06T13:30:24Z</time>
</trkpt>
<trkpt lat="46.249890000" lon="7.483610000">
  <ele>899.250000</ele>
  <time>2012-05-06T13:30:25Z</time>
</trkpt>
<trkpt lat="46.249890000" lon="7.483640000">
  <ele>899.500000</ele>
  <time>2012-05-06T13:30:26Z</time>
</trkpt>
<trkpt lat="46.249880000" lon="7.483680000">
  <ele>899.750000</ele>
  <time>2012-05-06T13:30:27Z</time>
</trkpt>
<trkpt lat="46.249860000" lon="7.483700000">
  <ele>900.000000</ele>
  <time>2012-05-06T13:30:28Z</time>
</trkpt>
<trkpt lat="46.249840000" lon="7.483710000">
  <ele>900.000000</ele>
  <time>2012-05-06T13:30:29Z</time>
</trkpt>
<trkpt lat="46.249820000" lon="7.483690000">
  <ele>900.157170</ele>
  <time>2012-05-06T13:30:30Z</time>
</trkpt>
<trkpt lat="46.249770000" lon="7.483640000">
  <ele>900.471440</ele>
  <time>2012-05-06T13:30:32Z</time>
</trkpt>
<trkpt lat="46.249730000" lon="7.483590000">
  <ele>900.785710</ele>
  <time>2012-05-06T13:30:34Z</time>
</trkpt>
<trkpt lat="46.249680000" lon="7.483530000">
  <ele>901.099980</ele>
  <time>2012-05-06T13:30:36Z</time>
</trkpt>
<trkpt lat="46.249610000" lon="7.483440000">
  <ele>901.571410</ele>
  <time>2012-05-06T13:30:39Z</time>
</trkpt>
<trkpt lat="46.249580000" lon="7.483420000">
  <ele>901.728580</ele>
  <time>2012-05-06T13:30:40Z</time>
</trkpt>
<trkpt lat="46.249550000" lon="7.483390000">
  <ele>901.885740</ele>
  <time>2012-05-06T13:30:41Z</time>
</trkpt>
<trkpt lat="46.249530000" lon="7.483360000">
  <ele>902.042850</ele>
  <time>2012-05-06T13:30:42Z</time>
</trkpt>
<trkpt lat="46.249500000" lon="7.483340000">
  <ele>902.200010</ele>
  <time>2012-05-06T13:30:43Z</time>
</trkpt>
<trkpt lat="46.249310000" lon="7.483090000">
  <ele>902.200010</ele>
  <time>2012-05-06T13:30:52Z</time>
</trkpt>
<trkpt lat="46.249140000" lon="7.482870000">
  <ele>903.600040</ele>
  <time>2012-05-06T13:30:59Z</time>
</trkpt>
<trkpt lat="46.249120000" lon="7.482830000">
  <ele>903.800050</ele>
  <time>2012-05-06T13:31:00Z</time>
</trkpt>
<trkpt lat="46.249100000" lon="7.482800000">
  <ele>904.000000</ele>
  <time>2012-05-06T13:31:01Z</time>
</trkpt>
<trkpt lat="46.249080000" lon="7.482760000">
  <ele>904.200010</ele>
  <time>2012-05-06T13:31:02Z</time>
</trkpt>
<trkpt lat="46.249050000" lon="7.482730000">
  <ele>904.400020</ele>
  <time>2012-05-06T13:31:03Z</time>
</trkpt>
<trkpt lat="46.248940000" lon="7.482580000">
  <ele>904.400020</ele>
  <time>2012-05-06T13:31:08Z</time>
</trkpt>
<trkpt lat="46.248790000" lon="7.482420000">
  <ele>905.733340</ele>
  <time>2012-05-06T13:31:14Z</time>
</trkpt>
<trkpt lat="46.248760000" lon="7.482400000">
  <ele>905.955570</ele>
  <time>2012-05-06T13:31:15Z</time>
</trkpt>
<trkpt lat="46.248740000" lon="7.482370000">
  <ele>906.177800</ele>
  <time>2012-05-06T13:31:16Z</time>
</trkpt>
<trkpt lat="46.248710000" lon="7.482350000">
  <ele>906.400020</ele>
  <time>2012-05-06T13:31:17Z</time>
</trkpt>
<trkpt lat="46.248550000" lon="7.482180000">
  <ele>906.400020</ele>
  <time>2012-05-06T13:31:23Z</time>
</trkpt>
<trkpt lat="46.248420000" lon="7.482080000">
  <ele>907.333370</ele>
  <time>2012-05-06T13:31:27Z</time>
</trkpt>
<trkpt lat="46.248400000" lon="7.482050000">
  <ele>907.566650</ele>
  <time>2012-05-06T13:31:28Z</time>
</trkpt>
<trkpt lat="46.248370000" lon="7.482020000">
  <ele>907.799990</ele>
  <time>2012-05-06T13:31:29Z</time>
</trkpt>
<trkpt lat="46.248340000" lon="7.481990000">
  <ele>908.033330</ele>
  <time>2012-05-06T13:31:30Z</time>
</trkpt>
<trkpt lat="46.248320000" lon="7.481960000">
  <ele>908.266660</ele>
  <time>2012-05-06T13:31:31Z</time>
</trkpt>
<trkpt lat="46.248160000" lon="7.481790000">
  <ele>909.666630</ele>
  <time>2012-05-06T13:31:37Z</time>
</trkpt>
<trkpt lat="46.248130000" lon="7.481760000">
  <ele>909.899960</ele>
  <time>2012-05-06T13:31:38Z</time>
</trkpt>
<trkpt lat="46.248110000" lon="7.481730000">
  <ele>910.133300</ele>
  <time>2012-05-06T13:31:39Z</time>
</trkpt>
<trkpt lat="46.248090000" lon="7.481700000">
  <ele>910.366640</ele>
  <time>2012-05-06T13:31:40Z</time>
</trkpt>
<trkpt lat="46.248070000" lon="7.481660000">
  <ele>910.599980</ele>
  <time>2012-05-06T13:31:41Z</time>
</trkpt>
<trkpt lat="46.247970000" lon="7.481470000">
  <ele>910.599980</ele>
  <time>2012-05-06T13:31:46Z</time>
</trkpt>
<trkpt lat="46.247910000" lon="7.481310000">
  <ele>911.719970</ele>
  <time>2012-05-06T13:31:50Z</time>
</trkpt>
<trkpt lat="46.247890000" lon="7.481270000">
  <ele>912.000000</ele>
  <time>2012-05-06T13:31:51Z</time>
</trkpt>
<trkpt lat="46.247880000" lon="7.481230000">
  <ele>912.279970</ele>
  <time>2012-05-06T13:31:52Z</time>
</trkpt>
<trkpt lat="46.247860000" lon="7.481200000">
  <ele>912.560000</ele>
  <time>2012-05-06T13:31:53Z</time>
</trkpt>
<trkpt lat="46.247840000" lon="7.481160000">
  <ele>912.839970</ele>
  <time>2012-05-06T13:31:54Z</time>
</trkpt>
<trkpt lat="46.247790000" lon="7.481070000">
  <ele>913.679990</ele>
  <time>2012-05-06T13:31:57Z</time>
</trkpt>
<trkpt lat="46.247770000" lon="7.481040000">
  <ele>913.959960</ele>
  <time>2012-05-06T13:31:58Z</time>
</trkpt>
<trkpt lat="46.247750000" lon="7.481010000">
  <ele>914.239990</ele>
  <time>2012-05-06T13:31:59Z</time>
</trkpt>
<trkpt lat="46.247720000" lon="7.480980000">
  <ele>914.519960</ele>
  <time>2012-05-06T13:32:00Z</time>
</trkpt>
<trkpt lat="46.247700000" lon="7.480950000">
  <ele>914.799990</ele>
  <time>2012-05-06T13:32:01Z</time>
</trkpt>
<trkpt lat="46.247540000" lon="7.480800000">
  <ele>914.799990</ele>
  <time>2012-05-06T13:32:07Z</time>
</trkpt>
<trkpt lat="46.247390000" lon="7.480610000">
  <ele>915.799990</ele>
  <time>2012-05-06T13:32:13Z</time>
</trkpt>
<trkpt lat="46.247340000" lon="7.480540000">
  <ele>916.133300</ele>
  <time>2012-05-06T13:32:15Z</time>
</trkpt>
<trkpt lat="46.247320000" lon="7.480500000">
  <ele>916.299990</ele>
  <time>2012-05-06T13:32:16Z</time>
</trkpt>
<trkpt lat="46.247300000" lon="7.480470000">
  <ele>916.466670</ele>
  <time>2012-05-06T13:32:17Z</time>
</trkpt>
<trkpt lat="46.247270000" lon="7.480430000">
  <ele>916.633300</ele>
  <time>2012-05-06T13:32:18Z</time>
</trkpt>
<trkpt lat="46.247250000" lon="7.480400000">
  <ele>916.799990</ele>
  <time>2012-05-06T13:32:19Z</time>
</trkpt>
<trkpt lat="46.247220000" lon="7.480360000">
  <ele>916.799990</ele>
  <time>2012-05-06T13:32:20Z</time>
</trkpt>
<trkpt lat="46.247060000" lon="7.480090000">
  <ele>917.349980</ele>
  <time>2012-05-06T13:32:27Z</time>
</trkpt>
<trkpt lat="46.246970000" lon="7.479930000">
  <ele>917.664310</ele>
  <time>2012-05-06T13:32:31Z</time>
</trkpt>
<trkpt lat="46.246950000" lon="7.479890000">
  <ele>917.742860</ele>
  <time>2012-05-06T13:32:32Z</time>
</trkpt>
<trkpt lat="46.246870000" lon="7.479760000">
  <ele>917.978580</ele>
  <time>2012-05-06T13:32:35Z</time>
</trkpt>
<trkpt lat="46.246730000" lon="7.479490000">
  <ele>918.450010</ele>
  <time>2012-05-06T13:32:41Z</time>
</trkpt>
<trkpt lat="46.246690000" lon="7.479370000">
  <ele>918.685730</ele>
  <time>2012-05-06T13:32:44Z</time>
</trkpt>
<trkpt lat="46.246660000" lon="7.479320000">
  <ele>918.764280</ele>
  <time>2012-05-06T13:32:45Z</time>
</trkpt>
<trkpt lat="46.246640000" lon="7.479270000">
  <ele>918.842830</ele>
  <time>2012-05-06T13:32:46Z</time>
</trkpt>
<trkpt lat="46.246610000" lon="7.479210000">
  <ele>918.921450</ele>
  <time>2012-05-06T13:32:47Z</time>
</trkpt>
<trkpt lat="46.246590000" lon="7.479150000">
  <ele>919.000000</ele>
  <time>2012-05-06T13:32:48Z</time>
</trkpt>
<trkpt lat="46.246440000" lon="7.478850000">
  <ele>919.000000</ele>
  <time>2012-05-06T13:32:54Z</time>
</trkpt>
<trkpt lat="46.246380000" lon="7.478770000">
  <ele>919.733340</ele>
  <time>2012-05-06T13:32:56Z</time>
</trkpt>
<trkpt lat="46.246350000" lon="7.478740000">
  <ele>920.099980</ele>
  <time>2012-05-06T13:32:57Z</time>
</trkpt>
<trkpt lat="46.246320000" lon="7.478700000">
  <ele>920.466670</ele>
  <time>2012-05-06T13:32:58Z</time>
</trkpt>
<trkpt lat="46.246300000" lon="7.478660000">
  <ele>920.833370</ele>
  <time>2012-05-06T13:32:59Z</time>
</trkpt>
<trkpt lat="46.246280000" lon="7.478630000">
  <ele>921.200010</ele>
  <time>2012-05-06T13:33:00Z</time>
</trkpt>
<trkpt lat="46.246250000" lon="7.478600000">
  <ele>921.200010</ele>
  <time>2012-05-06T13:33:01Z</time>
</trkpt>
<trkpt lat="46.246180000" lon="7.478500000">
  <ele>922.300050</ele>
  <time>2012-05-06T13:33:05Z</time>
</trkpt>
<trkpt lat="46.246170000" lon="7.478480000">
  <ele>922.575010</ele>
  <time>2012-05-06T13:33:06Z</time>
</trkpt>
<trkpt lat="46.246150000" lon="7.478450000">
  <ele>922.850040</ele>
  <time>2012-05-06T13:33:07Z</time>
</trkpt>
<trkpt lat="46.246130000" lon="7.478410000">
  <ele>923.125000</ele>
  <time>2012-05-06T13:33:08Z</time>
</trkpt>
<trkpt lat="46.246110000" lon="7.478370000">
  <ele>923.400020</ele>
  <time>2012-05-06T13:33:09Z</time>
</trkpt>
<trkpt lat="46.246050000" lon="7.478250000">
  <ele>923.400020</ele>
  <time>2012-05-06T13:33:11Z</time>
</trkpt>
<trkpt lat="46.245990000" lon="7.478130000">
  <ele>924.490910</ele>
  <time>2012-05-06T13:33:14Z</time>
</trkpt>
<trkpt lat="46.245980000" lon="7.478090000">
  <ele>924.854550</ele>
  <time>2012-05-06T13:33:15Z</time>
</trkpt>
<trkpt lat="46.245960000" lon="7.478050000">
  <ele>925.218200</ele>
  <time>2012-05-06T13:33:16Z</time>
</trkpt>
<trkpt lat="46.245940000" lon="7.478010000">
  <ele>925.581850</ele>
  <time>2012-05-06T13:33:17Z</time>
</trkpt>
<trkpt lat="46.245920000" lon="7.477970000">
  <ele>925.945500</ele>
  <time>2012-05-06T13:33:18Z</time>
</trkpt>
<trkpt lat="46.245900000" lon="7.477920000">
  <ele>926.309140</ele>
  <time>2012-05-06T13:33:19Z</time>
</trkpt>
<trkpt lat="46.245890000" lon="7.477870000">
  <ele>926.672730</ele>
  <time>2012-05-06T13:33:20Z</time>
</trkpt>
<trkpt lat="46.245880000" lon="7.477830000">
  <ele>927.036380</ele>
  <time>2012-05-06T13:33:21Z</time>
</trkpt>
<trkpt lat="46.245860000" lon="7.477780000">
  <ele>927.400020</ele>
  <time>2012-05-06T13:33:22Z</time>
</trkpt>
<trkpt lat="46.245850000" lon="7.477540000">
  <ele>927.400020</ele>
  <time>2012-05-06T13:33:27Z</time>
</trkpt>
<trkpt lat="46.245820000" lon="7.477290000">
  <ele>928.239990</ele>
  <time>2012-05-06T13:33:32Z</time>
</trkpt>
<trkpt lat="46.245770000" lon="7.477030000">
  <ele>929.080020</ele>
  <time>2012-05-06T13:33:37Z</time>
</trkpt>
<trkpt lat="46.245740000" lon="7.476940000">
  <ele>929.416020</ele>
  <time>2012-05-06T13:33:39Z</time>
</trkpt>
<trkpt lat="46.245660000" lon="7.476830000">
  <ele>929.919980</ele>
  <time>2012-05-06T13:33:42Z</time>
</trkpt>
<trkpt lat="46.245640000" lon="7.476810000">
  <ele>930.088010</ele>
  <time>2012-05-06T13:33:43Z</time>
</trkpt>
<trkpt lat="46.245610000" lon="7.476780000">
  <ele>930.255980</ele>
  <time>2012-05-06T13:33:44Z</time>
</trkpt>
<trkpt lat="46.245580000" lon="7.476750000">
  <ele>930.424010</ele>
  <time>2012-05-06T13:33:45Z</time>
</trkpt>
<trkpt lat="46.245500000" lon="7.476670000">
  <ele>930.760010</ele>
  <time>2012-05-06T13:33:47Z</time>
</trkpt>
<trkpt lat="46.245470000" lon="7.476650000">
  <ele>931.096010</ele>
  <time>2012-05-06T13:33:49Z</time>
</trkpt>
<trkpt lat="46.245450000" lon="7.476620000">
  <ele>931.263980</ele>
  <time>2012-05-06T13:33:50Z</time>
</trkpt>
<trkpt lat="46.245430000" lon="7.476590000">
  <ele>931.432010</ele>
  <time>2012-05-06T13:33:51Z</time>
</trkpt>
<trkpt lat="46.245400000" lon="7.476560000">
  <ele>931.599980</ele>
  <time>2012-05-06T13:33:52Z</time>
</trkpt>
<trkpt lat="46.245370000" lon="7.476530000">
  <ele>931.599980</ele>
  <time>2012-05-06T13:33:53Z</time>
</trkpt>
<trkpt lat="46.245310000" lon="7.476480000">
  <ele>932.436340</ele>
  <time>2012-05-06T13:33:55Z</time>
</trkpt>
<trkpt lat="46.245290000" lon="7.476460000">
  <ele>932.854550</ele>
  <time>2012-05-06T13:33:56Z</time>
</trkpt>
<trkpt lat="46.245270000" lon="7.476440000">
  <ele>933.272710</ele>
  <time>2012-05-06T13:33:57Z</time>
</trkpt>
<trkpt lat="46.245250000" lon="7.476410000">
  <ele>933.690920</ele>
  <time>2012-05-06T13:33:58Z</time>
</trkpt>
<trkpt lat="46.245230000" lon="7.476390000">
  <ele>934.109070</ele>
  <time>2012-05-06T13:33:59Z</time>
</trkpt>
<trkpt lat="46.245210000" lon="7.476360000">
  <ele>934.527280</ele>
  <time>2012-05-06T13:34:00Z</time>
</trkpt>
<trkpt lat="46.245200000" lon="7.476330000">
  <ele>934.945430</ele>
  <time>2012-05-06T13:34:01Z</time>
</trkpt>
<trkpt lat="46.245190000" lon="7.476300000">
  <ele>935.363650</ele>
  <time>2012-05-06T13:34:02Z</time>
</trkpt>
<trkpt lat="46.245180000" lon="7.476270000">
  <ele>935.781800</ele>
  <time>2012-05-06T13:34:03Z</time>
</trkpt>
<trkpt lat="46.245170000" lon="7.476240000">
  <ele>936.200010</ele>
  <time>2012-05-06T13:34:04Z</time>
</trkpt>
<trkpt lat="46.245170000" lon="7.476210000">
  <ele>936.200010</ele>
  <time>2012-05-06T13:34:05Z</time>
</trkpt>
<trkpt lat="46.245150000" lon="7.476140000">
  <ele>937.000000</ele>
  <time>2012-05-06T13:34:07Z</time>
</trkpt>
<trkpt lat="46.245140000" lon="7.476110000">
  <ele>937.400020</ele>
  <time>2012-05-06T13:34:08Z</time>
</trkpt>
<trkpt lat="46.245140000" lon="7.476080000">
  <ele>937.799990</ele>
  <time>2012-05-06T13:34:09Z</time>
</trkpt>
<trkpt lat="46.245130000" lon="7.476050000">
  <ele>938.200010</ele>
  <time>2012-05-06T13:34:10Z</time>
</trkpt>
<trkpt lat="46.245120000" lon="7.475940000">
  <ele>938.200010</ele>
  <time>2012-05-06T13:34:13Z</time>
</trkpt>
<trkpt lat="46.245120000" lon="7.475840000">
  <ele>938.976500</ele>
  <time>2012-05-06T13:34:16Z</time>
</trkpt>
<trkpt lat="46.245120000" lon="7.475800000">
  <ele>939.235290</ele>
  <time>2012-05-06T13:34:17Z</time>
</trkpt>
<trkpt lat="46.245120000" lon="7.475760000">
  <ele>939.494140</ele>
  <time>2012-05-06T13:34:18Z</time>
</trkpt>
<trkpt lat="46.245120000" lon="7.475720000">
  <ele>939.752930</ele>
  <time>2012-05-06T13:34:19Z</time>
</trkpt>
<trkpt lat="46.245130000" lon="7.475690000">
  <ele>940.011780</ele>
  <time>2012-05-06T13:34:20Z</time>
</trkpt>
<trkpt lat="46.245130000" lon="7.475490000">
  <ele>941.564700</ele>
  <time>2012-05-06T13:34:26Z</time>
</trkpt>
<trkpt lat="46.245130000" lon="7.475460000">
  <ele>941.823490</ele>
  <time>2012-05-06T13:34:27Z</time>
</trkpt>
<trkpt lat="46.245130000" lon="7.475430000">
  <ele>942.082340</ele>
  <time>2012-05-06T13:34:28Z</time>
</trkpt>
<trkpt lat="46.245130000" lon="7.475400000">
  <ele>942.341130</ele>
  <time>2012-05-06T13:34:29Z</time>
</trkpt>
<trkpt lat="46.245130000" lon="7.475370000">
  <ele>942.599980</ele>
  <time>2012-05-06T13:34:30Z</time>
</trkpt>
<trkpt lat="46.245140000" lon="7.475140000">
  <ele>942.599980</ele>
  <time>2012-05-06T13:34:37Z</time>
</trkpt>
<trkpt lat="46.245140000" lon="7.475080000">
  <ele>943.333310</ele>
  <time>2012-05-06T13:34:39Z</time>
</trkpt>
<trkpt lat="46.245140000" lon="7.475050000">
  <ele>943.699950</ele>
  <time>2012-05-06T13:34:40Z</time>
</trkpt>
<trkpt lat="46.245140000" lon="7.475010000">
  <ele>944.066650</ele>
  <time>2012-05-06T13:34:41Z</time>
</trkpt>
<trkpt lat="46.245140000" lon="7.474980000">
  <ele>944.433350</ele>
  <time>2012-05-06T13:34:42Z</time>
</trkpt>
<trkpt lat="46.245140000" lon="7.474950000">
  <ele>944.799990</ele>
  <time>2012-05-06T13:34:43Z</time>
</trkpt>
<trkpt lat="46.245150000" lon="7.474920000">
  <ele>944.799990</ele>
  <time>2012-05-06T13:34:44Z</time>
</trkpt>
<trkpt lat="46.245150000" lon="7.474880000">
  <ele>945.200010</ele>
  <time>2012-05-06T13:34:45Z</time>
</trkpt>
<trkpt lat="46.245150000" lon="7.474850000">
  <ele>945.599980</ele>
  <time>2012-05-06T13:34:46Z</time>
</trkpt>
<trkpt lat="46.245140000" lon="7.474820000">
  <ele>946.000000</ele>
  <time>2012-05-06T13:34:47Z</time>
</trkpt>
<trkpt lat="46.245140000" lon="7.474780000">
  <ele>946.399960</ele>
  <time>2012-05-06T13:34:48Z</time>
</trkpt>
<trkpt lat="46.245140000" lon="7.474750000">
  <ele>946.799990</ele>
  <time>2012-05-06T13:34:49Z</time>
</trkpt>
<trkpt lat="46.245120000" lon="7.474580000">
  <ele>946.799990</ele>
  <time>2012-05-06T13:34:54Z</time>
</trkpt>
<trkpt lat="46.245120000" lon="7.474540000">
  <ele>947.349980</ele>
  <time>2012-05-06T13:34:55Z</time>
</trkpt>
<trkpt lat="46.245110000" lon="7.474510000">
  <ele>947.900020</ele>
  <time>2012-05-06T13:34:56Z</time>
</trkpt>
<trkpt lat="46.245100000" lon="7.474480000">
  <ele>948.450010</ele>
  <time>2012-05-06T13:34:57Z</time>
</trkpt>
<trkpt lat="46.245090000" lon="7.474450000">
  <ele>949.000000</ele>
  <time>2012-05-06T13:34:58Z</time>
</trkpt>
<trkpt lat="46.245050000" lon="7.474330000">
  <ele>949.000000</ele>
  <time>2012-05-06T13:35:02Z</time>
</trkpt>
<trkpt lat="46.244980000" lon="7.474130000">
  <ele>950.924990</ele>
  <time>2012-05-06T13:35:09Z</time>
</trkpt>
<trkpt lat="46.244960000" lon="7.474080000">
  <ele>951.474980</ele>
  <time>2012-05-06T13:35:11Z</time>
</trkpt>
<trkpt lat="46.244950000" lon="7.474050000">
  <ele>951.750000</ele>
  <time>2012-05-06T13:35:12Z</time>
</trkpt>
<trkpt lat="46.244940000" lon="7.474020000">
  <ele>952.024960</ele>
  <time>2012-05-06T13:35:13Z</time>
</trkpt>
<trkpt lat="46.244930000" lon="7.473990000">
  <ele>952.299990</ele>
  <time>2012-05-06T13:35:14Z</time>
</trkpt>
<trkpt lat="46.244920000" lon="7.473960000">
  <ele>952.575010</ele>
  <time>2012-05-06T13:35:15Z</time>
</trkpt>
<trkpt lat="46.244900000" lon="7.473930000">
  <ele>952.849980</ele>
  <time>2012-05-06T13:35:16Z</time>
</trkpt>
<trkpt lat="46.244900000" lon="7.473900000">
  <ele>953.125000</ele>
  <time>2012-05-06T13:35:17Z</time>
</trkpt>
<trkpt lat="46.244880000" lon="7.473870000">
  <ele>953.399960</ele>
  <time>2012-05-06T13:35:18Z</time>
</trkpt>
<trkpt lat="46.244870000" lon="7.473840000">
  <ele>953.674990</ele>
  <time>2012-05-06T13:35:19Z</time>
</trkpt>
<trkpt lat="46.244840000" lon="7.473750000">
  <ele>954.500000</ele>
  <time>2012-05-06T13:35:22Z</time>
</trkpt>
<trkpt lat="46.244830000" lon="7.473720000">
  <ele>954.774960</ele>
  <time>2012-05-06T13:35:23Z</time>
</trkpt>
<trkpt lat="46.244820000" lon="7.473680000">
  <ele>955.049990</ele>
  <time>2012-05-06T13:35:24Z</time>
</trkpt>
<trkpt lat="46.244810000" lon="7.473650000">
  <ele>955.324950</ele>
  <time>2012-05-06T13:35:25Z</time>
</trkpt>
<trkpt lat="46.244810000" lon="7.473610000">
  <ele>955.599980</ele>
  <time>2012-05-06T13:35:26Z</time>
</trkpt>
<trkpt lat="46.244800000" lon="7.473570000">
  <ele>955.599980</ele>
  <time>2012-05-06T13:35:27Z</time>
</trkpt>
<trkpt lat="46.244790000" lon="7.473400000">
  <ele>956.766660</ele>
  <time>2012-05-06T13:35:32Z</time>
</trkpt>
<trkpt lat="46.244790000" lon="7.473370000">
  <ele>957.000000</ele>
  <time>2012-05-06T13:35:33Z</time>
</trkpt>
<trkpt lat="46.244790000" lon="7.473330000">
  <ele>957.233340</ele>
  <time>2012-05-06T13:35:34Z</time>
</trkpt>
<trkpt lat="46.244790000" lon="7.473300000">
  <ele>957.466670</ele>
  <time>2012-05-06T13:35:35Z</time>
</trkpt>
<trkpt lat="46.244790000" lon="7.473260000">
  <ele>957.699950</ele>
  <time>2012-05-06T13:35:36Z</time>
</trkpt>
<trkpt lat="46.244800000" lon="7.473220000">
  <ele>957.933290</ele>
  <time>2012-05-06T13:35:37Z</time>
</trkpt>
<trkpt lat="46.244830000" lon="7.473090000">
  <ele>958.866640</ele>
  <time>2012-05-06T13:35:41Z</time>
</trkpt>
<trkpt lat="46.244830000" lon="7.473060000">
  <ele>959.099980</ele>
  <time>2012-05-06T13:35:42Z</time>
</trkpt>
<trkpt lat="46.244840000" lon="7.473030000">
  <ele>959.333310</ele>
  <time>2012-05-06T13:35:43Z</time>
</trkpt>
<trkpt lat="46.244850000" lon="7.473000000">
  <ele>959.566650</ele>
  <time>2012-05-06T13:35:44Z</time>
</trkpt>
<trkpt lat="46.244850000" lon="7.472970000">
  <ele>959.799990</ele>
  <time>2012-05-06T13:35:45Z</time>
</trkpt>
<trkpt lat="46.244890000" lon="7.472770000">
  <ele>961.200010</ele>
  <time>2012-05-06T13:35:51Z</time>
</trkpt>
<trkpt lat="46.244890000" lon="7.472730000">
  <ele>961.433350</ele>
  <time>2012-05-06T13:35:52Z</time>
</trkpt>
<trkpt lat="46.244890000" lon="7.472700000">
  <ele>961.666690</ele>
  <time>2012-05-06T13:35:53Z</time>
</trkpt>
<trkpt lat="46.244890000" lon="7.472670000">
  <ele>961.900020</ele>
  <time>2012-05-06T13:35:54Z</time>
</trkpt>
<trkpt lat="46.244900000" lon="7.472640000">
  <ele>962.133300</ele>
  <time>2012-05-06T13:35:55Z</time>
</trkpt>
<trkpt lat="46.244900000" lon="7.472470000">
  <ele>963.299990</ele>
  <time>2012-05-06T13:36:00Z</time>
</trkpt>
<trkpt lat="46.244900000" lon="7.472440000">
  <ele>963.533330</ele>
  <time>2012-05-06T13:36:01Z</time>
</trkpt>
<trkpt lat="46.244900000" lon="7.472410000">
  <ele>963.766660</ele>
  <time>2012-05-06T13:36:02Z</time>
</trkpt>
<trkpt lat="46.244890000" lon="7.472370000">
  <ele>964.000000</ele>
  <time>2012-05-06T13:36:03Z</time>
</trkpt>
<trkpt lat="46.244870000" lon="7.472280000">
  <ele>964.000000</ele>
  <time>2012-05-06T13:36:06Z</time>
</trkpt>
<trkpt lat="46.244860000" lon="7.472240000">
  <ele>964.440000</ele>
  <time>2012-05-06T13:36:07Z</time>
</trkpt>
<trkpt lat="46.244850000" lon="7.472210000">
  <ele>964.880000</ele>
  <time>2012-05-06T13:36:08Z</time>
</trkpt>
<trkpt lat="46.244850000" lon="7.472180000">
  <ele>965.320010</ele>
  <time>2012-05-06T13:36:09Z</time>
</trkpt>
<trkpt lat="46.244840000" lon="7.472150000">
  <ele>965.760010</ele>
  <time>2012-05-06T13:36:10Z</time>
</trkpt>
<trkpt lat="46.244840000" lon="7.472120000">
  <ele>966.200010</ele>
  <time>2012-05-06T13:36:11Z</time>
</trkpt>
<trkpt lat="46.244830000" lon="7.472060000">
  <ele>966.200010</ele>
  <time>2012-05-06T13:36:13Z</time>
</trkpt>
<trkpt lat="46.244820000" lon="7.471910000">
  <ele>967.126340</ele>
  <time>2012-05-06T13:36:17Z</time>
</trkpt>
<trkpt lat="46.244810000" lon="7.471810000">
  <ele>967.821040</ele>
  <time>2012-05-06T13:36:20Z</time>
</trkpt>
<trkpt lat="46.244820000" lon="7.471750000">
  <ele>968.284180</ele>
  <time>2012-05-06T13:36:22Z</time>
</trkpt>
<trkpt lat="46.244810000" lon="7.471720000">
  <ele>968.515810</ele>
  <time>2012-05-06T13:36:23Z</time>
</trkpt>
<trkpt lat="46.244810000" lon="7.471680000">
  <ele>968.747380</ele>
  <time>2012-05-06T13:36:24Z</time>
</trkpt>
<trkpt lat="46.244810000" lon="7.471650000">
  <ele>968.978940</ele>
  <time>2012-05-06T13:36:25Z</time>
</trkpt>
<trkpt lat="46.244810000" lon="7.471610000">
  <ele>969.210510</ele>
  <time>2012-05-06T13:36:26Z</time>
</trkpt>
<trkpt lat="46.244820000" lon="7.471540000">
  <ele>969.673650</ele>
  <time>2012-05-06T13:36:28Z</time>
</trkpt>
<trkpt lat="46.244830000" lon="7.471510000">
  <ele>969.905270</ele>
  <time>2012-05-06T13:36:29Z</time>
</trkpt>
<trkpt lat="46.244830000" lon="7.471480000">
  <ele>970.136840</ele>
  <time>2012-05-06T13:36:30Z</time>
</trkpt>
<trkpt lat="46.244830000" lon="7.471450000">
  <ele>970.368410</ele>
  <time>2012-05-06T13:36:31Z</time>
</trkpt>
<trkpt lat="46.244840000" lon="7.471410000">
  <ele>970.599980</ele>
  <time>2012-05-06T13:36:32Z</time>
</trkpt>
<trkpt lat="46.244840000" lon="7.471380000">
  <ele>970.599980</ele>
  <time>2012-05-06T13:36:33Z</time>
</trkpt>
<trkpt lat="46.244860000" lon="7.471320000">
  <ele>971.125000</ele>
  <time>2012-05-06T13:36:35Z</time>
</trkpt>
<trkpt lat="46.244860000" lon="7.471290000">
  <ele>971.387450</ele>
  <time>2012-05-06T13:36:36Z</time>
</trkpt>
<trkpt lat="46.244870000" lon="7.471250000">
  <ele>971.649960</ele>
  <time>2012-05-06T13:36:37Z</time>
</trkpt>
<trkpt lat="46.244870000" lon="7.471210000">
  <ele>971.912480</ele>
  <time>2012-05-06T13:36:38Z</time>
</trkpt>
<trkpt lat="46.244880000" lon="7.471180000">
  <ele>972.174990</ele>
  <time>2012-05-06T13:36:39Z</time>
</trkpt>
<trkpt lat="46.244920000" lon="7.470980000">
  <ele>973.750000</ele>
  <time>2012-05-06T13:36:45Z</time>
</trkpt>
<trkpt lat="46.244910000" lon="7.470940000">
  <ele>974.012510</ele>
  <time>2012-05-06T13:36:46Z</time>
</trkpt>
<trkpt lat="46.244910000" lon="7.470910000">
  <ele>974.274960</ele>
  <time>2012-05-06T13:36:47Z</time>
</trkpt>
<trkpt lat="46.244920000" lon="7.470880000">
  <ele>974.537480</ele>
  <time>2012-05-06T13:36:48Z</time>
</trkpt>
<trkpt lat="46.244920000" lon="7.470840000">
  <ele>974.799990</ele>
  <time>2012-05-06T13:36:49Z</time>
</trkpt>
<trkpt lat="46.244930000" lon="7.470720000">
  <ele>974.799990</ele>
  <time>2012-05-06T13:36:52Z</time>
</trkpt>
<trkpt lat="46.244930000" lon="7.470680000">
  <ele>975.200010</ele>
  <time>2012-05-06T13:36:53Z</time>
</trkpt>
<trkpt lat="46.244940000" lon="7.470650000">
  <ele>975.599980</ele>
  <time>2012-05-06T13:36:54Z</time>
</trkpt>
<trkpt lat="46.244940000" lon="7.470620000">
  <ele>976.000000</ele>
  <time>2012-05-06T13:36:55Z</time>
</trkpt>
<trkpt lat="46.244950000" lon="7.470580000">
  <ele>976.399960</ele>
  <time>2012-05-06T13:36:56Z</time>
</trkpt>
<trkpt lat="46.244950000" lon="7.470550000">
  <ele>976.799990</ele>
  <time>2012-05-06T13:36:57Z</time>
</trkpt>
<trkpt lat="46.244950000" lon="7.470470000">
  <ele>976.799990</ele>
  <time>2012-05-06T13:36:59Z</time>
</trkpt>
<trkpt lat="46.244950000" lon="7.470440000">
  <ele>977.181820</ele>
  <time>2012-05-06T13:37:00Z</time>
</trkpt>
<trkpt lat="46.244950000" lon="7.470400000">
  <ele>977.563600</ele>
  <time>2012-05-06T13:37:01Z</time>
</trkpt>
<trkpt lat="46.244950000" lon="7.470360000">
  <ele>977.945430</ele>
  <time>2012-05-06T13:37:02Z</time>
</trkpt>
<trkpt lat="46.244950000" lon="7.470330000">
  <ele>978.327270</ele>
  <time>2012-05-06T13:37:03Z</time>
</trkpt>
<trkpt lat="46.244950000" lon="7.470290000">
  <ele>978.709110</ele>
  <time>2012-05-06T13:37:04Z</time>
</trkpt>
<trkpt lat="46.244940000" lon="7.470230000">
  <ele>979.472720</ele>
  <time>2012-05-06T13:37:06Z</time>
</trkpt>
<trkpt lat="46.244940000" lon="7.470200000">
  <ele>979.854550</ele>
  <time>2012-05-06T13:37:07Z</time>
</trkpt>
<trkpt lat="46.244940000" lon="7.470160000">
  <ele>980.236390</ele>
  <time>2012-05-06T13:37:08Z</time>
</trkpt>
<trkpt lat="46.244930000" lon="7.470130000">
  <ele>980.618160</ele>
  <time>2012-05-06T13:37:09Z</time>
</trkpt>
<trkpt lat="46.244930000" lon="7.470090000">
  <ele>981.000000</ele>
  <time>2012-05-06T13:37:10Z</time>
</trkpt>
<trkpt lat="46.244910000" lon="7.469960000">
  <ele>981.000000</ele>
  <time>2012-05-06T13:37:14Z</time>
</trkpt>
<trkpt lat="46.244890000" lon="7.469860000">
  <ele>981.705870</ele>
  <time>2012-05-06T13:37:17Z</time>
</trkpt>
<trkpt lat="46.244880000" lon="7.469830000">
  <ele>981.941160</ele>
  <time>2012-05-06T13:37:18Z</time>
</trkpt>
<trkpt lat="46.244880000" lon="7.469800000">
  <ele>982.176450</ele>
  <time>2012-05-06T13:37:19Z</time>
</trkpt>
<trkpt lat="46.244870000" lon="7.469760000">
  <ele>982.411740</ele>
  <time>2012-05-06T13:37:20Z</time>
</trkpt>
<trkpt lat="46.244870000" lon="7.469730000">
  <ele>982.647030</ele>
  <time>2012-05-06T13:37:21Z</time>
</trkpt>
<trkpt lat="46.244830000" lon="7.469500000">
  <ele>984.058840</ele>
  <time>2012-05-06T13:37:27Z</time>
</trkpt>
<trkpt lat="46.244830000" lon="7.469460000">
  <ele>984.294130</ele>
  <time>2012-05-06T13:37:28Z</time>
</trkpt>
<trkpt lat="46.244830000" lon="7.469420000">
  <ele>984.529420</ele>
  <time>2012-05-06T13:37:29Z</time>
</trkpt>
<trkpt lat="46.244820000" lon="7.469390000">
  <ele>984.764710</ele>
  <time>2012-05-06T13:37:30Z</time>
</trkpt>
<trkpt lat="46.244820000" lon="7.469350000">
  <ele>985.000000</ele>
  <time>2012-05-06T13:37:31Z</time>
</trkpt>
<trkpt lat="46.244820000" lon="7.469310000">
  <ele>985.000000</ele>
  <time>2012-05-06T13:37:32Z</time>
</trkpt>
<trkpt lat="46.244820000" lon="7.469240000">
  <ele>985.366700</ele>
  <time>2012-05-06T13:37:34Z</time>
</trkpt>
<trkpt lat="46.244820000" lon="7.468980000">
  <ele>986.650020</ele>
  <time>2012-05-06T13:37:41Z</time>
</trkpt>
<trkpt lat="46.244820000" lon="7.468950000">
  <ele>986.833370</ele>
  <time>2012-05-06T13:37:42Z</time>
</trkpt>
<trkpt lat="46.244820000" lon="7.468910000">
  <ele>987.016660</ele>
  <time>2012-05-06T13:37:43Z</time>
</trkpt>
<trkpt lat="46.244820000" lon="7.468870000">
  <ele>987.200010</ele>
  <time>2012-05-06T13:37:44Z</time>
</trkpt>
<trkpt lat="46.244820000" lon="7.468640000">
  <ele>987.200010</ele>
  <time>2012-05-06T13:37:50Z</time>
</trkpt>
<trkpt lat="46.244810000" lon="7.468570000">
  <ele>987.533330</ele>
  <time>2012-05-06T13:37:51Z</time>
</trkpt>
<trkpt lat="46.244810000" lon="7.468530000">
  <ele>988.200010</ele>
  <time>2012-05-06T13:37:53Z</time>
</trkpt>
<trkpt lat="46.244810000" lon="7.468500000">
  <ele>988.533330</ele>
  <time>2012-05-06T13:37:54Z</time>
</trkpt>
<trkpt lat="46.244810000" lon="7.468460000">
  <ele>988.866700</ele>
  <time>2012-05-06T13:37:55Z</time>
</trkpt>
<trkpt lat="46.244810000" lon="7.468430000">
  <ele>989.200010</ele>
  <time>2012-05-06T13:37:56Z</time>
</trkpt>
<trkpt lat="46.244800000" lon="7.468390000">
  <ele>989.200010</ele>
  <time>2012-05-06T13:37:57Z</time>
</trkpt>
<trkpt lat="46.244800000" lon="7.468270000">
  <ele>989.976500</ele>
  <time>2012-05-06T13:38:00Z</time>
</trkpt>
<trkpt lat="46.244800000" lon="7.468230000">
  <ele>990.235290</ele>
  <time>2012-05-06T13:38:01Z</time>
</trkpt>
<trkpt lat="46.244800000" lon="7.468190000">
  <ele>990.494140</ele>
  <time>2012-05-06T13:38:02Z</time>
</trkpt>
<trkpt lat="46.244790000" lon="7.468150000">
  <ele>990.752930</ele>
  <time>2012-05-06T13:38:03Z</time>
</trkpt>
<trkpt lat="46.244790000" lon="7.468100000">
  <ele>991.011780</ele>
  <time>2012-05-06T13:38:04Z</time>
</trkpt>
<trkpt lat="46.244780000" lon="7.467860000">
  <ele>992.564700</ele>
  <time>2012-05-06T13:38:10Z</time>
</trkpt>
<trkpt lat="46.244780000" lon="7.467820000">
  <ele>992.823490</ele>
  <time>2012-05-06T13:38:11Z</time>
</trkpt>
<trkpt lat="46.244780000" lon="7.467780000">
  <ele>993.082340</ele>
  <time>2012-05-06T13:38:12Z</time>
</trkpt>
<trkpt lat="46.244770000" lon="7.467740000">
  <ele>993.341130</ele>
  <time>2012-05-06T13:38:13Z</time>
</trkpt>
<trkpt lat="46.244770000" lon="7.467700000">
  <ele>993.599980</ele>
  <time>2012-05-06T13:38:14Z</time>
</trkpt>
<trkpt lat="46.244750000" lon="7.467580000">
  <ele>993.599980</ele>
  <time>2012-05-06T13:38:17Z</time>
</trkpt>
<trkpt lat="46.244690000" lon="7.467400000">
  <ele>994.974980</ele>
  <time>2012-05-06T13:38:22Z</time>
</trkpt>
<trkpt lat="46.244670000" lon="7.467370000">
  <ele>995.250000</ele>
  <time>2012-05-06T13:38:23Z</time>
</trkpt>
<trkpt lat="46.244660000" lon="7.467340000">
  <ele>995.524960</ele>
  <time>2012-05-06T13:38:24Z</time>
</trkpt>
<trkpt lat="46.244640000" lon="7.467310000">
  <ele>995.799990</ele>
  <time>2012-05-06T13:38:25Z</time>
</trkpt>
<trkpt lat="46.244630000" lon="7.467280000">
  <ele>996.075010</ele>
  <time>2012-05-06T13:38:26Z</time>
</trkpt>
<trkpt lat="46.244550000" lon="7.467170000">
  <ele>997.174990</ele>
  <time>2012-05-06T13:38:30Z</time>
</trkpt>
<trkpt lat="46.244530000" lon="7.467150000">
  <ele>997.450010</ele>
  <time>2012-05-06T13:38:31Z</time>
</trkpt>
<trkpt lat="46.244510000" lon="7.467120000">
  <ele>997.724980</ele>
  <time>2012-05-06T13:38:32Z</time>
</trkpt>
<trkpt lat="46.244490000" lon="7.467090000">
  <ele>998.000000</ele>
  <time>2012-05-06T13:38:33Z</time>
</trkpt>
<trkpt lat="46.244390000" lon="7.466990000">
  <ele>998.000000</ele>
  <time>2012-05-06T13:38:38Z</time>
</trkpt>
<trkpt lat="46.244320000" lon="7.466940000">
  <ele>998.942870</ele>
  <time>2012-05-06T13:38:41Z</time>
</trkpt>
<trkpt lat="46.244290000" lon="7.466920000">
  <ele>999.257140</ele>
  <time>2012-05-06T13:38:42Z</time>
</trkpt>
<trkpt lat="46.244260000" lon="7.466910000">
  <ele>999.571410</ele>
  <time>2012-05-06T13:38:43Z</time>
</trkpt>
<trkpt lat="46.244240000" lon="7.466890000">
  <ele>999.885740</ele>
  <time>2012-05-06T13:38:44Z</time>
</trkpt>
<trkpt lat="46.244220000" lon="7.466880000">
  <ele>1000.200010</ele>
  <time>2012-05-06T13:38:45Z</time>
</trkpt>
<trkpt lat="46.244090000" lon="7.466830000">
  <ele>1000.200010</ele>
  <time>2012-05-06T13:38:50Z</time>
</trkpt>
<trkpt lat="46.244060000" lon="7.466820000">
  <ele>1000.640010</ele>
  <time>2012-05-06T13:38:51Z</time>
</trkpt>
<trkpt lat="46.244030000" lon="7.466810000">
  <ele>1001.080020</ele>
  <time>2012-05-06T13:38:52Z</time>
</trkpt>
<trkpt lat="46.244010000" lon="7.466800000">
  <ele>1001.520020</ele>
  <time>2012-05-06T13:38:53Z</time>
</trkpt>
<trkpt lat="46.243990000" lon="7.466790000">
  <ele>1001.960020</ele>
  <time>2012-05-06T13:38:54Z</time>
</trkpt>
<trkpt lat="46.243970000" lon="7.466790000">
  <ele>1002.400020</ele>
  <time>2012-05-06T13:38:55Z</time>
</trkpt>
<trkpt lat="46.243910000" lon="7.466770000">
  <ele>1002.400020</ele>
  <time>2012-05-06T13:38:57Z</time>
</trkpt>
<trkpt lat="46.243840000" lon="7.466770000">
  <ele>1003.187500</ele>
  <time>2012-05-06T13:39:00Z</time>
</trkpt>
<trkpt lat="46.243810000" lon="7.466760000">
  <ele>1003.450010</ele>
  <time>2012-05-06T13:39:01Z</time>
</trkpt>
<trkpt lat="46.243780000" lon="7.466760000">
  <ele>1003.712520</ele>
  <time>2012-05-06T13:39:02Z</time>
</trkpt>
<trkpt lat="46.243760000" lon="7.466760000">
  <ele>1003.974980</ele>
  <time>2012-05-06T13:39:03Z</time>
</trkpt>
<trkpt lat="46.243730000" lon="7.466750000">
  <ele>1004.237490</ele>
  <time>2012-05-06T13:39:04Z</time>
</trkpt>
<trkpt lat="46.243620000" lon="7.466710000">
  <ele>1005.549990</ele>
  <time>2012-05-06T13:39:09Z</time>
</trkpt>
<trkpt lat="46.243590000" lon="7.466700000">
  <ele>1005.812500</ele>
  <time>2012-05-06T13:39:10Z</time>
</trkpt>
<trkpt lat="46.243570000" lon="7.466690000">
  <ele>1006.074950</ele>
  <time>2012-05-06T13:39:11Z</time>
</trkpt>
<trkpt lat="46.243550000" lon="7.466670000">
  <ele>1006.337460</ele>
  <time>2012-05-06T13:39:12Z</time>
</trkpt>
<trkpt lat="46.243530000" lon="7.466660000">
  <ele>1006.599980</ele>
  <time>2012-05-06T13:39:13Z</time>
</trkpt>
<trkpt lat="46.243450000" lon="7.466560000">
  <ele>1006.599980</ele>
  <time>2012-05-06T13:39:17Z</time>
</trkpt>
<trkpt lat="46.243400000" lon="7.466460000">
  <ele>1007.699950</ele>
  <time>2012-05-06T13:39:20Z</time>
</trkpt>
<trkpt lat="46.243380000" lon="7.466420000">
  <ele>1008.066650</ele>
  <time>2012-05-06T13:39:21Z</time>
</trkpt>
<trkpt lat="46.243370000" lon="7.466380000">
  <ele>1008.433350</ele>
  <time>2012-05-06T13:39:22Z</time>
</trkpt>
<trkpt lat="46.243360000" lon="7.466340000">
  <ele>1008.799990</ele>
  <time>2012-05-06T13:39:23Z</time>
</trkpt>
<trkpt lat="46.243270000" lon="7.466100000">
  <ele>1008.799990</ele>
  <time>2012-05-06T13:39:29Z</time>
</trkpt>
<trkpt lat="46.243230000" lon="7.465970000">
  <ele>1008.583310</ele>
  <time>2012-05-06T13:39:32Z</time>
</trkpt>
<trkpt lat="46.243210000" lon="7.465880000">
  <ele>1008.438900</ele>
  <time>2012-05-06T13:39:34Z</time>
</trkpt>
<trkpt lat="46.243160000" lon="7.465610000">
  <ele>1008.077760</ele>
  <time>2012-05-06T13:39:39Z</time>
</trkpt>
<trkpt lat="46.243150000" lon="7.465500000">
  <ele>1007.933350</ele>
  <time>2012-05-06T13:39:41Z</time>
</trkpt>
<trkpt lat="46.243090000" lon="7.465210000">
  <ele>1007.572200</ele>
  <time>2012-05-06T13:39:46Z</time>
</trkpt>
<trkpt lat="46.243080000" lon="7.465150000">
  <ele>1007.500000</ele>
  <time>2012-05-06T13:39:47Z</time>
</trkpt>
<trkpt lat="46.243070000" lon="7.465100000">
  <ele>1007.427800</ele>
  <time>2012-05-06T13:39:48Z</time>
</trkpt>
<trkpt lat="46.243020000" lon="7.464850000">
  <ele>1007.138920</ele>
  <time>2012-05-06T13:39:52Z</time>
</trkpt>
<trkpt lat="46.242970000" lon="7.464720000">
  <ele>1007.066650</ele>
  <time>2012-05-06T13:39:53Z</time>
</trkpt>
<trkpt lat="46.242880000" lon="7.464470000">
  <ele>1006.705570</ele>
  <time>2012-05-06T13:39:58Z</time>
</trkpt>
<trkpt lat="46.242800000" lon="7.464260000">
  <ele>1006.488890</ele>
  <time>2012-05-06T13:40:01Z</time>
</trkpt>
<trkpt lat="46.242770000" lon="7.464190000">
  <ele>1006.416690</ele>
  <time>2012-05-06T13:40:02Z</time>
</trkpt>
<trkpt lat="46.242740000" lon="7.464120000">
  <ele>1006.344480</ele>
  <time>2012-05-06T13:40:03Z</time>
</trkpt>
<trkpt lat="46.242710000" lon="7.464050000">
  <ele>1006.272220</ele>
  <time>2012-05-06T13:40:04Z</time>
</trkpt>
<trkpt lat="46.242680000" lon="7.463980000">
  <ele>1006.200010</ele>
  <time>2012-05-06T13:40:05Z</time>
</trkpt>
<trkpt lat="46.242610000" lon="7.463850000">
  <ele>1006.200010</ele>
  <time>2012-05-06T13:40:07Z</time>
</trkpt>
<trkpt lat="46.242500000" lon="7.463660000">
  <ele>1005.000000</ele>
  <time>2012-05-06T13:40:10Z</time>
</trkpt>
<trkpt lat="46.242460000" lon="7.463590000">
  <ele>1004.599980</ele>
  <time>2012-05-06T13:40:11Z</time>
</trkpt>
<trkpt lat="46.242420000" lon="7.463530000">
  <ele>1004.200010</ele>
  <time>2012-05-06T13:40:12Z</time>
</trkpt>
<trkpt lat="46.242380000" lon="7.463460000">
  <ele>1003.799990</ele>
  <time>2012-05-06T13:40:13Z</time>
</trkpt>
<trkpt lat="46.242270000" lon="7.463250000">
  <ele>1003.799990</ele>
  <time>2012-05-06T13:40:16Z</time>
</trkpt>
<trkpt lat="46.242240000" lon="7.463180000">
  <ele>1003.320010</ele>
  <time>2012-05-06T13:40:17Z</time>
</trkpt>
<trkpt lat="46.242210000" lon="7.463100000">
  <ele>1002.840030</ele>
  <time>2012-05-06T13:40:18Z</time>
</trkpt>
<trkpt lat="46.242180000" lon="7.463030000">
  <ele>1002.359990</ele>
  <time>2012-05-06T13:40:19Z</time>
</trkpt>
<trkpt lat="46.242150000" lon="7.462950000">
  <ele>1001.880000</ele>
  <time>2012-05-06T13:40:20Z</time>
</trkpt>
<trkpt lat="46.242130000" lon="7.462880000">
  <ele>1001.400020</ele>
  <time>2012-05-06T13:40:21Z</time>
</trkpt>
<trkpt lat="46.242080000" lon="7.462740000">
  <ele>1001.400020</ele>
  <time>2012-05-06T13:40:23Z</time>
</trkpt>
<trkpt lat="46.242030000" lon="7.462630000">
  <ele>1002.266660</ele>
  <time>2012-05-06T13:40:25Z</time>
</trkpt>
<trkpt lat="46.242010000" lon="7.462580000">
  <ele>1002.700010</ele>
  <time>2012-05-06T13:40:26Z</time>
</trkpt>
<trkpt lat="46.241990000" lon="7.462520000">
  <ele>1003.133360</ele>
  <time>2012-05-06T13:40:27Z</time>
</trkpt>
<trkpt lat="46.241970000" lon="7.462460000">
  <ele>1003.566650</ele>
  <time>2012-05-06T13:40:28Z</time>
</trkpt>
<trkpt lat="46.241950000" lon="7.462400000">
  <ele>1004.000000</ele>
  <time>2012-05-06T13:40:29Z</time>
</trkpt>
<trkpt lat="46.241880000" lon="7.462150000">
  <ele>1004.000000</ele>
  <time>2012-05-06T13:40:33Z</time>
</trkpt>
<trkpt lat="46.241860000" lon="7.462100000">
  <ele>1004.366700</ele>
  <time>2012-05-06T13:40:34Z</time>
</trkpt>
<trkpt lat="46.241840000" lon="7.462040000">
  <ele>1004.733340</ele>
  <time>2012-05-06T13:40:35Z</time>
</trkpt>
<trkpt lat="46.241820000" lon="7.461990000">
  <ele>1005.099980</ele>
  <time>2012-05-06T13:40:36Z</time>
</trkpt>
<trkpt lat="46.241800000" lon="7.461930000">
  <ele>1005.466670</ele>
  <time>2012-05-06T13:40:37Z</time>
</trkpt>
<trkpt lat="46.241780000" lon="7.461880000">
  <ele>1005.833370</ele>
  <time>2012-05-06T13:40:38Z</time>
</trkpt>
<trkpt lat="46.241760000" lon="7.461830000">
  <ele>1006.200010</ele>
  <time>2012-05-06T13:40:39Z</time>
</trkpt>
<trkpt lat="46.241720000" lon="7.461720000">
  <ele>1006.200010</ele>
  <time>2012-05-06T13:40:41Z</time>
</trkpt>
<trkpt lat="46.241680000" lon="7.461630000">
  <ele>1006.933350</ele>
  <time>2012-05-06T13:40:43Z</time>
</trkpt>
<trkpt lat="46.241650000" lon="7.461590000">
  <ele>1007.300050</ele>
  <time>2012-05-06T13:40:44Z</time>
</trkpt>
<trkpt lat="46.241630000" lon="7.461550000">
  <ele>1007.666690</ele>
  <time>2012-05-06T13:40:45Z</time>
</trkpt>
<trkpt lat="46.241590000" lon="7.461500000">
  <ele>1008.033330</ele>
  <time>2012-05-06T13:40:46Z</time>
</trkpt>
<trkpt lat="46.241560000" lon="7.461470000">
  <ele>1008.400020</ele>
  <time>2012-05-06T13:40:47Z</time>
</trkpt>
<trkpt lat="46.241520000" lon="7.461430000">
  <ele>1008.400020</ele>
  <time>2012-05-06T13:40:48Z</time>
</trkpt>
<trkpt lat="46.241470000" lon="7.461330000">
  <ele>1008.950010</ele>
  <time>2012-05-06T13:40:50Z</time>
</trkpt>
<trkpt lat="46.241460000" lon="7.461230000">
  <ele>1009.500000</ele>
  <time>2012-05-06T13:40:52Z</time>
</trkpt>
<trkpt lat="46.241450000" lon="7.461180000">
  <ele>1009.775020</ele>
  <time>2012-05-06T13:40:53Z</time>
</trkpt>
<trkpt lat="46.241440000" lon="7.461130000">
  <ele>1010.049990</ele>
  <time>2012-05-06T13:40:54Z</time>
</trkpt>
<trkpt lat="46.241440000" lon="7.461090000">
  <ele>1010.324950</ele>
  <time>2012-05-06T13:40:55Z</time>
</trkpt>
<trkpt lat="46.241440000" lon="7.461040000">
  <ele>1010.599980</ele>
  <time>2012-05-06T13:40:56Z</time>
</trkpt>
<trkpt lat="46.241460000" lon="7.460850000">
  <ele>1010.599980</ele>
  <time>2012-05-06T13:41:00Z</time>
</trkpt>
<trkpt lat="46.241490000" lon="7.460560000">
  <ele>1011.528560</ele>
  <time>2012-05-06T13:41:05Z</time>
</trkpt>
<trkpt lat="46.241530000" lon="7.460270000">
  <ele>1012.457150</ele>
  <time>2012-05-06T13:41:10Z</time>
</trkpt>
<trkpt lat="46.241540000" lon="7.460210000">
  <ele>1012.642880</ele>
  <time>2012-05-06T13:41:11Z</time>
</trkpt>
<trkpt lat="46.241550000" lon="7.460150000">
  <ele>1012.828550</ele>
  <time>2012-05-06T13:41:12Z</time>
</trkpt>
<trkpt lat="46.241560000" lon="7.460080000">
  <ele>1013.014280</ele>
  <time>2012-05-06T13:41:13Z</time>
</trkpt>
<trkpt lat="46.241570000" lon="7.460020000">
  <ele>1013.200010</ele>
  <time>2012-05-06T13:41:14Z</time>
</trkpt>
<trkpt lat="46.241550000" lon="7.459910000">
  <ele>1013.200010</ele>
  <time>2012-05-06T13:41:16Z</time>
</trkpt>
<trkpt lat="46.241490000" lon="7.459840000">
  <ele>1013.600040</ele>
  <time>2012-05-06T13:41:18Z</time>
</trkpt>
<trkpt lat="46.241310000" lon="7.459730000">
  <ele>1014.600040</ele>
  <time>2012-05-06T13:41:23Z</time>
</trkpt>
<trkpt lat="46.241280000" lon="7.459710000">
  <ele>1014.800050</ele>
  <time>2012-05-06T13:41:24Z</time>
</trkpt>
<trkpt lat="46.241230000" lon="7.459690000">
  <ele>1015.000000</ele>
  <time>2012-05-06T13:41:25Z</time>
</trkpt>
<trkpt lat="46.241200000" lon="7.459660000">
  <ele>1015.200010</ele>
  <time>2012-05-06T13:41:26Z</time>
</trkpt>
<trkpt lat="46.241180000" lon="7.459650000">
  <ele>1015.400020</ele>
  <time>2012-05-06T13:41:27Z</time>
</trkpt>
<trkpt lat="46.241140000" lon="7.459620000">
  <ele>1015.400020</ele>
  <time>2012-05-06T13:41:28Z</time>
</trkpt>
<trkpt lat="46.241040000" lon="7.459460000">
  <ele>1016.400020</ele>
  <time>2012-05-06T13:41:32Z</time>
</trkpt>
<trkpt lat="46.241010000" lon="7.459410000">
  <ele>1016.650020</ele>
  <time>2012-05-06T13:41:33Z</time>
</trkpt>
<trkpt lat="46.240990000" lon="7.459370000">
  <ele>1016.900020</ele>
  <time>2012-05-06T13:41:34Z</time>
</trkpt>
<trkpt lat="46.240960000" lon="7.459340000">
  <ele>1017.150020</ele>
  <time>2012-05-06T13:41:35Z</time>
</trkpt>
<trkpt lat="46.240920000" lon="7.459310000">
  <ele>1017.400020</ele>
  <time>2012-05-06T13:41:36Z</time>
</trkpt>
<trkpt lat="46.240880000" lon="7.459290000">
  <ele>1017.400020</ele>
  <time>2012-05-06T13:41:37Z</time>
</trkpt>
<trkpt lat="46.240760000" lon="7.459270000">
  <ele>1017.900020</ele>
  <time>2012-05-06T13:41:40Z</time>
</trkpt>
<trkpt lat="46.240730000" lon="7.459280000">
  <ele>1018.066710</ele>
  <time>2012-05-06T13:41:41Z</time>
</trkpt>
<trkpt lat="46.240650000" lon="7.459290000">
  <ele>1018.400020</ele>
  <time>2012-05-06T13:41:43Z</time>
</trkpt>
<trkpt lat="46.240570000" lon="7.459300000">
  <ele>1018.733340</ele>
  <time>2012-05-06T13:41:45Z</time>
</trkpt>
<trkpt lat="46.240540000" lon="7.459300000">
  <ele>1018.900020</ele>
  <time>2012-05-06T13:41:46Z</time>
</trkpt>
<trkpt lat="46.240490000" lon="7.459300000">
  <ele>1019.066710</ele>
  <time>2012-05-06T13:41:47Z</time>
</trkpt>
<trkpt lat="46.240460000" lon="7.459280000">
  <ele>1019.233340</ele>
  <time>2012-05-06T13:41:48Z</time>
</trkpt>
<trkpt lat="46.240420000" lon="7.459250000">
  <ele>1019.400020</ele>
  <time>2012-05-06T13:41:49Z</time>
</trkpt>
<trkpt lat="46.240270000" lon="7.459110000">
  <ele>1019.400020</ele>
  <time>2012-05-06T13:41:54Z</time>
</trkpt>
<trkpt lat="46.240180000" lon="7.458970000">
  <ele>1019.799990</ele>
  <time>2012-05-06T13:41:58Z</time>
</trkpt>
<trkpt lat="46.240150000" lon="7.458930000">
  <ele>1019.900020</ele>
  <time>2012-05-06T13:41:59Z</time>
</trkpt>
<trkpt lat="46.239960000" lon="7.458670000">
  <ele>1020.599980</ele>
  <time>2012-05-06T13:42:06Z</time>
</trkpt>
<trkpt lat="46.239800000" lon="7.458560000">
  <ele>1021.099980</ele>
  <time>2012-05-06T13:42:11Z</time>
</trkpt>
<trkpt lat="46.239730000" lon="7.458570000">
  <ele>1021.299990</ele>
  <time>2012-05-06T13:42:13Z</time>
</trkpt>
<trkpt lat="46.239700000" lon="7.458580000">
  <ele>1021.399960</ele>
  <time>2012-05-06T13:42:14Z</time>
</trkpt>
<trkpt lat="46.239670000" lon="7.458600000">
  <ele>1021.500000</ele>
  <time>2012-05-06T13:42:15Z</time>
</trkpt>
<trkpt lat="46.239640000" lon="7.458620000">
  <ele>1021.599980</ele>
  <time>2012-05-06T13:42:16Z</time>
</trkpt>
<trkpt lat="46.239450000" lon="7.458770000">
  <ele>1021.599980</ele>
  <time>2012-05-06T13:42:22Z</time>
</trkpt>
<trkpt lat="46.239250000" lon="7.458960000">
  <ele>1022.676880</ele>
  <time>2012-05-06T13:42:29Z</time>
</trkpt>
<trkpt lat="46.239170000" lon="7.459070000">
  <ele>1023.138430</ele>
  <time>2012-05-06T13:42:32Z</time>
</trkpt>
<trkpt lat="46.239060000" lon="7.459200000">
  <ele>1023.753850</ele>
  <time>2012-05-06T13:42:36Z</time>
</trkpt>
<trkpt lat="46.238970000" lon="7.459260000">
  <ele>1024.215330</ele>
  <time>2012-05-06T13:42:39Z</time>
</trkpt>
<trkpt lat="46.238930000" lon="7.459270000">
  <ele>1024.369260</ele>
  <time>2012-05-06T13:42:40Z</time>
</trkpt>
<trkpt lat="46.238900000" lon="7.459280000">
  <ele>1024.523070</ele>
  <time>2012-05-06T13:42:41Z</time>
</trkpt>
<trkpt lat="46.238860000" lon="7.459300000">
  <ele>1024.676880</ele>
  <time>2012-05-06T13:42:42Z</time>
</trkpt>
<trkpt lat="46.238790000" lon="7.459320000">
  <ele>1024.984620</ele>
  <time>2012-05-06T13:42:44Z</time>
</trkpt>
<trkpt lat="46.238750000" lon="7.459330000">
  <ele>1025.138430</ele>
  <time>2012-05-06T13:42:45Z</time>
</trkpt>
<trkpt lat="46.238720000" lon="7.459350000">
  <ele>1025.292240</ele>
  <time>2012-05-06T13:42:46Z</time>
</trkpt>
<trkpt lat="46.238670000" lon="7.459350000">
  <ele>1025.446170</ele>
  <time>2012-05-06T13:42:47Z</time>
</trkpt>
<trkpt lat="46.238640000" lon="7.459360000">
  <ele>1025.599980</ele>
  <time>2012-05-06T13:42:48Z</time>
</trkpt>
<trkpt lat="46.238590000" lon="7.459350000">
  <ele>1025.599980</ele>
  <time>2012-05-06T13:42:49Z</time>
</trkpt>
<trkpt lat="46.238390000" lon="7.459330000">
  <ele>1026.690920</ele>
  <time>2012-05-06T13:42:54Z</time>
</trkpt>
<trkpt lat="46.238350000" lon="7.459310000">
  <ele>1026.909060</ele>
  <time>2012-05-06T13:42:55Z</time>
</trkpt>
<trkpt lat="46.238300000" lon="7.459290000">
  <ele>1027.127320</ele>
  <time>2012-05-06T13:42:56Z</time>
</trkpt>
<trkpt lat="46.238260000" lon="7.459270000">
  <ele>1027.345460</ele>
  <time>2012-05-06T13:42:57Z</time>
</trkpt>
<trkpt lat="46.238220000" lon="7.459270000">
  <ele>1027.563600</ele>
  <time>2012-05-06T13:42:58Z</time>
</trkpt>
<trkpt lat="46.238170000" lon="7.459260000">
  <ele>1027.781860</ele>
  <time>2012-05-06T13:42:59Z</time>
</trkpt>
<trkpt lat="46.238130000" lon="7.459260000">
  <ele>1028.000000</ele>
  <time>2012-05-06T13:43:00Z</time>
</trkpt>
<trkpt lat="46.237950000" lon="7.459290000">
  <ele>1028.000000</ele>
  <time>2012-05-06T13:43:05Z</time>
</trkpt>
<trkpt lat="46.237870000" lon="7.459300000">
  <ele>1028.666630</ele>
  <time>2012-05-06T13:43:07Z</time>
</trkpt>
<trkpt lat="46.237830000" lon="7.459300000">
  <ele>1029.000000</ele>
  <time>2012-05-06T13:43:08Z</time>
</trkpt>
<trkpt lat="46.237790000" lon="7.459300000">
  <ele>1029.333370</ele>
  <time>2012-05-06T13:43:09Z</time>
</trkpt>
<trkpt lat="46.237750000" lon="7.459300000">
  <ele>1029.666630</ele>
  <time>2012-05-06T13:43:10Z</time>
</trkpt>
<trkpt lat="46.237710000" lon="7.459300000">
  <ele>1030.000000</ele>
  <time>2012-05-06T13:43:11Z</time>
</trkpt>
<trkpt lat="46.237670000" lon="7.459290000">
  <ele>1030.000000</ele>
  <time>2012-05-06T13:43:12Z</time>
</trkpt>
<trkpt lat="46.237480000" lon="7.459280000">
  <ele>1030.714230</ele>
  <time>2012-05-06T13:43:17Z</time>
</trkpt>
<trkpt lat="46.237300000" lon="7.459230000">
  <ele>1031.428590</ele>
  <time>2012-05-06T13:43:22Z</time>
</trkpt>
<trkpt lat="46.237260000" lon="7.459220000">
  <ele>1031.571410</ele>
  <time>2012-05-06T13:43:23Z</time>
</trkpt>
<trkpt lat="46.237220000" lon="7.459220000">
  <ele>1031.714230</ele>
  <time>2012-05-06T13:43:24Z</time>
</trkpt>
<trkpt lat="46.237190000" lon="7.459220000">
  <ele>1031.857180</ele>
  <time>2012-05-06T13:43:25Z</time>
</trkpt>
<trkpt lat="46.237150000" lon="7.459210000">
  <ele>1032.000000</ele>
  <time>2012-05-06T13:43:26Z</time>
</trkpt>
<trkpt lat="46.237110000" lon="7.459210000">
  <ele>1032.000000</ele>
  <time>2012-05-06T13:43:27Z</time>
</trkpt>
<trkpt lat="46.237030000" lon="7.459240000">
  <ele>1032.244380</ele>
  <time>2012-05-06T13:43:29Z</time>
</trkpt>
<trkpt lat="46.236830000" lon="7.459230000">
  <ele>1032.977780</ele>
  <time>2012-05-06T13:43:35Z</time>
</trkpt>
<trkpt lat="46.236620000" lon="7.459120000">
  <ele>1033.711060</ele>
  <time>2012-05-06T13:43:41Z</time>
</trkpt>
<trkpt lat="46.236580000" lon="7.459090000">
  <ele>1033.833250</ele>
  <time>2012-05-06T13:43:42Z</time>
</trkpt>
<trkpt lat="46.236550000" lon="7.459060000">
  <ele>1033.955570</ele>
  <time>2012-05-06T13:43:43Z</time>
</trkpt>
<trkpt lat="46.236520000" lon="7.459040000">
  <ele>1034.077760</ele>
  <time>2012-05-06T13:43:44Z</time>
</trkpt>
<trkpt lat="46.236490000" lon="7.459020000">
  <ele>1034.199950</ele>
  <time>2012-05-06T13:43:45Z</time>
</trkpt>
<trkpt lat="46.236430000" lon="7.458980000">
  <ele>1034.199950</ele>
  <time>2012-05-06T13:43:47Z</time>
</trkpt>
<trkpt lat="46.236230000" lon="7.458930000">
  <ele>1035.399900</ele>
  <time>2012-05-06T13:43:53Z</time>
</trkpt>
<trkpt lat="46.236200000" lon="7.458930000">
  <ele>1035.599980</ele>
  <time>2012-05-06T13:43:54Z</time>
</trkpt>
<trkpt lat="46.236160000" lon="7.458930000">
  <ele>1035.799930</ele>
  <time>2012-05-06T13:43:55Z</time>
</trkpt>
<trkpt lat="46.236130000" lon="7.458940000">
  <ele>1036.000000</ele>
  <time>2012-05-06T13:43:56Z</time>
</trkpt>
<trkpt lat="46.236090000" lon="7.458950000">
  <ele>1036.199950</ele>
  <time>2012-05-06T13:43:57Z</time>
</trkpt>
<trkpt lat="46.235990000" lon="7.458980000">
  <ele>1036.199950</ele>
  <time>2012-05-06T13:44:00Z</time>
</trkpt>
<trkpt lat="46.235820000" lon="7.459040000">
  <ele>1036.969240</ele>
  <time>2012-05-06T13:44:05Z</time>
</trkpt>
<trkpt lat="46.235680000" lon="7.459100000">
  <ele>1037.584590</ele>
  <time>2012-05-06T13:44:09Z</time>
</trkpt>
<trkpt lat="46.235650000" lon="7.459100000">
  <ele>1037.738400</ele>
  <time>2012-05-06T13:44:10Z</time>
</trkpt>
<trkpt lat="46.235610000" lon="7.459110000">
  <ele>1037.892210</ele>
  <time>2012-05-06T13:44:11Z</time>
</trkpt>
<trkpt lat="46.235580000" lon="7.459120000">
  <ele>1038.046140</ele>
  <time>2012-05-06T13:44:12Z</time>
</trkpt>
<trkpt lat="46.235530000" lon="7.459120000">
  <ele>1038.199950</ele>
  <time>2012-05-06T13:44:13Z</time>
</trkpt>
<trkpt lat="46.235360000" lon="7.459110000">
  <ele>1038.199950</ele>
  <time>2012-05-06T13:44:18Z</time>
</trkpt>
<trkpt lat="46.235160000" lon="7.459040000">
  <ele>1039.400020</ele>
  <time>2012-05-06T13:44:24Z</time>
</trkpt>
<trkpt lat="46.235130000" lon="7.459020000">
  <ele>1039.599980</ele>
  <time>2012-05-06T13:44:25Z</time>
</trkpt>
<trkpt lat="46.235090000" lon="7.459000000">
  <ele>1039.800050</ele>
  <time>2012-05-06T13:44:26Z</time>
</trkpt>
<trkpt lat="46.235070000" lon="7.458980000">
  <ele>1040.000000</ele>
  <time>2012-05-06T13:44:27Z</time>
</trkpt>
<trkpt lat="46.235030000" lon="7.458950000">
  <ele>1040.200070</ele>
  <time>2012-05-06T13:44:28Z</time>
</trkpt>
<trkpt lat="46.235000000" lon="7.458940000">
  <ele>1040.400020</ele>
  <time>2012-05-06T13:44:29Z</time>
</trkpt>
<trkpt lat="46.234970000" lon="7.458910000">
  <ele>1040.400020</ele>
  <time>2012-05-06T13:44:30Z</time>
</trkpt>
<trkpt lat="46.234910000" lon="7.458870000">
  <ele>1040.900020</ele>
  <time>2012-05-06T13:44:32Z</time>
</trkpt>
<trkpt lat="46.234840000" lon="7.458830000">
  <ele>1041.400020</ele>
  <time>2012-05-06T13:44:34Z</time>
</trkpt>
<trkpt lat="46.234810000" lon="7.458820000">
  <ele>1041.650020</ele>
  <time>2012-05-06T13:44:35Z</time>
</trkpt>
<trkpt lat="46.234780000" lon="7.458800000">
  <ele>1041.900020</ele>
  <time>2012-05-06T13:44:36Z</time>
</trkpt>
<trkpt lat="46.234750000" lon="7.458780000">
  <ele>1042.150020</ele>
  <time>2012-05-06T13:44:37Z</time>
</trkpt>
<trkpt lat="46.234720000" lon="7.458750000">
  <ele>1042.400020</ele>
  <time>2012-05-06T13:44:38Z</time>
</trkpt>
<trkpt lat="46.234580000" lon="7.458630000">
  <ele>1042.400020</ele>
  <time>2012-05-06T13:44:42Z</time>
</trkpt>
<trkpt lat="46.234470000" lon="7.458490000">
  <ele>1043.600100</ele>
  <time>2012-05-06T13:44:46Z</time>
</trkpt>
<trkpt lat="46.234440000" lon="7.458450000">
  <ele>1043.900020</ele>
  <time>2012-05-06T13:44:47Z</time>
</trkpt>
<trkpt lat="46.234410000" lon="7.458410000">
  <ele>1044.200070</ele>
  <time>2012-05-06T13:44:48Z</time>
</trkpt>
<trkpt lat="46.234390000" lon="7.458370000">
  <ele>1044.500000</ele>
  <time>2012-05-06T13:44:49Z</time>
</trkpt>
<trkpt lat="46.234370000" lon="7.458330000">
  <ele>1044.800050</ele>
  <time>2012-05-06T13:44:50Z</time>
</trkpt>
<trkpt lat="46.234250000" lon="7.458130000">
  <ele>1044.800050</ele>
  <time>2012-05-06T13:44:55Z</time>
</trkpt>
<trkpt lat="46.234230000" lon="7.458090000">
  <ele>1045.239990</ele>
  <time>2012-05-06T13:44:56Z</time>
</trkpt>
<trkpt lat="46.234210000" lon="7.458040000">
  <ele>1045.680050</ele>
  <time>2012-05-06T13:44:57Z</time>
</trkpt>
<trkpt lat="46.234210000" lon="7.458000000">
  <ele>1046.120000</ele>
  <time>2012-05-06T13:44:58Z</time>
</trkpt>
<trkpt lat="46.234190000" lon="7.457950000">
  <ele>1046.560060</ele>
  <time>2012-05-06T13:44:59Z</time>
</trkpt>
<trkpt lat="46.234180000" lon="7.457900000">
  <ele>1047.000000</ele>
  <time>2012-05-06T13:45:00Z</time>
</trkpt>
<trkpt lat="46.234170000" lon="7.457850000">
  <ele>1047.000000</ele>
  <time>2012-05-06T13:45:01Z</time>
</trkpt>
<trkpt lat="46.234120000" lon="7.457620000">
  <ele>1048.222170</ele>
  <time>2012-05-06T13:45:06Z</time>
</trkpt>
<trkpt lat="46.234110000" lon="7.457570000">
  <ele>1048.466670</ele>
  <time>2012-05-06T13:45:07Z</time>
</trkpt>
<trkpt lat="46.234110000" lon="7.457520000">
  <ele>1048.711060</ele>
  <time>2012-05-06T13:45:08Z</time>
</trkpt>
<trkpt lat="46.234100000" lon="7.457480000">
  <ele>1048.955570</ele>
  <time>2012-05-06T13:45:09Z</time>
</trkpt>
<trkpt lat="46.234100000" lon="7.457430000">
  <ele>1049.199950</ele>
  <time>2012-05-06T13:45:10Z</time>
</trkpt>
<trkpt lat="46.234110000" lon="7.457340000">
  <ele>1049.199950</ele>
  <time>2012-05-06T13:45:12Z</time>
</trkpt>
<trkpt lat="46.234120000" lon="7.457260000">
  <ele>1049.933350</ele>
  <time>2012-05-06T13:45:14Z</time>
</trkpt>
<trkpt lat="46.234130000" lon="7.457220000">
  <ele>1050.300050</ele>
  <time>2012-05-06T13:45:15Z</time>
</trkpt>
<trkpt lat="46.234130000" lon="7.457180000">
  <ele>1050.666630</ele>
  <time>2012-05-06T13:45:16Z</time>
</trkpt>
<trkpt lat="46.234150000" lon="7.457130000">
  <ele>1051.033330</ele>
  <time>2012-05-06T13:45:17Z</time>
</trkpt>
<trkpt lat="46.234160000" lon="7.457090000">
  <ele>1051.400020</ele>
  <time>2012-05-06T13:45:18Z</time>
</trkpt>
<trkpt lat="46.234200000" lon="7.456920000">
  <ele>1051.400020</ele>
  <time>2012-05-06T13:45:22Z</time>
</trkpt>
<trkpt lat="46.234210000" lon="7.456870000">
  <ele>1051.730830</ele>
  <time>2012-05-06T13:45:23Z</time>
</trkpt>
<trkpt lat="46.234220000" lon="7.456820000">
  <ele>1052.061520</ele>
  <time>2012-05-06T13:45:24Z</time>
</trkpt>
<trkpt lat="46.234230000" lon="7.456780000">
  <ele>1052.392330</ele>
  <time>2012-05-06T13:45:25Z</time>
</trkpt>
<trkpt lat="46.234240000" lon="7.456740000">
  <ele>1052.723140</ele>
  <time>2012-05-06T13:45:26Z</time>
</trkpt>
<trkpt lat="46.234250000" lon="7.456700000">
  <ele>1053.053830</ele>
  <time>2012-05-06T13:45:27Z</time>
</trkpt>
<trkpt lat="46.234290000" lon="7.456580000">
  <ele>1054.046140</ele>
  <time>2012-05-06T13:45:30Z</time>
</trkpt>
<trkpt lat="46.234300000" lon="7.456550000">
  <ele>1054.376950</ele>
  <time>2012-05-06T13:45:31Z</time>
</trkpt>
<trkpt lat="46.234310000" lon="7.456520000">
  <ele>1054.707760</ele>
  <time>2012-05-06T13:45:32Z</time>
</trkpt>
<trkpt lat="46.234320000" lon="7.456470000">
  <ele>1055.038450</ele>
  <time>2012-05-06T13:45:33Z</time>
</trkpt>
<trkpt lat="46.234340000" lon="7.456430000">
  <ele>1055.369260</ele>
  <time>2012-05-06T13:45:34Z</time>
</trkpt>
<trkpt lat="46.234350000" lon="7.456390000">
  <ele>1055.699950</ele>
  <time>2012-05-06T13:45:35Z</time>
</trkpt>
<trkpt lat="46.234360000" lon="7.456350000">
  <ele>1056.030760</ele>
  <time>2012-05-06T13:45:36Z</time>
</trkpt>
<trkpt lat="46.234360000" lon="7.456310000">
  <ele>1056.361570</ele>
  <time>2012-05-06T13:45:37Z</time>
</trkpt>
<trkpt lat="46.234350000" lon="7.456270000">
  <ele>1056.692260</ele>
  <time>2012-05-06T13:45:38Z</time>
</trkpt>
<trkpt lat="46.234340000" lon="7.456230000">
  <ele>1057.023070</ele>
  <time>2012-05-06T13:45:39Z</time>
</trkpt>
<trkpt lat="46.234280000" lon="7.456020000">
  <ele>1058.676880</ele>
  <time>2012-05-06T13:45:44Z</time>
</trkpt>
<trkpt lat="46.234280000" lon="7.455990000">
  <ele>1059.007690</ele>
  <time>2012-05-06T13:45:45Z</time>
</trkpt>
<trkpt lat="46.234260000" lon="7.455950000">
  <ele>1059.338500</ele>
  <time>2012-05-06T13:45:46Z</time>
</trkpt>
<trkpt lat="46.234250000" lon="7.455910000">
  <ele>1059.669190</ele>
  <time>2012-05-06T13:45:47Z</time>
</trkpt>
<trkpt lat="46.234240000" lon="7.455870000">
  <ele>1060.000000</ele>
  <time>2012-05-06T13:45:48Z</time>
</trkpt>
<trkpt lat="46.234190000" lon="7.455720000">
  <ele>1060.000000</ele>
  <time>2012-05-06T13:45:52Z</time>
</trkpt>
<trkpt lat="46.234160000" lon="7.455580000">
  <ele>1061.142820</ele>
  <time>2012-05-06T13:45:56Z</time>
</trkpt>
<trkpt lat="46.234150000" lon="7.455560000">
  <ele>1061.428590</ele>
  <time>2012-05-06T13:45:57Z</time>
</trkpt>
<trkpt lat="46.234140000" lon="7.455520000">
  <ele>1061.714230</ele>
  <time>2012-05-06T13:45:58Z</time>
</trkpt>
<trkpt lat="46.234130000" lon="7.455490000">
  <ele>1062.000000</ele>
  <time>2012-05-06T13:45:59Z</time>
</trkpt>
<trkpt lat="46.234120000" lon="7.455410000">
  <ele>1062.000000</ele>
  <time>2012-05-06T13:46:00Z</time>
</trkpt>
<trkpt lat="46.234100000" lon="7.455260000">
  <ele>1063.222170</ele>
  <time>2012-05-06T13:46:05Z</time>
</trkpt>
<trkpt lat="46.234100000" lon="7.455230000">
  <ele>1063.466670</ele>
  <time>2012-05-06T13:46:06Z</time>
</trkpt>
<trkpt lat="46.234090000" lon="7.455190000">
  <ele>1063.711060</ele>
  <time>2012-05-06T13:46:07Z</time>
</trkpt>
<trkpt lat="46.234090000" lon="7.455160000">
  <ele>1063.955570</ele>
  <time>2012-05-06T13:46:08Z</time>
</trkpt>
<trkpt lat="46.234080000" lon="7.455130000">
  <ele>1064.199950</ele>
  <time>2012-05-06T13:46:09Z</time>
</trkpt>
<trkpt lat="46.234060000" lon="7.454910000">
  <ele>1064.199950</ele>
  <time>2012-05-06T13:46:15Z</time>
</trkpt>
<trkpt lat="46.234060000" lon="7.454880000">
  <ele>1064.640010</ele>
  <time>2012-05-06T13:46:16Z</time>
</trkpt>
<trkpt lat="46.234050000" lon="7.454850000">
  <ele>1065.079960</ele>
  <time>2012-05-06T13:46:17Z</time>
</trkpt>
<trkpt lat="46.234050000" lon="7.454810000">
  <ele>1065.520020</ele>
  <time>2012-05-06T13:46:18Z</time>
</trkpt>
<trkpt lat="46.234050000" lon="7.454780000">
  <ele>1065.959960</ele>
  <time>2012-05-06T13:46:19Z</time>
</trkpt>
<trkpt lat="46.234040000" lon="7.454740000">
  <ele>1066.400020</ele>
  <time>2012-05-06T13:46:20Z</time>
</trkpt>
<trkpt lat="46.234030000" lon="7.454710000">
  <ele>1066.400020</ele>
  <time>2012-05-06T13:46:21Z</time>
</trkpt>
<trkpt lat="46.233970000" lon="7.454570000">
  <ele>1067.542850</ele>
  <time>2012-05-06T13:46:25Z</time>
</trkpt>
<trkpt lat="46.233960000" lon="7.454540000">
  <ele>1067.828610</ele>
  <time>2012-05-06T13:46:26Z</time>
</trkpt>
<trkpt lat="46.233940000" lon="7.454500000">
  <ele>1068.114260</ele>
  <time>2012-05-06T13:46:27Z</time>
</trkpt>
<trkpt lat="46.233920000" lon="7.454470000">
  <ele>1068.400020</ele>
  <time>2012-05-06T13:46:28Z</time>
</trkpt>
<trkpt lat="46.233860000" lon="7.454340000">
  <ele>1068.400020</ele>
  <time>2012-05-06T13:46:32Z</time>
</trkpt>
<trkpt lat="46.233850000" lon="7.454310000">
  <ele>1068.622190</ele>
  <time>2012-05-06T13:46:33Z</time>
</trkpt>
<trkpt lat="46.233800000" lon="7.454150000">
  <ele>1069.511110</ele>
  <time>2012-05-06T13:46:37Z</time>
</trkpt>
<trkpt lat="46.233790000" lon="7.454110000">
  <ele>1069.733400</ele>
  <time>2012-05-06T13:46:38Z</time>
</trkpt>
<trkpt lat="46.233780000" lon="7.454070000">
  <ele>1069.955570</ele>
  <time>2012-05-06T13:46:39Z</time>
</trkpt>
<trkpt lat="46.233780000" lon="7.454040000">
  <ele>1070.177860</ele>
  <time>2012-05-06T13:46:40Z</time>
</trkpt>
<trkpt lat="46.233780000" lon="7.454000000">
  <ele>1070.400020</ele>
  <time>2012-05-06T13:46:41Z</time>
</trkpt>
<trkpt lat="46.233790000" lon="7.453880000">
  <ele>1070.400020</ele>
  <time>2012-05-06T13:46:44Z</time>
</trkpt>
<trkpt lat="46.233800000" lon="7.453850000">
  <ele>1070.839970</ele>
  <time>2012-05-06T13:46:45Z</time>
</trkpt>
<trkpt lat="46.233810000" lon="7.453810000">
  <ele>1071.280030</ele>
  <time>2012-05-06T13:46:46Z</time>
</trkpt>
<trkpt lat="46.233830000" lon="7.453780000">
  <ele>1071.719970</ele>
  <time>2012-05-06T13:46:47Z</time>
</trkpt>
<trkpt lat="46.233840000" lon="7.453750000">
  <ele>1072.160030</ele>
  <time>2012-05-06T13:46:48Z</time>
</trkpt>
<trkpt lat="46.233860000" lon="7.453720000">
  <ele>1072.599980</ele>
  <time>2012-05-06T13:46:49Z</time>
</trkpt>
<trkpt lat="46.233870000" lon="7.453690000">
  <ele>1072.599980</ele>
  <time>2012-05-06T13:46:50Z</time>
</trkpt>
<trkpt lat="46.233940000" lon="7.453580000">
  <ele>1073.699950</ele>
  <time>2012-05-06T13:46:54Z</time>
</trkpt>
<trkpt lat="46.233960000" lon="7.453550000">
  <ele>1073.974980</ele>
  <time>2012-05-06T13:46:55Z</time>
</trkpt>
<trkpt lat="46.233980000" lon="7.453520000">
  <ele>1074.250000</ele>
  <time>2012-05-06T13:46:56Z</time>
</trkpt>
<trkpt lat="46.234000000" lon="7.453500000">
  <ele>1074.525020</ele>
  <time>2012-05-06T13:46:57Z</time>
</trkpt>
<trkpt lat="46.234020000" lon="7.453470000">
  <ele>1074.800050</ele>
  <time>2012-05-06T13:46:58Z</time>
</trkpt>
<trkpt lat="46.234100000" lon="7.453370000">
  <ele>1075.900020</ele>
  <time>2012-05-06T13:47:02Z</time>
</trkpt>
<trkpt lat="46.234110000" lon="7.453340000">
  <ele>1076.175050</ele>
  <time>2012-05-06T13:47:03Z</time>
</trkpt>
<trkpt lat="46.234120000" lon="7.453300000">
  <ele>1076.449950</ele>
  <time>2012-05-06T13:47:04Z</time>
</trkpt>
<trkpt lat="46.234120000" lon="7.453270000">
  <ele>1076.724980</ele>
  <time>2012-05-06T13:47:05Z</time>
</trkpt>
<trkpt lat="46.234130000" lon="7.453230000">
  <ele>1077.000000</ele>
  <time>2012-05-06T13:47:06Z</time>
</trkpt>
<trkpt lat="46.234150000" lon="7.453110000">
  <ele>1077.000000</ele>
  <time>2012-05-06T13:47:09Z</time>
</trkpt>
<trkpt lat="46.234170000" lon="7.452990000">
  <ele>1077.839970</ele>
  <time>2012-05-06T13:47:12Z</time>
</trkpt>
<trkpt lat="46.234180000" lon="7.452950000">
  <ele>1078.120000</ele>
  <time>2012-05-06T13:47:13Z</time>
</trkpt>
<trkpt lat="46.234200000" lon="7.452920000">
  <ele>1078.400020</ele>
  <time>2012-05-06T13:47:14Z</time>
</trkpt>
<trkpt lat="46.234210000" lon="7.452880000">
  <ele>1078.679930</ele>
  <time>2012-05-06T13:47:15Z</time>
</trkpt>
<trkpt lat="46.234270000" lon="7.452710000">
  <ele>1080.079960</ele>
  <time>2012-05-06T13:47:20Z</time>
</trkpt>
<trkpt lat="46.234290000" lon="7.452670000">
  <ele>1080.359990</ele>
  <time>2012-05-06T13:47:21Z</time>
</trkpt>
<trkpt lat="46.234300000" lon="7.452640000">
  <ele>1080.640010</ele>
  <time>2012-05-06T13:47:22Z</time>
</trkpt>
<trkpt lat="46.234320000" lon="7.452610000">
  <ele>1080.919920</ele>
  <time>2012-05-06T13:47:23Z</time>
</trkpt>
<trkpt lat="46.234330000" lon="7.452570000">
  <ele>1081.199950</ele>
  <time>2012-05-06T13:47:24Z</time>
</trkpt>
<trkpt lat="46.234380000" lon="7.452440000">
  <ele>1081.199950</ele>
  <time>2012-05-06T13:47:28Z</time>
</trkpt>
<trkpt lat="46.234400000" lon="7.452410000">
  <ele>1081.599980</ele>
  <time>2012-05-06T13:47:29Z</time>
</trkpt>
<trkpt lat="46.234420000" lon="7.452380000">
  <ele>1082.000000</ele>
  <time>2012-05-06T13:47:30Z</time>
</trkpt>
<trkpt lat="46.234430000" lon="7.452350000">
  <ele>1082.399900</ele>
  <time>2012-05-06T13:47:31Z</time>
</trkpt>
<trkpt lat="46.234450000" lon="7.452320000">
  <ele>1082.799930</ele>
  <time>2012-05-06T13:47:32Z</time>
</trkpt>
<trkpt lat="46.234470000" lon="7.452290000">
  <ele>1083.199950</ele>
  <time>2012-05-06T13:47:33Z</time>
</trkpt>
<trkpt lat="46.234500000" lon="7.452230000">
  <ele>1083.199950</ele>
  <time>2012-05-06T13:47:35Z</time>
</trkpt>
<trkpt lat="46.234550000" lon="7.452140000">
  <ele>1084.300050</ele>
  <time>2012-05-06T13:47:38Z</time>
</trkpt>
<trkpt lat="46.234570000" lon="7.452110000">
  <ele>1084.666630</ele>
  <time>2012-05-06T13:47:39Z</time>
</trkpt>
<trkpt lat="46.234580000" lon="7.452080000">
  <ele>1085.033330</ele>
  <time>2012-05-06T13:47:40Z</time>
</trkpt>
<trkpt lat="46.234600000" lon="7.452060000">
  <ele>1085.400020</ele>
  <time>2012-05-06T13:47:41Z</time>
</trkpt>
<trkpt lat="46.234640000" lon="7.452000000">
  <ele>1085.400020</ele>
  <time>2012-05-06T13:47:43Z</time>
</trkpt>
<trkpt lat="46.234710000" lon="7.451900000">
  <ele>1086.341190</ele>
  <time>2012-05-06T13:47:47Z</time>
</trkpt>
<trkpt lat="46.234730000" lon="7.451880000">
  <ele>1086.576540</ele>
  <time>2012-05-06T13:47:48Z</time>
</trkpt>
<trkpt lat="46.234750000" lon="7.451860000">
  <ele>1086.811770</ele>
  <time>2012-05-06T13:47:49Z</time>
</trkpt>
<trkpt lat="46.234770000" lon="7.451830000">
  <ele>1087.047120</ele>
  <time>2012-05-06T13:47:50Z</time>
</trkpt>
<trkpt lat="46.234780000" lon="7.451800000">
  <ele>1087.282350</ele>
  <time>2012-05-06T13:47:51Z</time>
</trkpt>
<trkpt lat="46.234890000" lon="7.451690000">
  <ele>1088.458860</ele>
  <time>2012-05-06T13:47:56Z</time>
</trkpt>
<trkpt lat="46.234910000" lon="7.451660000">
  <ele>1088.694090</ele>
  <time>2012-05-06T13:47:57Z</time>
</trkpt>
<trkpt lat="46.234930000" lon="7.451640000">
  <ele>1088.929440</ele>
  <time>2012-05-06T13:47:58Z</time>
</trkpt>
<trkpt lat="46.234950000" lon="7.451610000">
  <ele>1089.164670</ele>
  <time>2012-05-06T13:47:59Z</time>
</trkpt>
<trkpt lat="46.234970000" lon="7.451590000">
  <ele>1089.400020</ele>
  <time>2012-05-06T13:48:00Z</time>
</trkpt>
<trkpt lat="46.235060000" lon="7.451460000">
  <ele>1089.400020</ele>
  <time>2012-05-06T13:48:05Z</time>
</trkpt>
<trkpt lat="46.235080000" lon="7.451430000">
  <ele>1089.839970</ele>
  <time>2012-05-06T13:48:06Z</time>
</trkpt>
<trkpt lat="46.235090000" lon="7.451400000">
  <ele>1090.280030</ele>
  <time>2012-05-06T13:48:07Z</time>
</trkpt>
<trkpt lat="46.235110000" lon="7.451380000">
  <ele>1090.719970</ele>
  <time>2012-05-06T13:48:08Z</time>
</trkpt>
<trkpt lat="46.235130000" lon="7.451350000">
  <ele>1091.160030</ele>
  <time>2012-05-06T13:48:09Z</time>
</trkpt>
<trkpt lat="46.235150000" lon="7.451320000">
  <ele>1091.599980</ele>
  <time>2012-05-06T13:48:10Z</time>
</trkpt>
<trkpt lat="46.235200000" lon="7.451240000">
  <ele>1091.599980</ele>
  <time>2012-05-06T13:48:13Z</time>
</trkpt>
<trkpt lat="46.235250000" lon="7.451160000">
  <ele>1092.457150</ele>
  <time>2012-05-06T13:48:16Z</time>
</trkpt>
<trkpt lat="46.235270000" lon="7.451140000">
  <ele>1092.742800</ele>
  <time>2012-05-06T13:48:17Z</time>
</trkpt>
<trkpt lat="46.235290000" lon="7.451110000">
  <ele>1093.028560</ele>
  <time>2012-05-06T13:48:18Z</time>
</trkpt>
<trkpt lat="46.235310000" lon="7.451080000">
  <ele>1093.314210</ele>
  <time>2012-05-06T13:48:19Z</time>
</trkpt>
<trkpt lat="46.235320000" lon="7.451050000">
  <ele>1093.599980</ele>
  <time>2012-05-06T13:48:20Z</time>
</trkpt>
<trkpt lat="46.235450000" lon="7.450870000">
  <ele>1093.599980</ele>
  <time>2012-05-06T13:48:27Z</time>
</trkpt>
<trkpt lat="46.235470000" lon="7.450840000">
  <ele>1094.040040</ele>
  <time>2012-05-06T13:48:28Z</time>
</trkpt>
<trkpt lat="46.235490000" lon="7.450820000">
  <ele>1094.479980</ele>
  <time>2012-05-06T13:48:29Z</time>
</trkpt>
<trkpt lat="46.235500000" lon="7.450790000">
  <ele>1094.920040</ele>
  <time>2012-05-06T13:48:30Z</time>
</trkpt>
<trkpt lat="46.235530000" lon="7.450770000">
  <ele>1095.359990</ele>
  <time>2012-05-06T13:48:31Z</time>
</trkpt>
<trkpt lat="46.235550000" lon="7.450740000">
  <ele>1095.800050</ele>
  <time>2012-05-06T13:48:32Z</time>
</trkpt>
<trkpt lat="46.235570000" lon="7.450720000">
  <ele>1095.800050</ele>
  <time>2012-05-06T13:48:33Z</time>
</trkpt>
<trkpt lat="46.235660000" lon="7.450650000">
  <ele>1096.791990</ele>
  <time>2012-05-06T13:48:37Z</time>
</trkpt>
<trkpt lat="46.235680000" lon="7.450640000">
  <ele>1097.040040</ele>
  <time>2012-05-06T13:48:38Z</time>
</trkpt>
<trkpt lat="46.235700000" lon="7.450620000">
  <ele>1097.288090</ele>
  <time>2012-05-06T13:48:39Z</time>
</trkpt>
<trkpt lat="46.235720000" lon="7.450600000">
  <ele>1097.536010</ele>
  <time>2012-05-06T13:48:40Z</time>
</trkpt>
<trkpt lat="46.235740000" lon="7.450580000">
  <ele>1097.784060</ele>
  <time>2012-05-06T13:48:41Z</time>
</trkpt>
<trkpt lat="46.235860000" lon="7.450490000">
  <ele>1099.024050</ele>
  <time>2012-05-06T13:48:46Z</time>
</trkpt>
<trkpt lat="46.235890000" lon="7.450470000">
  <ele>1099.271970</ele>
  <time>2012-05-06T13:48:47Z</time>
</trkpt>
<trkpt lat="46.235910000" lon="7.450440000">
  <ele>1099.520020</ele>
  <time>2012-05-06T13:48:48Z</time>
</trkpt>
<trkpt lat="46.235930000" lon="7.450410000">
  <ele>1099.768070</ele>
  <time>2012-05-06T13:48:49Z</time>
</trkpt>
<trkpt lat="46.236020000" lon="7.450270000">
  <ele>1101.008060</ele>
  <time>2012-05-06T13:48:54Z</time>
</trkpt>
<trkpt lat="46.236040000" lon="7.450240000">
  <ele>1101.255980</ele>
  <time>2012-05-06T13:48:55Z</time>
</trkpt>
<trkpt lat="46.236060000" lon="7.450210000">
  <ele>1101.504030</ele>
  <time>2012-05-06T13:48:56Z</time>
</trkpt>
<trkpt lat="46.236080000" lon="7.450180000">
  <ele>1101.751950</ele>
  <time>2012-05-06T13:48:57Z</time>
</trkpt>
<trkpt lat="46.236080000" lon="7.450140000">
  <ele>1102.000000</ele>
  <time>2012-05-06T13:48:58Z</time>
</trkpt>
<trkpt lat="46.236120000" lon="7.450030000">
  <ele>1102.000000</ele>
  <time>2012-05-06T13:49:01Z</time>
</trkpt>
<trkpt lat="46.236130000" lon="7.449960000">
  <ele>1102.800050</ele>
  <time>2012-05-06T13:49:03Z</time>
</trkpt>
<trkpt lat="46.236140000" lon="7.449920000">
  <ele>1103.199950</ele>
  <time>2012-05-06T13:49:04Z</time>
</trkpt>
<trkpt lat="46.236140000" lon="7.449880000">
  <ele>1103.599980</ele>
  <time>2012-05-06T13:49:05Z</time>
</trkpt>
<trkpt lat="46.236150000" lon="7.449840000">
  <ele>1104.000000</ele>
  <time>2012-05-06T13:49:06Z</time>
</trkpt>
<trkpt lat="46.236150000" lon="7.449800000">
  <ele>1104.400020</ele>
  <time>2012-05-06T13:49:07Z</time>
</trkpt>
<trkpt lat="46.236160000" lon="7.449760000">
  <ele>1104.400020</ele>
  <time>2012-05-06T13:49:08Z</time>
</trkpt>
<trkpt lat="46.236180000" lon="7.449570000">
  <ele>1105.511110</ele>
  <time>2012-05-06T13:49:13Z</time>
</trkpt>
<trkpt lat="46.236180000" lon="7.449530000">
  <ele>1105.733400</ele>
  <time>2012-05-06T13:49:14Z</time>
</trkpt>
<trkpt lat="46.236180000" lon="7.449490000">
  <ele>1105.955570</ele>
  <time>2012-05-06T13:49:15Z</time>
</trkpt>
<trkpt lat="46.236190000" lon="7.449460000">
  <ele>1106.177860</ele>
  <time>2012-05-06T13:49:16Z</time>
</trkpt>
<trkpt lat="46.236190000" lon="7.449420000">
  <ele>1106.400020</ele>
  <time>2012-05-06T13:49:17Z</time>
</trkpt>
<trkpt lat="46.236220000" lon="7.449240000">
  <ele>1106.400020</ele>
  <time>2012-05-06T13:49:22Z</time>
</trkpt>
<trkpt lat="46.236230000" lon="7.449200000">
  <ele>1106.723140</ele>
  <time>2012-05-06T13:49:23Z</time>
</trkpt>
<trkpt lat="46.236240000" lon="7.449170000">
  <ele>1107.046140</ele>
  <time>2012-05-06T13:49:24Z</time>
</trkpt>
<trkpt lat="46.236250000" lon="7.449140000">
  <ele>1107.369260</ele>
  <time>2012-05-06T13:49:25Z</time>
</trkpt>
<trkpt lat="46.236260000" lon="7.449100000">
  <ele>1107.692260</ele>
  <time>2012-05-06T13:49:26Z</time>
</trkpt>
<trkpt lat="46.236260000" lon="7.449070000">
  <ele>1108.015380</ele>
  <time>2012-05-06T13:49:27Z</time>
</trkpt>
<trkpt lat="46.236320000" lon="7.448940000">
  <ele>1109.307740</ele>
  <time>2012-05-06T13:49:31Z</time>
</trkpt>
<trkpt lat="46.236340000" lon="7.448910000">
  <ele>1109.630740</ele>
  <time>2012-05-06T13:49:32Z</time>
</trkpt>
<trkpt lat="46.236350000" lon="7.448880000">
  <ele>1109.953860</ele>
  <time>2012-05-06T13:49:33Z</time>
</trkpt>
<trkpt lat="46.236350000" lon="7.448850000">
  <ele>1110.276860</ele>
  <time>2012-05-06T13:49:34Z</time>
</trkpt>
<trkpt lat="46.236370000" lon="7.448820000">
  <ele>1110.599980</ele>
  <time>2012-05-06T13:49:35Z</time>
</trkpt>
<trkpt lat="46.236390000" lon="7.448760000">
  <ele>1110.599980</ele>
  <time>2012-05-06T13:49:37Z</time>
</trkpt>
<trkpt lat="46.236450000" lon="7.448640000">
  <ele>1111.599980</ele>
  <time>2012-05-06T13:49:41Z</time>
</trkpt>
<trkpt lat="46.236460000" lon="7.448610000">
  <ele>1111.849980</ele>
  <time>2012-05-06T13:49:42Z</time>
</trkpt>
<trkpt lat="46.236470000" lon="7.448570000">
  <ele>1112.099980</ele>
  <time>2012-05-06T13:49:43Z</time>
</trkpt>
<trkpt lat="46.236480000" lon="7.448540000">
  <ele>1112.349980</ele>
  <time>2012-05-06T13:49:44Z</time>
</trkpt>
<trkpt lat="46.236490000" lon="7.448510000">
  <ele>1112.599980</ele>
  <time>2012-05-06T13:49:45Z</time>
</trkpt>
<trkpt lat="46.236530000" lon="7.448380000">
  <ele>1112.599980</ele>
  <time>2012-05-06T13:49:49Z</time>
</trkpt>
<trkpt lat="46.236540000" lon="7.448350000">
  <ele>1113.040040</ele>
  <time>2012-05-06T13:49:50Z</time>
</trkpt>
<trkpt lat="46.236550000" lon="7.448310000">
  <ele>1113.479980</ele>
  <time>2012-05-06T13:49:51Z</time>
</trkpt>
<trkpt lat="46.236550000" lon="7.448270000">
  <ele>1113.920040</ele>
  <time>2012-05-06T13:49:52Z</time>
</trkpt>
<trkpt lat="46.236550000" lon="7.448240000">
  <ele>1114.359990</ele>
  <time>2012-05-06T13:49:53Z</time>
</trkpt>
<trkpt lat="46.236540000" lon="7.448190000">
  <ele>1114.800050</ele>
  <time>2012-05-06T13:49:54Z</time>
</trkpt>
<trkpt lat="46.236540000" lon="7.448160000">
  <ele>1114.800050</ele>
  <time>2012-05-06T13:49:55Z</time>
</trkpt>
<trkpt lat="46.236510000" lon="7.448000000">
  <ele>1115.911130</ele>
  <time>2012-05-06T13:50:00Z</time>
</trkpt>
<trkpt lat="46.236500000" lon="7.447960000">
  <ele>1116.133420</ele>
  <time>2012-05-06T13:50:01Z</time>
</trkpt>
<trkpt lat="46.236490000" lon="7.447930000">
  <ele>1116.355590</ele>
  <time>2012-05-06T13:50:02Z</time>
</trkpt>
<trkpt lat="46.236490000" lon="7.447890000">
  <ele>1116.577880</ele>
  <time>2012-05-06T13:50:03Z</time>
</trkpt>
<trkpt lat="46.236480000" lon="7.447830000">
  <ele>1116.800050</ele>
  <time>2012-05-06T13:50:04Z</time>
</trkpt>
<trkpt lat="46.236460000" lon="7.447780000">
  <ele>1116.800050</ele>
  <time>2012-05-06T13:50:07Z</time>
</trkpt>
<trkpt lat="46.236420000" lon="7.447680000">
  <ele>1117.838500</ele>
  <time>2012-05-06T13:50:10Z</time>
</trkpt>
<trkpt lat="46.236400000" lon="7.447660000">
  <ele>1118.184690</ele>
  <time>2012-05-06T13:50:11Z</time>
</trkpt>
<trkpt lat="46.236390000" lon="7.447630000">
  <ele>1118.530760</ele>
  <time>2012-05-06T13:50:12Z</time>
</trkpt>
<trkpt lat="46.236380000" lon="7.447610000">
  <ele>1118.876950</ele>
  <time>2012-05-06T13:50:13Z</time>
</trkpt>
<trkpt lat="46.236370000" lon="7.447580000">
  <ele>1119.223140</ele>
  <time>2012-05-06T13:50:14Z</time>
</trkpt>
<trkpt lat="46.236330000" lon="7.447470000">
  <ele>1120.261600</ele>
  <time>2012-05-06T13:50:17Z</time>
</trkpt>
<trkpt lat="46.236320000" lon="7.447440000">
  <ele>1120.607790</ele>
  <time>2012-05-06T13:50:18Z</time>
</trkpt>
<trkpt lat="46.236310000" lon="7.447410000">
  <ele>1120.953860</ele>
  <time>2012-05-06T13:50:19Z</time>
</trkpt>
<trkpt lat="46.236300000" lon="7.447380000">
  <ele>1121.300050</ele>
  <time>2012-05-06T13:50:20Z</time>
</trkpt>
<trkpt lat="46.236290000" lon="7.447310000">
  <ele>1121.992310</ele>
  <time>2012-05-06T13:50:22Z</time>
</trkpt>
<trkpt lat="46.236290000" lon="7.447280000">
  <ele>1122.338500</ele>
  <time>2012-05-06T13:50:23Z</time>
</trkpt>
<trkpt lat="46.236290000" lon="7.447250000">
  <ele>1122.684690</ele>
  <time>2012-05-06T13:50:24Z</time>
</trkpt>
<trkpt lat="46.236300000" lon="7.447220000">
  <ele>1123.030760</ele>
  <time>2012-05-06T13:50:25Z</time>
</trkpt>
<trkpt lat="46.236300000" lon="7.447190000">
  <ele>1123.376950</ele>
  <time>2012-05-06T13:50:26Z</time>
</trkpt>
<trkpt lat="46.236320000" lon="7.447110000">
  <ele>1124.415410</ele>
  <time>2012-05-06T13:50:29Z</time>
</trkpt>
<trkpt lat="46.236330000" lon="7.447080000">
  <ele>1124.761600</ele>
  <time>2012-05-06T13:50:30Z</time>
</trkpt>
<trkpt lat="46.236340000" lon="7.447060000">
  <ele>1125.107790</ele>
  <time>2012-05-06T13:50:31Z</time>
</trkpt>
<trkpt lat="46.236350000" lon="7.447040000">
  <ele>1125.453860</ele>
  <time>2012-05-06T13:50:32Z</time>
</trkpt>
<trkpt lat="46.236360000" lon="7.447020000">
  <ele>1125.800050</ele>
  <time>2012-05-06T13:50:33Z</time>
</trkpt>
<trkpt lat="46.236390000" lon="7.446980000">
  <ele>1125.800050</ele>
  <time>2012-05-06T13:50:35Z</time>
</trkpt>
<trkpt lat="46.236420000" lon="7.446940000">
  <ele>1126.381840</ele>
  <time>2012-05-06T13:50:37Z</time>
</trkpt>
<trkpt lat="46.236440000" lon="7.446920000">
  <ele>1126.672730</ele>
  <time>2012-05-06T13:50:38Z</time>
</trkpt>
<trkpt lat="46.236460000" lon="7.446910000">
  <ele>1126.963620</ele>
  <time>2012-05-06T13:50:39Z</time>
</trkpt>
<trkpt lat="46.236480000" lon="7.446890000">
  <ele>1127.254520</ele>
  <time>2012-05-06T13:50:40Z</time>
</trkpt>
<trkpt lat="46.236500000" lon="7.446880000">
  <ele>1127.545530</ele>
  <time>2012-05-06T13:50:41Z</time>
</trkpt>
<trkpt lat="46.236560000" lon="7.446830000">
  <ele>1128.418210</ele>
  <time>2012-05-06T13:50:44Z</time>
</trkpt>
<trkpt lat="46.236570000" lon="7.446810000">
  <ele>1128.709110</ele>
  <time>2012-05-06T13:50:45Z</time>
</trkpt>
<trkpt lat="46.236600000" lon="7.446800000">
  <ele>1129.000000</ele>
  <time>2012-05-06T13:50:46Z</time>
</trkpt>
<trkpt lat="46.236610000" lon="7.446780000">
  <ele>1129.290890</ele>
  <time>2012-05-06T13:50:47Z</time>
</trkpt>
<trkpt lat="46.236640000" lon="7.446770000">
  <ele>1129.581790</ele>
  <time>2012-05-06T13:50:48Z</time>
</trkpt>
<trkpt lat="46.236730000" lon="7.446710000">
  <ele>1131.036380</ele>
  <time>2012-05-06T13:50:53Z</time>
</trkpt>
<trkpt lat="46.236760000" lon="7.446700000">
  <ele>1131.327270</ele>
  <time>2012-05-06T13:50:54Z</time>
</trkpt>
<trkpt lat="46.236780000" lon="7.446690000">
  <ele>1131.618160</ele>
  <time>2012-05-06T13:50:55Z</time>
</trkpt>
<trkpt lat="46.236800000" lon="7.446680000">
  <ele>1131.909060</ele>
  <time>2012-05-06T13:50:56Z</time>
</trkpt>
<trkpt lat="46.236820000" lon="7.446670000">
  <ele>1132.199950</ele>
  <time>2012-05-06T13:50:57Z</time>
</trkpt>
<trkpt lat="46.236840000" lon="7.446670000">
  <ele>1132.199950</ele>
  <time>2012-05-06T13:50:58Z</time>
</trkpt>
<trkpt lat="46.236930000" lon="7.446640000">
  <ele>1133.224980</ele>
  <time>2012-05-06T13:51:02Z</time>
</trkpt>
<trkpt lat="46.236960000" lon="7.446630000">
  <ele>1133.481200</ele>
  <time>2012-05-06T13:51:03Z</time>
</trkpt>
<trkpt lat="46.236980000" lon="7.446630000">
  <ele>1133.737430</ele>
  <time>2012-05-06T13:51:04Z</time>
</trkpt>
<trkpt lat="46.237000000" lon="7.446640000">
  <ele>1133.993770</ele>
  <time>2012-05-06T13:51:05Z</time>
</trkpt>
<trkpt lat="46.237020000" lon="7.446640000">
  <ele>1134.250000</ele>
  <time>2012-05-06T13:51:06Z</time>
</trkpt>
<trkpt lat="46.237090000" lon="7.446630000">
  <ele>1135.018680</ele>
  <time>2012-05-06T13:51:09Z</time>
</trkpt>
<trkpt lat="46.237110000" lon="7.446630000">
  <ele>1135.275020</ele>
  <time>2012-05-06T13:51:10Z</time>
</trkpt>
<trkpt lat="46.237130000" lon="7.446630000">
  <ele>1135.531250</ele>
  <time>2012-05-06T13:51:11Z</time>
</trkpt>
<trkpt lat="46.237160000" lon="7.446630000">
  <ele>1135.787480</ele>
  <time>2012-05-06T13:51:12Z</time>
</trkpt>
<trkpt lat="46.237180000" lon="7.446630000">
  <ele>1136.043700</ele>
  <time>2012-05-06T13:51:13Z</time>
</trkpt>
<trkpt lat="46.237280000" lon="7.446610000">
  <ele>1137.068730</ele>
  <time>2012-05-06T13:51:17Z</time>
</trkpt>
<trkpt lat="46.237300000" lon="7.446600000">
  <ele>1137.324950</ele>
  <time>2012-05-06T13:51:18Z</time>
</trkpt>
<trkpt lat="46.237320000" lon="7.446600000">
  <ele>1137.581300</ele>
  <time>2012-05-06T13:51:19Z</time>
</trkpt>
<trkpt lat="46.237350000" lon="7.446600000">
  <ele>1137.837520</ele>
  <time>2012-05-06T13:51:20Z</time>
</trkpt>
<trkpt lat="46.237370000" lon="7.446590000">
  <ele>1138.093750</ele>
  <time>2012-05-06T13:51:21Z</time>
</trkpt>
<trkpt lat="46.237480000" lon="7.446570000">
  <ele>1139.375000</ele>
  <time>2012-05-06T13:51:26Z</time>
</trkpt>
<trkpt lat="46.237510000" lon="7.446560000">
  <ele>1139.631230</ele>
  <time>2012-05-06T13:51:27Z</time>
</trkpt>
<trkpt lat="46.237530000" lon="7.446560000">
  <ele>1139.887570</ele>
  <time>2012-05-06T13:51:28Z</time>
</trkpt>
<trkpt lat="46.237550000" lon="7.446550000">
  <ele>1140.143800</ele>
  <time>2012-05-06T13:51:29Z</time>
</trkpt>
<trkpt lat="46.237580000" lon="7.446550000">
  <ele>1140.400020</ele>
  <time>2012-05-06T13:51:30Z</time>
</trkpt>
<trkpt lat="46.237640000" lon="7.446540000">
  <ele>1140.400020</ele>
  <time>2012-05-06T13:51:33Z</time>
</trkpt>
<trkpt lat="46.237670000" lon="7.446530000">
  <ele>1140.685790</ele>
  <time>2012-05-06T13:51:34Z</time>
</trkpt>
<trkpt lat="46.237690000" lon="7.446530000">
  <ele>1140.971440</ele>
  <time>2012-05-06T13:51:35Z</time>
</trkpt>
<trkpt lat="46.237710000" lon="7.446520000">
  <ele>1141.257200</ele>
  <time>2012-05-06T13:51:36Z</time>
</trkpt>
<trkpt lat="46.237740000" lon="7.446510000">
  <ele>1141.542850</ele>
  <time>2012-05-06T13:51:37Z</time>
</trkpt>
<trkpt lat="46.237750000" lon="7.446500000">
  <ele>1141.828610</ele>
  <time>2012-05-06T13:51:38Z</time>
</trkpt>
<trkpt lat="46.237870000" lon="7.446470000">
  <ele>1143.257200</ele>
  <time>2012-05-06T13:51:43Z</time>
</trkpt>
<trkpt lat="46.237890000" lon="7.446460000">
  <ele>1143.542850</ele>
  <time>2012-05-06T13:51:44Z</time>
</trkpt>
<trkpt lat="46.237920000" lon="7.446460000">
  <ele>1143.828610</ele>
  <time>2012-05-06T13:51:45Z</time>
</trkpt>
<trkpt lat="46.237940000" lon="7.446450000">
  <ele>1144.114260</ele>
  <time>2012-05-06T13:51:46Z</time>
</trkpt>
<trkpt lat="46.237960000" lon="7.446440000">
  <ele>1144.400020</ele>
  <time>2012-05-06T13:51:47Z</time>
</trkpt>
<trkpt lat="46.238030000" lon="7.446420000">
  <ele>1144.400020</ele>
  <time>2012-05-06T13:51:50Z</time>
</trkpt>
<trkpt lat="46.238060000" lon="7.446420000">
  <ele>1144.839970</ele>
  <time>2012-05-06T13:51:51Z</time>
</trkpt>
<trkpt lat="46.238080000" lon="7.446410000">
  <ele>1145.280030</ele>
  <time>2012-05-06T13:51:52Z</time>
</trkpt>
<trkpt lat="46.238100000" lon="7.446410000">
  <ele>1145.719970</ele>
  <time>2012-05-06T13:51:53Z</time>
</trkpt>
<trkpt lat="46.238130000" lon="7.446410000">
  <ele>1146.160030</ele>
  <time>2012-05-06T13:51:54Z</time>
</trkpt>
<trkpt lat="46.238160000" lon="7.446410000">
  <ele>1146.599980</ele>
  <time>2012-05-06T13:51:55Z</time>
</trkpt>
<trkpt lat="46.238200000" lon="7.446400000">
  <ele>1146.599980</ele>
  <time>2012-05-06T13:51:57Z</time>
</trkpt>
<trkpt lat="46.238240000" lon="7.446400000">
  <ele>1147.171390</ele>
  <time>2012-05-06T13:51:59Z</time>
</trkpt>
<trkpt lat="46.238260000" lon="7.446410000">
  <ele>1147.457150</ele>
  <time>2012-05-06T13:52:00Z</time>
</trkpt>
<trkpt lat="46.238280000" lon="7.446410000">
  <ele>1147.742800</ele>
  <time>2012-05-06T13:52:01Z</time>
</trkpt>
<trkpt lat="46.238300000" lon="7.446410000">
  <ele>1148.028560</ele>
  <time>2012-05-06T13:52:02Z</time>
</trkpt>
<trkpt lat="46.238320000" lon="7.446410000">
  <ele>1148.314210</ele>
  <time>2012-05-06T13:52:03Z</time>
</trkpt>
<trkpt lat="46.238410000" lon="7.446330000">
  <ele>1149.457150</ele>
  <time>2012-05-06T13:52:07Z</time>
</trkpt>
<trkpt lat="46.238430000" lon="7.446300000">
  <ele>1149.742800</ele>
  <time>2012-05-06T13:52:08Z</time>
</trkpt>
<trkpt lat="46.238430000" lon="7.446260000">
  <ele>1150.028560</ele>
  <time>2012-05-06T13:52:09Z</time>
</trkpt>
<trkpt lat="46.238430000" lon="7.446230000">
  <ele>1150.314210</ele>
  <time>2012-05-06T13:52:10Z</time>
</trkpt>
<trkpt lat="46.238440000" lon="7.446190000">
  <ele>1150.599980</ele>
  <time>2012-05-06T13:52:11Z</time>
</trkpt>
<trkpt lat="46.238450000" lon="7.446130000">
  <ele>1150.599980</ele>
  <time>2012-05-06T13:52:13Z</time>
</trkpt>
<trkpt lat="46.238410000" lon="7.445900000">
  <ele>1152.000000</ele>
  <time>2012-05-06T13:52:20Z</time>
</trkpt>
<trkpt lat="46.238400000" lon="7.445870000">
  <ele>1152.199950</ele>
  <time>2012-05-06T13:52:21Z</time>
</trkpt>
<trkpt lat="46.238400000" lon="7.445850000">
  <ele>1152.400020</ele>
  <time>2012-05-06T13:52:22Z</time>
</trkpt>
<trkpt lat="46.238390000" lon="7.445820000">
  <ele>1152.599980</ele>
  <time>2012-05-06T13:52:23Z</time>
</trkpt>
<trkpt lat="46.238370000" lon="7.445720000">
  <ele>1152.599980</ele>
  <time>2012-05-06T13:52:27Z</time>
</trkpt>
<trkpt lat="46.238340000" lon="7.445660000">
  <ele>1153.333370</ele>
  <time>2012-05-06T13:52:29Z</time>
</trkpt>
<trkpt lat="46.238320000" lon="7.445630000">
  <ele>1153.699950</ele>
  <time>2012-05-06T13:52:30Z</time>
</trkpt>
<trkpt lat="46.238300000" lon="7.445600000">
  <ele>1154.066650</ele>
  <time>2012-05-06T13:52:31Z</time>
</trkpt>
<trkpt lat="46.238290000" lon="7.445570000">
  <ele>1154.433350</ele>
  <time>2012-05-06T13:52:32Z</time>
</trkpt>
<trkpt lat="46.238270000" lon="7.445530000">
  <ele>1154.800050</ele>
  <time>2012-05-06T13:52:33Z</time>
</trkpt>
<trkpt lat="46.238240000" lon="7.445360000">
  <ele>1154.800050</ele>
  <time>2012-05-06T13:52:38Z</time>
</trkpt>
<trkpt lat="46.238240000" lon="7.445330000">
  <ele>1155.280030</ele>
  <time>2012-05-06T13:52:39Z</time>
</trkpt>
<trkpt lat="46.238250000" lon="7.445300000">
  <ele>1155.760010</ele>
  <time>2012-05-06T13:52:40Z</time>
</trkpt>
<trkpt lat="46.238250000" lon="7.445270000">
  <ele>1156.239990</ele>
  <time>2012-05-06T13:52:41Z</time>
</trkpt>
<trkpt lat="46.238260000" lon="7.445240000">
  <ele>1156.719970</ele>
  <time>2012-05-06T13:52:42Z</time>
</trkpt>
<trkpt lat="46.238260000" lon="7.445210000">
  <ele>1157.199950</ele>
  <time>2012-05-06T13:52:43Z</time>
</trkpt>
<trkpt lat="46.238270000" lon="7.445150000">
  <ele>1157.199950</ele>
  <time>2012-05-06T13:52:45Z</time>
</trkpt>
<trkpt lat="46.238270000" lon="7.445120000">
  <ele>1157.640010</ele>
  <time>2012-05-06T13:52:46Z</time>
</trkpt>
<trkpt lat="46.238270000" lon="7.445080000">
  <ele>1158.079960</ele>
  <time>2012-05-06T13:52:47Z</time>
</trkpt>
<trkpt lat="46.238270000" lon="7.445050000">
  <ele>1158.520020</ele>
  <time>2012-05-06T13:52:48Z</time>
</trkpt>
<trkpt lat="46.238270000" lon="7.445020000">
  <ele>1158.959960</ele>
  <time>2012-05-06T13:52:49Z</time>
</trkpt>
<trkpt lat="46.238270000" lon="7.444980000">
  <ele>1159.400020</ele>
  <time>2012-05-06T13:52:50Z</time>
</trkpt>
<trkpt lat="46.238270000" lon="7.444950000">
  <ele>1159.400020</ele>
  <time>2012-05-06T13:52:51Z</time>
</trkpt>
<trkpt lat="46.238260000" lon="7.444920000">
  <ele>1159.800050</ele>
  <time>2012-05-06T13:52:52Z</time>
</trkpt>
<trkpt lat="46.238260000" lon="7.444900000">
  <ele>1160.200070</ele>
  <time>2012-05-06T13:52:53Z</time>
</trkpt>
<trkpt lat="46.238250000" lon="7.444870000">
  <ele>1160.599980</ele>
  <time>2012-05-06T13:52:54Z</time>
</trkpt>
<trkpt lat="46.238240000" lon="7.444840000">
  <ele>1161.000000</ele>
  <time>2012-05-06T13:52:55Z</time>
</trkpt>
<trkpt lat="46.238230000" lon="7.444810000">
  <ele>1161.400020</ele>
  <time>2012-05-06T13:52:56Z</time>
</trkpt>
<trkpt lat="46.238190000" lon="7.444760000">
  <ele>1161.400020</ele>
  <time>2012-05-06T13:52:58Z</time>
</trkpt>
<trkpt lat="46.238100000" lon="7.444680000">
  <ele>1162.400020</ele>
  <time>2012-05-06T13:53:02Z</time>
</trkpt>
<trkpt lat="46.238080000" lon="7.444670000">
  <ele>1162.650020</ele>
  <time>2012-05-06T13:53:03Z</time>
</trkpt>
<trkpt lat="46.238050000" lon="7.444670000">
  <ele>1162.900020</ele>
  <time>2012-05-06T13:53:04Z</time>
</trkpt>
<trkpt lat="46.238030000" lon="7.444680000">
  <ele>1163.150020</ele>
  <time>2012-05-06T13:53:05Z</time>
</trkpt>
<trkpt lat="46.238010000" lon="7.444700000">
  <ele>1163.400020</ele>
  <time>2012-05-06T13:53:06Z</time>
</trkpt>
<trkpt lat="46.237920000" lon="7.444740000">
  <ele>1163.400020</ele>
  <time>2012-05-06T13:53:10Z</time>
</trkpt>
<trkpt lat="46.237880000" lon="7.444770000">
  <ele>1164.133300</ele>
  <time>2012-05-06T13:53:12Z</time>
</trkpt>
<trkpt lat="46.237860000" lon="7.444790000">
  <ele>1164.500000</ele>
  <time>2012-05-06T13:53:13Z</time>
</trkpt>
<trkpt lat="46.237840000" lon="7.444810000">
  <ele>1164.866700</ele>
  <time>2012-05-06T13:53:14Z</time>
</trkpt>
<trkpt lat="46.237820000" lon="7.444820000">
  <ele>1165.233280</ele>
  <time>2012-05-06T13:53:15Z</time>
</trkpt>
<trkpt lat="46.237800000" lon="7.444840000">
  <ele>1165.599980</ele>
  <time>2012-05-06T13:53:16Z</time>
</trkpt>
<trkpt lat="46.237780000" lon="7.444850000">
  <ele>1165.599980</ele>
  <time>2012-05-06T13:53:17Z</time>
</trkpt>
<trkpt lat="46.237670000" lon="7.444880000">
  <ele>1166.912480</ele>
  <time>2012-05-06T13:53:22Z</time>
</trkpt>
<trkpt lat="46.237650000" lon="7.444880000">
  <ele>1167.175050</ele>
  <time>2012-05-06T13:53:23Z</time>
</trkpt>
<trkpt lat="46.237630000" lon="7.444880000">
  <ele>1167.437500</ele>
  <time>2012-05-06T13:53:24Z</time>
</trkpt>
<trkpt lat="46.237600000" lon="7.444880000">
  <ele>1167.699950</ele>
  <time>2012-05-06T13:53:25Z</time>
</trkpt>
<trkpt lat="46.237590000" lon="7.444880000">
  <ele>1167.962520</ele>
  <time>2012-05-06T13:53:26Z</time>
</trkpt>
<trkpt lat="46.237520000" lon="7.444870000">
  <ele>1168.750000</ele>
  <time>2012-05-06T13:53:29Z</time>
</trkpt>
<trkpt lat="46.237490000" lon="7.444860000">
  <ele>1169.012570</ele>
  <time>2012-05-06T13:53:30Z</time>
</trkpt>
<trkpt lat="46.237470000" lon="7.444860000">
  <ele>1169.275020</ele>
  <time>2012-05-06T13:53:31Z</time>
</trkpt>
<trkpt lat="46.237450000" lon="7.444850000">
  <ele>1169.537600</ele>
  <time>2012-05-06T13:53:32Z</time>
</trkpt>
<trkpt lat="46.237420000" lon="7.444850000">
  <ele>1169.800050</ele>
  <time>2012-05-06T13:53:33Z</time>
</trkpt>
<trkpt lat="46.237380000" lon="7.444830000">
  <ele>1169.800050</ele>
  <time>2012-05-06T13:53:35Z</time>
</trkpt>
<trkpt lat="46.237360000" lon="7.444830000">
  <ele>1170.144040</ele>
  <time>2012-05-06T13:53:36Z</time>
</trkpt>
<trkpt lat="46.237340000" lon="7.444820000">
  <ele>1170.488040</ele>
  <time>2012-05-06T13:53:37Z</time>
</trkpt>
<trkpt lat="46.237320000" lon="7.444820000">
  <ele>1170.832030</ele>
  <time>2012-05-06T13:53:38Z</time>
</trkpt>
<trkpt lat="46.237290000" lon="7.444810000">
  <ele>1171.176030</ele>
  <time>2012-05-06T13:53:39Z</time>
</trkpt>
<trkpt lat="46.237270000" lon="7.444810000">
  <ele>1171.520020</ele>
  <time>2012-05-06T13:53:40Z</time>
</trkpt>
<trkpt lat="46.237250000" lon="7.444800000">
  <ele>1171.864010</ele>
  <time>2012-05-06T13:53:41Z</time>
</trkpt>
<trkpt lat="46.237220000" lon="7.444800000">
  <ele>1172.208010</ele>
  <time>2012-05-06T13:53:42Z</time>
</trkpt>
<trkpt lat="46.237200000" lon="7.444790000">
  <ele>1172.552000</ele>
  <time>2012-05-06T13:53:43Z</time>
</trkpt>
<trkpt lat="46.237110000" lon="7.444760000">
  <ele>1173.927980</ele>
  <time>2012-05-06T13:53:47Z</time>
</trkpt>
<trkpt lat="46.237090000" lon="7.444760000">
  <ele>1174.272090</ele>
  <time>2012-05-06T13:53:48Z</time>
</trkpt>
<trkpt lat="46.237060000" lon="7.444760000">
  <ele>1174.616090</ele>
  <time>2012-05-06T13:53:49Z</time>
</trkpt>
<trkpt lat="46.237040000" lon="7.444750000">
  <ele>1174.960080</ele>
  <time>2012-05-06T13:53:50Z</time>
</trkpt>
<trkpt lat="46.237020000" lon="7.444750000">
  <ele>1175.304080</ele>
  <time>2012-05-06T13:53:51Z</time>
</trkpt>
<trkpt lat="46.236890000" lon="7.444730000">
  <ele>1177.024050</ele>
  <time>2012-05-06T13:53:56Z</time>
</trkpt>
<trkpt lat="46.236870000" lon="7.444740000">
  <ele>1177.368040</ele>
  <time>2012-05-06T13:53:57Z</time>
</trkpt>
<trkpt lat="46.236850000" lon="7.444740000">
  <ele>1177.712040</ele>
  <time>2012-05-06T13:53:58Z</time>
</trkpt>
<trkpt lat="46.236830000" lon="7.444730000">
  <ele>1178.056030</ele>
  <time>2012-05-06T13:53:59Z</time>
</trkpt>
<trkpt lat="46.236800000" lon="7.444730000">
  <ele>1178.400020</ele>
  <time>2012-05-06T13:54:00Z</time>
</trkpt>
<trkpt lat="46.236730000" lon="7.444720000">
  <ele>1178.400020</ele>
  <time>2012-05-06T13:54:03Z</time>
</trkpt>
<trkpt lat="46.236580000" lon="7.444700000">
  <ele>1179.719970</ele>
  <time>2012-05-06T13:54:09Z</time>
</trkpt>
<trkpt lat="46.236560000" lon="7.444700000">
  <ele>1179.939940</ele>
  <time>2012-05-06T13:54:10Z</time>
</trkpt>
<trkpt lat="46.236530000" lon="7.444690000">
  <ele>1180.160030</ele>
  <time>2012-05-06T13:54:11Z</time>
</trkpt>
<trkpt lat="46.236510000" lon="7.444690000">
  <ele>1180.380000</ele>
  <time>2012-05-06T13:54:12Z</time>
</trkpt>
<trkpt lat="46.236480000" lon="7.444690000">
  <ele>1180.599980</ele>
  <time>2012-05-06T13:54:13Z</time>
</trkpt>
<trkpt lat="46.236370000" lon="7.444700000">
  <ele>1180.599980</ele>
  <time>2012-05-06T13:54:18Z</time>
</trkpt>
<trkpt lat="46.236340000" lon="7.444710000">
  <ele>1180.746700</ele>
  <time>2012-05-06T13:54:19Z</time>
</trkpt>
<trkpt lat="46.236210000" lon="7.444770000">
  <ele>1181.626710</ele>
  <time>2012-05-06T13:54:25Z</time>
</trkpt>
<trkpt lat="46.236180000" lon="7.444780000">
  <ele>1181.773320</ele>
  <time>2012-05-06T13:54:26Z</time>
</trkpt>
<trkpt lat="46.236090000" lon="7.444820000">
  <ele>1182.213380</ele>
  <time>2012-05-06T13:54:29Z</time>
</trkpt>
<trkpt lat="46.236060000" lon="7.444830000">
  <ele>1182.359990</ele>
  <time>2012-05-06T13:54:30Z</time>
</trkpt>
<trkpt lat="46.236040000" lon="7.444850000">
  <ele>1182.506710</ele>
  <time>2012-05-06T13:54:31Z</time>
</trkpt>
<trkpt lat="46.236010000" lon="7.444860000">
  <ele>1182.653320</ele>
  <time>2012-05-06T13:54:32Z</time>
</trkpt>
<trkpt lat="46.235980000" lon="7.444870000">
  <ele>1182.800050</ele>
  <time>2012-05-06T13:54:33Z</time>
</trkpt>
<trkpt lat="46.235860000" lon="7.444900000">
  <ele>1182.800050</ele>
  <time>2012-05-06T13:54:38Z</time>
</trkpt>
<trkpt lat="46.235790000" lon="7.444890000">
  <ele>1182.953860</ele>
  <time>2012-05-06T13:54:40Z</time>
</trkpt>
<trkpt lat="46.235650000" lon="7.444820000">
  <ele>1183.338500</ele>
  <time>2012-05-06T13:54:45Z</time>
</trkpt>
<trkpt lat="46.235600000" lon="7.444780000">
  <ele>1183.492310</ele>
  <time>2012-05-06T13:54:47Z</time>
</trkpt>
<trkpt lat="46.235520000" lon="7.444650000">
  <ele>1183.800050</ele>
  <time>2012-05-06T13:54:51Z</time>
</trkpt>
<trkpt lat="46.235470000" lon="7.444560000">
  <ele>1184.030760</ele>
  <time>2012-05-06T13:54:54Z</time>
</trkpt>
<trkpt lat="46.235380000" lon="7.444370000">
  <ele>1184.492310</ele>
  <time>2012-05-06T13:55:00Z</time>
</trkpt>
<trkpt lat="46.235370000" lon="7.444340000">
  <ele>1184.569340</ele>
  <time>2012-05-06T13:55:01Z</time>
</trkpt>
<trkpt lat="46.235360000" lon="7.444310000">
  <ele>1184.646240</ele>
  <time>2012-05-06T13:55:02Z</time>
</trkpt>
<trkpt lat="46.235340000" lon="7.444280000">
  <ele>1184.723140</ele>
  <time>2012-05-06T13:55:03Z</time>
</trkpt>
<trkpt lat="46.235340000" lon="7.444250000">
  <ele>1184.800050</ele>
  <time>2012-05-06T13:55:04Z</time>
</trkpt>
<trkpt lat="46.235310000" lon="7.444170000">
  <ele>1184.800050</ele>
  <time>2012-05-06T13:55:07Z</time>
</trkpt>
<trkpt lat="46.235310000" lon="7.444140000">
  <ele>1185.200070</ele>
  <time>2012-05-06T13:55:08Z</time>
</trkpt>
<trkpt lat="46.235300000" lon="7.444110000">
  <ele>1185.600100</ele>
  <time>2012-05-06T13:55:09Z</time>
</trkpt>
<trkpt lat="46.235290000" lon="7.444080000">
  <ele>1186.000000</ele>
  <time>2012-05-06T13:55:10Z</time>
</trkpt>
<trkpt lat="46.235280000" lon="7.444040000">
  <ele>1186.400020</ele>
  <time>2012-05-06T13:55:11Z</time>
</trkpt>
<trkpt lat="46.235280000" lon="7.444010000">
  <ele>1186.800050</ele>
  <time>2012-05-06T13:55:12Z</time>
</trkpt>
<trkpt lat="46.235260000" lon="7.443960000">
  <ele>1186.800050</ele>
  <time>2012-05-06T13:55:14Z</time>
</trkpt>
<trkpt lat="46.235250000" lon="7.443930000">
  <ele>1187.350100</ele>
  <time>2012-05-06T13:55:15Z</time>
</trkpt>
<trkpt lat="46.235240000" lon="7.443890000">
  <ele>1187.900020</ele>
  <time>2012-05-06T13:55:16Z</time>
</trkpt>
<trkpt lat="46.235230000" lon="7.443860000">
  <ele>1188.449950</ele>
  <time>2012-05-06T13:55:17Z</time>
</trkpt>
<trkpt lat="46.235210000" lon="7.443830000">
  <ele>1189.000000</ele>
  <time>2012-05-06T13:55:18Z</time>
</trkpt>
<trkpt lat="46.235140000" lon="7.443700000">
  <ele>1189.000000</ele>
  <time>2012-05-06T13:55:23Z</time>
</trkpt>
<trkpt lat="46.235110000" lon="7.443650000">
  <ele>1189.733280</ele>
  <time>2012-05-06T13:55:25Z</time>
</trkpt>
<trkpt lat="46.235100000" lon="7.443630000">
  <ele>1190.099980</ele>
  <time>2012-05-06T13:55:26Z</time>
</trkpt>
<trkpt lat="46.235080000" lon="7.443610000">
  <ele>1190.466670</ele>
  <time>2012-05-06T13:55:27Z</time>
</trkpt>
<trkpt lat="46.235070000" lon="7.443590000">
  <ele>1190.833250</ele>
  <time>2012-05-06T13:55:28Z</time>
</trkpt>
<trkpt lat="46.235050000" lon="7.443570000">
  <ele>1191.199950</ele>
  <time>2012-05-06T13:55:29Z</time>
</trkpt>
<trkpt lat="46.235040000" lon="7.443560000">
  <ele>1191.199950</ele>
  <time>2012-05-06T13:55:30Z</time>
</trkpt>
<trkpt lat="46.234930000" lon="7.443450000">
  <ele>1192.520020</ele>
  <time>2012-05-06T13:55:36Z</time>
</trkpt>
<trkpt lat="46.234910000" lon="7.443440000">
  <ele>1192.739990</ele>
  <time>2012-05-06T13:55:37Z</time>
</trkpt>
<trkpt lat="46.234890000" lon="7.443420000">
  <ele>1192.959960</ele>
  <time>2012-05-06T13:55:38Z</time>
</trkpt>
<trkpt lat="46.234870000" lon="7.443400000">
  <ele>1193.180050</ele>
  <time>2012-05-06T13:55:39Z</time>
</trkpt>
<trkpt lat="46.234840000" lon="7.443380000">
  <ele>1193.400020</ele>
  <time>2012-05-06T13:55:40Z</time>
</trkpt>
<trkpt lat="46.234830000" lon="7.443360000">
  <ele>1193.400020</ele>
  <time>2012-05-06T13:55:41Z</time>
</trkpt>
<trkpt lat="46.234750000" lon="7.443300000">
  <ele>1194.400020</ele>
  <time>2012-05-06T13:55:45Z</time>
</trkpt>
<trkpt lat="46.234730000" lon="7.443280000">
  <ele>1194.650020</ele>
  <time>2012-05-06T13:55:46Z</time>
</trkpt>
<trkpt lat="46.234710000" lon="7.443270000">
  <ele>1194.900020</ele>
  <time>2012-05-06T13:55:47Z</time>
</trkpt>
<trkpt lat="46.234690000" lon="7.443250000">
  <ele>1195.150020</ele>
  <time>2012-05-06T13:55:48Z</time>
</trkpt>
<trkpt lat="46.234660000" lon="7.443230000">
  <ele>1195.400020</ele>
  <time>2012-05-06T13:55:49Z</time>
</trkpt>
<trkpt lat="46.234560000" lon="7.443140000">
  <ele>1195.400020</ele>
  <time>2012-05-06T13:55:54Z</time>
</trkpt>
<trkpt lat="46.234550000" lon="7.443120000">
  <ele>1195.694460</ele>
  <time>2012-05-06T13:55:55Z</time>
</trkpt>
<trkpt lat="46.234530000" lon="7.443110000">
  <ele>1195.988890</ele>
  <time>2012-05-06T13:55:56Z</time>
</trkpt>
<trkpt lat="46.234510000" lon="7.443090000">
  <ele>1196.283330</ele>
  <time>2012-05-06T13:55:57Z</time>
</trkpt>
<trkpt lat="46.234490000" lon="7.443060000">
  <ele>1196.577760</ele>
  <time>2012-05-06T13:55:58Z</time>
</trkpt>
<trkpt lat="46.234470000" lon="7.443050000">
  <ele>1196.872190</ele>
  <time>2012-05-06T13:55:59Z</time>
</trkpt>
<trkpt lat="46.234370000" lon="7.442880000">
  <ele>1198.638920</ele>
  <time>2012-05-06T13:56:05Z</time>
</trkpt>
<trkpt lat="46.234350000" lon="7.442860000">
  <ele>1198.933350</ele>
  <time>2012-05-06T13:56:06Z</time>
</trkpt>
<trkpt lat="46.234340000" lon="7.442830000">
  <ele>1199.227780</ele>
  <time>2012-05-06T13:56:07Z</time>
</trkpt>
<trkpt lat="46.234330000" lon="7.442790000">
  <ele>1199.522220</ele>
  <time>2012-05-06T13:56:08Z</time>
</trkpt>
<trkpt lat="46.234310000" lon="7.442700000">
  <ele>1200.405520</ele>
  <time>2012-05-06T13:56:11Z</time>
</trkpt>
<trkpt lat="46.234300000" lon="7.442660000">
  <ele>1200.699950</ele>
  <time>2012-05-06T13:56:12Z</time>
</trkpt>
<trkpt lat="46.234300000" lon="7.442630000">
  <ele>1200.994510</ele>
  <time>2012-05-06T13:56:13Z</time>
</trkpt>
<trkpt lat="46.234300000" lon="7.442590000">
  <ele>1201.288940</ele>
  <time>2012-05-06T13:56:14Z</time>
</trkpt>
<trkpt lat="46.234300000" lon="7.442560000">
  <ele>1201.583370</ele>
  <time>2012-05-06T13:56:15Z</time>
</trkpt>
<trkpt lat="46.234280000" lon="7.442460000">
  <ele>1202.466670</ele>
  <time>2012-05-06T13:56:18Z</time>
</trkpt>
<trkpt lat="46.234280000" lon="7.442430000">
  <ele>1202.761110</ele>
  <time>2012-05-06T13:56:19Z</time>
</trkpt>
<trkpt lat="46.234270000" lon="7.442400000">
  <ele>1203.055540</ele>
  <time>2012-05-06T13:56:20Z</time>
</trkpt>
<trkpt lat="46.234270000" lon="7.442370000">
  <ele>1203.349980</ele>
  <time>2012-05-06T13:56:21Z</time>
</trkpt>
<trkpt lat="46.234260000" lon="7.442340000">
  <ele>1203.644410</ele>
  <time>2012-05-06T13:56:22Z</time>
</trkpt>
<trkpt lat="46.234230000" lon="7.442180000">
  <ele>1205.116700</ele>
  <time>2012-05-06T13:56:27Z</time>
</trkpt>
<trkpt lat="46.234230000" lon="7.442150000">
  <ele>1205.411130</ele>
  <time>2012-05-06T13:56:28Z</time>
</trkpt>
<trkpt lat="46.234230000" lon="7.442120000">
  <ele>1205.705570</ele>
  <time>2012-05-06T13:56:29Z</time>
</trkpt>
<trkpt lat="46.234220000" lon="7.442090000">
  <ele>1206.000000</ele>
  <time>2012-05-06T13:56:30Z</time>
</trkpt>
<trkpt lat="46.234200000" lon="7.442000000">
  <ele>1206.000000</ele>
  <time>2012-05-06T13:56:33Z</time>
</trkpt>
<trkpt lat="46.234200000" lon="7.441970000">
  <ele>1206.228520</ele>
  <time>2012-05-06T13:56:34Z</time>
</trkpt>
<trkpt lat="46.234130000" lon="7.441820000">
  <ele>1207.371460</ele>
  <time>2012-05-06T13:56:39Z</time>
</trkpt>
<trkpt lat="46.234120000" lon="7.441790000">
  <ele>1207.599980</ele>
  <time>2012-05-06T13:56:40Z</time>
</trkpt>
<trkpt lat="46.234110000" lon="7.441760000">
  <ele>1207.828610</ele>
  <time>2012-05-06T13:56:41Z</time>
</trkpt>
<trkpt lat="46.234100000" lon="7.441730000">
  <ele>1208.057130</ele>
  <time>2012-05-06T13:56:42Z</time>
</trkpt>
<trkpt lat="46.234080000" lon="7.441700000">
  <ele>1208.285770</ele>
  <time>2012-05-06T13:56:43Z</time>
</trkpt>
<trkpt lat="46.234010000" lon="7.441550000">
  <ele>1209.428590</ele>
  <time>2012-05-06T13:56:48Z</time>
</trkpt>
<trkpt lat="46.234000000" lon="7.441520000">
  <ele>1209.657100</ele>
  <time>2012-05-06T13:56:49Z</time>
</trkpt>
<trkpt lat="46.233990000" lon="7.441490000">
  <ele>1209.885740</ele>
  <time>2012-05-06T13:56:50Z</time>
</trkpt>
<trkpt lat="46.233970000" lon="7.441470000">
  <ele>1210.114260</ele>
  <time>2012-05-06T13:56:51Z</time>
</trkpt>
<trkpt lat="46.233950000" lon="7.441430000">
  <ele>1210.342900</ele>
  <time>2012-05-06T13:56:52Z</time>
</trkpt>
<trkpt lat="46.233900000" lon="7.441290000">
  <ele>1211.485720</ele>
  <time>2012-05-06T13:56:57Z</time>
</trkpt>
<trkpt lat="46.233890000" lon="7.441260000">
  <ele>1211.714360</ele>
  <time>2012-05-06T13:56:58Z</time>
</trkpt>
<trkpt lat="46.233880000" lon="7.441230000">
  <ele>1211.942870</ele>
  <time>2012-05-06T13:56:59Z</time>
</trkpt>
<trkpt lat="46.233870000" lon="7.441200000">
  <ele>1212.171510</ele>
  <time>2012-05-06T13:57:00Z</time>
</trkpt>
<trkpt lat="46.233860000" lon="7.441160000">
  <ele>1212.400020</ele>
  <time>2012-05-06T13:57:01Z</time>
</trkpt>
<trkpt lat="46.233810000" lon="7.440970000">
  <ele>1212.400020</ele>
  <time>2012-05-06T13:57:07Z</time>
</trkpt>
<trkpt lat="46.233810000" lon="7.440930000">
  <ele>1212.880000</ele>
  <time>2012-05-06T13:57:08Z</time>
</trkpt>
<trkpt lat="46.233810000" lon="7.440900000">
  <ele>1213.359990</ele>
  <time>2012-05-06T13:57:09Z</time>
</trkpt>
<trkpt lat="46.233800000" lon="7.440860000">
  <ele>1213.840090</ele>
  <time>2012-05-06T13:57:10Z</time>
</trkpt>
<trkpt lat="46.233790000" lon="7.440830000">
  <ele>1214.320070</ele>
  <time>2012-05-06T13:57:11Z</time>
</trkpt>
<trkpt lat="46.233780000" lon="7.440800000">
  <ele>1214.800050</ele>
  <time>2012-05-06T13:57:12Z</time>
</trkpt>
<trkpt lat="46.233750000" lon="7.440630000">
  <ele>1214.800050</ele>
  <time>2012-05-06T13:57:17Z</time>
</trkpt>
<trkpt lat="46.233720000" lon="7.440530000">
  <ele>1215.742920</ele>
  <time>2012-05-06T13:57:20Z</time>
</trkpt>
<trkpt lat="46.233720000" lon="7.440500000">
  <ele>1216.057130</ele>
  <time>2012-05-06T13:57:21Z</time>
</trkpt>
<trkpt lat="46.233710000" lon="7.440470000">
  <ele>1216.371460</ele>
  <time>2012-05-06T13:57:22Z</time>
</trkpt>
<trkpt lat="46.233700000" lon="7.440430000">
  <ele>1216.685670</ele>
  <time>2012-05-06T13:57:23Z</time>
</trkpt>
<trkpt lat="46.233690000" lon="7.440400000">
  <ele>1217.000000</ele>
  <time>2012-05-06T13:57:24Z</time>
</trkpt>
<trkpt lat="46.233680000" lon="7.440370000">
  <ele>1217.000000</ele>
  <time>2012-05-06T13:57:25Z</time>
</trkpt>
<trkpt lat="46.233640000" lon="7.440130000">
  <ele>1217.905880</ele>
  <time>2012-05-06T13:57:32Z</time>
</trkpt>
<trkpt lat="46.233620000" lon="7.439840000">
  <ele>1218.811770</ele>
  <time>2012-05-06T13:57:39Z</time>
</trkpt>
<trkpt lat="46.233620000" lon="7.439800000">
  <ele>1218.941160</ele>
  <time>2012-05-06T13:57:40Z</time>
</trkpt>
<trkpt lat="46.233610000" lon="7.439760000">
  <ele>1219.070560</ele>
  <time>2012-05-06T13:57:41Z</time>
</trkpt>
<trkpt lat="46.233610000" lon="7.439720000">
  <ele>1219.199950</ele>
  <time>2012-05-06T13:57:42Z</time>
</trkpt>
<trkpt lat="46.233580000" lon="7.439460000">
  <ele>1219.199950</ele>
  <time>2012-05-06T13:57:48Z</time>
</trkpt>
<trkpt lat="46.233490000" lon="7.439130000">
  <ele>1219.520750</ele>
  <time>2012-05-06T13:57:55Z</time>
</trkpt>
<trkpt lat="46.233380000" lon="7.438820000">
  <ele>1219.841670</ele>
  <time>2012-05-06T13:58:02Z</time>
</trkpt>
<trkpt lat="46.233230000" lon="7.438590000">
  <ele>1220.116700</ele>
  <time>2012-05-06T13:58:08Z</time>
</trkpt>
<trkpt lat="46.233210000" lon="7.438550000">
  <ele>1220.162480</ele>
  <time>2012-05-06T13:58:09Z</time>
</trkpt>
<trkpt lat="46.233000000" lon="7.438280000">
  <ele>1220.529170</ele>
  <time>2012-05-06T13:58:17Z</time>
</trkpt>
<trkpt lat="46.232800000" lon="7.438000000">
  <ele>1220.849980</ele>
  <time>2012-05-06T13:58:24Z</time>
</trkpt>
<trkpt lat="46.232730000" lon="7.437870000">
  <ele>1220.987550</ele>
  <time>2012-05-06T13:58:27Z</time>
</trkpt>
<trkpt lat="46.232680000" lon="7.437690000">
  <ele>1221.170900</ele>
  <time>2012-05-06T13:58:31Z</time>
</trkpt>
<trkpt lat="46.232670000" lon="7.437640000">
  <ele>1221.216670</ele>
  <time>2012-05-06T13:58:32Z</time>
</trkpt>
<trkpt lat="46.232650000" lon="7.437590000">
  <ele>1221.262570</ele>
  <time>2012-05-06T13:58:33Z</time>
</trkpt>
<trkpt lat="46.232640000" lon="7.437550000">
  <ele>1221.308350</ele>
  <time>2012-05-06T13:58:34Z</time>
</trkpt>
<trkpt lat="46.232630000" lon="7.437510000">
  <ele>1221.354250</ele>
  <time>2012-05-06T13:58:35Z</time>
</trkpt>
<trkpt lat="46.232620000" lon="7.437470000">
  <ele>1221.400020</ele>
  <time>2012-05-06T13:58:36Z</time>
</trkpt>
<trkpt lat="46.232630000" lon="7.437430000">
  <ele>1221.400020</ele>
  <time>2012-05-06T13:58:37Z</time>
</trkpt>
<trkpt lat="46.232620000" lon="7.437380000">
  <ele>1221.533330</ele>
  <time>2012-05-06T13:58:38Z</time>
</trkpt>
<trkpt lat="46.232600000" lon="7.437240000">
  <ele>1221.933350</ele>
  <time>2012-05-06T13:58:41Z</time>
</trkpt>
<trkpt lat="46.232570000" lon="7.437060000">
  <ele>1222.466670</ele>
  <time>2012-05-06T13:58:45Z</time>
</trkpt>
<trkpt lat="46.232550000" lon="7.436920000">
  <ele>1222.866700</ele>
  <time>2012-05-06T13:58:48Z</time>
</trkpt>
<trkpt lat="46.232540000" lon="7.436870000">
  <ele>1223.000000</ele>
  <time>2012-05-06T13:58:49Z</time>
</trkpt>
<trkpt lat="46.232540000" lon="7.436820000">
  <ele>1223.133300</ele>
  <time>2012-05-06T13:58:50Z</time>
</trkpt>
<trkpt lat="46.232530000" lon="7.436780000">
  <ele>1223.266720</ele>
  <time>2012-05-06T13:58:51Z</time>
</trkpt>
<trkpt lat="46.232520000" lon="7.436740000">
  <ele>1223.400020</ele>
  <time>2012-05-06T13:58:52Z</time>
</trkpt>
<trkpt lat="46.232520000" lon="7.436690000">
  <ele>1223.400020</ele>
  <time>2012-05-06T13:58:53Z</time>
</trkpt>
<trkpt lat="46.232480000" lon="7.436420000">
  <ele>1224.415410</ele>
  <time>2012-05-06T13:58:59Z</time>
</trkpt>
<trkpt lat="46.232460000" lon="7.436280000">
  <ele>1224.923100</ele>
  <time>2012-05-06T13:59:02Z</time>
</trkpt>
<trkpt lat="46.232450000" lon="7.436240000">
  <ele>1225.092290</ele>
  <time>2012-05-06T13:59:03Z</time>
</trkpt>
<trkpt lat="46.232440000" lon="7.436190000">
  <ele>1225.261470</ele>
  <time>2012-05-06T13:59:04Z</time>
</trkpt>
<trkpt lat="46.232440000" lon="7.436150000">
  <ele>1225.430790</ele>
  <time>2012-05-06T13:59:05Z</time>
</trkpt>
<trkpt lat="46.232430000" lon="7.436100000">
  <ele>1225.599980</ele>
  <time>2012-05-06T13:59:06Z</time>
</trkpt>
<trkpt lat="46.232410000" lon="7.436020000">
  <ele>1225.599980</ele>
  <time>2012-05-06T13:59:08Z</time>
</trkpt>
<trkpt lat="46.232370000" lon="7.435850000">
  <ele>1226.599980</ele>
  <time>2012-05-06T13:59:12Z</time>
</trkpt>
<trkpt lat="46.232360000" lon="7.435810000">
  <ele>1226.849980</ele>
  <time>2012-05-06T13:59:13Z</time>
</trkpt>
<trkpt lat="46.232350000" lon="7.435770000">
  <ele>1227.099980</ele>
  <time>2012-05-06T13:59:14Z</time>
</trkpt>
<trkpt lat="46.232330000" lon="7.435730000">
  <ele>1227.349980</ele>
  <time>2012-05-06T13:59:15Z</time>
</trkpt>
<trkpt lat="46.232320000" lon="7.435690000">
  <ele>1227.599980</ele>
  <time>2012-05-06T13:59:16Z</time>
</trkpt>
<trkpt lat="46.232230000" lon="7.435510000">
  <ele>1227.599980</ele>
  <time>2012-05-06T13:59:21Z</time>
</trkpt>
<trkpt lat="46.232190000" lon="7.435370000">
  <ele>1228.633300</ele>
  <time>2012-05-06T13:59:25Z</time>
</trkpt>
<trkpt lat="46.232170000" lon="7.435330000">
  <ele>1228.891600</ele>
  <time>2012-05-06T13:59:26Z</time>
</trkpt>
<trkpt lat="46.232150000" lon="7.435300000">
  <ele>1229.150020</ele>
  <time>2012-05-06T13:59:27Z</time>
</trkpt>
<trkpt lat="46.232140000" lon="7.435260000">
  <ele>1229.408330</ele>
  <time>2012-05-06T13:59:28Z</time>
</trkpt>
<trkpt lat="46.232130000" lon="7.435230000">
  <ele>1229.666630</ele>
  <time>2012-05-06T13:59:29Z</time>
</trkpt>
<trkpt lat="46.232080000" lon="7.435080000">
  <ele>1230.699950</ele>
  <time>2012-05-06T13:59:33Z</time>
</trkpt>
<trkpt lat="46.232070000" lon="7.435040000">
  <ele>1230.958370</ele>
  <time>2012-05-06T13:59:34Z</time>
</trkpt>
<trkpt lat="46.232060000" lon="7.435000000">
  <ele>1231.216670</ele>
  <time>2012-05-06T13:59:35Z</time>
</trkpt>
<trkpt lat="46.232060000" lon="7.434970000">
  <ele>1231.474980</ele>
  <time>2012-05-06T13:59:36Z</time>
</trkpt>
<trkpt lat="46.232030000" lon="7.434790000">
  <ele>1232.766720</ele>
  <time>2012-05-06T13:59:41Z</time>
</trkpt>
<trkpt lat="46.232020000" lon="7.434750000">
  <ele>1233.025020</ele>
  <time>2012-05-06T13:59:42Z</time>
</trkpt>
<trkpt lat="46.232020000" lon="7.434710000">
  <ele>1233.283330</ele>
  <time>2012-05-06T13:59:43Z</time>
</trkpt>
<trkpt lat="46.232020000" lon="7.434680000">
  <ele>1233.541750</ele>
  <time>2012-05-06T13:59:44Z</time>
</trkpt>
<trkpt lat="46.232010000" lon="7.434640000">
  <ele>1233.800050</ele>
  <time>2012-05-06T13:59:45Z</time>
</trkpt>
<trkpt lat="46.231990000" lon="7.434520000">
  <ele>1233.800050</ele>
  <time>2012-05-06T13:59:48Z</time>
</trkpt>
<trkpt lat="46.231980000" lon="7.434450000">
  <ele>1234.599980</ele>
  <time>2012-05-06T13:59:50Z</time>
</trkpt>
<trkpt lat="46.231960000" lon="7.434410000">
  <ele>1235.000000</ele>
  <time>2012-05-06T13:59:51Z</time>
</trkpt>
<trkpt lat="46.231950000" lon="7.434370000">
  <ele>1235.400020</ele>
  <time>2012-05-06T13:59:52Z</time>
</trkpt>
<trkpt lat="46.231940000" lon="7.434340000">
  <ele>1235.799930</ele>
  <time>2012-05-06T13:59:53Z</time>
</trkpt>
<trkpt lat="46.231930000" lon="7.434300000">
  <ele>1236.199950</ele>
  <time>2012-05-06T13:59:54Z</time>
</trkpt>
<trkpt lat="46.231890000" lon="7.434200000">
  <ele>1236.199950</ele>
  <time>2012-05-06T13:59:57Z</time>
</trkpt>
<trkpt lat="46.231880000" lon="7.434170000">
  <ele>1236.640010</ele>
  <time>2012-05-06T13:59:58Z</time>
</trkpt>
<trkpt lat="46.231860000" lon="7.434140000">
  <ele>1237.079960</ele>
  <time>2012-05-06T13:59:59Z</time>
</trkpt>
<trkpt lat="46.231840000" lon="7.434110000">
  <ele>1237.520020</ele>
  <time>2012-05-06T14:00:00Z</time>
</trkpt>
<trkpt lat="46.231820000" lon="7.434080000">
  <ele>1237.959960</ele>
  <time>2012-05-06T14:00:01Z</time>
</trkpt>
<trkpt lat="46.231810000" lon="7.434060000">
  <ele>1238.400020</ele>
  <time>2012-05-06T14:00:02Z</time>
</trkpt>
<trkpt lat="46.231780000" lon="7.434010000">
  <ele>1238.400020</ele>
  <time>2012-05-06T14:00:04Z</time>
</trkpt>
<trkpt lat="46.231720000" lon="7.433950000">
  <ele>1239.257200</ele>
  <time>2012-05-06T14:00:07Z</time>
</trkpt>
<trkpt lat="46.231690000" lon="7.433930000">
  <ele>1239.542850</ele>
  <time>2012-05-06T14:00:08Z</time>
</trkpt>
<trkpt lat="46.231670000" lon="7.433900000">
  <ele>1239.828610</ele>
  <time>2012-05-06T14:00:09Z</time>
</trkpt>
<trkpt lat="46.231660000" lon="7.433880000">
  <ele>1240.114260</ele>
  <time>2012-05-06T14:00:10Z</time>
</trkpt>
<trkpt lat="46.231640000" lon="7.433850000">
  <ele>1240.400020</ele>
  <time>2012-05-06T14:00:11Z</time>
</trkpt>
<trkpt lat="46.231540000" lon="7.433740000">
  <ele>1240.400020</ele>
  <time>2012-05-06T14:00:16Z</time>
</trkpt>
<trkpt lat="46.231520000" lon="7.433720000">
  <ele>1240.800050</ele>
  <time>2012-05-06T14:00:17Z</time>
</trkpt>
<trkpt lat="46.231500000" lon="7.433710000">
  <ele>1241.200070</ele>
  <time>2012-05-06T14:00:18Z</time>
</trkpt>
<trkpt lat="46.231480000" lon="7.433690000">
  <ele>1241.599980</ele>
  <time>2012-05-06T14:00:19Z</time>
</trkpt>
<trkpt lat="46.231460000" lon="7.433670000">
  <ele>1242.000000</ele>
  <time>2012-05-06T14:00:20Z</time>
</trkpt>
<trkpt lat="46.231440000" lon="7.433650000">
  <ele>1242.400020</ele>
  <time>2012-05-06T14:00:21Z</time>
</trkpt>
<trkpt lat="46.231420000" lon="7.433620000">
  <ele>1242.400020</ele>
  <time>2012-05-06T14:00:22Z</time>
</trkpt>
<trkpt lat="46.231330000" lon="7.433520000">
  <ele>1243.600100</ele>
  <time>2012-05-06T14:00:26Z</time>
</trkpt>
<trkpt lat="46.231310000" lon="7.433500000">
  <ele>1243.900020</ele>
  <time>2012-05-06T14:00:27Z</time>
</trkpt>
<trkpt lat="46.231290000" lon="7.433480000">
  <ele>1244.200070</ele>
  <time>2012-05-06T14:00:28Z</time>
</trkpt>
<trkpt lat="46.231270000" lon="7.433460000">
  <ele>1244.500000</ele>
  <time>2012-05-06T14:00:29Z</time>
</trkpt>
<trkpt lat="46.231250000" lon="7.433440000">
  <ele>1244.800050</ele>
  <time>2012-05-06T14:00:30Z</time>
</trkpt>
<trkpt lat="46.231180000" lon="7.433380000">
  <ele>1244.800050</ele>
  <time>2012-05-06T14:00:33Z</time>
</trkpt>
<trkpt lat="46.231160000" lon="7.433360000">
  <ele>1245.085820</ele>
  <time>2012-05-06T14:00:34Z</time>
</trkpt>
<trkpt lat="46.231130000" lon="7.433320000">
  <ele>1245.657230</ele>
  <time>2012-05-06T14:00:36Z</time>
</trkpt>
<trkpt lat="46.231110000" lon="7.433310000">
  <ele>1245.942870</ele>
  <time>2012-05-06T14:00:37Z</time>
</trkpt>
<trkpt lat="46.231090000" lon="7.433290000">
  <ele>1246.228640</ele>
  <time>2012-05-06T14:00:38Z</time>
</trkpt>
<trkpt lat="46.231080000" lon="7.433270000">
  <ele>1246.514280</ele>
  <time>2012-05-06T14:00:39Z</time>
</trkpt>
<trkpt lat="46.231060000" lon="7.433250000">
  <ele>1246.800050</ele>
  <time>2012-05-06T14:00:40Z</time>
</trkpt>
<trkpt lat="46.231020000" lon="7.433220000">
  <ele>1246.800050</ele>
  <time>2012-05-06T14:00:42Z</time>
</trkpt>
<trkpt lat="46.230960000" lon="7.433160000">
  <ele>1247.742920</ele>
  <time>2012-05-06T14:00:45Z</time>
</trkpt>
<trkpt lat="46.230940000" lon="7.433150000">
  <ele>1248.057130</ele>
  <time>2012-05-06T14:00:46Z</time>
</trkpt>
<trkpt lat="46.230920000" lon="7.433130000">
  <ele>1248.371460</ele>
  <time>2012-05-06T14:00:47Z</time>
</trkpt>
<trkpt lat="46.230900000" lon="7.433120000">
  <ele>1248.685670</ele>
  <time>2012-05-06T14:00:48Z</time>
</trkpt>
<trkpt lat="46.230880000" lon="7.433100000">
  <ele>1249.000000</ele>
  <time>2012-05-06T14:00:49Z</time>
</trkpt>
<trkpt lat="46.230820000" lon="7.433060000">
  <ele>1249.000000</ele>
  <time>2012-05-06T14:00:52Z</time>
</trkpt>
<trkpt lat="46.230730000" lon="7.433020000">
  <ele>1250.099980</ele>
  <time>2012-05-06T14:00:56Z</time>
</trkpt>
<trkpt lat="46.230710000" lon="7.433000000">
  <ele>1250.375000</ele>
  <time>2012-05-06T14:00:57Z</time>
</trkpt>
<trkpt lat="46.230690000" lon="7.432990000">
  <ele>1250.650020</ele>
  <time>2012-05-06T14:00:58Z</time>
</trkpt>
<trkpt lat="46.230660000" lon="7.432980000">
  <ele>1250.925050</ele>
  <time>2012-05-06T14:00:59Z</time>
</trkpt>
<trkpt lat="46.230640000" lon="7.432970000">
  <ele>1251.199950</ele>
  <time>2012-05-06T14:01:00Z</time>
</trkpt>
<trkpt lat="46.230550000" lon="7.432920000">
  <ele>1252.300050</ele>
  <time>2012-05-06T14:01:04Z</time>
</trkpt>
<trkpt lat="46.230520000" lon="7.432910000">
  <ele>1252.574950</ele>
  <time>2012-05-06T14:01:05Z</time>
</trkpt>
<trkpt lat="46.230500000" lon="7.432900000">
  <ele>1252.849980</ele>
  <time>2012-05-06T14:01:06Z</time>
</trkpt>
<trkpt lat="46.230480000" lon="7.432890000">
  <ele>1253.125000</ele>
  <time>2012-05-06T14:01:07Z</time>
</trkpt>
<trkpt lat="46.230450000" lon="7.432880000">
  <ele>1253.400020</ele>
  <time>2012-05-06T14:01:08Z</time>
</trkpt>
<trkpt lat="46.230360000" lon="7.432850000">
  <ele>1254.500000</ele>
  <time>2012-05-06T14:01:12Z</time>
</trkpt>
<trkpt lat="46.230340000" lon="7.432830000">
  <ele>1254.775020</ele>
  <time>2012-05-06T14:01:13Z</time>
</trkpt>
<trkpt lat="46.230320000" lon="7.432820000">
  <ele>1255.049930</ele>
  <time>2012-05-06T14:01:14Z</time>
</trkpt>
<trkpt lat="46.230290000" lon="7.432810000">
  <ele>1255.324950</ele>
  <time>2012-05-06T14:01:15Z</time>
</trkpt>
<trkpt lat="46.230270000" lon="7.432800000">
  <ele>1255.599980</ele>
  <time>2012-05-06T14:01:16Z</time>
</trkpt>
<trkpt lat="46.230140000" lon="7.432770000">
  <ele>1255.599980</ele>
  <time>2012-05-06T14:01:21Z</time>
</trkpt>
<trkpt lat="46.230000000" lon="7.432740000">
  <ele>1257.159910</ele>
  <time>2012-05-06T14:01:27Z</time>
</trkpt>
<trkpt lat="46.229970000" lon="7.432740000">
  <ele>1257.419920</ele>
  <time>2012-05-06T14:01:28Z</time>
</trkpt>
<trkpt lat="46.229940000" lon="7.432740000">
  <ele>1257.679930</ele>
  <time>2012-05-06T14:01:29Z</time>
</trkpt>
<trkpt lat="46.229920000" lon="7.432740000">
  <ele>1257.939940</ele>
  <time>2012-05-06T14:01:30Z</time>
</trkpt>
<trkpt lat="46.229890000" lon="7.432740000">
  <ele>1258.199950</ele>
  <time>2012-05-06T14:01:31Z</time>
</trkpt>
<trkpt lat="46.229850000" lon="7.432730000">
  <ele>1258.199950</ele>
  <time>2012-05-06T14:01:33Z</time>
</trkpt>
<trkpt lat="46.229800000" lon="7.432720000">
  <ele>1259.000000</ele>
  <time>2012-05-06T14:01:35Z</time>
</trkpt>
<trkpt lat="46.229780000" lon="7.432710000">
  <ele>1259.399900</ele>
  <time>2012-05-06T14:01:36Z</time>
</trkpt>
<trkpt lat="46.229760000" lon="7.432690000">
  <ele>1259.799930</ele>
  <time>2012-05-06T14:01:37Z</time>
</trkpt>
<trkpt lat="46.229740000" lon="7.432670000">
  <ele>1260.199950</ele>
  <time>2012-05-06T14:01:38Z</time>
</trkpt>
<trkpt lat="46.229720000" lon="7.432650000">
  <ele>1260.199950</ele>
  <time>2012-05-06T14:01:39Z</time>
</trkpt>
<trkpt lat="46.229640000" lon="7.432450000">
  <ele>1260.452640</ele>
  <time>2012-05-06T14:01:45Z</time>
</trkpt>
<trkpt lat="46.229590000" lon="7.432170000">
  <ele>1260.747310</ele>
  <time>2012-05-06T14:01:52Z</time>
</trkpt>
<trkpt lat="46.229550000" lon="7.431910000">
  <ele>1260.957890</ele>
  <time>2012-05-06T14:01:57Z</time>
</trkpt>
<trkpt lat="46.229540000" lon="7.431820000">
  <ele>1261.042110</ele>
  <time>2012-05-06T14:01:59Z</time>
</trkpt>
<trkpt lat="46.229480000" lon="7.431590000">
  <ele>1261.252560</ele>
  <time>2012-05-06T14:02:04Z</time>
</trkpt>
<trkpt lat="46.229470000" lon="7.431500000">
  <ele>1261.336790</ele>
  <time>2012-05-06T14:02:06Z</time>
</trkpt>
<trkpt lat="46.229410000" lon="7.431250000">
  <ele>1261.547360</ele>
  <time>2012-05-06T14:02:11Z</time>
</trkpt>
<trkpt lat="46.229400000" lon="7.431200000">
  <ele>1261.589480</ele>
  <time>2012-05-06T14:02:12Z</time>
</trkpt>
<trkpt lat="46.229350000" lon="7.430990000">
  <ele>1261.757810</ele>
  <time>2012-05-06T14:02:16Z</time>
</trkpt>
<trkpt lat="46.229310000" lon="7.430820000">
  <ele>1261.884160</ele>
  <time>2012-05-06T14:02:19Z</time>
</trkpt>
<trkpt lat="46.229270000" lon="7.430680000">
  <ele>1262.010500</ele>
  <time>2012-05-06T14:02:22Z</time>
</trkpt>
<trkpt lat="46.229210000" lon="7.430470000">
  <ele>1262.178960</ele>
  <time>2012-05-06T14:02:26Z</time>
</trkpt>
<trkpt lat="46.229120000" lon="7.430160000">
  <ele>1262.431520</ele>
  <time>2012-05-06T14:02:32Z</time>
</trkpt>
<trkpt lat="46.229110000" lon="7.430110000">
  <ele>1262.473630</ele>
  <time>2012-05-06T14:02:33Z</time>
</trkpt>
<trkpt lat="46.229090000" lon="7.430060000">
  <ele>1262.515750</ele>
  <time>2012-05-06T14:02:34Z</time>
</trkpt>
<trkpt lat="46.229080000" lon="7.430010000">
  <ele>1262.557860</ele>
  <time>2012-05-06T14:02:35Z</time>
</trkpt>
<trkpt lat="46.229060000" lon="7.429970000">
  <ele>1262.599980</ele>
  <time>2012-05-06T14:02:36Z</time>
</trkpt>
<trkpt lat="46.228990000" lon="7.429740000">
  <ele>1262.599980</ele>
  <time>2012-05-06T14:02:41Z</time>
</trkpt>
<trkpt lat="46.228890000" lon="7.429430000">
  <ele>1263.784670</ele>
  <time>2012-05-06T14:02:48Z</time>
</trkpt>
<trkpt lat="46.228850000" lon="7.429350000">
  <ele>1264.123050</ele>
  <time>2012-05-06T14:02:50Z</time>
</trkpt>
<trkpt lat="46.228840000" lon="7.429310000">
  <ele>1264.292360</ele>
  <time>2012-05-06T14:02:51Z</time>
</trkpt>
<trkpt lat="46.228820000" lon="7.429280000">
  <ele>1264.461550</ele>
  <time>2012-05-06T14:02:52Z</time>
</trkpt>
<trkpt lat="46.228800000" lon="7.429240000">
  <ele>1264.630860</ele>
  <time>2012-05-06T14:02:53Z</time>
</trkpt>
<trkpt lat="46.228790000" lon="7.429200000">
  <ele>1264.800050</ele>
  <time>2012-05-06T14:02:54Z</time>
</trkpt>
<trkpt lat="46.228690000" lon="7.428890000">
  <ele>1264.800050</ele>
  <time>2012-05-06T14:03:02Z</time>
</trkpt>
<trkpt lat="46.228670000" lon="7.428850000">
  <ele>1265.239990</ele>
  <time>2012-05-06T14:03:03Z</time>
</trkpt>
<trkpt lat="46.228660000" lon="7.428800000">
  <ele>1265.680050</ele>
  <time>2012-05-06T14:03:04Z</time>
</trkpt>
<trkpt lat="46.228650000" lon="7.428750000">
  <ele>1266.120000</ele>
  <time>2012-05-06T14:03:05Z</time>
</trkpt>
<trkpt lat="46.228650000" lon="7.428710000">
  <ele>1266.560060</ele>
  <time>2012-05-06T14:03:06Z</time>
</trkpt>
<trkpt lat="46.228650000" lon="7.428660000">
  <ele>1267.000000</ele>
  <time>2012-05-06T14:03:07Z</time>
</trkpt>
<trkpt lat="46.228630000" lon="7.428590000">
  <ele>1267.000000</ele>
  <time>2012-05-06T14:03:09Z</time>
</trkpt>
<trkpt lat="46.228570000" lon="7.428420000">
  <ele>1268.319950</ele>
  <time>2012-05-06T14:03:15Z</time>
</trkpt>
<trkpt lat="46.228550000" lon="7.428410000">
  <ele>1268.539920</ele>
  <time>2012-05-06T14:03:16Z</time>
</trkpt>
<trkpt lat="46.228530000" lon="7.428390000">
  <ele>1268.760010</ele>
  <time>2012-05-06T14:03:17Z</time>
</trkpt>
<trkpt lat="46.228510000" lon="7.428380000">
  <ele>1268.979980</ele>
  <time>2012-05-06T14:03:18Z</time>
</trkpt>
<trkpt lat="46.228490000" lon="7.428370000">
  <ele>1269.199950</ele>
  <time>2012-05-06T14:03:19Z</time>
</trkpt>
<trkpt lat="46.228440000" lon="7.428360000">
  <ele>1269.199950</ele>
  <time>2012-05-06T14:03:21Z</time>
</trkpt>
<trkpt lat="46.228370000" lon="7.428340000">
  <ele>1270.025020</ele>
  <time>2012-05-06T14:03:24Z</time>
</trkpt>
<trkpt lat="46.228340000" lon="7.428330000">
  <ele>1270.300050</ele>
  <time>2012-05-06T14:03:25Z</time>
</trkpt>
<trkpt lat="46.228330000" lon="7.428300000">
  <ele>1270.574950</ele>
  <time>2012-05-06T14:03:26Z</time>
</trkpt>
<trkpt lat="46.228310000" lon="7.428280000">
  <ele>1270.849980</ele>
  <time>2012-05-06T14:03:27Z</time>
</trkpt>
<trkpt lat="46.228300000" lon="7.428250000">
  <ele>1271.125000</ele>
  <time>2012-05-06T14:03:28Z</time>
</trkpt>
<trkpt lat="46.228290000" lon="7.428220000">
  <ele>1271.400020</ele>
  <time>2012-05-06T14:03:29Z</time>
</trkpt>
<trkpt lat="46.228280000" lon="7.428180000">
  <ele>1271.400020</ele>
  <time>2012-05-06T14:03:30Z</time>
</trkpt>
<trkpt lat="46.228250000" lon="7.428070000">
  <ele>1272.257200</ele>
  <time>2012-05-06T14:03:33Z</time>
</trkpt>
<trkpt lat="46.228240000" lon="7.428040000">
  <ele>1272.542850</ele>
  <time>2012-05-06T14:03:34Z</time>
</trkpt>
<trkpt lat="46.228230000" lon="7.428020000">
  <ele>1272.828610</ele>
  <time>2012-05-06T14:03:35Z</time>
</trkpt>
<trkpt lat="46.228210000" lon="7.427990000">
  <ele>1273.114260</ele>
  <time>2012-05-06T14:03:36Z</time>
</trkpt>
<trkpt lat="46.228200000" lon="7.427960000">
  <ele>1273.400020</ele>
  <time>2012-05-06T14:03:37Z</time>
</trkpt>
<trkpt lat="46.228160000" lon="7.427840000">
  <ele>1273.400020</ele>
  <time>2012-05-06T14:03:41Z</time>
</trkpt>
<trkpt lat="46.228130000" lon="7.427770000">
  <ele>1274.028560</ele>
  <time>2012-05-06T14:03:43Z</time>
</trkpt>
<trkpt lat="46.228120000" lon="7.427730000">
  <ele>1274.342900</ele>
  <time>2012-05-06T14:03:44Z</time>
</trkpt>
<trkpt lat="46.228110000" lon="7.427690000">
  <ele>1274.657100</ele>
  <time>2012-05-06T14:03:45Z</time>
</trkpt>
<trkpt lat="46.228100000" lon="7.427660000">
  <ele>1274.971440</ele>
  <time>2012-05-06T14:03:46Z</time>
</trkpt>
<trkpt lat="46.228090000" lon="7.427630000">
  <ele>1275.285770</ele>
  <time>2012-05-06T14:03:47Z</time>
</trkpt>
<trkpt lat="46.228070000" lon="7.427500000">
  <ele>1276.542850</ele>
  <time>2012-05-06T14:03:51Z</time>
</trkpt>
<trkpt lat="46.228050000" lon="7.427460000">
  <ele>1276.857180</ele>
  <time>2012-05-06T14:03:52Z</time>
</trkpt>
<trkpt lat="46.228030000" lon="7.427430000">
  <ele>1277.171390</ele>
  <time>2012-05-06T14:03:53Z</time>
</trkpt>
<trkpt lat="46.228020000" lon="7.427390000">
  <ele>1277.485720</ele>
  <time>2012-05-06T14:03:54Z</time>
</trkpt>
<trkpt lat="46.228010000" lon="7.427360000">
  <ele>1277.800050</ele>
  <time>2012-05-06T14:03:55Z</time>
</trkpt>
<trkpt lat="46.227970000" lon="7.427270000">
  <ele>1278.742920</ele>
  <time>2012-05-06T14:03:58Z</time>
</trkpt>
<trkpt lat="46.227970000" lon="7.427230000">
  <ele>1279.057130</ele>
  <time>2012-05-06T14:03:59Z</time>
</trkpt>
<trkpt lat="46.227960000" lon="7.427200000">
  <ele>1279.371460</ele>
  <time>2012-05-06T14:04:00Z</time>
</trkpt>
<trkpt lat="46.227950000" lon="7.427180000">
  <ele>1279.685670</ele>
  <time>2012-05-06T14:04:01Z</time>
</trkpt>
<trkpt lat="46.227940000" lon="7.427150000">
  <ele>1280.000000</ele>
  <time>2012-05-06T14:04:02Z</time>
</trkpt>
<trkpt lat="46.227900000" lon="7.427040000">
  <ele>1280.000000</ele>
  <time>2012-05-06T14:04:06Z</time>
</trkpt>
<trkpt lat="46.227840000" lon="7.426890000">
  <ele>1281.533330</ele>
  <time>2012-05-06T14:04:11Z</time>
</trkpt>
<trkpt lat="46.227830000" lon="7.426870000">
  <ele>1281.839970</ele>
  <time>2012-05-06T14:04:12Z</time>
</trkpt>
<trkpt lat="46.227810000" lon="7.426830000">
  <ele>1282.146610</ele>
  <time>2012-05-06T14:04:13Z</time>
</trkpt>
<trkpt lat="46.227800000" lon="7.426810000">
  <ele>1282.453370</ele>
  <time>2012-05-06T14:04:14Z</time>
</trkpt>
<trkpt lat="46.227790000" lon="7.426780000">
  <ele>1282.760010</ele>
  <time>2012-05-06T14:04:15Z</time>
</trkpt>
<trkpt lat="46.227730000" lon="7.426670000">
  <ele>1283.986690</ele>
  <time>2012-05-06T14:04:19Z</time>
</trkpt>
<trkpt lat="46.227720000" lon="7.426640000">
  <ele>1284.293330</ele>
  <time>2012-05-06T14:04:20Z</time>
</trkpt>
<trkpt lat="46.227700000" lon="7.426600000">
  <ele>1284.599980</ele>
  <time>2012-05-06T14:04:21Z</time>
</trkpt>
<trkpt lat="46.227630000" lon="7.426470000">
  <ele>1284.599980</ele>
  <time>2012-05-06T14:04:27Z</time>
</trkpt>
<trkpt lat="46.227620000" lon="7.426440000">
  <ele>1285.000000</ele>
  <time>2012-05-06T14:04:28Z</time>
</trkpt>
<trkpt lat="46.227610000" lon="7.426410000">
  <ele>1285.400020</ele>
  <time>2012-05-06T14:04:29Z</time>
</trkpt>
<trkpt lat="46.227600000" lon="7.426380000">
  <ele>1285.799930</ele>
  <time>2012-05-06T14:04:30Z</time>
</trkpt>
<trkpt lat="46.227590000" lon="7.426350000">
  <ele>1286.199950</ele>
  <time>2012-05-06T14:04:31Z</time>
</trkpt>
<trkpt lat="46.227580000" lon="7.426320000">
  <ele>1286.599980</ele>
  <time>2012-05-06T14:04:32Z</time>
</trkpt>
<trkpt lat="46.227570000" lon="7.426260000">
  <ele>1286.599980</ele>
  <time>2012-05-06T14:04:34Z</time>
</trkpt>
<trkpt lat="46.227550000" lon="7.426190000">
  <ele>1287.400020</ele>
  <time>2012-05-06T14:04:36Z</time>
</trkpt>
<trkpt lat="46.227540000" lon="7.426160000">
  <ele>1287.799930</ele>
  <time>2012-05-06T14:04:37Z</time>
</trkpt>
<trkpt lat="46.227530000" lon="7.426120000">
  <ele>1288.199950</ele>
  <time>2012-05-06T14:04:38Z</time>
</trkpt>
<trkpt lat="46.227520000" lon="7.426090000">
  <ele>1288.599980</ele>
  <time>2012-05-06T14:04:39Z</time>
</trkpt>
<trkpt lat="46.227520000" lon="7.426050000">
  <ele>1289.000000</ele>
  <time>2012-05-06T14:04:40Z</time>
</trkpt>
<trkpt lat="46.227500000" lon="7.425990000">
  <ele>1289.800050</ele>
  <time>2012-05-06T14:04:42Z</time>
</trkpt>
<trkpt lat="46.227500000" lon="7.425950000">
  <ele>1290.199950</ele>
  <time>2012-05-06T14:04:43Z</time>
</trkpt>
<trkpt lat="46.227490000" lon="7.425920000">
  <ele>1290.599980</ele>
  <time>2012-05-06T14:04:44Z</time>
</trkpt>
<trkpt lat="46.227490000" lon="7.425890000">
  <ele>1291.000000</ele>
  <time>2012-05-06T14:04:45Z</time>
</trkpt>
<trkpt lat="46.227440000" lon="7.425690000">
  <ele>1291.000000</ele>
  <time>2012-05-06T14:04:51Z</time>
</trkpt>
<trkpt lat="46.227440000" lon="7.425660000">
  <ele>1291.439940</ele>
  <time>2012-05-06T14:04:52Z</time>
</trkpt>
<trkpt lat="46.227430000" lon="7.425630000">
  <ele>1291.880000</ele>
  <time>2012-05-06T14:04:53Z</time>
</trkpt>
<trkpt lat="46.227420000" lon="7.425600000">
  <ele>1292.319950</ele>
  <time>2012-05-06T14:04:54Z</time>
</trkpt>
<trkpt lat="46.227420000" lon="7.425570000">
  <ele>1292.760010</ele>
  <time>2012-05-06T14:04:55Z</time>
</trkpt>
<trkpt lat="46.227420000" lon="7.425540000">
  <ele>1293.199950</ele>
  <time>2012-05-06T14:04:56Z</time>
</trkpt>
<trkpt lat="46.227390000" lon="7.425450000">
  <ele>1293.199950</ele>
  <time>2012-05-06T14:04:59Z</time>
</trkpt>
<trkpt lat="46.227380000" lon="7.425420000">
  <ele>1293.640010</ele>
  <time>2012-05-06T14:05:00Z</time>
</trkpt>
<trkpt lat="46.227380000" lon="7.425390000">
  <ele>1294.079960</ele>
  <time>2012-05-06T14:05:01Z</time>
</trkpt>
<trkpt lat="46.227360000" lon="7.425370000">
  <ele>1294.520020</ele>
  <time>2012-05-06T14:05:02Z</time>
</trkpt>
<trkpt lat="46.227340000" lon="7.425350000">
  <ele>1294.959960</ele>
  <time>2012-05-06T14:05:03Z</time>
</trkpt>
<trkpt lat="46.227330000" lon="7.425320000">
  <ele>1295.400020</ele>
  <time>2012-05-06T14:05:04Z</time>
</trkpt>
<trkpt lat="46.227300000" lon="7.425280000">
  <ele>1295.400020</ele>
  <time>2012-05-06T14:05:06Z</time>
</trkpt>
<trkpt lat="46.227270000" lon="7.425230000">
  <ele>1296.200070</ele>
  <time>2012-05-06T14:05:08Z</time>
</trkpt>
<trkpt lat="46.227260000" lon="7.425210000">
  <ele>1296.599980</ele>
  <time>2012-05-06T14:05:09Z</time>
</trkpt>
<trkpt lat="46.227250000" lon="7.425200000">
  <ele>1297.000000</ele>
  <time>2012-05-06T14:05:10Z</time>
</trkpt>
<trkpt lat="46.227230000" lon="7.425190000">
  <ele>1297.400020</ele>
  <time>2012-05-06T14:05:11Z</time>
</trkpt>
<trkpt lat="46.227170000" lon="7.425150000">
  <ele>1297.400020</ele>
  <time>2012-05-06T14:05:14Z</time>
</trkpt>
<trkpt lat="46.227130000" lon="7.425150000">
  <ele>1298.028560</ele>
  <time>2012-05-06T14:05:16Z</time>
</trkpt>
<trkpt lat="46.227120000" lon="7.425170000">
  <ele>1298.342900</ele>
  <time>2012-05-06T14:05:17Z</time>
</trkpt>
<trkpt lat="46.227110000" lon="7.425190000">
  <ele>1298.657100</ele>
  <time>2012-05-06T14:05:18Z</time>
</trkpt>
<trkpt lat="46.227110000" lon="7.425230000">
  <ele>1298.971440</ele>
  <time>2012-05-06T14:05:19Z</time>
</trkpt>
<trkpt lat="46.227120000" lon="7.425270000">
  <ele>1299.285640</ele>
  <time>2012-05-06T14:05:20Z</time>
</trkpt>
<trkpt lat="46.227130000" lon="7.425310000">
  <ele>1299.599980</ele>
  <time>2012-05-06T14:05:21Z</time>
</trkpt>
<trkpt lat="46.227140000" lon="7.425340000">
  <ele>1299.599980</ele>
  <time>2012-05-06T14:05:22Z</time>
</trkpt>
<trkpt lat="46.227160000" lon="7.425440000">
  <ele>1299.324950</ele>
  <time>2012-05-06T14:05:24Z</time>
</trkpt>
<trkpt lat="46.227190000" lon="7.425630000">
  <ele>1298.775020</ele>
  <time>2012-05-06T14:05:28Z</time>
</trkpt>
<trkpt lat="46.227240000" lon="7.425910000">
  <ele>1298.087520</ele>
  <time>2012-05-06T14:05:33Z</time>
</trkpt>
<trkpt lat="46.227250000" lon="7.425970000">
  <ele>1297.949950</ele>
  <time>2012-05-06T14:05:34Z</time>
</trkpt>
<trkpt lat="46.227250000" lon="7.426040000">
  <ele>1297.812500</ele>
  <time>2012-05-06T14:05:35Z</time>
</trkpt>
<trkpt lat="46.227250000" lon="7.426110000">
  <ele>1297.675050</ele>
  <time>2012-05-06T14:05:36Z</time>
</trkpt>
<trkpt lat="46.227260000" lon="7.426180000">
  <ele>1297.537480</ele>
  <time>2012-05-06T14:05:37Z</time>
</trkpt>
<trkpt lat="46.227260000" lon="7.426240000">
  <ele>1297.400020</ele>
  <time>2012-05-06T14:05:38Z</time>
</trkpt>
<trkpt lat="46.227280000" lon="7.426470000">
  <ele>1297.400020</ele>
  <time>2012-05-06T14:05:41Z</time>
</trkpt>
<trkpt lat="46.227290000" lon="7.426630000">
  <ele>1297.036380</ele>
  <time>2012-05-06T14:05:43Z</time>
</trkpt>
<trkpt lat="46.227300000" lon="7.426790000">
  <ele>1296.672730</ele>
  <time>2012-05-06T14:05:45Z</time>
</trkpt>
<trkpt lat="46.227310000" lon="7.426950000">
  <ele>1296.309080</ele>
  <time>2012-05-06T14:05:47Z</time>
</trkpt>
<trkpt lat="46.227320000" lon="7.427030000">
  <ele>1296.127320</ele>
  <time>2012-05-06T14:05:48Z</time>
</trkpt>
<trkpt lat="46.227340000" lon="7.427110000">
  <ele>1295.945430</ele>
  <time>2012-05-06T14:05:49Z</time>
</trkpt>
<trkpt lat="46.227360000" lon="7.427190000">
  <ele>1295.763670</ele>
  <time>2012-05-06T14:05:50Z</time>
</trkpt>
<trkpt lat="46.227380000" lon="7.427270000">
  <ele>1295.581790</ele>
  <time>2012-05-06T14:05:51Z</time>
</trkpt>
<trkpt lat="46.227400000" lon="7.427340000">
  <ele>1295.400020</ele>
  <time>2012-05-06T14:05:52Z</time>
</trkpt>
<trkpt lat="46.227450000" lon="7.427580000">
  <ele>1295.400020</ele>
  <time>2012-05-06T14:05:55Z</time>
</trkpt>
<trkpt lat="46.227490000" lon="7.427730000">
  <ele>1294.828610</ele>
  <time>2012-05-06T14:05:57Z</time>
</trkpt>
<trkpt lat="46.227540000" lon="7.427910000">
  <ele>1294.257200</ele>
  <time>2012-05-06T14:05:59Z</time>
</trkpt>
<trkpt lat="46.227550000" lon="7.428000000">
  <ele>1293.971440</ele>
  <time>2012-05-06T14:06:00Z</time>
</trkpt>
<trkpt lat="46.227580000" lon="7.428080000">
  <ele>1293.685790</ele>
  <time>2012-05-06T14:06:01Z</time>
</trkpt>
<trkpt lat="46.227600000" lon="7.428170000">
  <ele>1293.400020</ele>
  <time>2012-05-06T14:06:02Z</time>
</trkpt>
<trkpt lat="46.227660000" lon="7.428420000">
  <ele>1293.400020</ele>
  <time>2012-05-06T14:06:05Z</time>
</trkpt>
<trkpt lat="46.227780000" lon="7.428920000">
  <ele>1294.000000</ele>
  <time>2012-05-06T14:06:11Z</time>
</trkpt>
<trkpt lat="46.227840000" lon="7.429160000">
  <ele>1294.300050</ele>
  <time>2012-05-06T14:06:14Z</time>
</trkpt>
<trkpt lat="46.227900000" lon="7.429380000">
  <ele>1294.599980</ele>
  <time>2012-05-06T14:06:17Z</time>
</trkpt>
<trkpt lat="46.227990000" lon="7.429670000">
  <ele>1295.000000</ele>
  <time>2012-05-06T14:06:21Z</time>
</trkpt>
<trkpt lat="46.228010000" lon="7.429740000">
  <ele>1295.099980</ele>
  <time>2012-05-06T14:06:22Z</time>
</trkpt>
<trkpt lat="46.228050000" lon="7.429880000">
  <ele>1295.200070</ele>
  <time>2012-05-06T14:06:23Z</time>
</trkpt>
<trkpt lat="46.228070000" lon="7.429940000">
  <ele>1295.400020</ele>
  <time>2012-05-06T14:06:25Z</time>
</trkpt>
<trkpt lat="46.228160000" lon="7.430230000">
  <ele>1295.400020</ele>
  <time>2012-05-06T14:06:29Z</time>
</trkpt>
<trkpt lat="46.228270000" lon="7.430530000">
  <ele>1294.942870</ele>
  <time>2012-05-06T14:06:33Z</time>
</trkpt>
<trkpt lat="46.228280000" lon="7.430620000">
  <ele>1294.828610</ele>
  <time>2012-05-06T14:06:34Z</time>
</trkpt>
<trkpt lat="46.228320000" lon="7.430910000">
  <ele>1294.485720</ele>
  <time>2012-05-06T14:06:37Z</time>
</trkpt>
<trkpt lat="46.228360000" lon="7.431000000">
  <ele>1294.371460</ele>
  <time>2012-05-06T14:06:38Z</time>
</trkpt>
<trkpt lat="46.228420000" lon="7.431170000">
  <ele>1294.142940</ele>
  <time>2012-05-06T14:06:40Z</time>
</trkpt>
<trkpt lat="46.228440000" lon="7.431260000">
  <ele>1294.028560</ele>
  <time>2012-05-06T14:06:41Z</time>
</trkpt>
<trkpt lat="46.228450000" lon="7.431340000">
  <ele>1293.914310</ele>
  <time>2012-05-06T14:06:42Z</time>
</trkpt>
<trkpt lat="46.228460000" lon="7.431410000">
  <ele>1293.800050</ele>
  <time>2012-05-06T14:06:43Z</time>
</trkpt>
<trkpt lat="46.228460000" lon="7.431490000">
  <ele>1294.199950</ele>
  <time>2012-05-06T14:06:44Z</time>
</trkpt>
<trkpt lat="46.228460000" lon="7.431550000">
  <ele>1294.714230</ele>
  <time>2012-05-06T14:06:45Z</time>
</trkpt>
<trkpt lat="46.228450000" lon="7.431610000">
  <ele>1295.228520</ele>
  <time>2012-05-06T14:06:46Z</time>
</trkpt>
<trkpt lat="46.228440000" lon="7.431660000">
  <ele>1295.742800</ele>
  <time>2012-05-06T14:06:47Z</time>
</trkpt>
<trkpt lat="46.228440000" lon="7.431710000">
  <ele>1296.257200</ele>
  <time>2012-05-06T14:06:48Z</time>
</trkpt>
<trkpt lat="46.228430000" lon="7.431760000">
  <ele>1296.771480</ele>
  <time>2012-05-06T14:06:49Z</time>
</trkpt>
<trkpt lat="46.228430000" lon="7.431810000">
  <ele>1297.285770</ele>
  <time>2012-05-06T14:06:50Z</time>
</trkpt>
<trkpt lat="46.228440000" lon="7.431850000">
  <ele>1297.800050</ele>
  <time>2012-05-06T14:06:51Z</time>
</trkpt>
<trkpt lat="46.228450000" lon="7.431910000">
  <ele>1297.800050</ele>
  <time>2012-05-06T14:06:52Z</time>
</trkpt>
<trkpt lat="46.228490000" lon="7.432120000">
  <ele>1298.900020</ele>
  <time>2012-05-06T14:06:56Z</time>
</trkpt>
<trkpt lat="46.228490000" lon="7.432170000">
  <ele>1299.175050</ele>
  <time>2012-05-06T14:06:57Z</time>
</trkpt>
<trkpt lat="46.228500000" lon="7.432230000">
  <ele>1299.449950</ele>
  <time>2012-05-06T14:06:58Z</time>
</trkpt>
<trkpt lat="46.228500000" lon="7.432280000">
  <ele>1299.724980</ele>
  <time>2012-05-06T14:06:59Z</time>
</trkpt>
<trkpt lat="46.228500000" lon="7.432340000">
  <ele>1300.000000</ele>
  <time>2012-05-06T14:07:00Z</time>
</trkpt>
<trkpt lat="46.228520000" lon="7.432510000">
  <ele>1300.000000</ele>
  <time>2012-05-06T14:07:03Z</time>
</trkpt>
<trkpt lat="46.228530000" lon="7.432690000">
  <ele>1300.547850</ele>
  <time>2012-05-06T14:07:06Z</time>
</trkpt>
<trkpt lat="46.228530000" lon="7.433020000">
  <ele>1301.643430</ele>
  <time>2012-05-06T14:07:12Z</time>
</trkpt>
<trkpt lat="46.228540000" lon="7.433070000">
  <ele>1301.826050</ele>
  <time>2012-05-06T14:07:13Z</time>
</trkpt>
<trkpt lat="46.228540000" lon="7.433120000">
  <ele>1302.008670</ele>
  <time>2012-05-06T14:07:14Z</time>
</trkpt>
<trkpt lat="46.228550000" lon="7.433170000">
  <ele>1302.191280</ele>
  <time>2012-05-06T14:07:15Z</time>
</trkpt>
<trkpt lat="46.228550000" lon="7.433220000">
  <ele>1302.373900</ele>
  <time>2012-05-06T14:07:16Z</time>
</trkpt>
<trkpt lat="46.228570000" lon="7.433510000">
  <ele>1303.469480</ele>
  <time>2012-05-06T14:07:22Z</time>
</trkpt>
<trkpt lat="46.228580000" lon="7.433550000">
  <ele>1303.652100</ele>
  <time>2012-05-06T14:07:23Z</time>
</trkpt>
<trkpt lat="46.228580000" lon="7.433600000">
  <ele>1303.834720</ele>
  <time>2012-05-06T14:07:24Z</time>
</trkpt>
<trkpt lat="46.228590000" lon="7.433640000">
  <ele>1304.017330</ele>
  <time>2012-05-06T14:07:25Z</time>
</trkpt>
<trkpt lat="46.228600000" lon="7.433690000">
  <ele>1304.199950</ele>
  <time>2012-05-06T14:07:26Z</time>
</trkpt>
<trkpt lat="46.228610000" lon="7.433790000">
  <ele>1304.199950</ele>
  <time>2012-05-06T14:07:28Z</time>
</trkpt>
<trkpt lat="46.228620000" lon="7.433950000">
  <ele>1305.142820</ele>
  <time>2012-05-06T14:07:31Z</time>
</trkpt>
<trkpt lat="46.228630000" lon="7.434000000">
  <ele>1305.457150</ele>
  <time>2012-05-06T14:07:32Z</time>
</trkpt>
<trkpt lat="46.228630000" lon="7.434050000">
  <ele>1305.771360</ele>
  <time>2012-05-06T14:07:33Z</time>
</trkpt>
<trkpt lat="46.228640000" lon="7.434100000">
  <ele>1306.085690</ele>
  <time>2012-05-06T14:07:34Z</time>
</trkpt>
<trkpt lat="46.228650000" lon="7.434150000">
  <ele>1306.399900</ele>
  <time>2012-05-06T14:07:35Z</time>
</trkpt>
<trkpt lat="46.228660000" lon="7.434290000">
  <ele>1307.342770</ele>
  <time>2012-05-06T14:07:38Z</time>
</trkpt>
<trkpt lat="46.228670000" lon="7.434330000">
  <ele>1307.657100</ele>
  <time>2012-05-06T14:07:39Z</time>
</trkpt>
<trkpt lat="46.228670000" lon="7.434370000">
  <ele>1307.971440</ele>
  <time>2012-05-06T14:07:40Z</time>
</trkpt>
<trkpt lat="46.228670000" lon="7.434420000">
  <ele>1308.285640</ele>
  <time>2012-05-06T14:07:41Z</time>
</trkpt>
<trkpt lat="46.228680000" lon="7.434460000">
  <ele>1308.599980</ele>
  <time>2012-05-06T14:07:42Z</time>
</trkpt>
<trkpt lat="46.228700000" lon="7.434660000">
  <ele>1308.599980</ele>
  <time>2012-05-06T14:07:46Z</time>
</trkpt>
<trkpt lat="46.228710000" lon="7.434810000">
  <ele>1309.514280</ele>
  <time>2012-05-06T14:07:49Z</time>
</trkpt>
<trkpt lat="46.228710000" lon="7.434850000">
  <ele>1309.818970</ele>
  <time>2012-05-06T14:07:50Z</time>
</trkpt>
<trkpt lat="46.228700000" lon="7.434900000">
  <ele>1310.123780</ele>
  <time>2012-05-06T14:07:51Z</time>
</trkpt>
<trkpt lat="46.228700000" lon="7.434950000">
  <ele>1310.428590</ele>
  <time>2012-05-06T14:07:52Z</time>
</trkpt>
<trkpt lat="46.228710000" lon="7.434990000">
  <ele>1310.733280</ele>
  <time>2012-05-06T14:07:53Z</time>
</trkpt>
<trkpt lat="46.228720000" lon="7.435170000">
  <ele>1311.952390</ele>
  <time>2012-05-06T14:07:57Z</time>
</trkpt>
<trkpt lat="46.228730000" lon="7.435210000">
  <ele>1312.257080</ele>
  <time>2012-05-06T14:07:58Z</time>
</trkpt>
<trkpt lat="46.228730000" lon="7.435250000">
  <ele>1312.561890</ele>
  <time>2012-05-06T14:07:59Z</time>
</trkpt>
<trkpt lat="46.228730000" lon="7.435310000">
  <ele>1312.866700</ele>
  <time>2012-05-06T14:08:00Z</time>
</trkpt>
<trkpt lat="46.228710000" lon="7.435440000">
  <ele>1313.781010</ele>
  <time>2012-05-06T14:08:03Z</time>
</trkpt>
<trkpt lat="46.228720000" lon="7.435480000">
  <ele>1314.085690</ele>
  <time>2012-05-06T14:08:04Z</time>
</trkpt>
<trkpt lat="46.228720000" lon="7.435530000">
  <ele>1314.390500</ele>
  <time>2012-05-06T14:08:05Z</time>
</trkpt>
<trkpt lat="46.228720000" lon="7.435580000">
  <ele>1314.695190</ele>
  <time>2012-05-06T14:08:06Z</time>
</trkpt>
<trkpt lat="46.228720000" lon="7.435620000">
  <ele>1315.000000</ele>
  <time>2012-05-06T14:08:07Z</time>
</trkpt>
<trkpt lat="46.228710000" lon="7.435660000">
  <ele>1315.000000</ele>
  <time>2012-05-06T14:08:08Z</time>
</trkpt>
<trkpt lat="46.228710000" lon="7.435700000">
  <ele>1315.273930</ele>
  <time>2012-05-06T14:08:09Z</time>
</trkpt>
<trkpt lat="46.228710000" lon="7.435740000">
  <ele>1315.547850</ele>
  <time>2012-05-06T14:08:10Z</time>
</trkpt>
<trkpt lat="46.228710000" lon="7.435770000">
  <ele>1315.821780</ele>
  <time>2012-05-06T14:08:11Z</time>
</trkpt>
<trkpt lat="46.228710000" lon="7.435810000">
  <ele>1316.095700</ele>
  <time>2012-05-06T14:08:12Z</time>
</trkpt>
<trkpt lat="46.228710000" lon="7.435840000">
  <ele>1316.369510</ele>
  <time>2012-05-06T14:08:13Z</time>
</trkpt>
<trkpt lat="46.228720000" lon="7.436040000">
  <ele>1318.013060</ele>
  <time>2012-05-06T14:08:19Z</time>
</trkpt>
<trkpt lat="46.228720000" lon="7.436080000">
  <ele>1318.286990</ele>
  <time>2012-05-06T14:08:20Z</time>
</trkpt>
<trkpt lat="46.228720000" lon="7.436110000">
  <ele>1318.560910</ele>
  <time>2012-05-06T14:08:21Z</time>
</trkpt>
<trkpt lat="46.228730000" lon="7.436140000">
  <ele>1318.834720</ele>
  <time>2012-05-06T14:08:22Z</time>
</trkpt>
<trkpt lat="46.228730000" lon="7.436170000">
  <ele>1319.108640</ele>
  <time>2012-05-06T14:08:23Z</time>
</trkpt>
<trkpt lat="46.228740000" lon="7.436260000">
  <ele>1319.656490</ele>
  <time>2012-05-06T14:08:25Z</time>
</trkpt>
<trkpt lat="46.228740000" lon="7.436310000">
  <ele>1320.478270</ele>
  <time>2012-05-06T14:08:28Z</time>
</trkpt>
<trkpt lat="46.228740000" lon="7.436350000">
  <ele>1320.752200</ele>
  <time>2012-05-06T14:08:29Z</time>
</trkpt>
<trkpt lat="46.228750000" lon="7.436380000">
  <ele>1321.026120</ele>
  <time>2012-05-06T14:08:30Z</time>
</trkpt>
<trkpt lat="46.228760000" lon="7.436410000">
  <ele>1321.300050</ele>
  <time>2012-05-06T14:08:31Z</time>
</trkpt>
<trkpt lat="46.228770000" lon="7.436510000">
  <ele>1322.121700</ele>
  <time>2012-05-06T14:08:34Z</time>
</trkpt>
<trkpt lat="46.228780000" lon="7.436540000">
  <ele>1322.395630</ele>
  <time>2012-05-06T14:08:35Z</time>
</trkpt>
<trkpt lat="46.228780000" lon="7.436570000">
  <ele>1322.669560</ele>
  <time>2012-05-06T14:08:36Z</time>
</trkpt>
<trkpt lat="46.228790000" lon="7.436600000">
  <ele>1322.943480</ele>
  <time>2012-05-06T14:08:37Z</time>
</trkpt>
<trkpt lat="46.228790000" lon="7.436700000">
  <ele>1323.765260</ele>
  <time>2012-05-06T14:08:40Z</time>
</trkpt>
<trkpt lat="46.228790000" lon="7.436730000">
  <ele>1324.039060</ele>
  <time>2012-05-06T14:08:41Z</time>
</trkpt>
<trkpt lat="46.228790000" lon="7.436760000">
  <ele>1324.312990</ele>
  <time>2012-05-06T14:08:42Z</time>
</trkpt>
<trkpt lat="46.228790000" lon="7.436790000">
  <ele>1324.586910</ele>
  <time>2012-05-06T14:08:43Z</time>
</trkpt>
<trkpt lat="46.228790000" lon="7.436830000">
  <ele>1324.860840</ele>
  <time>2012-05-06T14:08:44Z</time>
</trkpt>
<trkpt lat="46.228790000" lon="7.437030000">
  <ele>1326.504270</ele>
  <time>2012-05-06T14:08:50Z</time>
</trkpt>
<trkpt lat="46.228790000" lon="7.437060000">
  <ele>1326.778200</ele>
  <time>2012-05-06T14:08:51Z</time>
</trkpt>
<trkpt lat="46.228780000" lon="7.437100000">
  <ele>1327.052120</ele>
  <time>2012-05-06T14:08:52Z</time>
</trkpt>
<trkpt lat="46.228770000" lon="7.437130000">
  <ele>1327.326050</ele>
  <time>2012-05-06T14:08:53Z</time>
</trkpt>
<trkpt lat="46.228770000" lon="7.437160000">
  <ele>1327.599980</ele>
  <time>2012-05-06T14:08:54Z</time>
</trkpt>
<trkpt lat="46.228760000" lon="7.437290000">
  <ele>1327.599980</ele>
  <time>2012-05-06T14:08:58Z</time>
</trkpt>
<trkpt lat="46.228740000" lon="7.437360000">
  <ele>1328.479980</ele>
  <time>2012-05-06T14:09:00Z</time>
</trkpt>
<trkpt lat="46.228740000" lon="7.437390000">
  <ele>1328.920040</ele>
  <time>2012-05-06T14:09:01Z</time>
</trkpt>
<trkpt lat="46.228730000" lon="7.437420000">
  <ele>1329.359990</ele>
  <time>2012-05-06T14:09:02Z</time>
</trkpt>
<trkpt lat="46.228720000" lon="7.437450000">
  <ele>1329.800050</ele>
  <time>2012-05-06T14:09:03Z</time>
</trkpt>
<trkpt lat="46.228710000" lon="7.437530000">
  <ele>1329.800050</ele>
  <time>2012-05-06T14:09:05Z</time>
</trkpt>
<trkpt lat="46.228700000" lon="7.437600000">
  <ele>1330.533330</ele>
  <time>2012-05-06T14:09:07Z</time>
</trkpt>
<trkpt lat="46.228690000" lon="7.437630000">
  <ele>1330.900020</ele>
  <time>2012-05-06T14:09:08Z</time>
</trkpt>
<trkpt lat="46.228690000" lon="7.437660000">
  <ele>1331.266720</ele>
  <time>2012-05-06T14:09:09Z</time>
</trkpt>
<trkpt lat="46.228680000" lon="7.437690000">
  <ele>1331.633300</ele>
  <time>2012-05-06T14:09:10Z</time>
</trkpt>
<trkpt lat="46.228680000" lon="7.437720000">
  <ele>1332.000000</ele>
  <time>2012-05-06T14:09:11Z</time>
</trkpt>
<trkpt lat="46.228670000" lon="7.437760000">
  <ele>1332.000000</ele>
  <time>2012-05-06T14:09:12Z</time>
</trkpt>
<trkpt lat="46.228660000" lon="7.437810000">
  <ele>1332.733280</ele>
  <time>2012-05-06T14:09:14Z</time>
</trkpt>
<trkpt lat="46.228660000" lon="7.437840000">
  <ele>1333.099980</ele>
  <time>2012-05-06T14:09:15Z</time>
</trkpt>
<trkpt lat="46.228650000" lon="7.437870000">
  <ele>1333.466670</ele>
  <time>2012-05-06T14:09:16Z</time>
</trkpt>
<trkpt lat="46.228650000" lon="7.437910000">
  <ele>1333.833250</ele>
  <time>2012-05-06T14:09:17Z</time>
</trkpt>
<trkpt lat="46.228650000" lon="7.437940000">
  <ele>1334.199950</ele>
  <time>2012-05-06T14:09:18Z</time>
</trkpt>
<trkpt lat="46.228640000" lon="7.438000000">
  <ele>1334.199950</ele>
  <time>2012-05-06T14:09:20Z</time>
</trkpt>
<trkpt lat="46.228630000" lon="7.438100000">
  <ele>1335.300050</ele>
  <time>2012-05-06T14:09:23Z</time>
</trkpt>
<trkpt lat="46.228630000" lon="7.438130000">
  <ele>1335.666630</ele>
  <time>2012-05-06T14:09:24Z</time>
</trkpt>
<trkpt lat="46.228620000" lon="7.438160000">
  <ele>1336.033330</ele>
  <time>2012-05-06T14:09:25Z</time>
</trkpt>
<trkpt lat="46.228620000" lon="7.438190000">
  <ele>1336.400020</ele>
  <time>2012-05-06T14:09:26Z</time>
</trkpt>
<trkpt lat="46.228630000" lon="7.438260000">
  <ele>1336.400020</ele>
  <time>2012-05-06T14:09:28Z</time>
</trkpt>
<trkpt lat="46.228620000" lon="7.438360000">
  <ele>1337.207280</ele>
  <time>2012-05-06T14:09:31Z</time>
</trkpt>
<trkpt lat="46.228620000" lon="7.438400000">
  <ele>1337.476440</ele>
  <time>2012-05-06T14:09:32Z</time>
</trkpt>
<trkpt lat="46.228620000" lon="7.438440000">
  <ele>1337.745480</ele>
  <time>2012-05-06T14:09:33Z</time>
</trkpt>
<trkpt lat="46.228610000" lon="7.438470000">
  <ele>1338.014530</ele>
  <time>2012-05-06T14:09:34Z</time>
</trkpt>
<trkpt lat="46.228620000" lon="7.438500000">
  <ele>1338.283690</ele>
  <time>2012-05-06T14:09:35Z</time>
</trkpt>
<trkpt lat="46.228610000" lon="7.438670000">
  <ele>1339.629150</ele>
  <time>2012-05-06T14:09:40Z</time>
</trkpt>
<trkpt lat="46.228610000" lon="7.438710000">
  <ele>1339.898190</ele>
  <time>2012-05-06T14:09:41Z</time>
</trkpt>
<trkpt lat="46.228600000" lon="7.438740000">
  <ele>1340.167240</ele>
  <time>2012-05-06T14:09:42Z</time>
</trkpt>
<trkpt lat="46.228600000" lon="7.438770000">
  <ele>1340.436400</ele>
  <time>2012-05-06T14:09:43Z</time>
</trkpt>
<trkpt lat="46.228600000" lon="7.438810000">
  <ele>1340.705440</ele>
  <time>2012-05-06T14:09:44Z</time>
</trkpt>
<trkpt lat="46.228580000" lon="7.438930000">
  <ele>1341.781860</ele>
  <time>2012-05-06T14:09:48Z</time>
</trkpt>
<trkpt lat="46.228580000" lon="7.438970000">
  <ele>1342.050900</ele>
  <time>2012-05-06T14:09:49Z</time>
</trkpt>
<trkpt lat="46.228570000" lon="7.439000000">
  <ele>1342.319950</ele>
  <time>2012-05-06T14:09:50Z</time>
</trkpt>
<trkpt lat="46.228570000" lon="7.439040000">
  <ele>1342.589110</ele>
  <time>2012-05-06T14:09:51Z</time>
</trkpt>
<trkpt lat="46.228530000" lon="7.439160000">
  <ele>1343.665410</ele>
  <time>2012-05-06T14:09:55Z</time>
</trkpt>
<trkpt lat="46.228520000" lon="7.439190000">
  <ele>1343.934570</ele>
  <time>2012-05-06T14:09:56Z</time>
</trkpt>
<trkpt lat="46.228510000" lon="7.439210000">
  <ele>1344.203610</ele>
  <time>2012-05-06T14:09:57Z</time>
</trkpt>
<trkpt lat="46.228500000" lon="7.439240000">
  <ele>1344.472660</ele>
  <time>2012-05-06T14:09:58Z</time>
</trkpt>
<trkpt lat="46.228490000" lon="7.439270000">
  <ele>1344.741820</ele>
  <time>2012-05-06T14:09:59Z</time>
</trkpt>
<trkpt lat="46.228450000" lon="7.439390000">
  <ele>1345.818120</ele>
  <time>2012-05-06T14:10:03Z</time>
</trkpt>
<trkpt lat="46.228440000" lon="7.439420000">
  <ele>1346.087280</ele>
  <time>2012-05-06T14:10:04Z</time>
</trkpt>
<trkpt lat="46.228430000" lon="7.439460000">
  <ele>1346.356320</ele>
  <time>2012-05-06T14:10:05Z</time>
</trkpt>
<trkpt lat="46.228420000" lon="7.439490000">
  <ele>1346.625490</ele>
  <time>2012-05-06T14:10:06Z</time>
</trkpt>
<trkpt lat="46.228410000" lon="7.439520000">
  <ele>1346.894530</ele>
  <time>2012-05-06T14:10:07Z</time>
</trkpt>
<trkpt lat="46.228370000" lon="7.439650000">
  <ele>1347.970830</ele>
  <time>2012-05-06T14:10:11Z</time>
</trkpt>
<trkpt lat="46.228370000" lon="7.439680000">
  <ele>1348.239990</ele>
  <time>2012-05-06T14:10:12Z</time>
</trkpt>
<trkpt lat="46.228360000" lon="7.439720000">
  <ele>1348.509030</ele>
  <time>2012-05-06T14:10:13Z</time>
</trkpt>
<trkpt lat="46.228360000" lon="7.439750000">
  <ele>1348.778200</ele>
  <time>2012-05-06T14:10:14Z</time>
</trkpt>
<trkpt lat="46.228340000" lon="7.439920000">
  <ele>1350.123540</ele>
  <time>2012-05-06T14:10:19Z</time>
</trkpt>
<trkpt lat="46.228340000" lon="7.439950000">
  <ele>1350.392700</ele>
  <time>2012-05-06T14:10:20Z</time>
</trkpt>
<trkpt lat="46.228340000" lon="7.439990000">
  <ele>1350.661740</ele>
  <time>2012-05-06T14:10:21Z</time>
</trkpt>
<trkpt lat="46.228330000" lon="7.440020000">
  <ele>1350.930910</ele>
  <time>2012-05-06T14:10:22Z</time>
</trkpt>
<trkpt lat="46.228330000" lon="7.440060000">
  <ele>1351.199950</ele>
  <time>2012-05-06T14:10:23Z</time>
</trkpt>
<trkpt lat="46.228320000" lon="7.440170000">
  <ele>1351.199950</ele>
  <time>2012-05-06T14:10:26Z</time>
</trkpt>
<trkpt lat="46.228320000" lon="7.440200000">
  <ele>1351.640010</ele>
  <time>2012-05-06T14:10:27Z</time>
</trkpt>
<trkpt lat="46.228320000" lon="7.440230000">
  <ele>1352.079960</ele>
  <time>2012-05-06T14:10:28Z</time>
</trkpt>
<trkpt lat="46.228310000" lon="7.440270000">
  <ele>1352.520020</ele>
  <time>2012-05-06T14:10:29Z</time>
</trkpt>
<trkpt lat="46.228310000" lon="7.440300000">
  <ele>1352.959960</ele>
  <time>2012-05-06T14:10:30Z</time>
</trkpt>
<trkpt lat="46.228310000" lon="7.440330000">
  <ele>1353.400020</ele>
  <time>2012-05-06T14:10:31Z</time>
</trkpt>
<trkpt lat="46.228320000" lon="7.440400000">
  <ele>1353.400020</ele>
  <time>2012-05-06T14:10:33Z</time>
</trkpt>
<trkpt lat="46.228320000" lon="7.440440000">
  <ele>1353.800050</ele>
  <time>2012-05-06T14:10:34Z</time>
</trkpt>
<trkpt lat="46.228310000" lon="7.440480000">
  <ele>1354.200070</ele>
  <time>2012-05-06T14:10:35Z</time>
</trkpt>
<trkpt lat="46.228310000" lon="7.440510000">
  <ele>1354.599980</ele>
  <time>2012-05-06T14:10:36Z</time>
</trkpt>
<trkpt lat="46.228310000" lon="7.440550000">
  <ele>1355.000000</ele>
  <time>2012-05-06T14:10:37Z</time>
</trkpt>
<trkpt lat="46.228310000" lon="7.440580000">
  <ele>1355.400020</ele>
  <time>2012-05-06T14:10:38Z</time>
</trkpt>
<trkpt lat="46.228310000" lon="7.440620000">
  <ele>1355.400020</ele>
  <time>2012-05-06T14:10:39Z</time>
</trkpt>
<trkpt lat="46.228290000" lon="7.440740000">
  <ele>1356.500000</ele>
  <time>2012-05-06T14:10:43Z</time>
</trkpt>
<trkpt lat="46.228290000" lon="7.440780000">
  <ele>1356.775020</ele>
  <time>2012-05-06T14:10:44Z</time>
</trkpt>
<trkpt lat="46.228290000" lon="7.440810000">
  <ele>1357.050050</ele>
  <time>2012-05-06T14:10:45Z</time>
</trkpt>
<trkpt lat="46.228290000" lon="7.440840000">
  <ele>1357.324950</ele>
  <time>2012-05-06T14:10:46Z</time>
</trkpt>
<trkpt lat="46.228290000" lon="7.440870000">
  <ele>1357.599980</ele>
  <time>2012-05-06T14:10:47Z</time>
</trkpt>
<trkpt lat="46.228290000" lon="7.440910000">
  <ele>1357.599980</ele>
  <time>2012-05-06T14:10:48Z</time>
</trkpt>
<trkpt lat="46.228280000" lon="7.441000000">
  <ele>1358.500000</ele>
  <time>2012-05-06T14:10:51Z</time>
</trkpt>
<trkpt lat="46.228270000" lon="7.441040000">
  <ele>1358.800050</ele>
  <time>2012-05-06T14:10:52Z</time>
</trkpt>
<trkpt lat="46.228270000" lon="7.441070000">
  <ele>1359.099980</ele>
  <time>2012-05-06T14:10:53Z</time>
</trkpt>
<trkpt lat="46.228260000" lon="7.441100000">
  <ele>1359.400020</ele>
  <time>2012-05-06T14:10:54Z</time>
</trkpt>
<trkpt lat="46.228260000" lon="7.441140000">
  <ele>1359.699950</ele>
  <time>2012-05-06T14:10:55Z</time>
</trkpt>
<trkpt lat="46.228250000" lon="7.441230000">
  <ele>1360.599980</ele>
  <time>2012-05-06T14:10:58Z</time>
</trkpt>
<trkpt lat="46.228260000" lon="7.441260000">
  <ele>1360.900020</ele>
  <time>2012-05-06T14:10:59Z</time>
</trkpt>
<trkpt lat="46.228250000" lon="7.441290000">
  <ele>1361.200070</ele>
  <time>2012-05-06T14:11:00Z</time>
</trkpt>
<trkpt lat="46.228250000" lon="7.441330000">
  <ele>1361.500000</ele>
  <time>2012-05-06T14:11:01Z</time>
</trkpt>
<trkpt lat="46.228250000" lon="7.441360000">
  <ele>1361.800050</ele>
  <time>2012-05-06T14:11:02Z</time>
</trkpt>
<trkpt lat="46.228260000" lon="7.441430000">
  <ele>1361.800050</ele>
  <time>2012-05-06T14:11:04Z</time>
</trkpt>
<trkpt lat="46.228260000" lon="7.441490000">
  <ele>1362.466670</ele>
  <time>2012-05-06T14:11:06Z</time>
</trkpt>
<trkpt lat="46.228260000" lon="7.441520000">
  <ele>1362.800050</ele>
  <time>2012-05-06T14:11:07Z</time>
</trkpt>
<trkpt lat="46.228270000" lon="7.441550000">
  <ele>1363.133420</ele>
  <time>2012-05-06T14:11:08Z</time>
</trkpt>
<trkpt lat="46.228280000" lon="7.441580000">
  <ele>1363.466670</ele>
  <time>2012-05-06T14:11:09Z</time>
</trkpt>
<trkpt lat="46.228290000" lon="7.441610000">
  <ele>1363.800050</ele>
  <time>2012-05-06T14:11:10Z</time>
</trkpt>
<trkpt lat="46.228290000" lon="7.441640000">
  <ele>1363.800050</ele>
  <time>2012-05-06T14:11:11Z</time>
</trkpt>
<trkpt lat="46.228300000" lon="7.441700000">
  <ele>1364.346920</ele>
  <time>2012-05-06T14:11:13Z</time>
</trkpt>
<trkpt lat="46.228310000" lon="7.441740000">
  <ele>1364.620360</ele>
  <time>2012-05-06T14:11:14Z</time>
</trkpt>
<trkpt lat="46.228310000" lon="7.441770000">
  <ele>1364.893680</ele>
  <time>2012-05-06T14:11:15Z</time>
</trkpt>
<trkpt lat="46.228310000" lon="7.441800000">
  <ele>1365.167110</ele>
  <time>2012-05-06T14:11:16Z</time>
</trkpt>
<trkpt lat="46.228320000" lon="7.441830000">
  <ele>1365.440550</ele>
  <time>2012-05-06T14:11:17Z</time>
</trkpt>
<trkpt lat="46.228330000" lon="7.441950000">
  <ele>1366.534180</ele>
  <time>2012-05-06T14:11:21Z</time>
</trkpt>
<trkpt lat="46.228330000" lon="7.441980000">
  <ele>1366.807620</ele>
  <time>2012-05-06T14:11:22Z</time>
</trkpt>
<trkpt lat="46.228330000" lon="7.442010000">
  <ele>1367.081050</ele>
  <time>2012-05-06T14:11:23Z</time>
</trkpt>
<trkpt lat="46.228330000" lon="7.442040000">
  <ele>1367.354490</ele>
  <time>2012-05-06T14:11:24Z</time>
</trkpt>
<trkpt lat="46.228330000" lon="7.442070000">
  <ele>1367.627930</ele>
  <time>2012-05-06T14:11:25Z</time>
</trkpt>
<trkpt lat="46.228320000" lon="7.442180000">
  <ele>1368.448120</ele>
  <time>2012-05-06T14:11:28Z</time>
</trkpt>
<trkpt lat="46.228320000" lon="7.442210000">
  <ele>1368.721560</ele>
  <time>2012-05-06T14:11:29Z</time>
</trkpt>
<trkpt lat="46.228320000" lon="7.442240000">
  <ele>1368.995000</ele>
  <time>2012-05-06T14:11:30Z</time>
</trkpt>
<trkpt lat="46.228310000" lon="7.442270000">
  <ele>1369.268430</ele>
  <time>2012-05-06T14:11:31Z</time>
</trkpt>
<trkpt lat="46.228300000" lon="7.442300000">
  <ele>1369.541870</ele>
  <time>2012-05-06T14:11:32Z</time>
</trkpt>
<trkpt lat="46.228280000" lon="7.442430000">
  <ele>1370.635500</ele>
  <time>2012-05-06T14:11:36Z</time>
</trkpt>
<trkpt lat="46.228270000" lon="7.442470000">
  <ele>1370.908940</ele>
  <time>2012-05-06T14:11:37Z</time>
</trkpt>
<trkpt lat="46.228260000" lon="7.442500000">
  <ele>1371.182370</ele>
  <time>2012-05-06T14:11:38Z</time>
</trkpt>
<trkpt lat="46.228260000" lon="7.442530000">
  <ele>1371.455690</ele>
  <time>2012-05-06T14:11:39Z</time>
</trkpt>
<trkpt lat="46.228260000" lon="7.442560000">
  <ele>1371.729130</ele>
  <time>2012-05-06T14:11:40Z</time>
</trkpt>
<trkpt lat="46.228240000" lon="7.442720000">
  <ele>1373.096190</ele>
  <time>2012-05-06T14:11:45Z</time>
</trkpt>
<trkpt lat="46.228240000" lon="7.442750000">
  <ele>1373.369630</ele>
  <time>2012-05-06T14:11:46Z</time>
</trkpt>
<trkpt lat="46.228240000" lon="7.442790000">
  <ele>1373.643070</ele>
  <time>2012-05-06T14:11:47Z</time>
</trkpt>
<trkpt lat="46.228240000" lon="7.442820000">
  <ele>1373.916500</ele>
  <time>2012-05-06T14:11:48Z</time>
</trkpt>
<trkpt lat="46.228240000" lon="7.442850000">
  <ele>1374.189940</ele>
  <time>2012-05-06T14:11:49Z</time>
</trkpt>
<trkpt lat="46.228230000" lon="7.442990000">
  <ele>1375.283570</ele>
  <time>2012-05-06T14:11:53Z</time>
</trkpt>
<trkpt lat="46.228230000" lon="7.443010000">
  <ele>1375.557010</ele>
  <time>2012-05-06T14:11:54Z</time>
</trkpt>
<trkpt lat="46.228230000" lon="7.443050000">
  <ele>1375.830440</ele>
  <time>2012-05-06T14:11:55Z</time>
</trkpt>
<trkpt lat="46.228230000" lon="7.443080000">
  <ele>1376.103880</ele>
  <time>2012-05-06T14:11:56Z</time>
</trkpt>
<trkpt lat="46.228220000" lon="7.443120000">
  <ele>1376.377200</ele>
  <time>2012-05-06T14:11:57Z</time>
</trkpt>
<trkpt lat="46.228200000" lon="7.443240000">
  <ele>1377.470950</ele>
  <time>2012-05-06T14:12:01Z</time>
</trkpt>
<trkpt lat="46.228200000" lon="7.443270000">
  <ele>1377.744380</ele>
  <time>2012-05-06T14:12:02Z</time>
</trkpt>
<trkpt lat="46.228200000" lon="7.443300000">
  <ele>1378.017700</ele>
  <time>2012-05-06T14:12:03Z</time>
</trkpt>
<trkpt lat="46.228200000" lon="7.443340000">
  <ele>1378.291140</ele>
  <time>2012-05-06T14:12:04Z</time>
</trkpt>
<trkpt lat="46.228200000" lon="7.443370000">
  <ele>1378.564580</ele>
  <time>2012-05-06T14:12:05Z</time>
</trkpt>
<trkpt lat="46.228200000" lon="7.443530000">
  <ele>1379.931640</ele>
  <time>2012-05-06T14:12:10Z</time>
</trkpt>
<trkpt lat="46.228200000" lon="7.443560000">
  <ele>1380.205080</ele>
  <time>2012-05-06T14:12:11Z</time>
</trkpt>
<trkpt lat="46.228190000" lon="7.443600000">
  <ele>1380.478520</ele>
  <time>2012-05-06T14:12:12Z</time>
</trkpt>
<trkpt lat="46.228190000" lon="7.443630000">
  <ele>1380.751950</ele>
  <time>2012-05-06T14:12:13Z</time>
</trkpt>
<trkpt lat="46.228190000" lon="7.443660000">
  <ele>1381.025390</ele>
  <time>2012-05-06T14:12:14Z</time>
</trkpt>
<trkpt lat="46.228170000" lon="7.443820000">
  <ele>1382.392460</ele>
  <time>2012-05-06T14:12:19Z</time>
</trkpt>
<trkpt lat="46.228170000" lon="7.443850000">
  <ele>1382.665890</ele>
  <time>2012-05-06T14:12:20Z</time>
</trkpt>
<trkpt lat="46.228160000" lon="7.443880000">
  <ele>1382.939210</ele>
  <time>2012-05-06T14:12:21Z</time>
</trkpt>
<trkpt lat="46.228160000" lon="7.443910000">
  <ele>1383.212650</ele>
  <time>2012-05-06T14:12:22Z</time>
</trkpt>
<trkpt lat="46.228160000" lon="7.443930000">
  <ele>1383.486080</ele>
  <time>2012-05-06T14:12:23Z</time>
</trkpt>
<trkpt lat="46.228150000" lon="7.444060000">
  <ele>1384.579710</ele>
  <time>2012-05-06T14:12:27Z</time>
</trkpt>
<trkpt lat="46.228150000" lon="7.444090000">
  <ele>1384.853150</ele>
  <time>2012-05-06T14:12:28Z</time>
</trkpt>
<trkpt lat="46.228140000" lon="7.444120000">
  <ele>1385.126590</ele>
  <time>2012-05-06T14:12:29Z</time>
</trkpt>
<trkpt lat="46.228140000" lon="7.444190000">
  <ele>1385.400020</ele>
  <time>2012-05-06T14:12:30Z</time>
</trkpt>
<trkpt lat="46.228130000" lon="7.444250000">
  <ele>1385.400020</ele>
  <time>2012-05-06T14:12:33Z</time>
</trkpt>
<trkpt lat="46.228120000" lon="7.444310000">
  <ele>1386.133300</ele>
  <time>2012-05-06T14:12:35Z</time>
</trkpt>
<trkpt lat="46.228120000" lon="7.444350000">
  <ele>1386.500000</ele>
  <time>2012-05-06T14:12:36Z</time>
</trkpt>
<trkpt lat="46.228120000" lon="7.444380000">
  <ele>1386.866700</ele>
  <time>2012-05-06T14:12:37Z</time>
</trkpt>
<trkpt lat="46.228120000" lon="7.444410000">
  <ele>1387.233280</ele>
  <time>2012-05-06T14:12:38Z</time>
</trkpt>
<trkpt lat="46.228110000" lon="7.444440000">
  <ele>1387.599980</ele>
  <time>2012-05-06T14:12:39Z</time>
</trkpt>
<trkpt lat="46.228110000" lon="7.444530000">
  <ele>1387.599980</ele>
  <time>2012-05-06T14:12:42Z</time>
</trkpt>
<trkpt lat="46.228100000" lon="7.444590000">
  <ele>1388.333370</ele>
  <time>2012-05-06T14:12:44Z</time>
</trkpt>
<trkpt lat="46.228090000" lon="7.444620000">
  <ele>1388.699950</ele>
  <time>2012-05-06T14:12:45Z</time>
</trkpt>
<trkpt lat="46.228080000" lon="7.444660000">
  <ele>1389.066650</ele>
  <time>2012-05-06T14:12:46Z</time>
</trkpt>
<trkpt lat="46.228080000" lon="7.444690000">
  <ele>1389.433350</ele>
  <time>2012-05-06T14:12:47Z</time>
</trkpt>
<trkpt lat="46.228070000" lon="7.444720000">
  <ele>1389.800050</ele>
  <time>2012-05-06T14:12:48Z</time>
</trkpt>
<trkpt lat="46.228070000" lon="7.444750000">
  <ele>1389.800050</ele>
  <time>2012-05-06T14:12:49Z</time>
</trkpt>
<trkpt lat="46.228040000" lon="7.444870000">
  <ele>1390.927370</ele>
  <time>2012-05-06T14:12:53Z</time>
</trkpt>
<trkpt lat="46.228040000" lon="7.444900000">
  <ele>1391.209110</ele>
  <time>2012-05-06T14:12:54Z</time>
</trkpt>
<trkpt lat="46.228040000" lon="7.444930000">
  <ele>1391.490970</ele>
  <time>2012-05-06T14:12:55Z</time>
</trkpt>
<trkpt lat="46.228040000" lon="7.444960000">
  <ele>1391.772710</ele>
  <time>2012-05-06T14:12:56Z</time>
</trkpt>
<trkpt lat="46.228030000" lon="7.444990000">
  <ele>1392.054570</ele>
  <time>2012-05-06T14:12:57Z</time>
</trkpt>
<trkpt lat="46.228010000" lon="7.445080000">
  <ele>1392.900020</ele>
  <time>2012-05-06T14:13:00Z</time>
</trkpt>
<trkpt lat="46.228000000" lon="7.445110000">
  <ele>1393.181880</ele>
  <time>2012-05-06T14:13:01Z</time>
</trkpt>
<trkpt lat="46.228000000" lon="7.445140000">
  <ele>1393.463620</ele>
  <time>2012-05-06T14:13:02Z</time>
</trkpt>
<trkpt lat="46.227990000" lon="7.445170000">
  <ele>1393.745480</ele>
  <time>2012-05-06T14:13:03Z</time>
</trkpt>
<trkpt lat="46.227970000" lon="7.445280000">
  <ele>1394.872680</ele>
  <time>2012-05-06T14:13:07Z</time>
</trkpt>
<trkpt lat="46.227960000" lon="7.445310000">
  <ele>1395.154540</ele>
  <time>2012-05-06T14:13:08Z</time>
</trkpt>
<trkpt lat="46.227950000" lon="7.445330000">
  <ele>1395.436400</ele>
  <time>2012-05-06T14:13:09Z</time>
</trkpt>
<trkpt lat="46.227940000" lon="7.445350000">
  <ele>1395.718140</ele>
  <time>2012-05-06T14:13:10Z</time>
</trkpt>
<trkpt lat="46.227920000" lon="7.445370000">
  <ele>1396.000000</ele>
  <time>2012-05-06T14:13:11Z</time>
</trkpt>
<trkpt lat="46.227890000" lon="7.445460000">
  <ele>1396.000000</ele>
  <time>2012-05-06T14:13:14Z</time>
</trkpt>
<trkpt lat="46.227870000" lon="7.445520000">
  <ele>1396.586670</ele>
  <time>2012-05-06T14:13:16Z</time>
</trkpt>
<trkpt lat="46.227860000" lon="7.445550000">
  <ele>1396.880000</ele>
  <time>2012-05-06T14:13:17Z</time>
</trkpt>
<trkpt lat="46.227860000" lon="7.445570000">
  <ele>1397.173340</ele>
  <time>2012-05-06T14:13:18Z</time>
</trkpt>
<trkpt lat="46.227850000" lon="7.445600000">
  <ele>1397.466670</ele>
  <time>2012-05-06T14:13:19Z</time>
</trkpt>
<trkpt lat="46.227840000" lon="7.445620000">
  <ele>1397.760010</ele>
  <time>2012-05-06T14:13:20Z</time>
</trkpt>
<trkpt lat="46.227790000" lon="7.445770000">
  <ele>1399.226680</ele>
  <time>2012-05-06T14:13:25Z</time>
</trkpt>
<trkpt lat="46.227790000" lon="7.445800000">
  <ele>1399.520020</ele>
  <time>2012-05-06T14:13:26Z</time>
</trkpt>
<trkpt lat="46.227780000" lon="7.445830000">
  <ele>1399.813350</ele>
  <time>2012-05-06T14:13:27Z</time>
</trkpt>
<trkpt lat="46.227770000" lon="7.445890000">
  <ele>1400.400020</ele>
  <time>2012-05-06T14:13:29Z</time>
</trkpt>
<trkpt lat="46.227770000" lon="7.445970000">
  <ele>1400.400020</ele>
  <time>2012-05-06T14:13:32Z</time>
</trkpt>
<trkpt lat="46.227780000" lon="7.446000000">
  <ele>1400.800050</ele>
  <time>2012-05-06T14:13:33Z</time>
</trkpt>
<trkpt lat="46.227780000" lon="7.446030000">
  <ele>1401.200070</ele>
  <time>2012-05-06T14:13:34Z</time>
</trkpt>
<trkpt lat="46.227790000" lon="7.446060000">
  <ele>1401.599980</ele>
  <time>2012-05-06T14:13:35Z</time>
</trkpt>
<trkpt lat="46.227790000" lon="7.446090000">
  <ele>1402.000000</ele>
  <time>2012-05-06T14:13:36Z</time>
</trkpt>
<trkpt lat="46.227800000" lon="7.446120000">
  <ele>1402.400020</ele>
  <time>2012-05-06T14:13:37Z</time>
</trkpt>
<trkpt lat="46.227810000" lon="7.446140000">
  <ele>1402.400020</ele>
  <time>2012-05-06T14:13:38Z</time>
</trkpt>
<trkpt lat="46.227850000" lon="7.446300000">
  <ele>1403.610600</ele>
  <time>2012-05-06T14:13:43Z</time>
</trkpt>
<trkpt lat="46.227850000" lon="7.446320000">
  <ele>1403.852660</ele>
  <time>2012-05-06T14:13:44Z</time>
</trkpt>
<trkpt lat="46.227860000" lon="7.446350000">
  <ele>1404.094730</ele>
  <time>2012-05-06T14:13:45Z</time>
</trkpt>
<trkpt lat="46.227860000" lon="7.446380000">
  <ele>1404.336910</ele>
  <time>2012-05-06T14:13:46Z</time>
</trkpt>
<trkpt lat="46.227870000" lon="7.446410000">
  <ele>1404.578980</ele>
  <time>2012-05-06T14:13:47Z</time>
</trkpt>
<trkpt lat="46.227910000" lon="7.446600000">
  <ele>1406.031620</ele>
  <time>2012-05-06T14:13:53Z</time>
</trkpt>
<trkpt lat="46.227920000" lon="7.446640000">
  <ele>1406.273680</ele>
  <time>2012-05-06T14:13:54Z</time>
</trkpt>
<trkpt lat="46.227920000" lon="7.446670000">
  <ele>1406.515750</ele>
  <time>2012-05-06T14:13:55Z</time>
</trkpt>
<trkpt lat="46.227920000" lon="7.446700000">
  <ele>1406.757930</ele>
  <time>2012-05-06T14:13:56Z</time>
</trkpt>
<trkpt lat="46.227920000" lon="7.446730000">
  <ele>1407.000000</ele>
  <time>2012-05-06T14:13:57Z</time>
</trkpt>
<trkpt lat="46.227930000" lon="7.446810000">
  <ele>1407.000000</ele>
  <time>2012-05-06T14:13:59Z</time>
</trkpt>
<trkpt lat="46.227930000" lon="7.446870000">
  <ele>1407.525020</ele>
  <time>2012-05-06T14:14:01Z</time>
</trkpt>
<trkpt lat="46.227930000" lon="7.446910000">
  <ele>1407.787480</ele>
  <time>2012-05-06T14:14:02Z</time>
</trkpt>
<trkpt lat="46.227940000" lon="7.446940000">
  <ele>1408.050050</ele>
  <time>2012-05-06T14:14:03Z</time>
</trkpt>
<trkpt lat="46.227940000" lon="7.446970000">
  <ele>1408.312500</ele>
  <time>2012-05-06T14:14:04Z</time>
</trkpt>
<trkpt lat="46.227940000" lon="7.446990000">
  <ele>1408.574950</ele>
  <time>2012-05-06T14:14:05Z</time>
</trkpt>
<trkpt lat="46.227960000" lon="7.447170000">
  <ele>1410.149900</ele>
  <time>2012-05-06T14:14:11Z</time>
</trkpt>
<trkpt lat="46.227970000" lon="7.447200000">
  <ele>1410.412480</ele>
  <time>2012-05-06T14:14:12Z</time>
</trkpt>
<trkpt lat="46.227970000" lon="7.447240000">
  <ele>1410.674930</ele>
  <time>2012-05-06T14:14:13Z</time>
</trkpt>
<trkpt lat="46.227970000" lon="7.447270000">
  <ele>1410.937500</ele>
  <time>2012-05-06T14:14:14Z</time>
</trkpt>
<trkpt lat="46.227980000" lon="7.447310000">
  <ele>1411.199950</ele>
  <time>2012-05-06T14:14:15Z</time>
</trkpt>
<trkpt lat="46.228000000" lon="7.447400000">
  <ele>1411.199950</ele>
  <time>2012-05-06T14:14:18Z</time>
</trkpt>
<trkpt lat="46.228010000" lon="7.447450000">
  <ele>1411.933350</ele>
  <time>2012-05-06T14:14:20Z</time>
</trkpt>
<trkpt lat="46.228020000" lon="7.447480000">
  <ele>1412.300050</ele>
  <time>2012-05-06T14:14:21Z</time>
</trkpt>
<trkpt lat="46.228020000" lon="7.447520000">
  <ele>1412.666630</ele>
  <time>2012-05-06T14:14:22Z</time>
</trkpt>
<trkpt lat="46.228030000" lon="7.447550000">
  <ele>1413.033330</ele>
  <time>2012-05-06T14:14:23Z</time>
</trkpt>
<trkpt lat="46.228030000" lon="7.447570000">
  <ele>1413.400020</ele>
  <time>2012-05-06T14:14:24Z</time>
</trkpt>
<trkpt lat="46.228040000" lon="7.447600000">
  <ele>1413.400020</ele>
  <time>2012-05-06T14:14:25Z</time>
</trkpt>
<trkpt lat="46.228060000" lon="7.447710000">
  <ele>1414.542850</ele>
  <time>2012-05-06T14:14:29Z</time>
</trkpt>
<trkpt lat="46.228070000" lon="7.447740000">
  <ele>1414.828610</ele>
  <time>2012-05-06T14:14:30Z</time>
</trkpt>
<trkpt lat="46.228070000" lon="7.447780000">
  <ele>1415.114260</ele>
  <time>2012-05-06T14:14:31Z</time>
</trkpt>
<trkpt lat="46.228080000" lon="7.447840000">
  <ele>1415.400020</ele>
  <time>2012-05-06T14:14:32Z</time>
</trkpt>
<trkpt lat="46.228100000" lon="7.448010000">
  <ele>1415.400020</ele>
  <time>2012-05-06T14:14:38Z</time>
</trkpt>
<trkpt lat="46.228110000" lon="7.448040000">
  <ele>1415.723140</ele>
  <time>2012-05-06T14:14:39Z</time>
</trkpt>
<trkpt lat="46.228110000" lon="7.448070000">
  <ele>1416.046140</ele>
  <time>2012-05-06T14:14:40Z</time>
</trkpt>
<trkpt lat="46.228120000" lon="7.448100000">
  <ele>1416.369260</ele>
  <time>2012-05-06T14:14:41Z</time>
</trkpt>
<trkpt lat="46.228130000" lon="7.448120000">
  <ele>1416.692260</ele>
  <time>2012-05-06T14:14:42Z</time>
</trkpt>
<trkpt lat="46.228130000" lon="7.448150000">
  <ele>1417.015380</ele>
  <time>2012-05-06T14:14:43Z</time>
</trkpt>
<trkpt lat="46.228140000" lon="7.448270000">
  <ele>1418.307740</ele>
  <time>2012-05-06T14:14:47Z</time>
</trkpt>
<trkpt lat="46.228150000" lon="7.448300000">
  <ele>1418.630740</ele>
  <time>2012-05-06T14:14:48Z</time>
</trkpt>
<trkpt lat="46.228160000" lon="7.448340000">
  <ele>1418.953860</ele>
  <time>2012-05-06T14:14:49Z</time>
</trkpt>
<trkpt lat="46.228160000" lon="7.448380000">
  <ele>1419.276860</ele>
  <time>2012-05-06T14:14:50Z</time>
</trkpt>
<trkpt lat="46.228170000" lon="7.448410000">
  <ele>1419.599980</ele>
  <time>2012-05-06T14:14:51Z</time>
</trkpt>
<trkpt lat="46.228200000" lon="7.448550000">
  <ele>1419.599980</ele>
  <time>2012-05-06T14:14:55Z</time>
</trkpt>
<trkpt lat="46.228200000" lon="7.448700000">
  <ele>1420.588260</ele>
  <time>2012-05-06T14:14:59Z</time>
</trkpt>
<trkpt lat="46.228200000" lon="7.448740000">
  <ele>1420.835330</ele>
  <time>2012-05-06T14:15:00Z</time>
</trkpt>
<trkpt lat="46.228190000" lon="7.448770000">
  <ele>1421.082400</ele>
  <time>2012-05-06T14:15:01Z</time>
</trkpt>
<trkpt lat="46.228180000" lon="7.448810000">
  <ele>1421.329470</ele>
  <time>2012-05-06T14:15:02Z</time>
</trkpt>
<trkpt lat="46.228130000" lon="7.449020000">
  <ele>1422.811770</ele>
  <time>2012-05-06T14:15:08Z</time>
</trkpt>
<trkpt lat="46.228120000" lon="7.449060000">
  <ele>1423.058840</ele>
  <time>2012-05-06T14:15:09Z</time>
</trkpt>
<trkpt lat="46.228110000" lon="7.449100000">
  <ele>1423.305910</ele>
  <time>2012-05-06T14:15:10Z</time>
</trkpt>
<trkpt lat="46.228110000" lon="7.449130000">
  <ele>1423.552980</ele>
  <time>2012-05-06T14:15:11Z</time>
</trkpt>
<trkpt lat="46.228100000" lon="7.449170000">
  <ele>1423.800050</ele>
  <time>2012-05-06T14:15:12Z</time>
</trkpt>
<trkpt lat="46.228090000" lon="7.449270000">
  <ele>1423.800050</ele>
  <time>2012-05-06T14:15:15Z</time>
</trkpt>
<trkpt lat="46.228070000" lon="7.449450000">
  <ele>1424.911130</ele>
  <time>2012-05-06T14:15:20Z</time>
</trkpt>
<trkpt lat="46.228070000" lon="7.449480000">
  <ele>1425.133420</ele>
  <time>2012-05-06T14:15:21Z</time>
</trkpt>
<trkpt lat="46.228060000" lon="7.449510000">
  <ele>1425.355590</ele>
  <time>2012-05-06T14:15:22Z</time>
</trkpt>
<trkpt lat="46.228060000" lon="7.449550000">
  <ele>1425.577880</ele>
  <time>2012-05-06T14:15:23Z</time>
</trkpt>
<trkpt lat="46.228050000" lon="7.449580000">
  <ele>1425.800050</ele>
  <time>2012-05-06T14:15:24Z</time>
</trkpt>
<trkpt lat="46.228020000" lon="7.449760000">
  <ele>1426.911130</ele>
  <time>2012-05-06T14:15:29Z</time>
</trkpt>
<trkpt lat="46.228020000" lon="7.449790000">
  <ele>1427.133420</ele>
  <time>2012-05-06T14:15:30Z</time>
</trkpt>
<trkpt lat="46.228010000" lon="7.449830000">
  <ele>1427.355590</ele>
  <time>2012-05-06T14:15:31Z</time>
</trkpt>
<trkpt lat="46.228000000" lon="7.449860000">
  <ele>1427.577880</ele>
  <time>2012-05-06T14:15:32Z</time>
</trkpt>
<trkpt lat="46.228000000" lon="7.449890000">
  <ele>1427.800050</ele>
  <time>2012-05-06T14:15:33Z</time>
</trkpt>
<trkpt lat="46.227970000" lon="7.449990000">
  <ele>1427.800050</ele>
  <time>2012-05-06T14:15:36Z</time>
</trkpt>
<trkpt lat="46.227960000" lon="7.450010000">
  <ele>1428.114380</ele>
  <time>2012-05-06T14:15:37Z</time>
</trkpt>
<trkpt lat="46.227950000" lon="7.450080000">
  <ele>1428.742920</ele>
  <time>2012-05-06T14:15:39Z</time>
</trkpt>
<trkpt lat="46.227940000" lon="7.450110000">
  <ele>1429.057130</ele>
  <time>2012-05-06T14:15:40Z</time>
</trkpt>
<trkpt lat="46.227930000" lon="7.450150000">
  <ele>1429.371460</ele>
  <time>2012-05-06T14:15:41Z</time>
</trkpt>
<trkpt lat="46.227930000" lon="7.450180000">
  <ele>1429.685670</ele>
  <time>2012-05-06T14:15:42Z</time>
</trkpt>
<trkpt lat="46.227920000" lon="7.450220000">
  <ele>1430.000000</ele>
  <time>2012-05-06T14:15:43Z</time>
</trkpt>
<trkpt lat="46.227910000" lon="7.450420000">
  <ele>1430.000000</ele>
  <time>2012-05-06T14:15:48Z</time>
</trkpt>
<trkpt lat="46.227910000" lon="7.450460000">
  <ele>1430.400020</ele>
  <time>2012-05-06T14:15:49Z</time>
</trkpt>
<trkpt lat="46.227920000" lon="7.450500000">
  <ele>1430.800050</ele>
  <time>2012-05-06T14:15:50Z</time>
</trkpt>
<trkpt lat="46.227920000" lon="7.450540000">
  <ele>1431.199950</ele>
  <time>2012-05-06T14:15:51Z</time>
</trkpt>
<trkpt lat="46.227930000" lon="7.450580000">
  <ele>1431.599980</ele>
  <time>2012-05-06T14:15:52Z</time>
</trkpt>
<trkpt lat="46.227930000" lon="7.450620000">
  <ele>1432.000000</ele>
  <time>2012-05-06T14:15:53Z</time>
</trkpt>
<trkpt lat="46.227930000" lon="7.450700000">
  <ele>1432.000000</ele>
  <time>2012-05-06T14:15:55Z</time>
</trkpt>
<trkpt lat="46.227860000" lon="7.450920000">
  <ele>1433.000000</ele>
  <time>2012-05-06T14:16:01Z</time>
</trkpt>
<trkpt lat="46.227840000" lon="7.451000000">
  <ele>1433.333370</ele>
  <time>2012-05-06T14:16:03Z</time>
</trkpt>
<trkpt lat="46.227820000" lon="7.451040000">
  <ele>1433.500000</ele>
  <time>2012-05-06T14:16:04Z</time>
</trkpt>
<trkpt lat="46.227800000" lon="7.451080000">
  <ele>1433.666630</ele>
  <time>2012-05-06T14:16:05Z</time>
</trkpt>
<trkpt lat="46.227780000" lon="7.451120000">
  <ele>1433.833370</ele>
  <time>2012-05-06T14:16:06Z</time>
</trkpt>
<trkpt lat="46.227760000" lon="7.451160000">
  <ele>1434.000000</ele>
  <time>2012-05-06T14:16:07Z</time>
</trkpt>
<trkpt lat="46.227750000" lon="7.451200000">
  <ele>1434.000000</ele>
  <time>2012-05-06T14:16:08Z</time>
</trkpt>
<trkpt lat="46.227640000" lon="7.451500000">
  <ele>1435.283330</ele>
  <time>2012-05-06T14:16:15Z</time>
</trkpt>
<trkpt lat="46.227620000" lon="7.451540000">
  <ele>1435.466670</ele>
  <time>2012-05-06T14:16:16Z</time>
</trkpt>
<trkpt lat="46.227610000" lon="7.451580000">
  <ele>1435.649900</ele>
  <time>2012-05-06T14:16:17Z</time>
</trkpt>
<trkpt lat="46.227600000" lon="7.451620000">
  <ele>1435.833250</ele>
  <time>2012-05-06T14:16:18Z</time>
</trkpt>
<trkpt lat="46.227580000" lon="7.451660000">
  <ele>1436.016600</ele>
  <time>2012-05-06T14:16:19Z</time>
</trkpt>
<trkpt lat="46.227560000" lon="7.451700000">
  <ele>1436.199950</ele>
  <time>2012-05-06T14:16:20Z</time>
</trkpt>
<trkpt lat="46.227530000" lon="7.451790000">
  <ele>1436.199950</ele>
  <time>2012-05-06T14:16:22Z</time>
</trkpt>
<trkpt lat="46.227430000" lon="7.452030000">
  <ele>1436.800050</ele>
  <time>2012-05-06T14:16:28Z</time>
</trkpt>
<trkpt lat="46.227410000" lon="7.452070000">
  <ele>1436.900020</ele>
  <time>2012-05-06T14:16:29Z</time>
</trkpt>
<trkpt lat="46.227350000" lon="7.452350000">
  <ele>1437.400020</ele>
  <time>2012-05-06T14:16:34Z</time>
</trkpt>
<trkpt lat="46.227350000" lon="7.452350000">
  <ele>1437.400020</ele>
  <time>2012-05-06T14:16:35Z</time>
</trkpt>
<trkpt lat="46.227330000" lon="7.452410000">
  <ele>1437.800050</ele>
  <time>2012-05-06T14:16:36Z</time>
</trkpt>
<trkpt lat="46.227320000" lon="7.452450000">
  <ele>1438.199950</ele>
  <time>2012-05-06T14:16:37Z</time>
</trkpt>
<trkpt lat="46.227280000" lon="7.452570000">
  <ele>1438.199950</ele>
  <time>2012-05-06T14:16:40Z</time>
</trkpt>
<trkpt lat="46.227260000" lon="7.452600000">
  <ele>1438.640010</ele>
  <time>2012-05-06T14:16:41Z</time>
</trkpt>
<trkpt lat="46.227240000" lon="7.452630000">
  <ele>1439.079960</ele>
  <time>2012-05-06T14:16:42Z</time>
</trkpt>
<trkpt lat="46.227220000" lon="7.452670000">
  <ele>1439.520020</ele>
  <time>2012-05-06T14:16:43Z</time>
</trkpt>
<trkpt lat="46.227210000" lon="7.452710000">
  <ele>1439.959960</ele>
  <time>2012-05-06T14:16:44Z</time>
</trkpt>
<trkpt lat="46.227200000" lon="7.452740000">
  <ele>1440.400020</ele>
  <time>2012-05-06T14:16:45Z</time>
</trkpt>
<trkpt lat="46.227180000" lon="7.452780000">
  <ele>1440.400020</ele>
  <time>2012-05-06T14:16:46Z</time>
</trkpt>
<trkpt lat="46.227100000" lon="7.452900000">
  <ele>1441.400020</ele>
  <time>2012-05-06T14:16:50Z</time>
</trkpt>
<trkpt lat="46.227080000" lon="7.452940000">
  <ele>1441.650020</ele>
  <time>2012-05-06T14:16:51Z</time>
</trkpt>
<trkpt lat="46.227060000" lon="7.452970000">
  <ele>1441.900020</ele>
  <time>2012-05-06T14:16:52Z</time>
</trkpt>
<trkpt lat="46.227040000" lon="7.453010000">
  <ele>1442.150020</ele>
  <time>2012-05-06T14:16:53Z</time>
</trkpt>
<trkpt lat="46.227020000" lon="7.453040000">
  <ele>1442.400020</ele>
  <time>2012-05-06T14:16:54Z</time>
</trkpt>
<trkpt lat="46.226980000" lon="7.453260000">
  <ele>1442.400020</ele>
  <time>2012-05-06T14:16:59Z</time>
</trkpt>
<trkpt lat="46.226980000" lon="7.453520000">
  <ele>1443.719970</ele>
  <time>2012-05-06T14:17:05Z</time>
</trkpt>
<trkpt lat="46.226990000" lon="7.453570000">
  <ele>1443.939940</ele>
  <time>2012-05-06T14:17:06Z</time>
</trkpt>
<trkpt lat="46.226990000" lon="7.453620000">
  <ele>1444.160030</ele>
  <time>2012-05-06T14:17:07Z</time>
</trkpt>
<trkpt lat="46.227000000" lon="7.453660000">
  <ele>1444.380000</ele>
  <time>2012-05-06T14:17:08Z</time>
</trkpt>
<trkpt lat="46.227010000" lon="7.453710000">
  <ele>1444.599980</ele>
  <time>2012-05-06T14:17:09Z</time>
</trkpt>
<trkpt lat="46.227030000" lon="7.453900000">
  <ele>1444.599980</ele>
  <time>2012-05-06T14:17:13Z</time>
</trkpt>
<trkpt lat="46.227020000" lon="7.454030000">
  <ele>1445.542850</ele>
  <time>2012-05-06T14:17:16Z</time>
</trkpt>
<trkpt lat="46.227010000" lon="7.454070000">
  <ele>1445.857180</ele>
  <time>2012-05-06T14:17:17Z</time>
</trkpt>
<trkpt lat="46.227000000" lon="7.454110000">
  <ele>1446.171510</ele>
  <time>2012-05-06T14:17:18Z</time>
</trkpt>
<trkpt lat="46.226990000" lon="7.454150000">
  <ele>1446.485720</ele>
  <time>2012-05-06T14:17:19Z</time>
</trkpt>
<trkpt lat="46.226980000" lon="7.454180000">
  <ele>1446.800050</ele>
  <time>2012-05-06T14:17:20Z</time>
</trkpt>
<trkpt lat="46.226930000" lon="7.454370000">
  <ele>1446.800050</ele>
  <time>2012-05-06T14:17:24Z</time>
</trkpt>
<trkpt lat="46.226850000" lon="7.454690000">
  <ele>1448.072750</ele>
  <time>2012-05-06T14:17:31Z</time>
</trkpt>
<trkpt lat="46.226840000" lon="7.454730000">
  <ele>1448.254640</ele>
  <time>2012-05-06T14:17:32Z</time>
</trkpt>
<trkpt lat="46.226820000" lon="7.454780000">
  <ele>1448.436400</ele>
  <time>2012-05-06T14:17:33Z</time>
</trkpt>
<trkpt lat="46.226800000" lon="7.454820000">
  <ele>1448.618290</ele>
  <time>2012-05-06T14:17:34Z</time>
</trkpt>
<trkpt lat="46.226780000" lon="7.454870000">
  <ele>1448.800050</ele>
  <time>2012-05-06T14:17:35Z</time>
</trkpt>
<trkpt lat="46.226720000" lon="7.455010000">
  <ele>1448.800050</ele>
  <time>2012-05-06T14:17:38Z</time>
</trkpt>
<trkpt lat="46.226610000" lon="7.455320000">
  <ele>1449.466670</ele>
  <time>2012-05-06T14:17:45Z</time>
</trkpt>
<trkpt lat="46.226590000" lon="7.455370000">
  <ele>1449.562010</ele>
  <time>2012-05-06T14:17:46Z</time>
</trkpt>
<trkpt lat="46.226470000" lon="7.455710000">
  <ele>1450.228640</ele>
  <time>2012-05-06T14:17:53Z</time>
</trkpt>
<trkpt lat="46.226430000" lon="7.455800000">
  <ele>1450.419070</ele>
  <time>2012-05-06T14:17:55Z</time>
</trkpt>
<trkpt lat="46.226420000" lon="7.455850000">
  <ele>1450.514280</ele>
  <time>2012-05-06T14:17:56Z</time>
</trkpt>
<trkpt lat="46.226400000" lon="7.455900000">
  <ele>1450.609620</ele>
  <time>2012-05-06T14:17:57Z</time>
</trkpt>
<trkpt lat="46.226380000" lon="7.455950000">
  <ele>1450.704830</ele>
  <time>2012-05-06T14:17:58Z</time>
</trkpt>
<trkpt lat="46.226370000" lon="7.455990000">
  <ele>1450.800050</ele>
  <time>2012-05-06T14:17:59Z</time>
</trkpt>
<trkpt lat="46.226300000" lon="7.456320000">
  <ele>1450.800050</ele>
  <time>2012-05-06T14:18:05Z</time>
</trkpt>
<trkpt lat="46.226280000" lon="7.456550000">
  <ele>1451.103520</ele>
  <time>2012-05-06T14:18:09Z</time>
</trkpt>
<trkpt lat="46.226270000" lon="7.456610000">
  <ele>1451.179320</ele>
  <time>2012-05-06T14:18:10Z</time>
</trkpt>
<trkpt lat="46.226250000" lon="7.456960000">
  <ele>1451.634520</ele>
  <time>2012-05-06T14:18:16Z</time>
</trkpt>
<trkpt lat="46.226250000" lon="7.457370000">
  <ele>1452.165530</ele>
  <time>2012-05-06T14:18:23Z</time>
</trkpt>
<trkpt lat="46.226220000" lon="7.457740000">
  <ele>1452.696530</ele>
  <time>2012-05-06T14:18:30Z</time>
</trkpt>
<trkpt lat="46.226220000" lon="7.457780000">
  <ele>1452.772460</ele>
  <time>2012-05-06T14:18:31Z</time>
</trkpt>
<trkpt lat="46.226210000" lon="7.457820000">
  <ele>1452.848270</ele>
  <time>2012-05-06T14:18:32Z</time>
</trkpt>
<trkpt lat="46.226210000" lon="7.457860000">
  <ele>1452.924190</ele>
  <time>2012-05-06T14:18:33Z</time>
</trkpt>
<trkpt lat="46.226210000" lon="7.457910000">
  <ele>1453.000000</ele>
  <time>2012-05-06T14:18:34Z</time>
</trkpt>
<trkpt lat="46.226200000" lon="7.457950000">
  <ele>1453.000000</ele>
  <time>2012-05-06T14:18:35Z</time>
</trkpt>
<trkpt lat="46.226150000" lon="7.458160000">
  <ele>1454.222170</ele>
  <time>2012-05-06T14:18:40Z</time>
</trkpt>
<trkpt lat="46.226130000" lon="7.458200000">
  <ele>1454.466670</ele>
  <time>2012-05-06T14:18:41Z</time>
</trkpt>
<trkpt lat="46.226110000" lon="7.458240000">
  <ele>1454.711060</ele>
  <time>2012-05-06T14:18:42Z</time>
</trkpt>
<trkpt lat="46.226090000" lon="7.458280000">
  <ele>1454.955570</ele>
  <time>2012-05-06T14:18:43Z</time>
</trkpt>
<trkpt lat="46.226070000" lon="7.458310000">
  <ele>1455.199950</ele>
  <time>2012-05-06T14:18:44Z</time>
</trkpt>
<trkpt lat="46.226000000" lon="7.458390000">
  <ele>1455.199950</ele>
  <time>2012-05-06T14:18:47Z</time>
</trkpt>
<trkpt lat="46.225980000" lon="7.458420000">
  <ele>1455.640010</ele>
  <time>2012-05-06T14:18:48Z</time>
</trkpt>
<trkpt lat="46.225950000" lon="7.458450000">
  <ele>1456.079960</ele>
  <time>2012-05-06T14:18:49Z</time>
</trkpt>
<trkpt lat="46.225920000" lon="7.458470000">
  <ele>1456.520020</ele>
  <time>2012-05-06T14:18:50Z</time>
</trkpt>
<trkpt lat="46.225890000" lon="7.458500000">
  <ele>1456.959960</ele>
  <time>2012-05-06T14:18:51Z</time>
</trkpt>
<trkpt lat="46.225870000" lon="7.458520000">
  <ele>1457.400020</ele>
  <time>2012-05-06T14:18:52Z</time>
</trkpt>
<trkpt lat="46.225850000" lon="7.458540000">
  <ele>1457.400020</ele>
  <time>2012-05-06T14:18:53Z</time>
</trkpt>
<trkpt lat="46.225720000" lon="7.458720000">
  <ele>1458.726320</ele>
  <time>2012-05-06T14:18:59Z</time>
</trkpt>
<trkpt lat="46.225680000" lon="7.458790000">
  <ele>1459.168460</ele>
  <time>2012-05-06T14:19:01Z</time>
</trkpt>
<trkpt lat="46.225670000" lon="7.458830000">
  <ele>1459.389530</ele>
  <time>2012-05-06T14:19:02Z</time>
</trkpt>
<trkpt lat="46.225660000" lon="7.458870000">
  <ele>1459.610470</ele>
  <time>2012-05-06T14:19:03Z</time>
</trkpt>
<trkpt lat="46.225650000" lon="7.458910000">
  <ele>1459.831540</ele>
  <time>2012-05-06T14:19:04Z</time>
</trkpt>
<trkpt lat="46.225640000" lon="7.458960000">
  <ele>1460.052610</ele>
  <time>2012-05-06T14:19:05Z</time>
</trkpt>
<trkpt lat="46.225620000" lon="7.459130000">
  <ele>1460.936770</ele>
  <time>2012-05-06T14:19:09Z</time>
</trkpt>
<trkpt lat="46.225610000" lon="7.459160000">
  <ele>1461.157840</ele>
  <time>2012-05-06T14:19:10Z</time>
</trkpt>
<trkpt lat="46.225600000" lon="7.459190000">
  <ele>1461.378910</ele>
  <time>2012-05-06T14:19:11Z</time>
</trkpt>
<trkpt lat="46.225590000" lon="7.459220000">
  <ele>1461.599980</ele>
  <time>2012-05-06T14:19:12Z</time>
</trkpt>
<trkpt lat="46.225560000" lon="7.459340000">
  <ele>1461.599980</ele>
  <time>2012-05-06T14:19:15Z</time>
</trkpt>
<trkpt lat="46.225560000" lon="7.459380000">
  <ele>1461.880000</ele>
  <time>2012-05-06T14:19:16Z</time>
</trkpt>
<trkpt lat="46.225560000" lon="7.459420000">
  <ele>1462.160030</ele>
  <time>2012-05-06T14:19:17Z</time>
</trkpt>
<trkpt lat="46.225560000" lon="7.459460000">
  <ele>1462.439940</ele>
  <time>2012-05-06T14:19:18Z</time>
</trkpt>
<trkpt lat="46.225560000" lon="7.459500000">
  <ele>1462.719970</ele>
  <time>2012-05-06T14:19:19Z</time>
</trkpt>
<trkpt lat="46.225550000" lon="7.459530000">
  <ele>1463.000000</ele>
  <time>2012-05-06T14:19:20Z</time>
</trkpt>
<trkpt lat="46.225530000" lon="7.459800000">
  <ele>1464.680050</ele>
  <time>2012-05-06T14:19:26Z</time>
</trkpt>
<trkpt lat="46.225530000" lon="7.459840000">
  <ele>1464.960080</ele>
  <time>2012-05-06T14:19:27Z</time>
</trkpt>
<trkpt lat="46.225540000" lon="7.459880000">
  <ele>1465.239990</ele>
  <time>2012-05-06T14:19:28Z</time>
</trkpt>
<trkpt lat="46.225540000" lon="7.459920000">
  <ele>1465.520020</ele>
  <time>2012-05-06T14:19:29Z</time>
</trkpt>
<trkpt lat="46.225540000" lon="7.459960000">
  <ele>1465.800050</ele>
  <time>2012-05-06T14:19:30Z</time>
</trkpt>
<trkpt lat="46.225540000" lon="7.460050000">
  <ele>1465.800050</ele>
  <time>2012-05-06T14:19:32Z</time>
</trkpt>
<trkpt lat="46.225550000" lon="7.460130000">
  <ele>1466.371460</ele>
  <time>2012-05-06T14:19:34Z</time>
</trkpt>
<trkpt lat="46.225570000" lon="7.460210000">
  <ele>1466.942870</ele>
  <time>2012-05-06T14:19:36Z</time>
</trkpt>
<trkpt lat="46.225580000" lon="7.460250000">
  <ele>1467.228640</ele>
  <time>2012-05-06T14:19:37Z</time>
</trkpt>
<trkpt lat="46.225590000" lon="7.460290000">
  <ele>1467.514280</ele>
  <time>2012-05-06T14:19:38Z</time>
</trkpt>
<trkpt lat="46.225600000" lon="7.460320000">
  <ele>1467.800050</ele>
  <time>2012-05-06T14:19:39Z</time>
</trkpt>
<trkpt lat="46.225640000" lon="7.460460000">
  <ele>1467.800050</ele>
  <time>2012-05-06T14:19:43Z</time>
</trkpt>
<trkpt lat="46.225680000" lon="7.460640000">
  <ele>1469.022220</ele>
  <time>2012-05-06T14:19:48Z</time>
</trkpt>
<trkpt lat="46.225690000" lon="7.460680000">
  <ele>1469.266720</ele>
  <time>2012-05-06T14:19:49Z</time>
</trkpt>
<trkpt lat="46.225710000" lon="7.460710000">
  <ele>1469.511110</ele>
  <time>2012-05-06T14:19:50Z</time>
</trkpt>
<trkpt lat="46.225730000" lon="7.460750000">
  <ele>1469.755620</ele>
  <time>2012-05-06T14:19:51Z</time>
</trkpt>
<trkpt lat="46.225750000" lon="7.460780000">
  <ele>1470.000000</ele>
  <time>2012-05-06T14:19:52Z</time>
</trkpt>
<trkpt lat="46.225850000" lon="7.460940000">
  <ele>1470.000000</ele>
  <time>2012-05-06T14:19:57Z</time>
</trkpt>
<trkpt lat="46.225940000" lon="7.461050000">
  <ele>1471.099980</ele>
  <time>2012-05-06T14:20:01Z</time>
</trkpt>
<trkpt lat="46.225970000" lon="7.461080000">
  <ele>1471.375000</ele>
  <time>2012-05-06T14:20:02Z</time>
</trkpt>
<trkpt lat="46.225990000" lon="7.461100000">
  <ele>1471.649900</ele>
  <time>2012-05-06T14:20:03Z</time>
</trkpt>
<trkpt lat="46.226010000" lon="7.461130000">
  <ele>1471.924930</ele>
  <time>2012-05-06T14:20:04Z</time>
</trkpt>
<trkpt lat="46.226040000" lon="7.461160000">
  <ele>1472.199950</ele>
  <time>2012-05-06T14:20:05Z</time>
</trkpt>
<trkpt lat="46.226140000" lon="7.461310000">
  <ele>1472.199950</ele>
  <time>2012-05-06T14:20:10Z</time>
</trkpt>
<trkpt lat="46.226220000" lon="7.461500000">
  <ele>1473.422240</ele>
  <time>2012-05-06T14:20:15Z</time>
</trkpt>
<trkpt lat="46.226230000" lon="7.461540000">
  <ele>1473.666630</ele>
  <time>2012-05-06T14:20:16Z</time>
</trkpt>
<trkpt lat="46.226240000" lon="7.461580000">
  <ele>1473.911130</ele>
  <time>2012-05-06T14:20:17Z</time>
</trkpt>
<trkpt lat="46.226250000" lon="7.461630000">
  <ele>1474.155520</ele>
  <time>2012-05-06T14:20:18Z</time>
</trkpt>
<trkpt lat="46.226260000" lon="7.461670000">
  <ele>1474.400020</ele>
  <time>2012-05-06T14:20:19Z</time>
</trkpt>
<trkpt lat="46.226260000" lon="7.461750000">
  <ele>1474.400020</ele>
  <time>2012-05-06T14:20:21Z</time>
</trkpt>
<trkpt lat="46.226240000" lon="7.461780000">
  <ele>1474.599980</ele>
  <time>2012-05-06T14:20:22Z</time>
</trkpt>
<trkpt lat="46.226170000" lon="7.461760000">
  <ele>1475.200070</ele>
  <time>2012-05-06T14:20:25Z</time>
</trkpt>
<trkpt lat="46.226120000" lon="7.461700000">
  <ele>1475.599980</ele>
  <time>2012-05-06T14:20:27Z</time>
</trkpt>
<trkpt lat="46.226100000" lon="7.461670000">
  <ele>1475.800050</ele>
  <time>2012-05-06T14:20:28Z</time>
</trkpt>
<trkpt lat="46.226080000" lon="7.461640000">
  <ele>1476.000000</ele>
  <time>2012-05-06T14:20:29Z</time>
</trkpt>
<trkpt lat="46.226060000" lon="7.461620000">
  <ele>1476.200070</ele>
  <time>2012-05-06T14:20:30Z</time>
</trkpt>
<trkpt lat="46.226040000" lon="7.461590000">
  <ele>1476.400020</ele>
  <time>2012-05-06T14:20:31Z</time>
</trkpt>
<trkpt lat="46.225850000" lon="7.461440000">
  <ele>1476.400020</ele>
  <time>2012-05-06T14:20:39Z</time>
</trkpt>
<trkpt lat="46.225830000" lon="7.461420000">
  <ele>1476.781860</ele>
  <time>2012-05-06T14:20:40Z</time>
</trkpt>
<trkpt lat="46.225800000" lon="7.461410000">
  <ele>1477.163700</ele>
  <time>2012-05-06T14:20:41Z</time>
</trkpt>
<trkpt lat="46.225770000" lon="7.461400000">
  <ele>1477.545410</ele>
  <time>2012-05-06T14:20:42Z</time>
</trkpt>
<trkpt lat="46.225750000" lon="7.461390000">
  <ele>1477.927250</ele>
  <time>2012-05-06T14:20:43Z</time>
</trkpt>
<trkpt lat="46.225720000" lon="7.461390000">
  <ele>1478.309080</ele>
  <time>2012-05-06T14:20:44Z</time>
</trkpt>
<trkpt lat="46.225640000" lon="7.461370000">
  <ele>1479.454590</ele>
  <time>2012-05-06T14:20:47Z</time>
</trkpt>
<trkpt lat="46.225610000" lon="7.461360000">
  <ele>1479.836300</ele>
  <time>2012-05-06T14:20:48Z</time>
</trkpt>
<trkpt lat="46.225580000" lon="7.461350000">
  <ele>1480.218140</ele>
  <time>2012-05-06T14:20:49Z</time>
</trkpt>
<trkpt lat="46.225560000" lon="7.461340000">
  <ele>1480.599980</ele>
  <time>2012-05-06T14:20:50Z</time>
</trkpt>
<trkpt lat="46.225460000" lon="7.461280000">
  <ele>1480.599980</ele>
  <time>2012-05-06T14:20:54Z</time>
</trkpt>
<trkpt lat="46.225420000" lon="7.461230000">
  <ele>1481.228520</ele>
  <time>2012-05-06T14:20:56Z</time>
</trkpt>
<trkpt lat="46.225400000" lon="7.461200000">
  <ele>1481.542850</ele>
  <time>2012-05-06T14:20:57Z</time>
</trkpt>
<trkpt lat="46.225380000" lon="7.461170000">
  <ele>1481.857180</ele>
  <time>2012-05-06T14:20:58Z</time>
</trkpt>
<trkpt lat="46.225360000" lon="7.461140000">
  <ele>1482.171390</ele>
  <time>2012-05-06T14:20:59Z</time>
</trkpt>
<trkpt lat="46.225350000" lon="7.461100000">
  <ele>1482.485720</ele>
  <time>2012-05-06T14:21:00Z</time>
</trkpt>
<trkpt lat="46.225270000" lon="7.460970000">
  <ele>1483.742800</ele>
  <time>2012-05-06T14:21:04Z</time>
</trkpt>
<trkpt lat="46.225250000" lon="7.460960000">
  <ele>1484.057130</ele>
  <time>2012-05-06T14:21:05Z</time>
</trkpt>
<trkpt lat="46.225220000" lon="7.460950000">
  <ele>1484.371460</ele>
  <time>2012-05-06T14:21:06Z</time>
</trkpt>
<trkpt lat="46.225190000" lon="7.460950000">
  <ele>1484.685670</ele>
  <time>2012-05-06T14:21:07Z</time>
</trkpt>
<trkpt lat="46.225170000" lon="7.460970000">
  <ele>1485.000000</ele>
  <time>2012-05-06T14:21:08Z</time>
</trkpt>
<trkpt lat="46.225140000" lon="7.460990000">
  <ele>1485.000000</ele>
  <time>2012-05-06T14:21:09Z</time>
</trkpt>
<trkpt lat="46.225110000" lon="7.461110000">
  <ele>1485.599980</ele>
  <time>2012-05-06T14:21:12Z</time>
</trkpt>
<trkpt lat="46.225120000" lon="7.461150000">
  <ele>1485.800050</ele>
  <time>2012-05-06T14:21:13Z</time>
</trkpt>
<trkpt lat="46.225160000" lon="7.461260000">
  <ele>1486.400020</ele>
  <time>2012-05-06T14:21:16Z</time>
</trkpt>
<trkpt lat="46.225200000" lon="7.461310000">
  <ele>1486.800050</ele>
  <time>2012-05-06T14:21:18Z</time>
</trkpt>
<trkpt lat="46.225280000" lon="7.461410000">
  <ele>1487.599980</ele>
  <time>2012-05-06T14:21:22Z</time>
</trkpt>
<trkpt lat="46.225310000" lon="7.461430000">
  <ele>1487.799930</ele>
  <time>2012-05-06T14:21:23Z</time>
</trkpt>
<trkpt lat="46.225330000" lon="7.461450000">
  <ele>1488.000000</ele>
  <time>2012-05-06T14:21:24Z</time>
</trkpt>
<trkpt lat="46.225360000" lon="7.461460000">
  <ele>1488.199950</ele>
  <time>2012-05-06T14:21:25Z</time>
</trkpt>
<trkpt lat="46.225380000" lon="7.461490000">
  <ele>1488.400020</ele>
  <time>2012-05-06T14:21:26Z</time>
</trkpt>
<trkpt lat="46.225420000" lon="7.461530000">
  <ele>1488.799930</ele>
  <time>2012-05-06T14:21:28Z</time>
</trkpt>
<trkpt lat="46.225450000" lon="7.461540000">
  <ele>1489.000000</ele>
  <time>2012-05-06T14:21:29Z</time>
</trkpt>
<trkpt lat="46.225470000" lon="7.461560000">
  <ele>1489.199950</ele>
  <time>2012-05-06T14:21:30Z</time>
</trkpt>
<trkpt lat="46.225490000" lon="7.461580000">
  <ele>1489.400020</ele>
  <time>2012-05-06T14:21:31Z</time>
</trkpt>
<trkpt lat="46.225510000" lon="7.461600000">
  <ele>1489.599980</ele>
  <time>2012-05-06T14:21:32Z</time>
</trkpt>
<trkpt lat="46.225620000" lon="7.461730000">
  <ele>1489.599980</ele>
  <time>2012-05-06T14:21:37Z</time>
</trkpt>
<trkpt lat="46.225640000" lon="7.461760000">
  <ele>1490.000000</ele>
  <time>2012-05-06T14:21:38Z</time>
</trkpt>
<trkpt lat="46.225650000" lon="7.461800000">
  <ele>1490.400020</ele>
  <time>2012-05-06T14:21:39Z</time>
</trkpt>
<trkpt lat="46.225670000" lon="7.461830000">
  <ele>1490.799930</ele>
  <time>2012-05-06T14:21:40Z</time>
</trkpt>
<trkpt lat="46.225690000" lon="7.461870000">
  <ele>1491.199950</ele>
  <time>2012-05-06T14:21:41Z</time>
</trkpt>
<trkpt lat="46.225700000" lon="7.461900000">
  <ele>1491.599980</ele>
  <time>2012-05-06T14:21:42Z</time>
</trkpt>
<trkpt lat="46.225720000" lon="7.461930000">
  <ele>1491.599980</ele>
  <time>2012-05-06T14:21:43Z</time>
</trkpt>
<trkpt lat="46.225780000" lon="7.462100000">
  <ele>1492.912480</ele>
  <time>2012-05-06T14:21:48Z</time>
</trkpt>
<trkpt lat="46.225790000" lon="7.462130000">
  <ele>1493.175050</ele>
  <time>2012-05-06T14:21:49Z</time>
</trkpt>
<trkpt lat="46.225800000" lon="7.462170000">
  <ele>1493.437500</ele>
  <time>2012-05-06T14:21:50Z</time>
</trkpt>
<trkpt lat="46.225810000" lon="7.462200000">
  <ele>1493.699950</ele>
  <time>2012-05-06T14:21:51Z</time>
</trkpt>
<trkpt lat="46.225820000" lon="7.462230000">
  <ele>1493.962520</ele>
  <time>2012-05-06T14:21:52Z</time>
</trkpt>
<trkpt lat="46.225850000" lon="7.462340000">
  <ele>1494.750000</ele>
  <time>2012-05-06T14:21:55Z</time>
</trkpt>
<trkpt lat="46.225860000" lon="7.462380000">
  <ele>1495.012570</ele>
  <time>2012-05-06T14:21:56Z</time>
</trkpt>
<trkpt lat="46.225880000" lon="7.462410000">
  <ele>1495.275020</ele>
  <time>2012-05-06T14:21:57Z</time>
</trkpt>
<trkpt lat="46.225890000" lon="7.462450000">
  <ele>1495.537600</ele>
  <time>2012-05-06T14:21:58Z</time>
</trkpt>
<trkpt lat="46.225910000" lon="7.462480000">
  <ele>1495.800050</ele>
  <time>2012-05-06T14:21:59Z</time>
</trkpt>
<trkpt lat="46.225950000" lon="7.462550000">
  <ele>1495.800050</ele>
  <time>2012-05-06T14:22:01Z</time>
</trkpt>
<trkpt lat="46.226010000" lon="7.462730000">
  <ele>1497.050050</ele>
  <time>2012-05-06T14:22:06Z</time>
</trkpt>
<trkpt lat="46.225940000" lon="7.462780000">
  <ele>1497.800050</ele>
  <time>2012-05-06T14:22:09Z</time>
</trkpt>
<trkpt lat="46.225920000" lon="7.462760000">
  <ele>1498.050050</ele>
  <time>2012-05-06T14:22:10Z</time>
</trkpt>
<trkpt lat="46.225890000" lon="7.462730000">
  <ele>1498.300050</ele>
  <time>2012-05-06T14:22:11Z</time>
</trkpt>
<trkpt lat="46.225870000" lon="7.462700000">
  <ele>1498.550050</ele>
  <time>2012-05-06T14:22:12Z</time>
</trkpt>
<trkpt lat="46.225850000" lon="7.462670000">
  <ele>1498.800050</ele>
  <time>2012-05-06T14:22:13Z</time>
</trkpt>
<trkpt lat="46.225840000" lon="7.462640000">
  <ele>1499.050050</ele>
  <time>2012-05-06T14:22:14Z</time>
</trkpt>
<trkpt lat="46.225780000" lon="7.462540000">
  <ele>1499.800050</ele>
  <time>2012-05-06T14:22:17Z</time>
</trkpt>
<trkpt lat="46.225760000" lon="7.462510000">
  <ele>1500.050050</ele>
  <time>2012-05-06T14:22:18Z</time>
</trkpt>
<trkpt lat="46.225740000" lon="7.462480000">
  <ele>1500.300050</ele>
  <time>2012-05-06T14:22:19Z</time>
</trkpt>
<trkpt lat="46.225720000" lon="7.462440000">
  <ele>1500.550050</ele>
  <time>2012-05-06T14:22:20Z</time>
</trkpt>
<trkpt lat="46.225700000" lon="7.462420000">
  <ele>1500.800050</ele>
  <time>2012-05-06T14:22:21Z</time>
</trkpt>
<trkpt lat="46.225600000" lon="7.462230000">
  <ele>1502.300050</ele>
  <time>2012-05-06T14:22:27Z</time>
</trkpt>
<trkpt lat="46.225580000" lon="7.462210000">
  <ele>1502.550050</ele>
  <time>2012-05-06T14:22:28Z</time>
</trkpt>
<trkpt lat="46.225570000" lon="7.462170000">
  <ele>1502.800050</ele>
  <time>2012-05-06T14:22:29Z</time>
</trkpt>
<trkpt lat="46.225550000" lon="7.462150000">
  <ele>1503.050050</ele>
  <time>2012-05-06T14:22:30Z</time>
</trkpt>
<trkpt lat="46.225490000" lon="7.462020000">
  <ele>1504.050050</ele>
  <time>2012-05-06T14:22:34Z</time>
</trkpt>
<trkpt lat="46.225480000" lon="7.461980000">
  <ele>1504.300050</ele>
  <time>2012-05-06T14:22:35Z</time>
</trkpt>
<trkpt lat="46.225450000" lon="7.461950000">
  <ele>1504.550050</ele>
  <time>2012-05-06T14:22:36Z</time>
</trkpt>
<trkpt lat="46.225430000" lon="7.461930000">
  <ele>1504.800050</ele>
  <time>2012-05-06T14:22:37Z</time>
</trkpt>
<trkpt lat="46.225410000" lon="7.461900000">
  <ele>1505.050050</ele>
  <time>2012-05-06T14:22:38Z</time>
</trkpt>
<trkpt lat="46.225330000" lon="7.461820000">
  <ele>1505.800050</ele>
  <time>2012-05-06T14:22:41Z</time>
</trkpt>
<trkpt lat="46.225300000" lon="7.461810000">
  <ele>1506.300050</ele>
  <time>2012-05-06T14:22:43Z</time>
</trkpt>
<trkpt lat="46.225280000" lon="7.461800000">
  <ele>1506.550050</ele>
  <time>2012-05-06T14:22:44Z</time>
</trkpt>
<trkpt lat="46.225270000" lon="7.461780000">
  <ele>1506.800050</ele>
  <time>2012-05-06T14:22:45Z</time>
</trkpt>
<trkpt lat="46.225240000" lon="7.461770000">
  <ele>1507.050050</ele>
  <time>2012-05-06T14:22:46Z</time>
</trkpt>
<trkpt lat="46.225140000" lon="7.461730000">
  <ele>1508.050050</ele>
  <time>2012-05-06T14:22:50Z</time>
</trkpt>
<trkpt lat="46.225110000" lon="7.461720000">
  <ele>1508.300050</ele>
  <time>2012-05-06T14:22:51Z</time>
</trkpt>
<trkpt lat="46.225090000" lon="7.461710000">
  <ele>1508.550050</ele>
  <time>2012-05-06T14:22:52Z</time>
</trkpt>
<trkpt lat="46.225060000" lon="7.461700000">
  <ele>1508.800050</ele>
  <time>2012-05-06T14:22:53Z</time>
</trkpt>
<trkpt lat="46.224970000" lon="7.461660000">
  <ele>1509.800050</ele>
  <time>2012-05-06T14:22:57Z</time>
</trkpt>
<trkpt lat="46.224950000" lon="7.461640000">
  <ele>1510.050050</ele>
  <time>2012-05-06T14:22:58Z</time>
</trkpt>
<trkpt lat="46.224920000" lon="7.461620000">
  <ele>1510.300050</ele>
  <time>2012-05-06T14:22:59Z</time>
</trkpt>
<trkpt lat="46.224900000" lon="7.461600000">
  <ele>1510.550050</ele>
  <time>2012-05-06T14:23:00Z</time>
</trkpt>
<trkpt lat="46.224880000" lon="7.461570000">
  <ele>1510.800050</ele>
  <time>2012-05-06T14:23:01Z</time>
</trkpt>
<trkpt lat="46.224800000" lon="7.461490000">
  <ele>1510.800050</ele>
  <time>2012-05-06T14:23:05Z</time>
</trkpt>
<trkpt lat="46.224740000" lon="7.461440000">
  <ele>1511.657230</ele>
  <time>2012-05-06T14:23:08Z</time>
</trkpt>
<trkpt lat="46.224720000" lon="7.461450000">
  <ele>1511.942870</ele>
  <time>2012-05-06T14:23:09Z</time>
</trkpt>
<trkpt lat="46.224700000" lon="7.461470000">
  <ele>1512.228640</ele>
  <time>2012-05-06T14:23:10Z</time>
</trkpt>
<trkpt lat="46.224690000" lon="7.461500000">
  <ele>1512.514280</ele>
  <time>2012-05-06T14:23:11Z</time>
</trkpt>
<trkpt lat="46.224690000" lon="7.461530000">
  <ele>1512.800050</ele>
  <time>2012-05-06T14:23:12Z</time>
</trkpt>
<trkpt lat="46.224690000" lon="7.461590000">
  <ele>1512.800050</ele>
  <time>2012-05-06T14:23:15Z</time>
</trkpt>
<trkpt lat="46.224740000" lon="7.461610000">
  <ele>1511.925420</ele>
  <time>2012-05-06T14:23:19Z</time>
</trkpt>
<trkpt lat="46.224740000" lon="7.461590000">
  <ele>1510.832030</ele>
  <time>2012-05-06T14:23:24Z</time>
</trkpt>
<trkpt lat="46.224740000" lon="7.461590000">
  <ele>1509.301390</ele>
  <time>2012-05-06T14:23:31Z</time>
</trkpt>
<trkpt lat="46.224740000" lon="7.461590000">
  <ele>1508.426760</ele>
  <time>2012-05-06T14:23:35Z</time>
</trkpt>
<trkpt lat="46.224740000" lon="7.461590000">
  <ele>1506.677370</ele>
  <time>2012-05-06T14:23:43Z</time>
</trkpt>
<trkpt lat="46.224740000" lon="7.461590000">
  <ele>1506.021360</ele>
  <time>2012-05-06T14:23:46Z</time>
</trkpt>
<trkpt lat="46.224740000" lon="7.461590000">
  <ele>1505.146730</ele>
  <time>2012-05-06T14:23:50Z</time>
</trkpt>
<trkpt lat="46.224740000" lon="7.461590000">
  <ele>1503.834720</ele>
  <time>2012-05-06T14:23:56Z</time>
</trkpt>
<trkpt lat="46.224740000" lon="7.461590000">
  <ele>1503.397340</ele>
  <time>2012-05-06T14:23:58Z</time>
</trkpt>
<trkpt lat="46.224730000" lon="7.461530000">
  <ele>1502.960080</ele>
  <time>2012-05-06T14:24:00Z</time>
</trkpt>
<trkpt lat="46.224770000" lon="7.461500000">
  <ele>1502.522710</ele>
  <time>2012-05-06T14:24:02Z</time>
</trkpt>
<trkpt lat="46.224800000" lon="7.461560000">
  <ele>1502.085330</ele>
  <time>2012-05-06T14:24:04Z</time>
</trkpt>
<trkpt lat="46.224830000" lon="7.461590000">
  <ele>1501.866700</ele>
  <time>2012-05-06T14:24:05Z</time>
</trkpt>
<trkpt lat="46.224920000" lon="7.461670000">
  <ele>1501.210690</ele>
  <time>2012-05-06T14:24:08Z</time>
</trkpt>
<trkpt lat="46.224960000" lon="7.461690000">
  <ele>1500.992070</ele>
  <time>2012-05-06T14:24:09Z</time>
</trkpt>
<trkpt lat="46.224990000" lon="7.461720000">
  <ele>1500.773320</ele>
  <time>2012-05-06T14:24:10Z</time>
</trkpt>
<trkpt lat="46.225040000" lon="7.461750000">
  <ele>1500.554690</ele>
  <time>2012-05-06T14:24:11Z</time>
</trkpt>
<trkpt lat="46.225090000" lon="7.461770000">
  <ele>1500.336060</ele>
  <time>2012-05-06T14:24:12Z</time>
</trkpt>
<trkpt lat="46.225150000" lon="7.461800000">
  <ele>1500.117310</ele>
  <time>2012-05-06T14:24:13Z</time>
</trkpt>
<trkpt lat="46.225220000" lon="7.461820000">
  <ele>1499.898680</ele>
  <time>2012-05-06T14:24:14Z</time>
</trkpt>
<trkpt lat="46.225280000" lon="7.461840000">
  <ele>1499.680050</ele>
  <time>2012-05-06T14:24:15Z</time>
</trkpt>
<trkpt lat="46.225340000" lon="7.461880000">
  <ele>1499.461300</ele>
  <time>2012-05-06T14:24:16Z</time>
</trkpt>
<trkpt lat="46.225390000" lon="7.461920000">
  <ele>1499.242680</ele>
  <time>2012-05-06T14:24:17Z</time>
</trkpt>
<trkpt lat="46.225440000" lon="7.461980000">
  <ele>1499.024050</ele>
  <time>2012-05-06T14:24:18Z</time>
</trkpt>
<trkpt lat="46.225490000" lon="7.462050000">
  <ele>1498.805420</ele>
  <time>2012-05-06T14:24:19Z</time>
</trkpt>
<trkpt lat="46.225520000" lon="7.462130000">
  <ele>1498.586670</ele>
  <time>2012-05-06T14:24:20Z</time>
</trkpt>
<trkpt lat="46.225560000" lon="7.462220000">
  <ele>1498.368040</ele>
  <time>2012-05-06T14:24:21Z</time>
</trkpt>
<trkpt lat="46.225600000" lon="7.462300000">
  <ele>1498.149410</ele>
  <time>2012-05-06T14:24:22Z</time>
</trkpt>
<trkpt lat="46.225640000" lon="7.462380000">
  <ele>1497.930660</ele>
  <time>2012-05-06T14:24:23Z</time>
</trkpt>
<trkpt lat="46.225680000" lon="7.462450000">
  <ele>1497.712040</ele>
  <time>2012-05-06T14:24:24Z</time>
</trkpt>
<trkpt lat="46.225720000" lon="7.462520000">
  <ele>1497.493410</ele>
  <time>2012-05-06T14:24:25Z</time>
</trkpt>
<trkpt lat="46.225760000" lon="7.462590000">
  <ele>1497.274660</ele>
  <time>2012-05-06T14:24:26Z</time>
</trkpt>
<trkpt lat="46.225800000" lon="7.462650000">
  <ele>1497.056030</ele>
  <time>2012-05-06T14:24:27Z</time>
</trkpt>
<trkpt lat="46.225830000" lon="7.462720000">
  <ele>1496.837400</ele>
  <time>2012-05-06T14:24:28Z</time>
</trkpt>
<trkpt lat="46.225860000" lon="7.462780000">
  <ele>1496.618650</ele>
  <time>2012-05-06T14:24:29Z</time>
</trkpt>
<trkpt lat="46.225900000" lon="7.462830000">
  <ele>1496.400020</ele>
  <time>2012-05-06T14:24:30Z</time>
</trkpt>
<trkpt lat="46.225970000" lon="7.462880000">
  <ele>1496.400020</ele>
  <time>2012-05-06T14:24:32Z</time>
</trkpt>
<trkpt lat="46.226010000" lon="7.462880000">
  <ele>1496.620000</ele>
  <time>2012-05-06T14:24:33Z</time>
</trkpt>
<trkpt lat="46.226070000" lon="7.462870000">
  <ele>1497.060060</ele>
  <time>2012-05-06T14:24:35Z</time>
</trkpt>
<trkpt lat="46.226110000" lon="7.462830000">
  <ele>1497.500000</ele>
  <time>2012-05-06T14:24:37Z</time>
</trkpt>
<trkpt lat="46.226110000" lon="7.462780000">
  <ele>1497.719970</ele>
  <time>2012-05-06T14:24:38Z</time>
</trkpt>
<trkpt lat="46.226100000" lon="7.462730000">
  <ele>1497.939940</ele>
  <time>2012-05-06T14:24:39Z</time>
</trkpt>
<trkpt lat="46.226090000" lon="7.462660000">
  <ele>1498.160030</ele>
  <time>2012-05-06T14:24:40Z</time>
</trkpt>
<trkpt lat="46.226060000" lon="7.462600000">
  <ele>1498.380000</ele>
  <time>2012-05-06T14:24:41Z</time>
</trkpt>
<trkpt lat="46.226020000" lon="7.462540000">
  <ele>1498.599980</ele>
  <time>2012-05-06T14:24:42Z</time>
</trkpt>
<trkpt lat="46.225940000" lon="7.462400000">
  <ele>1498.599980</ele>
  <time>2012-05-06T14:24:43Z</time>
</trkpt>
<trkpt lat="46.225940000" lon="7.462400000">
  <ele>1497.133300</ele>
  <time>2012-05-06T14:24:45Z</time>
</trkpt>
<trkpt lat="46.225910000" lon="7.462330000">
  <ele>1496.400020</ele>
  <time>2012-05-06T14:24:46Z</time>
</trkpt>
<trkpt lat="46.225880000" lon="7.462250000">
  <ele>1495.666630</ele>
  <time>2012-05-06T14:24:47Z</time>
</trkpt>
<trkpt lat="46.225860000" lon="7.462160000">
  <ele>1494.933350</ele>
  <time>2012-05-06T14:24:48Z</time>
</trkpt>
<trkpt lat="46.225830000" lon="7.462060000">
  <ele>1494.199950</ele>
  <time>2012-05-06T14:24:49Z</time>
</trkpt>
<trkpt lat="46.225800000" lon="7.461970000">
  <ele>1493.466670</ele>
  <time>2012-05-06T14:24:50Z</time>
</trkpt>
<trkpt lat="46.225760000" lon="7.461870000">
  <ele>1492.733280</ele>
  <time>2012-05-06T14:24:51Z</time>
</trkpt>
<trkpt lat="46.225720000" lon="7.461770000">
  <ele>1492.000000</ele>
  <time>2012-05-06T14:24:52Z</time>
</trkpt>
<trkpt lat="46.225650000" lon="7.461680000">
  <ele>1491.266600</ele>
  <time>2012-05-06T14:24:53Z</time>
</trkpt>
<trkpt lat="46.225590000" lon="7.461590000">
  <ele>1490.533330</ele>
  <time>2012-05-06T14:24:54Z</time>
</trkpt>
<trkpt lat="46.225510000" lon="7.461510000">
  <ele>1489.799930</ele>
  <time>2012-05-06T14:24:55Z</time>
</trkpt>
<trkpt lat="46.225430000" lon="7.461430000">
  <ele>1489.066650</ele>
  <time>2012-05-06T14:24:56Z</time>
</trkpt>
<trkpt lat="46.225350000" lon="7.461360000">
  <ele>1488.333250</ele>
  <time>2012-05-06T14:24:57Z</time>
</trkpt>
<trkpt lat="46.225270000" lon="7.461300000">
  <ele>1487.599980</ele>
  <time>2012-05-06T14:24:58Z</time>
</trkpt>
<trkpt lat="46.225200000" lon="7.461240000">
  <ele>1486.866580</ele>
  <time>2012-05-06T14:24:59Z</time>
</trkpt>
<trkpt lat="46.225160000" lon="7.461170000">
  <ele>1486.133300</ele>
  <time>2012-05-06T14:25:00Z</time>
</trkpt>
<trkpt lat="46.225150000" lon="7.461080000">
  <ele>1485.399900</ele>
  <time>2012-05-06T14:25:01Z</time>
</trkpt>
<trkpt lat="46.225170000" lon="7.461010000">
  <ele>1484.666630</ele>
  <time>2012-05-06T14:25:02Z</time>
</trkpt>
<trkpt lat="46.225220000" lon="7.460990000">
  <ele>1483.933350</ele>
  <time>2012-05-06T14:25:03Z</time>
</trkpt>
<trkpt lat="46.225250000" lon="7.461030000">
  <ele>1483.199950</ele>
  <time>2012-05-06T14:25:04Z</time>
</trkpt>
<trkpt lat="46.225290000" lon="7.461110000">
  <ele>1482.466670</ele>
  <time>2012-05-06T14:25:05Z</time>
</trkpt>
<trkpt lat="46.225330000" lon="7.461190000">
  <ele>1481.733280</ele>
  <time>2012-05-06T14:25:06Z</time>
</trkpt>
<trkpt lat="46.225380000" lon="7.461270000">
  <ele>1481.000000</ele>
  <time>2012-05-06T14:25:07Z</time>
</trkpt>
<trkpt lat="46.225450000" lon="7.461330000">
  <ele>1480.266600</ele>
  <time>2012-05-06T14:25:08Z</time>
</trkpt>
<trkpt lat="46.225520000" lon="7.461370000">
  <ele>1479.533330</ele>
  <time>2012-05-06T14:25:09Z</time>
</trkpt>
<trkpt lat="46.225600000" lon="7.461390000">
  <ele>1478.799930</ele>
  <time>2012-05-06T14:25:10Z</time>
</trkpt>
<trkpt lat="46.225680000" lon="7.461410000">
  <ele>1478.066650</ele>
  <time>2012-05-06T14:25:11Z</time>
</trkpt>
<trkpt lat="46.225760000" lon="7.461440000">
  <ele>1477.333250</ele>
  <time>2012-05-06T14:25:12Z</time>
</trkpt>
<trkpt lat="46.225850000" lon="7.461470000">
  <ele>1476.599980</ele>
  <time>2012-05-06T14:25:13Z</time>
</trkpt>
<trkpt lat="46.225930000" lon="7.461530000">
  <ele>1475.866580</ele>
  <time>2012-05-06T14:25:14Z</time>
</trkpt>
<trkpt lat="46.225990000" lon="7.461610000">
  <ele>1475.133300</ele>
  <time>2012-05-06T14:25:15Z</time>
</trkpt>
<trkpt lat="46.226060000" lon="7.461710000">
  <ele>1474.399900</ele>
  <time>2012-05-06T14:25:16Z</time>
</trkpt>
<trkpt lat="46.226130000" lon="7.461780000">
  <ele>1473.666630</ele>
  <time>2012-05-06T14:25:17Z</time>
</trkpt>
<trkpt lat="46.226200000" lon="7.461810000">
  <ele>1472.933230</ele>
  <time>2012-05-06T14:25:18Z</time>
</trkpt>
<trkpt lat="46.226270000" lon="7.461760000">
  <ele>1472.199950</ele>
  <time>2012-05-06T14:25:19Z</time>
</trkpt>
<trkpt lat="46.226310000" lon="7.461670000">
  <ele>1472.199950</ele>
  <time>2012-05-06T14:25:20Z</time>
</trkpt>
<trkpt lat="46.226270000" lon="7.461480000">
  <ele>1471.038090</ele>
  <time>2012-05-06T14:25:22Z</time>
</trkpt>
<trkpt lat="46.226200000" lon="7.461290000">
  <ele>1469.876100</ele>
  <time>2012-05-06T14:25:24Z</time>
</trkpt>
<trkpt lat="46.226150000" lon="7.461200000">
  <ele>1469.295170</ele>
  <time>2012-05-06T14:25:25Z</time>
</trkpt>
<trkpt lat="46.226090000" lon="7.461120000">
  <ele>1468.714230</ele>
  <time>2012-05-06T14:25:26Z</time>
</trkpt>
<trkpt lat="46.225970000" lon="7.460970000">
  <ele>1467.552370</ele>
  <time>2012-05-06T14:25:28Z</time>
</trkpt>
<trkpt lat="46.225790000" lon="7.460670000">
  <ele>1465.809450</ele>
  <time>2012-05-06T14:25:31Z</time>
</trkpt>
<trkpt lat="46.225750000" lon="7.460540000">
  <ele>1465.228520</ele>
  <time>2012-05-06T14:25:32Z</time>
</trkpt>
<trkpt lat="46.225710000" lon="7.460410000">
  <ele>1464.647580</ele>
  <time>2012-05-06T14:25:33Z</time>
</trkpt>
<trkpt lat="46.225670000" lon="7.460280000">
  <ele>1464.066650</ele>
  <time>2012-05-06T14:25:34Z</time>
</trkpt>
<trkpt lat="46.225640000" lon="7.460140000">
  <ele>1463.485720</ele>
  <time>2012-05-06T14:25:35Z</time>
</trkpt>
<trkpt lat="46.225610000" lon="7.459990000">
  <ele>1462.904790</ele>
  <time>2012-05-06T14:25:36Z</time>
</trkpt>
<trkpt lat="46.225610000" lon="7.459830000">
  <ele>1462.323850</ele>
  <time>2012-05-06T14:25:37Z</time>
</trkpt>
<trkpt lat="46.225620000" lon="7.459670000">
  <ele>1461.742800</ele>
  <time>2012-05-06T14:25:38Z</time>
</trkpt>
<trkpt lat="46.225640000" lon="7.459500000">
  <ele>1461.161870</ele>
  <time>2012-05-06T14:25:39Z</time>
</trkpt>
<trkpt lat="46.225650000" lon="7.459350000">
  <ele>1460.580930</ele>
  <time>2012-05-06T14:25:40Z</time>
</trkpt>
<trkpt lat="46.225670000" lon="7.459200000">
  <ele>1460.000000</ele>
  <time>2012-05-06T14:25:41Z</time>
</trkpt>
<trkpt lat="46.225680000" lon="7.459030000">
  <ele>1459.419070</ele>
  <time>2012-05-06T14:25:42Z</time>
</trkpt>
<trkpt lat="46.225710000" lon="7.458870000">
  <ele>1458.838130</ele>
  <time>2012-05-06T14:25:43Z</time>
</trkpt>
<trkpt lat="46.225750000" lon="7.458710000">
  <ele>1458.257200</ele>
  <time>2012-05-06T14:25:44Z</time>
</trkpt>
<trkpt lat="46.225810000" lon="7.458560000">
  <ele>1457.676150</ele>
  <time>2012-05-06T14:25:45Z</time>
</trkpt>
<trkpt lat="46.225900000" lon="7.458440000">
  <ele>1457.095210</ele>
  <time>2012-05-06T14:25:46Z</time>
</trkpt>
<trkpt lat="46.226000000" lon="7.458330000">
  <ele>1456.514280</ele>
  <time>2012-05-06T14:25:47Z</time>
</trkpt>
<trkpt lat="46.226080000" lon="7.458220000">
  <ele>1455.933350</ele>
  <time>2012-05-06T14:25:48Z</time>
</trkpt>
<trkpt lat="46.226150000" lon="7.458100000">
  <ele>1455.352420</ele>
  <time>2012-05-06T14:25:49Z</time>
</trkpt>
<trkpt lat="46.226190000" lon="7.457960000">
  <ele>1454.771480</ele>
  <time>2012-05-06T14:25:50Z</time>
</trkpt>
<trkpt lat="46.226220000" lon="7.457810000">
  <ele>1454.190550</ele>
  <time>2012-05-06T14:25:51Z</time>
</trkpt>
<trkpt lat="46.226250000" lon="7.457650000">
  <ele>1453.609500</ele>
  <time>2012-05-06T14:25:52Z</time>
</trkpt>
<trkpt lat="46.226260000" lon="7.457500000">
  <ele>1453.028560</ele>
  <time>2012-05-06T14:25:53Z</time>
</trkpt>
<trkpt lat="46.226260000" lon="7.457340000">
  <ele>1452.447630</ele>
  <time>2012-05-06T14:25:54Z</time>
</trkpt>
<trkpt lat="46.226260000" lon="7.457170000">
  <ele>1451.866700</ele>
  <time>2012-05-06T14:25:55Z</time>
</trkpt>
<trkpt lat="46.226270000" lon="7.456710000">
  <ele>1450.123900</ele>
  <time>2012-05-06T14:25:58Z</time>
</trkpt>
<trkpt lat="46.226280000" lon="7.456570000">
  <ele>1449.542850</ele>
  <time>2012-05-06T14:25:59Z</time>
</trkpt>
<trkpt lat="46.226300000" lon="7.456430000">
  <ele>1448.961910</ele>
  <time>2012-05-06T14:26:00Z</time>
</trkpt>
<trkpt lat="46.226310000" lon="7.456290000">
  <ele>1448.380980</ele>
  <time>2012-05-06T14:26:01Z</time>
</trkpt>
<trkpt lat="46.226330000" lon="7.456150000">
  <ele>1447.800050</ele>
  <time>2012-05-06T14:26:02Z</time>
</trkpt>
<trkpt lat="46.226390000" lon="7.455890000">
  <ele>1447.800050</ele>
  <time>2012-05-06T14:26:04Z</time>
</trkpt>
<trkpt lat="46.226430000" lon="7.455760000">
  <ele>1447.658810</ele>
  <time>2012-05-06T14:26:05Z</time>
</trkpt>
<trkpt lat="46.226600000" lon="7.455300000">
  <ele>1447.094120</ele>
  <time>2012-05-06T14:26:09Z</time>
</trkpt>
<trkpt lat="46.226650000" lon="7.455190000">
  <ele>1446.953000</ele>
  <time>2012-05-06T14:26:10Z</time>
</trkpt>
<trkpt lat="46.226920000" lon="7.454450000">
  <ele>1445.964720</ele>
  <time>2012-05-06T14:26:17Z</time>
</trkpt>
<trkpt lat="46.226950000" lon="7.454330000">
  <ele>1445.823610</ele>
  <time>2012-05-06T14:26:18Z</time>
</trkpt>
<trkpt lat="46.226980000" lon="7.454220000">
  <ele>1445.682370</ele>
  <time>2012-05-06T14:26:19Z</time>
</trkpt>
<trkpt lat="46.227010000" lon="7.454110000">
  <ele>1445.541260</ele>
  <time>2012-05-06T14:26:20Z</time>
</trkpt>
<trkpt lat="46.227030000" lon="7.453990000">
  <ele>1445.400020</ele>
  <time>2012-05-06T14:26:21Z</time>
</trkpt>
<trkpt lat="46.227040000" lon="7.453750000">
  <ele>1445.400020</ele>
  <time>2012-05-06T14:26:23Z</time>
</trkpt>
<trkpt lat="46.226990000" lon="7.453520000">
  <ele>1444.244510</ele>
  <time>2012-05-06T14:26:25Z</time>
</trkpt>
<trkpt lat="46.226970000" lon="7.453380000">
  <ele>1443.666750</ele>
  <time>2012-05-06T14:26:26Z</time>
</trkpt>
<trkpt lat="46.226990000" lon="7.453130000">
  <ele>1442.511110</ele>
  <time>2012-05-06T14:26:28Z</time>
</trkpt>
<trkpt lat="46.227020000" lon="7.453010000">
  <ele>1441.933350</ele>
  <time>2012-05-06T14:26:29Z</time>
</trkpt>
<trkpt lat="46.227080000" lon="7.452910000">
  <ele>1441.355590</ele>
  <time>2012-05-06T14:26:30Z</time>
</trkpt>
<trkpt lat="46.227140000" lon="7.452800000">
  <ele>1440.777830</ele>
  <time>2012-05-06T14:26:31Z</time>
</trkpt>
<trkpt lat="46.227200000" lon="7.452700000">
  <ele>1440.199950</ele>
  <time>2012-05-06T14:26:32Z</time>
</trkpt>
<trkpt lat="46.227260000" lon="7.452590000">
  <ele>1439.622190</ele>
  <time>2012-05-06T14:26:33Z</time>
</trkpt>
<trkpt lat="46.227300000" lon="7.452460000">
  <ele>1439.044430</ele>
  <time>2012-05-06T14:26:34Z</time>
</trkpt>
<trkpt lat="46.227340000" lon="7.452340000">
  <ele>1438.466670</ele>
  <time>2012-05-06T14:26:35Z</time>
</trkpt>
<trkpt lat="46.227380000" lon="7.452210000">
  <ele>1437.888920</ele>
  <time>2012-05-06T14:26:36Z</time>
</trkpt>
<trkpt lat="46.227410000" lon="7.452070000">
  <ele>1437.311160</ele>
  <time>2012-05-06T14:26:37Z</time>
</trkpt>
<trkpt lat="46.227450000" lon="7.451950000">
  <ele>1436.733400</ele>
  <time>2012-05-06T14:26:38Z</time>
</trkpt>
<trkpt lat="46.227500000" lon="7.451820000">
  <ele>1436.155520</ele>
  <time>2012-05-06T14:26:39Z</time>
</trkpt>
<trkpt lat="46.227540000" lon="7.451700000">
  <ele>1435.577760</ele>
  <time>2012-05-06T14:26:40Z</time>
</trkpt>
<trkpt lat="46.227590000" lon="7.451580000">
  <ele>1435.000000</ele>
  <time>2012-05-06T14:26:41Z</time>
</trkpt>
<trkpt lat="46.227690000" lon="7.451330000">
  <ele>1435.000000</ele>
  <time>2012-05-06T14:26:43Z</time>
</trkpt>
<trkpt lat="46.227900000" lon="7.450860000">
  <ele>1433.800050</ele>
  <time>2012-05-06T14:26:46Z</time>
</trkpt>
<trkpt lat="46.227940000" lon="7.450690000">
  <ele>1433.800050</ele>
  <time>2012-05-06T14:26:48Z</time>
</trkpt>
<trkpt lat="46.227940000" lon="7.450560000">
  <ele>1432.708370</ele>
  <time>2012-05-06T14:26:49Z</time>
</trkpt>
<trkpt lat="46.227930000" lon="7.450420000">
  <ele>1431.616700</ele>
  <time>2012-05-06T14:26:50Z</time>
</trkpt>
<trkpt lat="46.227910000" lon="7.450280000">
  <ele>1430.525020</ele>
  <time>2012-05-06T14:26:51Z</time>
</trkpt>
<trkpt lat="46.227920000" lon="7.450140000">
  <ele>1429.433350</ele>
  <time>2012-05-06T14:26:52Z</time>
</trkpt>
<trkpt lat="46.227940000" lon="7.450000000">
  <ele>1428.341670</ele>
  <time>2012-05-06T14:26:53Z</time>
</trkpt>
<trkpt lat="46.227980000" lon="7.449870000">
  <ele>1427.250000</ele>
  <time>2012-05-06T14:26:54Z</time>
</trkpt>
<trkpt lat="46.228020000" lon="7.449730000">
  <ele>1426.158330</ele>
  <time>2012-05-06T14:26:55Z</time>
</trkpt>
<trkpt lat="46.228040000" lon="7.449600000">
  <ele>1425.066770</ele>
  <time>2012-05-06T14:26:56Z</time>
</trkpt>
<trkpt lat="46.228060000" lon="7.449460000">
  <ele>1423.975100</ele>
  <time>2012-05-06T14:26:57Z</time>
</trkpt>
<trkpt lat="46.228080000" lon="7.449320000">
  <ele>1422.883420</ele>
  <time>2012-05-06T14:26:58Z</time>
</trkpt>
<trkpt lat="46.228090000" lon="7.449180000">
  <ele>1421.791750</ele>
  <time>2012-05-06T14:26:59Z</time>
</trkpt>
<trkpt lat="46.228120000" lon="7.448980000">
  <ele>1420.700070</ele>
  <time>2012-05-06T14:27:00Z</time>
</trkpt>
<trkpt lat="46.228160000" lon="7.448840000">
  <ele>1419.608400</ele>
  <time>2012-05-06T14:27:01Z</time>
</trkpt>
<trkpt lat="46.228190000" lon="7.448700000">
  <ele>1418.516720</ele>
  <time>2012-05-06T14:27:02Z</time>
</trkpt>
<trkpt lat="46.228190000" lon="7.448550000">
  <ele>1417.425050</ele>
  <time>2012-05-06T14:27:03Z</time>
</trkpt>
<trkpt lat="46.228180000" lon="7.448410000">
  <ele>1416.333370</ele>
  <time>2012-05-06T14:27:04Z</time>
</trkpt>
<trkpt lat="46.228160000" lon="7.448280000">
  <ele>1415.241700</ele>
  <time>2012-05-06T14:27:05Z</time>
</trkpt>
<trkpt lat="46.228150000" lon="7.448150000">
  <ele>1414.150020</ele>
  <time>2012-05-06T14:27:06Z</time>
</trkpt>
<trkpt lat="46.228130000" lon="7.448020000">
  <ele>1413.058350</ele>
  <time>2012-05-06T14:27:07Z</time>
</trkpt>
<trkpt lat="46.228120000" lon="7.447900000">
  <ele>1411.966670</ele>
  <time>2012-05-06T14:27:08Z</time>
</trkpt>
<trkpt lat="46.228100000" lon="7.447780000">
  <ele>1410.875000</ele>
  <time>2012-05-06T14:27:09Z</time>
</trkpt>
<trkpt lat="46.228080000" lon="7.447670000">
  <ele>1409.783330</ele>
  <time>2012-05-06T14:27:10Z</time>
</trkpt>
<trkpt lat="46.228070000" lon="7.447560000">
  <ele>1408.691770</ele>
  <time>2012-05-06T14:27:11Z</time>
</trkpt>
<trkpt lat="46.228050000" lon="7.447450000">
  <ele>1407.600100</ele>
  <time>2012-05-06T14:27:12Z</time>
</trkpt>
<trkpt lat="46.228030000" lon="7.447350000">
  <ele>1406.508420</ele>
  <time>2012-05-06T14:27:13Z</time>
</trkpt>
<trkpt lat="46.228010000" lon="7.447230000">
  <ele>1405.416750</ele>
  <time>2012-05-06T14:27:14Z</time>
</trkpt>
<trkpt lat="46.227990000" lon="7.447120000">
  <ele>1404.325070</ele>
  <time>2012-05-06T14:27:15Z</time>
</trkpt>
<trkpt lat="46.227990000" lon="7.447000000">
  <ele>1403.233400</ele>
  <time>2012-05-06T14:27:16Z</time>
</trkpt>
<trkpt lat="46.227970000" lon="7.446880000">
  <ele>1402.141720</ele>
  <time>2012-05-06T14:27:17Z</time>
</trkpt>
<trkpt lat="46.227970000" lon="7.446750000">
  <ele>1401.050050</ele>
  <time>2012-05-06T14:27:18Z</time>
</trkpt>
<trkpt lat="46.227960000" lon="7.446630000">
  <ele>1399.958370</ele>
  <time>2012-05-06T14:27:19Z</time>
</trkpt>
<trkpt lat="46.227950000" lon="7.446520000">
  <ele>1398.866700</ele>
  <time>2012-05-06T14:27:20Z</time>
</trkpt>
<trkpt lat="46.227940000" lon="7.446410000">
  <ele>1397.775020</ele>
  <time>2012-05-06T14:27:21Z</time>
</trkpt>
<trkpt lat="46.227910000" lon="7.446320000">
  <ele>1396.683350</ele>
  <time>2012-05-06T14:27:22Z</time>
</trkpt>
<trkpt lat="46.227890000" lon="7.446230000">
  <ele>1395.591670</ele>
  <time>2012-05-06T14:27:23Z</time>
</trkpt>
<trkpt lat="46.227870000" lon="7.446140000">
  <ele>1394.500000</ele>
  <time>2012-05-06T14:27:24Z</time>
</trkpt>
<trkpt lat="46.227840000" lon="7.446040000">
  <ele>1393.408330</ele>
  <time>2012-05-06T14:27:25Z</time>
</trkpt>
<trkpt lat="46.227830000" lon="7.445920000">
  <ele>1392.316770</ele>
  <time>2012-05-06T14:27:26Z</time>
</trkpt>
<trkpt lat="46.227840000" lon="7.445800000">
  <ele>1391.225100</ele>
  <time>2012-05-06T14:27:27Z</time>
</trkpt>
<trkpt lat="46.227860000" lon="7.445670000">
  <ele>1390.133420</ele>
  <time>2012-05-06T14:27:28Z</time>
</trkpt>
<trkpt lat="46.227890000" lon="7.445540000">
  <ele>1389.041750</ele>
  <time>2012-05-06T14:27:29Z</time>
</trkpt>
<trkpt lat="46.227930000" lon="7.445410000">
  <ele>1387.950070</ele>
  <time>2012-05-06T14:27:30Z</time>
</trkpt>
<trkpt lat="46.227970000" lon="7.445280000">
  <ele>1386.858400</ele>
  <time>2012-05-06T14:27:31Z</time>
</trkpt>
<trkpt lat="46.228000000" lon="7.445160000">
  <ele>1385.766720</ele>
  <time>2012-05-06T14:27:32Z</time>
</trkpt>
<trkpt lat="46.228030000" lon="7.445050000">
  <ele>1384.675050</ele>
  <time>2012-05-06T14:27:33Z</time>
</trkpt>
<trkpt lat="46.228070000" lon="7.444930000">
  <ele>1383.583370</ele>
  <time>2012-05-06T14:27:34Z</time>
</trkpt>
<trkpt lat="46.228090000" lon="7.444810000">
  <ele>1382.491700</ele>
  <time>2012-05-06T14:27:35Z</time>
</trkpt>
<trkpt lat="46.228120000" lon="7.444680000">
  <ele>1381.400020</ele>
  <time>2012-05-06T14:27:36Z</time>
</trkpt>
<trkpt lat="46.228130000" lon="7.444550000">
  <ele>1380.308350</ele>
  <time>2012-05-06T14:27:37Z</time>
</trkpt>
<trkpt lat="46.228150000" lon="7.444430000">
  <ele>1379.216670</ele>
  <time>2012-05-06T14:27:38Z</time>
</trkpt>
<trkpt lat="46.228170000" lon="7.444290000">
  <ele>1378.125000</ele>
  <time>2012-05-06T14:27:39Z</time>
</trkpt>
<trkpt lat="46.228180000" lon="7.444150000">
  <ele>1377.033330</ele>
  <time>2012-05-06T14:27:40Z</time>
</trkpt>
<trkpt lat="46.228200000" lon="7.443990000">
  <ele>1375.941770</ele>
  <time>2012-05-06T14:27:41Z</time>
</trkpt>
<trkpt lat="46.228210000" lon="7.443840000">
  <ele>1374.850100</ele>
  <time>2012-05-06T14:27:42Z</time>
</trkpt>
<trkpt lat="46.228230000" lon="7.443680000">
  <ele>1373.758420</ele>
  <time>2012-05-06T14:27:43Z</time>
</trkpt>
<trkpt lat="46.228240000" lon="7.443520000">
  <ele>1372.666750</ele>
  <time>2012-05-06T14:27:44Z</time>
</trkpt>
<trkpt lat="46.228250000" lon="7.443350000">
  <ele>1371.575070</ele>
  <time>2012-05-06T14:27:45Z</time>
</trkpt>
<trkpt lat="46.228270000" lon="7.443180000">
  <ele>1370.483400</ele>
  <time>2012-05-06T14:27:46Z</time>
</trkpt>
<trkpt lat="46.228280000" lon="7.443020000">
  <ele>1369.391720</ele>
  <time>2012-05-06T14:27:47Z</time>
</trkpt>
<trkpt lat="46.228290000" lon="7.442870000">
  <ele>1368.300050</ele>
  <time>2012-05-06T14:27:48Z</time>
</trkpt>
<trkpt lat="46.228300000" lon="7.442720000">
  <ele>1367.208370</ele>
  <time>2012-05-06T14:27:49Z</time>
</trkpt>
<trkpt lat="46.228310000" lon="7.442600000">
  <ele>1366.116700</ele>
  <time>2012-05-06T14:27:50Z</time>
</trkpt>
<trkpt lat="46.228320000" lon="7.442490000">
  <ele>1365.025020</ele>
  <time>2012-05-06T14:27:51Z</time>
</trkpt>
<trkpt lat="46.228330000" lon="7.442370000">
  <ele>1363.933350</ele>
  <time>2012-05-06T14:27:52Z</time>
</trkpt>
<trkpt lat="46.228340000" lon="7.442250000">
  <ele>1362.841670</ele>
  <time>2012-05-06T14:27:53Z</time>
</trkpt>
<trkpt lat="46.228340000" lon="7.442120000">
  <ele>1361.750000</ele>
  <time>2012-05-06T14:27:54Z</time>
</trkpt>
<trkpt lat="46.228350000" lon="7.441980000">
  <ele>1360.658330</ele>
  <time>2012-05-06T14:27:55Z</time>
</trkpt>
<trkpt lat="46.228340000" lon="7.441840000">
  <ele>1359.566770</ele>
  <time>2012-05-06T14:27:56Z</time>
</trkpt>
<trkpt lat="46.228320000" lon="7.441700000">
  <ele>1358.475100</ele>
  <time>2012-05-06T14:27:57Z</time>
</trkpt>
<trkpt lat="46.228300000" lon="7.441560000">
  <ele>1357.383420</ele>
  <time>2012-05-06T14:27:58Z</time>
</trkpt>
<trkpt lat="46.228290000" lon="7.441400000">
  <ele>1356.291750</ele>
  <time>2012-05-06T14:27:59Z</time>
</trkpt>
<trkpt lat="46.228290000" lon="7.441230000">
  <ele>1355.200070</ele>
  <time>2012-05-06T14:28:00Z</time>
</trkpt>
<trkpt lat="46.228300000" lon="7.441060000">
  <ele>1354.108400</ele>
  <time>2012-05-06T14:28:01Z</time>
</trkpt>
<trkpt lat="46.228320000" lon="7.440890000">
  <ele>1353.016720</ele>
  <time>2012-05-06T14:28:02Z</time>
</trkpt>
<trkpt lat="46.228340000" lon="7.440720000">
  <ele>1351.925050</ele>
  <time>2012-05-06T14:28:03Z</time>
</trkpt>
<trkpt lat="46.228340000" lon="7.440540000">
  <ele>1350.833370</ele>
  <time>2012-05-06T14:28:04Z</time>
</trkpt>
<trkpt lat="46.228360000" lon="7.440380000">
  <ele>1349.741700</ele>
  <time>2012-05-06T14:28:05Z</time>
</trkpt>
<trkpt lat="46.228370000" lon="7.440220000">
  <ele>1348.650020</ele>
  <time>2012-05-06T14:28:06Z</time>
</trkpt>
<trkpt lat="46.228380000" lon="7.440070000">
  <ele>1347.558350</ele>
  <time>2012-05-06T14:28:07Z</time>
</trkpt>
<trkpt lat="46.228390000" lon="7.439910000">
  <ele>1346.466670</ele>
  <time>2012-05-06T14:28:08Z</time>
</trkpt>
<trkpt lat="46.228400000" lon="7.439770000">
  <ele>1345.375000</ele>
  <time>2012-05-06T14:28:09Z</time>
</trkpt>
<trkpt lat="46.228420000" lon="7.439620000">
  <ele>1344.283330</ele>
  <time>2012-05-06T14:28:10Z</time>
</trkpt>
<trkpt lat="46.228460000" lon="7.439480000">
  <ele>1343.191770</ele>
  <time>2012-05-06T14:28:11Z</time>
</trkpt>
<trkpt lat="46.228500000" lon="7.439340000">
  <ele>1342.100100</ele>
  <time>2012-05-06T14:28:12Z</time>
</trkpt>
<trkpt lat="46.228550000" lon="7.439210000">
  <ele>1341.008420</ele>
  <time>2012-05-06T14:28:13Z</time>
</trkpt>
<trkpt lat="46.228580000" lon="7.439090000">
  <ele>1339.916750</ele>
  <time>2012-05-06T14:28:14Z</time>
</trkpt>
<trkpt lat="46.228610000" lon="7.438960000">
  <ele>1338.825070</ele>
  <time>2012-05-06T14:28:15Z</time>
</trkpt>
<trkpt lat="46.228630000" lon="7.438830000">
  <ele>1337.733400</ele>
  <time>2012-05-06T14:28:16Z</time>
</trkpt>
<trkpt lat="46.228640000" lon="7.438690000">
  <ele>1336.641720</ele>
  <time>2012-05-06T14:28:17Z</time>
</trkpt>
<trkpt lat="46.228650000" lon="7.438540000">
  <ele>1335.550050</ele>
  <time>2012-05-06T14:28:18Z</time>
</trkpt>
<trkpt lat="46.228660000" lon="7.438390000">
  <ele>1334.458370</ele>
  <time>2012-05-06T14:28:19Z</time>
</trkpt>
<trkpt lat="46.228660000" lon="7.438230000">
  <ele>1333.366700</ele>
  <time>2012-05-06T14:28:20Z</time>
</trkpt>
<trkpt lat="46.228660000" lon="7.438080000">
  <ele>1332.275020</ele>
  <time>2012-05-06T14:28:21Z</time>
</trkpt>
<trkpt lat="46.228680000" lon="7.437930000">
  <ele>1331.183350</ele>
  <time>2012-05-06T14:28:22Z</time>
</trkpt>
<trkpt lat="46.228700000" lon="7.437790000">
  <ele>1330.091670</ele>
  <time>2012-05-06T14:28:23Z</time>
</trkpt>
<trkpt lat="46.228730000" lon="7.437650000">
  <ele>1329.000000</ele>
  <time>2012-05-06T14:28:24Z</time>
</trkpt>
<trkpt lat="46.228760000" lon="7.437520000">
  <ele>1327.908330</ele>
  <time>2012-05-06T14:28:25Z</time>
</trkpt>
<trkpt lat="46.228780000" lon="7.437380000">
  <ele>1326.816770</ele>
  <time>2012-05-06T14:28:26Z</time>
</trkpt>
<trkpt lat="46.228810000" lon="7.437240000">
  <ele>1325.725100</ele>
  <time>2012-05-06T14:28:27Z</time>
</trkpt>
<trkpt lat="46.228810000" lon="7.437100000">
  <ele>1324.633420</ele>
  <time>2012-05-06T14:28:28Z</time>
</trkpt>
<trkpt lat="46.228820000" lon="7.436950000">
  <ele>1323.541750</ele>
  <time>2012-05-06T14:28:29Z</time>
</trkpt>
<trkpt lat="46.228820000" lon="7.436800000">
  <ele>1322.450070</ele>
  <time>2012-05-06T14:28:30Z</time>
</trkpt>
<trkpt lat="46.228810000" lon="7.436650000">
  <ele>1321.358400</ele>
  <time>2012-05-06T14:28:31Z</time>
</trkpt>
<trkpt lat="46.228800000" lon="7.436500000">
  <ele>1320.266720</ele>
  <time>2012-05-06T14:28:32Z</time>
</trkpt>
<trkpt lat="46.228780000" lon="7.436350000">
  <ele>1319.175050</ele>
  <time>2012-05-06T14:28:33Z</time>
</trkpt>
<trkpt lat="46.228750000" lon="7.436190000">
  <ele>1318.083370</ele>
  <time>2012-05-06T14:28:34Z</time>
</trkpt>
<trkpt lat="46.228740000" lon="7.436020000">
  <ele>1316.991700</ele>
  <time>2012-05-06T14:28:35Z</time>
</trkpt>
<trkpt lat="46.228730000" lon="7.435860000">
  <ele>1315.900020</ele>
  <time>2012-05-06T14:28:36Z</time>
</trkpt>
<trkpt lat="46.228730000" lon="7.435690000">
  <ele>1314.808350</ele>
  <time>2012-05-06T14:28:37Z</time>
</trkpt>
<trkpt lat="46.228730000" lon="7.435520000">
  <ele>1313.716670</ele>
  <time>2012-05-06T14:28:38Z</time>
</trkpt>
<trkpt lat="46.228740000" lon="7.435360000">
  <ele>1312.625000</ele>
  <time>2012-05-06T14:28:39Z</time>
</trkpt>
<trkpt lat="46.228740000" lon="7.435180000">
  <ele>1311.533330</ele>
  <time>2012-05-06T14:28:40Z</time>
</trkpt>
<trkpt lat="46.228740000" lon="7.435010000">
  <ele>1310.441770</ele>
  <time>2012-05-06T14:28:41Z</time>
</trkpt>
<trkpt lat="46.228740000" lon="7.434820000">
  <ele>1309.350100</ele>
  <time>2012-05-06T14:28:42Z</time>
</trkpt>
<trkpt lat="46.228740000" lon="7.434640000">
  <ele>1308.258420</ele>
  <time>2012-05-06T14:28:43Z</time>
</trkpt>
<trkpt lat="46.228730000" lon="7.434470000">
  <ele>1307.166750</ele>
  <time>2012-05-06T14:28:44Z</time>
</trkpt>
<trkpt lat="46.228710000" lon="7.434300000">
  <ele>1306.075070</ele>
  <time>2012-05-06T14:28:45Z</time>
</trkpt>
<trkpt lat="46.228680000" lon="7.434130000">
  <ele>1304.983400</ele>
  <time>2012-05-06T14:28:46Z</time>
</trkpt>
<trkpt lat="46.228650000" lon="7.433970000">
  <ele>1303.891720</ele>
  <time>2012-05-06T14:28:47Z</time>
</trkpt>
<trkpt lat="46.228610000" lon="7.433640000">
  <ele>1302.800050</ele>
  <time>2012-05-06T14:28:48Z</time>
</trkpt>
<trkpt lat="46.228610000" lon="7.433640000">
  <ele>1302.800050</ele>
  <time>2012-05-06T14:28:49Z</time>
</trkpt>
<trkpt lat="46.228590000" lon="7.433480000">
  <ele>1301.825070</ele>
  <time>2012-05-06T14:28:50Z</time>
</trkpt>
<trkpt lat="46.228580000" lon="7.433310000">
  <ele>1300.850100</ele>
  <time>2012-05-06T14:28:51Z</time>
</trkpt>
<trkpt lat="46.228560000" lon="7.433140000">
  <ele>1299.875000</ele>
  <time>2012-05-06T14:28:52Z</time>
</trkpt>
<trkpt lat="46.228560000" lon="7.432980000">
  <ele>1298.900020</ele>
  <time>2012-05-06T14:28:53Z</time>
</trkpt>
<trkpt lat="46.228550000" lon="7.432810000">
  <ele>1297.925050</ele>
  <time>2012-05-06T14:28:54Z</time>
</trkpt>
<trkpt lat="46.228550000" lon="7.432660000">
  <ele>1296.949950</ele>
  <time>2012-05-06T14:28:55Z</time>
</trkpt>
<trkpt lat="46.228540000" lon="7.432500000">
  <ele>1295.974980</ele>
  <time>2012-05-06T14:28:56Z</time>
</trkpt>
<trkpt lat="46.228530000" lon="7.432340000">
  <ele>1295.000000</ele>
  <time>2012-05-06T14:28:57Z</time>
</trkpt>
<trkpt lat="46.228520000" lon="7.432190000">
  <ele>1295.000000</ele>
  <time>2012-05-06T14:28:58Z</time>
</trkpt>
<trkpt lat="46.228450000" lon="7.431640000">
  <ele>1292.388180</ele>
  <time>2012-05-06T14:29:02Z</time>
</trkpt>
<trkpt lat="46.228460000" lon="7.431280000">
  <ele>1290.429440</ele>
  <time>2012-05-06T14:29:05Z</time>
</trkpt>
<trkpt lat="46.228420000" lon="7.430910000">
  <ele>1288.470580</ele>
  <time>2012-05-06T14:29:08Z</time>
</trkpt>
<trkpt lat="46.228410000" lon="7.430790000">
  <ele>1287.817630</ele>
  <time>2012-05-06T14:29:09Z</time>
</trkpt>
<trkpt lat="46.228410000" lon="7.430680000">
  <ele>1287.164670</ele>
  <time>2012-05-06T14:29:10Z</time>
</trkpt>
<trkpt lat="46.228420000" lon="7.430580000">
  <ele>1286.511840</ele>
  <time>2012-05-06T14:29:11Z</time>
</trkpt>
<trkpt lat="46.228430000" lon="7.430470000">
  <ele>1285.858890</ele>
  <time>2012-05-06T14:29:12Z</time>
</trkpt>
<trkpt lat="46.228440000" lon="7.430360000">
  <ele>1285.205930</ele>
  <time>2012-05-06T14:29:13Z</time>
</trkpt>
<trkpt lat="46.228450000" lon="7.430250000">
  <ele>1284.552980</ele>
  <time>2012-05-06T14:29:14Z</time>
</trkpt>
<trkpt lat="46.228450000" lon="7.430130000">
  <ele>1283.900020</ele>
  <time>2012-05-06T14:29:15Z</time>
</trkpt>
<trkpt lat="46.228450000" lon="7.430020000">
  <ele>1283.247070</ele>
  <time>2012-05-06T14:29:16Z</time>
</trkpt>
<trkpt lat="46.228450000" lon="7.429910000">
  <ele>1282.594120</ele>
  <time>2012-05-06T14:29:17Z</time>
</trkpt>
<trkpt lat="46.228450000" lon="7.429790000">
  <ele>1281.941160</ele>
  <time>2012-05-06T14:29:18Z</time>
</trkpt>
<trkpt lat="46.228450000" lon="7.429670000">
  <ele>1281.288210</ele>
  <time>2012-05-06T14:29:19Z</time>
</trkpt>
<trkpt lat="46.228450000" lon="7.429550000">
  <ele>1280.635380</ele>
  <time>2012-05-06T14:29:20Z</time>
</trkpt>
<trkpt lat="46.228450000" lon="7.429430000">
  <ele>1279.982420</ele>
  <time>2012-05-06T14:29:21Z</time>
</trkpt>
<trkpt lat="46.228450000" lon="7.429320000">
  <ele>1279.329470</ele>
  <time>2012-05-06T14:29:22Z</time>
</trkpt>
<trkpt lat="46.228450000" lon="7.429210000">
  <ele>1278.676510</ele>
  <time>2012-05-06T14:29:23Z</time>
</trkpt>
<trkpt lat="46.228450000" lon="7.429100000">
  <ele>1278.023560</ele>
  <time>2012-05-06T14:29:24Z</time>
</trkpt>
<trkpt lat="46.228440000" lon="7.429000000">
  <ele>1277.370610</ele>
  <time>2012-05-06T14:29:25Z</time>
</trkpt>
<trkpt lat="46.228440000" lon="7.428890000">
  <ele>1276.717650</ele>
  <time>2012-05-06T14:29:26Z</time>
</trkpt>
<trkpt lat="46.228430000" lon="7.428790000">
  <ele>1276.064700</ele>
  <time>2012-05-06T14:29:27Z</time>
</trkpt>
<trkpt lat="46.228400000" lon="7.428700000">
  <ele>1275.411870</ele>
  <time>2012-05-06T14:29:28Z</time>
</trkpt>
<trkpt lat="46.228380000" lon="7.428600000">
  <ele>1274.758910</ele>
  <time>2012-05-06T14:29:29Z</time>
</trkpt>
<trkpt lat="46.228360000" lon="7.428500000">
  <ele>1274.105960</ele>
  <time>2012-05-06T14:29:30Z</time>
</trkpt>
<trkpt lat="46.228350000" lon="7.428400000">
  <ele>1273.453000</ele>
  <time>2012-05-06T14:29:31Z</time>
</trkpt>
<trkpt lat="46.228320000" lon="7.428300000">
  <ele>1272.800050</ele>
  <time>2012-05-06T14:29:32Z</time>
</trkpt>
<trkpt lat="46.228280000" lon="7.428230000">
  <ele>1272.800050</ele>
  <time>2012-05-06T14:29:33Z</time>
</trkpt>
<trkpt lat="46.228230000" lon="7.428090000">
  <ele>1273.555540</ele>
  <time>2012-05-06T14:29:35Z</time>
</trkpt>
<trkpt lat="46.228210000" lon="7.428030000">
  <ele>1273.933350</ele>
  <time>2012-05-06T14:29:36Z</time>
</trkpt>
<trkpt lat="46.228190000" lon="7.427980000">
  <ele>1274.311160</ele>
  <time>2012-05-06T14:29:37Z</time>
</trkpt>
<trkpt lat="46.228180000" lon="7.427920000">
  <ele>1274.688960</ele>
  <time>2012-05-06T14:29:38Z</time>
</trkpt>
<trkpt lat="46.228160000" lon="7.427860000">
  <ele>1275.066650</ele>
  <time>2012-05-06T14:29:39Z</time>
</trkpt>
<trkpt lat="46.228140000" lon="7.427820000">
  <ele>1275.444460</ele>
  <time>2012-05-06T14:29:40Z</time>
</trkpt>
<trkpt lat="46.228120000" lon="7.427770000">
  <ele>1275.822270</ele>
  <time>2012-05-06T14:29:41Z</time>
</trkpt>
<trkpt lat="46.228110000" lon="7.427720000">
  <ele>1276.199950</ele>
  <time>2012-05-06T14:29:42Z</time>
</trkpt>
<trkpt lat="46.228100000" lon="7.427680000">
  <ele>1276.577760</ele>
  <time>2012-05-06T14:29:43Z</time>
</trkpt>
<trkpt lat="46.228090000" lon="7.427620000">
  <ele>1276.955570</ele>
  <time>2012-05-06T14:29:44Z</time>
</trkpt>
<trkpt lat="46.228080000" lon="7.427580000">
  <ele>1277.333370</ele>
  <time>2012-05-06T14:29:45Z</time>
</trkpt>
<trkpt lat="46.228060000" lon="7.427540000">
  <ele>1277.711060</ele>
  <time>2012-05-06T14:29:46Z</time>
</trkpt>
<trkpt lat="46.228040000" lon="7.427490000">
  <ele>1278.088870</ele>
  <time>2012-05-06T14:29:47Z</time>
</trkpt>
<trkpt lat="46.228020000" lon="7.427450000">
  <ele>1278.466670</ele>
  <time>2012-05-06T14:29:48Z</time>
</trkpt>
<trkpt lat="46.228000000" lon="7.427410000">
  <ele>1278.844480</ele>
  <time>2012-05-06T14:29:49Z</time>
</trkpt>
<trkpt lat="46.227980000" lon="7.427370000">
  <ele>1279.222170</ele>
  <time>2012-05-06T14:29:50Z</time>
</trkpt>
<trkpt lat="46.227960000" lon="7.427330000">
  <ele>1279.599980</ele>
  <time>2012-05-06T14:29:51Z</time>
</trkpt>
<trkpt lat="46.227930000" lon="7.427260000">
  <ele>1279.599980</ele>
  <time>2012-05-06T14:29:53Z</time>
</trkpt>
<trkpt lat="46.227920000" lon="7.427220000">
  <ele>1279.966670</ele>
  <time>2012-05-06T14:29:54Z</time>
</trkpt>
<trkpt lat="46.227910000" lon="7.427170000">
  <ele>1280.333250</ele>
  <time>2012-05-06T14:29:55Z</time>
</trkpt>
<trkpt lat="46.227890000" lon="7.427140000">
  <ele>1280.699950</ele>
  <time>2012-05-06T14:29:56Z</time>
</trkpt>
<trkpt lat="46.227880000" lon="7.427100000">
  <ele>1281.066650</ele>
  <time>2012-05-06T14:29:57Z</time>
</trkpt>
<trkpt lat="46.227870000" lon="7.427060000">
  <ele>1281.433350</ele>
  <time>2012-05-06T14:29:58Z</time>
</trkpt>
<trkpt lat="46.227850000" lon="7.426990000">
  <ele>1282.166630</ele>
  <time>2012-05-06T14:30:00Z</time>
</trkpt>
<trkpt lat="46.227830000" lon="7.426960000">
  <ele>1282.533330</ele>
  <time>2012-05-06T14:30:01Z</time>
</trkpt>
<trkpt lat="46.227820000" lon="7.426920000">
  <ele>1282.899900</ele>
  <time>2012-05-06T14:30:02Z</time>
</trkpt>
<trkpt lat="46.227800000" lon="7.426880000">
  <ele>1283.266600</ele>
  <time>2012-05-06T14:30:03Z</time>
</trkpt>
<trkpt lat="46.227750000" lon="7.426760000">
  <ele>1284.733280</ele>
  <time>2012-05-06T14:30:07Z</time>
</trkpt>
<trkpt lat="46.227730000" lon="7.426730000">
  <ele>1285.099980</ele>
  <time>2012-05-06T14:30:08Z</time>
</trkpt>
<trkpt lat="46.227720000" lon="7.426700000">
  <ele>1285.466670</ele>
  <time>2012-05-06T14:30:09Z</time>
</trkpt>
<trkpt lat="46.227710000" lon="7.426670000">
  <ele>1285.833250</ele>
  <time>2012-05-06T14:30:10Z</time>
</trkpt>
<trkpt lat="46.227690000" lon="7.426640000">
  <ele>1286.199950</ele>
  <time>2012-05-06T14:30:11Z</time>
</trkpt>
<trkpt lat="46.227660000" lon="7.426550000">
  <ele>1286.199950</ele>
  <time>2012-05-06T14:30:14Z</time>
</trkpt>
<trkpt lat="46.227590000" lon="7.426380000">
  <ele>1287.921750</ele>
  <time>2012-05-06T14:30:20Z</time>
</trkpt>
<trkpt lat="46.227570000" lon="7.426340000">
  <ele>1288.208620</ele>
  <time>2012-05-06T14:30:21Z</time>
</trkpt>
<trkpt lat="46.227560000" lon="7.426310000">
  <ele>1288.495610</ele>
  <time>2012-05-06T14:30:22Z</time>
</trkpt>
<trkpt lat="46.227550000" lon="7.426280000">
  <ele>1288.782590</ele>
  <time>2012-05-06T14:30:23Z</time>
</trkpt>
<trkpt lat="46.227540000" lon="7.426240000">
  <ele>1289.069580</ele>
  <time>2012-05-06T14:30:24Z</time>
</trkpt>
<trkpt lat="46.227520000" lon="7.426140000">
  <ele>1289.930420</ele>
  <time>2012-05-06T14:30:27Z</time>
</trkpt>
<trkpt lat="46.227510000" lon="7.426100000">
  <ele>1290.217410</ele>
  <time>2012-05-06T14:30:28Z</time>
</trkpt>
<trkpt lat="46.227510000" lon="7.426070000">
  <ele>1290.504390</ele>
  <time>2012-05-06T14:30:29Z</time>
</trkpt>
<trkpt lat="46.227500000" lon="7.426030000">
  <ele>1290.791380</ele>
  <time>2012-05-06T14:30:30Z</time>
</trkpt>
<trkpt lat="46.227490000" lon="7.425940000">
  <ele>1291.652220</ele>
  <time>2012-05-06T14:30:33Z</time>
</trkpt>
<trkpt lat="46.227480000" lon="7.425910000">
  <ele>1291.939210</ele>
  <time>2012-05-06T14:30:34Z</time>
</trkpt>
<trkpt lat="46.227470000" lon="7.425880000">
  <ele>1292.226070</ele>
  <time>2012-05-06T14:30:35Z</time>
</trkpt>
<trkpt lat="46.227470000" lon="7.425850000">
  <ele>1292.513060</ele>
  <time>2012-05-06T14:30:36Z</time>
</trkpt>
<trkpt lat="46.227470000" lon="7.425820000">
  <ele>1292.800050</ele>
  <time>2012-05-06T14:30:37Z</time>
</trkpt>
<trkpt lat="46.227450000" lon="7.425750000">
  <ele>1292.800050</ele>
  <time>2012-05-06T14:30:39Z</time>
</trkpt>
<trkpt lat="46.227450000" lon="7.425720000">
  <ele>1293.239990</ele>
  <time>2012-05-06T14:30:40Z</time>
</trkpt>
<trkpt lat="46.227440000" lon="7.425690000">
  <ele>1293.680050</ele>
  <time>2012-05-06T14:30:41Z</time>
</trkpt>
<trkpt lat="46.227440000" lon="7.425660000">
  <ele>1294.120000</ele>
  <time>2012-05-06T14:30:42Z</time>
</trkpt>
<trkpt lat="46.227430000" lon="7.425630000">
  <ele>1294.560060</ele>
  <time>2012-05-06T14:30:43Z</time>
</trkpt>
<trkpt lat="46.227420000" lon="7.425590000">
  <ele>1295.000000</ele>
  <time>2012-05-06T14:30:44Z</time>
</trkpt>
<trkpt lat="46.227410000" lon="7.425510000">
  <ele>1295.000000</ele>
  <time>2012-05-06T14:30:47Z</time>
</trkpt>
<trkpt lat="46.227380000" lon="7.425420000">
  <ele>1296.000000</ele>
  <time>2012-05-06T14:30:50Z</time>
</trkpt>
<trkpt lat="46.227370000" lon="7.425390000">
  <ele>1296.333370</ele>
  <time>2012-05-06T14:30:51Z</time>
</trkpt>
<trkpt lat="46.227360000" lon="7.425360000">
  <ele>1296.666630</ele>
  <time>2012-05-06T14:30:52Z</time>
</trkpt>
<trkpt lat="46.227340000" lon="7.425330000">
  <ele>1297.000000</ele>
  <time>2012-05-06T14:30:53Z</time>
</trkpt>
<trkpt lat="46.227320000" lon="7.425280000">
  <ele>1297.000000</ele>
  <time>2012-05-06T14:30:55Z</time>
</trkpt>
<trkpt lat="46.227300000" lon="7.425250000">
  <ele>1297.439940</ele>
  <time>2012-05-06T14:30:56Z</time>
</trkpt>
<trkpt lat="46.227280000" lon="7.425230000">
  <ele>1297.880000</ele>
  <time>2012-05-06T14:30:57Z</time>
</trkpt>
<trkpt lat="46.227270000" lon="7.425210000">
  <ele>1298.319950</ele>
  <time>2012-05-06T14:30:58Z</time>
</trkpt>
<trkpt lat="46.227250000" lon="7.425190000">
  <ele>1298.760010</ele>
  <time>2012-05-06T14:30:59Z</time>
</trkpt>
<trkpt lat="46.227230000" lon="7.425180000">
  <ele>1299.199950</ele>
  <time>2012-05-06T14:31:00Z</time>
</trkpt>
<trkpt lat="46.227190000" lon="7.425140000">
  <ele>1299.199950</ele>
  <time>2012-05-06T14:31:02Z</time>
</trkpt>
<trkpt lat="46.227110000" lon="7.425090000">
  <ele>1300.235230</ele>
  <time>2012-05-06T14:31:06Z</time>
</trkpt>
<trkpt lat="46.227090000" lon="7.425080000">
  <ele>1300.494020</ele>
  <time>2012-05-06T14:31:07Z</time>
</trkpt>
<trkpt lat="46.227070000" lon="7.425070000">
  <ele>1300.752930</ele>
  <time>2012-05-06T14:31:08Z</time>
</trkpt>
<trkpt lat="46.227050000" lon="7.425060000">
  <ele>1301.011720</ele>
  <time>2012-05-06T14:31:09Z</time>
</trkpt>
<trkpt lat="46.227030000" lon="7.425050000">
  <ele>1301.270510</ele>
  <time>2012-05-06T14:31:10Z</time>
</trkpt>
<trkpt lat="46.226920000" lon="7.425000000">
  <ele>1302.564700</ele>
  <time>2012-05-06T14:31:15Z</time>
</trkpt>
<trkpt lat="46.226910000" lon="7.424990000">
  <ele>1302.823490</ele>
  <time>2012-05-06T14:31:16Z</time>
</trkpt>
<trkpt lat="46.226890000" lon="7.424980000">
  <ele>1303.082280</ele>
  <time>2012-05-06T14:31:17Z</time>
</trkpt>
<trkpt lat="46.226870000" lon="7.424970000">
  <ele>1303.341190</ele>
  <time>2012-05-06T14:31:18Z</time>
</trkpt>
<trkpt lat="46.226840000" lon="7.424960000">
  <ele>1303.599980</ele>
  <time>2012-05-06T14:31:19Z</time>
</trkpt>
<trkpt lat="46.226700000" lon="7.424890000">
  <ele>1303.599980</ele>
  <time>2012-05-06T14:31:26Z</time>
</trkpt>
<trkpt lat="46.226620000" lon="7.424850000">
  <ele>1304.599980</ele>
  <time>2012-05-06T14:31:30Z</time>
</trkpt>
<trkpt lat="46.226600000" lon="7.424850000">
  <ele>1304.849980</ele>
  <time>2012-05-06T14:31:31Z</time>
</trkpt>
<trkpt lat="46.226580000" lon="7.424850000">
  <ele>1305.099980</ele>
  <time>2012-05-06T14:31:32Z</time>
</trkpt>
<trkpt lat="46.226550000" lon="7.424850000">
  <ele>1305.349980</ele>
  <time>2012-05-06T14:31:33Z</time>
</trkpt>
<trkpt lat="46.226530000" lon="7.424860000">
  <ele>1305.599980</ele>
  <time>2012-05-06T14:31:34Z</time>
</trkpt>
<trkpt lat="46.226410000" lon="7.424920000">
  <ele>1305.599980</ele>
  <time>2012-05-06T14:31:39Z</time>
</trkpt>
<trkpt lat="46.226340000" lon="7.425060000">
  <ele>1303.954220</ele>
  <time>2012-05-06T14:31:43Z</time>
</trkpt>
<trkpt lat="46.226320000" lon="7.425110000">
  <ele>1303.542850</ele>
  <time>2012-05-06T14:31:44Z</time>
</trkpt>
<trkpt lat="46.226260000" lon="7.425410000">
  <ele>1301.485720</ele>
  <time>2012-05-06T14:31:49Z</time>
</trkpt>
<trkpt lat="46.226240000" lon="7.425560000">
  <ele>1300.662840</ele>
  <time>2012-05-06T14:31:51Z</time>
</trkpt>
<trkpt lat="46.226200000" lon="7.425740000">
  <ele>1299.839970</ele>
  <time>2012-05-06T14:31:53Z</time>
</trkpt>
<trkpt lat="46.226170000" lon="7.425830000">
  <ele>1299.428590</ele>
  <time>2012-05-06T14:31:54Z</time>
</trkpt>
<trkpt lat="46.226140000" lon="7.425910000">
  <ele>1299.017090</ele>
  <time>2012-05-06T14:31:55Z</time>
</trkpt>
<trkpt lat="46.226100000" lon="7.425990000">
  <ele>1298.605710</ele>
  <time>2012-05-06T14:31:56Z</time>
</trkpt>
<trkpt lat="46.226050000" lon="7.426060000">
  <ele>1298.194210</ele>
  <time>2012-05-06T14:31:57Z</time>
</trkpt>
<trkpt lat="46.226000000" lon="7.426130000">
  <ele>1297.782840</ele>
  <time>2012-05-06T14:31:58Z</time>
</trkpt>
<trkpt lat="46.225940000" lon="7.426190000">
  <ele>1297.371340</ele>
  <time>2012-05-06T14:31:59Z</time>
</trkpt>
<trkpt lat="46.225890000" lon="7.426250000">
  <ele>1296.959960</ele>
  <time>2012-05-06T14:32:00Z</time>
</trkpt>
<trkpt lat="46.225830000" lon="7.426320000">
  <ele>1296.548580</ele>
  <time>2012-05-06T14:32:01Z</time>
</trkpt>
<trkpt lat="46.225640000" lon="7.426520000">
  <ele>1295.314210</ele>
  <time>2012-05-06T14:32:04Z</time>
</trkpt>
<trkpt lat="46.225560000" lon="7.426560000">
  <ele>1294.902830</ele>
  <time>2012-05-06T14:32:05Z</time>
</trkpt>
<trkpt lat="46.225470000" lon="7.426580000">
  <ele>1294.491330</ele>
  <time>2012-05-06T14:32:06Z</time>
</trkpt>
<trkpt lat="46.225390000" lon="7.426610000">
  <ele>1294.079960</ele>
  <time>2012-05-06T14:32:07Z</time>
</trkpt>
<trkpt lat="46.225300000" lon="7.426630000">
  <ele>1293.668580</ele>
  <time>2012-05-06T14:32:08Z</time>
</trkpt>
<trkpt lat="46.225220000" lon="7.426650000">
  <ele>1293.257080</ele>
  <time>2012-05-06T14:32:09Z</time>
</trkpt>
<trkpt lat="46.225130000" lon="7.426670000">
  <ele>1292.845700</ele>
  <time>2012-05-06T14:32:10Z</time>
</trkpt>
<trkpt lat="46.225040000" lon="7.426690000">
  <ele>1292.434200</ele>
  <time>2012-05-06T14:32:11Z</time>
</trkpt>
<trkpt lat="46.224960000" lon="7.426700000">
  <ele>1292.022830</ele>
  <time>2012-05-06T14:32:12Z</time>
</trkpt>
<trkpt lat="46.224880000" lon="7.426710000">
  <ele>1291.611330</ele>
  <time>2012-05-06T14:32:13Z</time>
</trkpt>
<trkpt lat="46.224790000" lon="7.426700000">
  <ele>1291.199950</ele>
  <time>2012-05-06T14:32:14Z</time>
</trkpt>
<trkpt lat="46.224700000" lon="7.426680000">
  <ele>1291.199950</ele>
  <time>2012-05-06T14:32:15Z</time>
</trkpt>
<trkpt lat="46.224610000" lon="7.426610000">
  <ele>1290.145750</ele>
  <time>2012-05-06T14:32:16Z</time>
</trkpt>
<trkpt lat="46.224520000" lon="7.426540000">
  <ele>1289.091430</ele>
  <time>2012-05-06T14:32:17Z</time>
</trkpt>
<trkpt lat="46.224430000" lon="7.426510000">
  <ele>1288.037230</ele>
  <time>2012-05-06T14:32:18Z</time>
</trkpt>
<trkpt lat="46.224330000" lon="7.426520000">
  <ele>1286.983030</ele>
  <time>2012-05-06T14:32:19Z</time>
</trkpt>
<trkpt lat="46.224240000" lon="7.426550000">
  <ele>1285.928710</ele>
  <time>2012-05-06T14:32:20Z</time>
</trkpt>
<trkpt lat="46.224140000" lon="7.426580000">
  <ele>1284.874510</ele>
  <time>2012-05-06T14:32:21Z</time>
</trkpt>
<trkpt lat="46.224040000" lon="7.426610000">
  <ele>1283.820310</ele>
  <time>2012-05-06T14:32:22Z</time>
</trkpt>
<trkpt lat="46.223950000" lon="7.426630000">
  <ele>1282.766110</ele>
  <time>2012-05-06T14:32:23Z</time>
</trkpt>
<trkpt lat="46.223840000" lon="7.426650000">
  <ele>1281.711790</ele>
  <time>2012-05-06T14:32:24Z</time>
</trkpt>
<trkpt lat="46.223740000" lon="7.426680000">
  <ele>1280.657590</ele>
  <time>2012-05-06T14:32:25Z</time>
</trkpt>
<trkpt lat="46.223640000" lon="7.426710000">
  <ele>1279.603390</ele>
  <time>2012-05-06T14:32:26Z</time>
</trkpt>
<trkpt lat="46.223540000" lon="7.426740000">
  <ele>1278.549070</ele>
  <time>2012-05-06T14:32:27Z</time>
</trkpt>
<trkpt lat="46.223440000" lon="7.426780000">
  <ele>1277.494870</ele>
  <time>2012-05-06T14:32:28Z</time>
</trkpt>
<trkpt lat="46.223330000" lon="7.426800000">
  <ele>1276.440670</ele>
  <time>2012-05-06T14:32:29Z</time>
</trkpt>
<trkpt lat="46.223220000" lon="7.426830000">
  <ele>1275.386350</ele>
  <time>2012-05-06T14:32:30Z</time>
</trkpt>
<trkpt lat="46.223120000" lon="7.426850000">
  <ele>1274.332150</ele>
  <time>2012-05-06T14:32:31Z</time>
</trkpt>
<trkpt lat="46.223010000" lon="7.426870000">
  <ele>1273.277950</ele>
  <time>2012-05-06T14:32:32Z</time>
</trkpt>
<trkpt lat="46.222910000" lon="7.426890000">
  <ele>1272.223750</ele>
  <time>2012-05-06T14:32:33Z</time>
</trkpt>
<trkpt lat="46.222810000" lon="7.426920000">
  <ele>1271.169430</ele>
  <time>2012-05-06T14:32:34Z</time>
</trkpt>
<trkpt lat="46.222590000" lon="7.426980000">
  <ele>1269.061040</ele>
  <time>2012-05-06T14:32:36Z</time>
</trkpt>
<trkpt lat="46.222480000" lon="7.427010000">
  <ele>1268.006710</ele>
  <time>2012-05-06T14:32:37Z</time>
</trkpt>
<trkpt lat="46.222370000" lon="7.427060000">
  <ele>1266.952510</ele>
  <time>2012-05-06T14:32:38Z</time>
</trkpt>
<trkpt lat="46.222270000" lon="7.427140000">
  <ele>1265.898320</ele>
  <time>2012-05-06T14:32:39Z</time>
</trkpt>
<trkpt lat="46.222170000" lon="7.427230000">
  <ele>1264.843990</ele>
  <time>2012-05-06T14:32:40Z</time>
</trkpt>
<trkpt lat="46.222070000" lon="7.427310000">
  <ele>1263.789790</ele>
  <time>2012-05-06T14:32:41Z</time>
</trkpt>
<trkpt lat="46.221970000" lon="7.427380000">
  <ele>1262.735600</ele>
  <time>2012-05-06T14:32:42Z</time>
</trkpt>
<trkpt lat="46.221860000" lon="7.427420000">
  <ele>1261.681270</ele>
  <time>2012-05-06T14:32:43Z</time>
</trkpt>
<trkpt lat="46.221750000" lon="7.427440000">
  <ele>1260.627080</ele>
  <time>2012-05-06T14:32:44Z</time>
</trkpt>
<trkpt lat="46.221630000" lon="7.427460000">
  <ele>1259.572880</ele>
  <time>2012-05-06T14:32:45Z</time>
</trkpt>
<trkpt lat="46.221500000" lon="7.427490000">
  <ele>1258.518680</ele>
  <time>2012-05-06T14:32:46Z</time>
</trkpt>
<trkpt lat="46.221380000" lon="7.427510000">
  <ele>1257.464360</ele>
  <time>2012-05-06T14:32:47Z</time>
</trkpt>
<trkpt lat="46.221260000" lon="7.427520000">
  <ele>1256.410160</ele>
  <time>2012-05-06T14:32:48Z</time>
</trkpt>
<trkpt lat="46.221140000" lon="7.427540000">
  <ele>1255.355960</ele>
  <time>2012-05-06T14:32:49Z</time>
</trkpt>
<trkpt lat="46.221010000" lon="7.427570000">
  <ele>1254.301640</ele>
  <time>2012-05-06T14:32:50Z</time>
</trkpt>
<trkpt lat="46.220890000" lon="7.427590000">
  <ele>1253.247440</ele>
  <time>2012-05-06T14:32:51Z</time>
</trkpt>
<trkpt lat="46.220760000" lon="7.427610000">
  <ele>1252.193240</ele>
  <time>2012-05-06T14:32:52Z</time>
</trkpt>
<trkpt lat="46.220630000" lon="7.427630000">
  <ele>1251.138920</ele>
  <time>2012-05-06T14:32:53Z</time>
</trkpt>
<trkpt lat="46.220510000" lon="7.427660000">
  <ele>1250.084720</ele>
  <time>2012-05-06T14:32:54Z</time>
</trkpt>
<trkpt lat="46.220380000" lon="7.427680000">
  <ele>1249.030520</ele>
  <time>2012-05-06T14:32:55Z</time>
</trkpt>
<trkpt lat="46.220260000" lon="7.427690000">
  <ele>1247.976200</ele>
  <time>2012-05-06T14:32:56Z</time>
</trkpt>
<trkpt lat="46.220130000" lon="7.427690000">
  <ele>1246.922000</ele>
  <time>2012-05-06T14:32:57Z</time>
</trkpt>
<trkpt lat="46.220020000" lon="7.427680000">
  <ele>1245.867800</ele>
  <time>2012-05-06T14:32:58Z</time>
</trkpt>
<trkpt lat="46.219900000" lon="7.427670000">
  <ele>1244.813600</ele>
  <time>2012-05-06T14:32:59Z</time>
</trkpt>
<trkpt lat="46.219800000" lon="7.427670000">
  <ele>1243.759280</ele>
  <time>2012-05-06T14:33:00Z</time>
</trkpt>
<trkpt lat="46.219690000" lon="7.427720000">
  <ele>1242.705080</ele>
  <time>2012-05-06T14:33:01Z</time>
</trkpt>
<trkpt lat="46.219590000" lon="7.427780000">
  <ele>1241.650880</ele>
  <time>2012-05-06T14:33:02Z</time>
</trkpt>
<trkpt lat="46.219480000" lon="7.427870000">
  <ele>1240.596560</ele>
  <time>2012-05-06T14:33:03Z</time>
</trkpt>
<trkpt lat="46.219380000" lon="7.427960000">
  <ele>1239.542360</ele>
  <time>2012-05-06T14:33:04Z</time>
</trkpt>
<trkpt lat="46.219280000" lon="7.428020000">
  <ele>1238.488160</ele>
  <time>2012-05-06T14:33:05Z</time>
</trkpt>
<trkpt lat="46.219160000" lon="7.428030000">
  <ele>1237.433840</ele>
  <time>2012-05-06T14:33:06Z</time>
</trkpt>
<trkpt lat="46.219030000" lon="7.428000000">
  <ele>1236.379640</ele>
  <time>2012-05-06T14:33:07Z</time>
</trkpt>
<trkpt lat="46.218920000" lon="7.427940000">
  <ele>1235.325440</ele>
  <time>2012-05-06T14:33:08Z</time>
</trkpt>
<trkpt lat="46.218810000" lon="7.427870000">
  <ele>1234.271240</ele>
  <time>2012-05-06T14:33:09Z</time>
</trkpt>
<trkpt lat="46.218690000" lon="7.427820000">
  <ele>1233.216920</ele>
  <time>2012-05-06T14:33:10Z</time>
</trkpt>
<trkpt lat="46.218570000" lon="7.427810000">
  <ele>1232.162720</ele>
  <time>2012-05-06T14:33:11Z</time>
</trkpt>
<trkpt lat="46.218460000" lon="7.427820000">
  <ele>1231.108520</ele>
  <time>2012-05-06T14:33:12Z</time>
</trkpt>
<trkpt lat="46.218350000" lon="7.427820000">
  <ele>1230.054200</ele>
  <time>2012-05-06T14:33:13Z</time>
</trkpt>
<trkpt lat="46.218230000" lon="7.427810000">
  <ele>1229.000000</ele>
  <time>2012-05-06T14:33:14Z</time>
</trkpt>
<trkpt lat="46.218120000" lon="7.427780000">
  <ele>1229.000000</ele>
  <time>2012-05-06T14:33:15Z</time>
</trkpt>
<trkpt lat="46.217990000" lon="7.427750000">
  <ele>1227.945070</ele>
  <time>2012-05-06T14:33:16Z</time>
</trkpt>
<trkpt lat="46.217870000" lon="7.427720000">
  <ele>1226.890140</ele>
  <time>2012-05-06T14:33:17Z</time>
</trkpt>
<trkpt lat="46.217750000" lon="7.427690000">
  <ele>1225.835330</ele>
  <time>2012-05-06T14:33:18Z</time>
</trkpt>
<trkpt lat="46.217620000" lon="7.427680000">
  <ele>1224.780400</ele>
  <time>2012-05-06T14:33:19Z</time>
</trkpt>
<trkpt lat="46.217510000" lon="7.427680000">
  <ele>1223.725460</ele>
  <time>2012-05-06T14:33:20Z</time>
</trkpt>
<trkpt lat="46.217390000" lon="7.427680000">
  <ele>1222.670530</ele>
  <time>2012-05-06T14:33:21Z</time>
</trkpt>
<trkpt lat="46.217270000" lon="7.427660000">
  <ele>1221.615720</ele>
  <time>2012-05-06T14:33:22Z</time>
</trkpt>
<trkpt lat="46.217160000" lon="7.427610000">
  <ele>1220.560790</ele>
  <time>2012-05-06T14:33:23Z</time>
</trkpt>
<trkpt lat="46.217050000" lon="7.427550000">
  <ele>1219.505860</ele>
  <time>2012-05-06T14:33:24Z</time>
</trkpt>
<trkpt lat="46.216950000" lon="7.427450000">
  <ele>1218.450930</ele>
  <time>2012-05-06T14:33:25Z</time>
</trkpt>
<trkpt lat="46.216850000" lon="7.427350000">
  <ele>1217.396120</ele>
  <time>2012-05-06T14:33:26Z</time>
</trkpt>
<trkpt lat="46.216740000" lon="7.427270000">
  <ele>1216.341190</ele>
  <time>2012-05-06T14:33:27Z</time>
</trkpt>
<trkpt lat="46.216620000" lon="7.427220000">
  <ele>1215.286250</ele>
  <time>2012-05-06T14:33:28Z</time>
</trkpt>
<trkpt lat="46.216500000" lon="7.427190000">
  <ele>1214.231320</ele>
  <time>2012-05-06T14:33:29Z</time>
</trkpt>
<trkpt lat="46.216380000" lon="7.427120000">
  <ele>1213.176510</ele>
  <time>2012-05-06T14:33:30Z</time>
</trkpt>
<trkpt lat="46.216270000" lon="7.427050000">
  <ele>1212.121580</ele>
  <time>2012-05-06T14:33:31Z</time>
</trkpt>
<trkpt lat="46.216150000" lon="7.426970000">
  <ele>1211.066650</ele>
  <time>2012-05-06T14:33:32Z</time>
</trkpt>
<trkpt lat="46.216050000" lon="7.426870000">
  <ele>1210.011720</ele>
  <time>2012-05-06T14:33:33Z</time>
</trkpt>
<trkpt lat="46.215950000" lon="7.426740000">
  <ele>1208.956790</ele>
  <time>2012-05-06T14:33:34Z</time>
</trkpt>
<trkpt lat="46.215860000" lon="7.426610000">
  <ele>1207.901980</ele>
  <time>2012-05-06T14:33:35Z</time>
</trkpt>
<trkpt lat="46.215780000" lon="7.426490000">
  <ele>1206.847050</ele>
  <time>2012-05-06T14:33:36Z</time>
</trkpt>
<trkpt lat="46.215700000" lon="7.426340000">
  <ele>1205.792110</ele>
  <time>2012-05-06T14:33:37Z</time>
</trkpt>
<trkpt lat="46.215630000" lon="7.426170000">
  <ele>1204.737180</ele>
  <time>2012-05-06T14:33:38Z</time>
</trkpt>
<trkpt lat="46.215570000" lon="7.426010000">
  <ele>1203.682370</ele>
  <time>2012-05-06T14:33:39Z</time>
</trkpt>
<trkpt lat="46.215500000" lon="7.425860000">
  <ele>1202.627440</ele>
  <time>2012-05-06T14:33:40Z</time>
</trkpt>
<trkpt lat="46.215410000" lon="7.425710000">
  <ele>1201.572510</ele>
  <time>2012-05-06T14:33:41Z</time>
</trkpt>
<trkpt lat="46.215330000" lon="7.425560000">
  <ele>1200.517580</ele>
  <time>2012-05-06T14:33:42Z</time>
</trkpt>
<trkpt lat="46.215270000" lon="7.425390000">
  <ele>1199.462770</ele>
  <time>2012-05-06T14:33:43Z</time>
</trkpt>
<trkpt lat="46.215220000" lon="7.425210000">
  <ele>1198.407840</ele>
  <time>2012-05-06T14:33:44Z</time>
</trkpt>
<trkpt lat="46.215160000" lon="7.425040000">
  <ele>1197.352910</ele>
  <time>2012-05-06T14:33:45Z</time>
</trkpt>
<trkpt lat="46.215080000" lon="7.424890000">
  <ele>1196.297970</ele>
  <time>2012-05-06T14:33:46Z</time>
</trkpt>
<trkpt lat="46.215010000" lon="7.424740000">
  <ele>1195.243160</ele>
  <time>2012-05-06T14:33:47Z</time>
</trkpt>
<trkpt lat="46.214950000" lon="7.424600000">
  <ele>1194.188230</ele>
  <time>2012-05-06T14:33:48Z</time>
</trkpt>
<trkpt lat="46.214880000" lon="7.424480000">
  <ele>1193.133300</ele>
  <time>2012-05-06T14:33:49Z</time>
</trkpt>
<trkpt lat="46.214800000" lon="7.424380000">
  <ele>1192.078370</ele>
  <time>2012-05-06T14:33:50Z</time>
</trkpt>
<trkpt lat="46.214700000" lon="7.424320000">
  <ele>1191.023440</ele>
  <time>2012-05-06T14:33:51Z</time>
</trkpt>
<trkpt lat="46.214600000" lon="7.424290000">
  <ele>1189.968630</ele>
  <time>2012-05-06T14:33:52Z</time>
</trkpt>
<trkpt lat="46.214480000" lon="7.424290000">
  <ele>1188.913700</ele>
  <time>2012-05-06T14:33:53Z</time>
</trkpt>
<trkpt lat="46.214370000" lon="7.424270000">
  <ele>1187.858760</ele>
  <time>2012-05-06T14:33:54Z</time>
</trkpt>
<trkpt lat="46.214250000" lon="7.424230000">
  <ele>1186.803830</ele>
  <time>2012-05-06T14:33:55Z</time>
</trkpt>
<trkpt lat="46.214130000" lon="7.424160000">
  <ele>1185.749020</ele>
  <time>2012-05-06T14:33:56Z</time>
</trkpt>
<trkpt lat="46.214020000" lon="7.424090000">
  <ele>1184.694090</ele>
  <time>2012-05-06T14:33:57Z</time>
</trkpt>
<trkpt lat="46.213920000" lon="7.424010000">
  <ele>1183.639160</ele>
  <time>2012-05-06T14:33:58Z</time>
</trkpt>
<trkpt lat="46.213820000" lon="7.423900000">
  <ele>1182.584230</ele>
  <time>2012-05-06T14:33:59Z</time>
</trkpt>
<trkpt lat="46.213720000" lon="7.423790000">
  <ele>1181.529420</ele>
  <time>2012-05-06T14:34:00Z</time>
</trkpt>
<trkpt lat="46.213610000" lon="7.423680000">
  <ele>1180.474490</ele>
  <time>2012-05-06T14:34:01Z</time>
</trkpt>
<trkpt lat="46.213520000" lon="7.423570000">
  <ele>1179.419560</ele>
  <time>2012-05-06T14:34:02Z</time>
</trkpt>
<trkpt lat="46.213430000" lon="7.423450000">
  <ele>1178.364620</ele>
  <time>2012-05-06T14:34:03Z</time>
</trkpt>
<trkpt lat="46.213350000" lon="7.423330000">
  <ele>1177.309810</ele>
  <time>2012-05-06T14:34:04Z</time>
</trkpt>
<trkpt lat="46.213280000" lon="7.423200000">
  <ele>1176.254880</ele>
  <time>2012-05-06T14:34:05Z</time>
</trkpt>
<trkpt lat="46.213200000" lon="7.423100000">
  <ele>1175.199950</ele>
  <time>2012-05-06T14:34:06Z</time>
</trkpt>
<trkpt lat="46.213120000" lon="7.423030000">
  <ele>1175.199950</ele>
  <time>2012-05-06T14:34:07Z</time>
</trkpt>
<trkpt lat="46.213020000" lon="7.423040000">
  <ele>1174.085690</ele>
  <time>2012-05-06T14:34:08Z</time>
</trkpt>
<trkpt lat="46.212940000" lon="7.423120000">
  <ele>1172.971440</ele>
  <time>2012-05-06T14:34:09Z</time>
</trkpt>
<trkpt lat="46.212870000" lon="7.423240000">
  <ele>1171.857060</ele>
  <time>2012-05-06T14:34:10Z</time>
</trkpt>
<trkpt lat="46.212800000" lon="7.423360000">
  <ele>1170.742800</ele>
  <time>2012-05-06T14:34:11Z</time>
</trkpt>
<trkpt lat="46.212730000" lon="7.423470000">
  <ele>1169.628540</ele>
  <time>2012-05-06T14:34:12Z</time>
</trkpt>
<trkpt lat="46.212640000" lon="7.423570000">
  <ele>1168.514280</ele>
  <time>2012-05-06T14:34:13Z</time>
</trkpt>
<trkpt lat="46.212550000" lon="7.423670000">
  <ele>1167.399900</ele>
  <time>2012-05-06T14:34:14Z</time>
</trkpt>
<trkpt lat="46.212480000" lon="7.423810000">
  <ele>1166.285640</ele>
  <time>2012-05-06T14:34:15Z</time>
</trkpt>
<trkpt lat="46.212430000" lon="7.423970000">
  <ele>1165.171390</ele>
  <time>2012-05-06T14:34:16Z</time>
</trkpt>
<trkpt lat="46.212390000" lon="7.424130000">
  <ele>1164.057130</ele>
  <time>2012-05-06T14:34:17Z</time>
</trkpt>
<trkpt lat="46.212320000" lon="7.424290000">
  <ele>1162.942870</ele>
  <time>2012-05-06T14:34:18Z</time>
</trkpt>
<trkpt lat="46.212260000" lon="7.424430000">
  <ele>1161.828490</ele>
  <time>2012-05-06T14:34:19Z</time>
</trkpt>
<trkpt lat="46.212170000" lon="7.424560000">
  <ele>1160.714230</ele>
  <time>2012-05-06T14:34:20Z</time>
</trkpt>
<trkpt lat="46.212070000" lon="7.424670000">
  <ele>1159.599980</ele>
  <time>2012-05-06T14:34:21Z</time>
</trkpt>
<trkpt lat="46.211960000" lon="7.424770000">
  <ele>1158.485720</ele>
  <time>2012-05-06T14:34:22Z</time>
</trkpt>
<trkpt lat="46.211850000" lon="7.424860000">
  <ele>1157.371460</ele>
  <time>2012-05-06T14:34:23Z</time>
</trkpt>
<trkpt lat="46.211740000" lon="7.424930000">
  <ele>1156.257080</ele>
  <time>2012-05-06T14:34:24Z</time>
</trkpt>
<trkpt lat="46.211620000" lon="7.424970000">
  <ele>1155.142820</ele>
  <time>2012-05-06T14:34:25Z</time>
</trkpt>
<trkpt lat="46.211490000" lon="7.424980000">
  <ele>1154.028560</ele>
  <time>2012-05-06T14:34:26Z</time>
</trkpt>
<trkpt lat="46.211380000" lon="7.425010000">
  <ele>1152.914310</ele>
  <time>2012-05-06T14:34:27Z</time>
</trkpt>
<trkpt lat="46.211270000" lon="7.425040000">
  <ele>1151.800050</ele>
  <time>2012-05-06T14:34:28Z</time>
</trkpt>
<trkpt lat="46.211150000" lon="7.425080000">
  <ele>1150.685670</ele>
  <time>2012-05-06T14:34:29Z</time>
</trkpt>
<trkpt lat="46.211060000" lon="7.425150000">
  <ele>1149.571410</ele>
  <time>2012-05-06T14:34:30Z</time>
</trkpt>
<trkpt lat="46.210960000" lon="7.425220000">
  <ele>1148.457150</ele>
  <time>2012-05-06T14:34:31Z</time>
</trkpt>
<trkpt lat="46.210850000" lon="7.425270000">
  <ele>1147.342900</ele>
  <time>2012-05-06T14:34:32Z</time>
</trkpt>
<trkpt lat="46.210730000" lon="7.425290000">
  <ele>1146.228520</ele>
  <time>2012-05-06T14:34:33Z</time>
</trkpt>
<trkpt lat="46.210630000" lon="7.425310000">
  <ele>1145.114260</ele>
  <time>2012-05-06T14:34:34Z</time>
</trkpt>
<trkpt lat="46.210550000" lon="7.425340000">
  <ele>1144.000000</ele>
  <time>2012-05-06T14:34:35Z</time>
</trkpt>
<trkpt lat="46.210380000" lon="7.425480000">
  <ele>1144.000000</ele>
  <time>2012-05-06T14:34:38Z</time>
</trkpt>
<trkpt lat="46.210350000" lon="7.425540000">
  <ele>1144.058840</ele>
  <time>2012-05-06T14:34:39Z</time>
</trkpt>
<trkpt lat="46.210320000" lon="7.425590000">
  <ele>1144.117680</ele>
  <time>2012-05-06T14:34:40Z</time>
</trkpt>
<trkpt lat="46.210310000" lon="7.425620000">
  <ele>1144.176510</ele>
  <time>2012-05-06T14:34:41Z</time>
</trkpt>
<trkpt lat="46.210300000" lon="7.425620000">
  <ele>1144.235350</ele>
  <time>2012-05-06T14:34:42Z</time>
</trkpt>
<trkpt lat="46.210290000" lon="7.425620000">
  <ele>1144.294070</ele>
  <time>2012-05-06T14:34:43Z</time>
</trkpt>
<trkpt lat="46.210270000" lon="7.425620000">
  <ele>1144.352910</ele>
  <time>2012-05-06T14:34:44Z</time>
</trkpt>
<trkpt lat="46.210260000" lon="7.425600000">
  <ele>1144.411740</ele>
  <time>2012-05-06T14:34:45Z</time>
</trkpt>
<trkpt lat="46.210240000" lon="7.425580000">
  <ele>1144.470580</ele>
  <time>2012-05-06T14:34:46Z</time>
</trkpt>
<trkpt lat="46.210210000" lon="7.425570000">
  <ele>1144.529420</ele>
  <time>2012-05-06T14:34:47Z</time>
</trkpt>
<trkpt lat="46.210190000" lon="7.425600000">
  <ele>1144.588260</ele>
  <time>2012-05-06T14:34:48Z</time>
</trkpt>
<trkpt lat="46.210190000" lon="7.425690000">
  <ele>1144.705930</ele>
  <time>2012-05-06T14:34:50Z</time>
</trkpt>
<trkpt lat="46.210180000" lon="7.425740000">
  <ele>1144.764650</ele>
  <time>2012-05-06T14:34:51Z</time>
</trkpt>
<trkpt lat="46.210180000" lon="7.425790000">
  <ele>1144.823490</ele>
  <time>2012-05-06T14:34:52Z</time>
</trkpt>
<trkpt lat="46.210190000" lon="7.425960000">
  <ele>1145.058840</ele>
  <time>2012-05-06T14:34:56Z</time>
</trkpt>
<trkpt lat="46.210170000" lon="7.426200000">
  <ele>1145.411740</ele>
  <time>2012-05-06T14:35:02Z</time>
</trkpt>
<trkpt lat="46.210110000" lon="7.426410000">
  <ele>1145.764650</ele>
  <time>2012-05-06T14:35:08Z</time>
</trkpt>
<trkpt lat="46.210090000" lon="7.426450000">
  <ele>1145.823490</ele>
  <time>2012-05-06T14:35:09Z</time>
</trkpt>
<trkpt lat="46.210080000" lon="7.426480000">
  <ele>1145.882320</ele>
  <time>2012-05-06T14:35:10Z</time>
</trkpt>
<trkpt lat="46.210070000" lon="7.426500000">
  <ele>1145.941160</ele>
  <time>2012-05-06T14:35:11Z</time>
</trkpt>
<trkpt lat="46.210050000" lon="7.426530000">
  <ele>1146.000000</ele>
  <time>2012-05-06T14:35:12Z</time>
</trkpt>
<trkpt lat="46.210010000" lon="7.426610000">
  <ele>1146.000000</ele>
  <time>2012-05-06T14:35:15Z</time>
</trkpt>
<trkpt lat="46.210000000" lon="7.426640000">
  <ele>1146.366700</ele>
  <time>2012-05-06T14:35:16Z</time>
</trkpt>
<trkpt lat="46.209980000" lon="7.426660000">
  <ele>1146.733280</ele>
  <time>2012-05-06T14:35:17Z</time>
</trkpt>
<trkpt lat="46.209960000" lon="7.426680000">
  <ele>1147.099980</ele>
  <time>2012-05-06T14:35:18Z</time>
</trkpt>
<trkpt lat="46.209950000" lon="7.426700000">
  <ele>1147.466670</ele>
  <time>2012-05-06T14:35:19Z</time>
</trkpt>
<trkpt lat="46.209930000" lon="7.426730000">
  <ele>1147.833250</ele>
  <time>2012-05-06T14:35:20Z</time>
</trkpt>
<trkpt lat="46.209920000" lon="7.426750000">
  <ele>1148.199950</ele>
  <time>2012-05-06T14:35:21Z</time>
</trkpt>
<trkpt lat="46.209890000" lon="7.426810000">
  <ele>1148.199950</ele>
  <time>2012-05-06T14:35:23Z</time>
</trkpt>
<trkpt lat="46.209840000" lon="7.426940000">
  <ele>1149.072630</ele>
  <time>2012-05-06T14:35:27Z</time>
</trkpt>
<trkpt lat="46.209810000" lon="7.427000000">
  <ele>1149.509030</ele>
  <time>2012-05-06T14:35:29Z</time>
</trkpt>
<trkpt lat="46.209800000" lon="7.427030000">
  <ele>1149.727290</ele>
  <time>2012-05-06T14:35:30Z</time>
</trkpt>
<trkpt lat="46.209780000" lon="7.427060000">
  <ele>1149.945430</ele>
  <time>2012-05-06T14:35:31Z</time>
</trkpt>
<trkpt lat="46.209770000" lon="7.427090000">
  <ele>1150.163570</ele>
  <time>2012-05-06T14:35:32Z</time>
</trkpt>
<trkpt lat="46.209750000" lon="7.427120000">
  <ele>1150.381840</ele>
  <time>2012-05-06T14:35:33Z</time>
</trkpt>
<trkpt lat="46.209740000" lon="7.427160000">
  <ele>1150.599980</ele>
  <time>2012-05-06T14:35:34Z</time>
</trkpt>
<trkpt lat="46.209700000" lon="7.427240000">
  <ele>1150.599980</ele>
  <time>2012-05-06T14:35:36Z</time>
</trkpt>
<trkpt lat="46.209640000" lon="7.427350000">
  <ele>1151.742800</ele>
  <time>2012-05-06T14:35:40Z</time>
</trkpt>
<trkpt lat="46.209630000" lon="7.427370000">
  <ele>1152.028560</ele>
  <time>2012-05-06T14:35:41Z</time>
</trkpt>
<trkpt lat="46.209610000" lon="7.427390000">
  <ele>1152.314210</ele>
  <time>2012-05-06T14:35:42Z</time>
</trkpt>
<trkpt lat="46.209590000" lon="7.427410000">
  <ele>1152.599980</ele>
  <time>2012-05-06T14:35:43Z</time>
</trkpt>
<trkpt lat="46.209510000" lon="7.427490000">
  <ele>1152.599980</ele>
  <time>2012-05-06T14:35:47Z</time>
</trkpt>
<trkpt lat="46.209490000" lon="7.427510000">
  <ele>1153.040040</ele>
  <time>2012-05-06T14:35:48Z</time>
</trkpt>
<trkpt lat="46.209470000" lon="7.427520000">
  <ele>1153.479980</ele>
  <time>2012-05-06T14:35:49Z</time>
</trkpt>
<trkpt lat="46.209450000" lon="7.427540000">
  <ele>1153.920040</ele>
  <time>2012-05-06T14:35:50Z</time>
</trkpt>
<trkpt lat="46.209430000" lon="7.427560000">
  <ele>1154.359990</ele>
  <time>2012-05-06T14:35:51Z</time>
</trkpt>
<trkpt lat="46.209410000" lon="7.427570000">
  <ele>1154.800050</ele>
  <time>2012-05-06T14:35:52Z</time>
</trkpt>
<trkpt lat="46.209380000" lon="7.427630000">
  <ele>1154.800050</ele>
  <time>2012-05-06T14:35:54Z</time>
</trkpt>
<trkpt lat="46.209330000" lon="7.427760000">
  <ele>1155.900020</ele>
  <time>2012-05-06T14:35:58Z</time>
</trkpt>
<trkpt lat="46.209330000" lon="7.427800000">
  <ele>1156.175050</ele>
  <time>2012-05-06T14:35:59Z</time>
</trkpt>
<trkpt lat="46.209320000" lon="7.427830000">
  <ele>1156.449950</ele>
  <time>2012-05-06T14:36:00Z</time>
</trkpt>
<trkpt lat="46.209310000" lon="7.427870000">
  <ele>1156.724980</ele>
  <time>2012-05-06T14:36:01Z</time>
</trkpt>
<trkpt lat="46.209300000" lon="7.427900000">
  <ele>1157.000000</ele>
  <time>2012-05-06T14:36:02Z</time>
</trkpt>
<trkpt lat="46.209230000" lon="7.428040000">
  <ele>1157.000000</ele>
  <time>2012-05-06T14:36:07Z</time>
</trkpt>
<trkpt lat="46.209220000" lon="7.428070000">
  <ele>1157.400020</ele>
  <time>2012-05-06T14:36:08Z</time>
</trkpt>
<trkpt lat="46.209210000" lon="7.428110000">
  <ele>1157.800050</ele>
  <time>2012-05-06T14:36:09Z</time>
</trkpt>
<trkpt lat="46.209200000" lon="7.428130000">
  <ele>1158.199950</ele>
  <time>2012-05-06T14:36:10Z</time>
</trkpt>
<trkpt lat="46.209190000" lon="7.428160000">
  <ele>1158.599980</ele>
  <time>2012-05-06T14:36:11Z</time>
</trkpt>
<trkpt lat="46.209180000" lon="7.428190000">
  <ele>1159.000000</ele>
  <time>2012-05-06T14:36:12Z</time>
</trkpt>
<trkpt lat="46.209150000" lon="7.428240000">
  <ele>1159.000000</ele>
  <time>2012-05-06T14:36:14Z</time>
</trkpt>
<trkpt lat="46.209060000" lon="7.428360000">
  <ele>1160.111080</ele>
  <time>2012-05-06T14:36:19Z</time>
</trkpt>
<trkpt lat="46.209040000" lon="7.428380000">
  <ele>1160.333370</ele>
  <time>2012-05-06T14:36:20Z</time>
</trkpt>
<trkpt lat="46.209020000" lon="7.428390000">
  <ele>1160.555540</ele>
  <time>2012-05-06T14:36:21Z</time>
</trkpt>
<trkpt lat="46.209000000" lon="7.428400000">
  <ele>1160.777830</ele>
  <time>2012-05-06T14:36:22Z</time>
</trkpt>
<trkpt lat="46.208980000" lon="7.428400000">
  <ele>1161.000000</ele>
  <time>2012-05-06T14:36:23Z</time>
</trkpt>
<trkpt lat="46.208950000" lon="7.428400000">
  <ele>1161.000000</ele>
  <time>2012-05-06T14:36:24Z</time>
</trkpt>
<trkpt lat="46.208870000" lon="7.428400000">
  <ele>1162.050050</ele>
  <time>2012-05-06T14:36:28Z</time>
</trkpt>
<trkpt lat="46.208850000" lon="7.428390000">
  <ele>1162.312500</ele>
  <time>2012-05-06T14:36:29Z</time>
</trkpt>
<trkpt lat="46.208820000" lon="7.428380000">
  <ele>1162.574950</ele>
  <time>2012-05-06T14:36:30Z</time>
</trkpt>
<trkpt lat="46.208810000" lon="7.428370000">
  <ele>1162.837520</ele>
  <time>2012-05-06T14:36:31Z</time>
</trkpt>
<trkpt lat="46.208690000" lon="7.428310000">
  <ele>1164.149900</ele>
  <time>2012-05-06T14:36:36Z</time>
</trkpt>
<trkpt lat="46.208670000" lon="7.428290000">
  <ele>1164.412480</ele>
  <time>2012-05-06T14:36:37Z</time>
</trkpt>
<trkpt lat="46.208650000" lon="7.428280000">
  <ele>1164.674930</ele>
  <time>2012-05-06T14:36:38Z</time>
</trkpt>
<trkpt lat="46.208630000" lon="7.428270000">
  <ele>1164.937500</ele>
  <time>2012-05-06T14:36:39Z</time>
</trkpt>
<trkpt lat="46.208610000" lon="7.428250000">
  <ele>1165.199950</ele>
  <time>2012-05-06T14:36:40Z</time>
</trkpt>
<trkpt lat="46.208590000" lon="7.428230000">
  <ele>1165.199950</ele>
  <time>2012-05-06T14:36:41Z</time>
</trkpt>
<trkpt lat="46.208570000" lon="7.428220000">
  <ele>1165.399900</ele>
  <time>2012-05-06T14:36:42Z</time>
</trkpt>
<trkpt lat="46.208520000" lon="7.428140000">
  <ele>1166.000000</ele>
  <time>2012-05-06T14:36:45Z</time>
</trkpt>
<trkpt lat="46.208490000" lon="7.428100000">
  <ele>1166.399900</ele>
  <time>2012-05-06T14:36:47Z</time>
</trkpt>
<trkpt lat="46.208470000" lon="7.428080000">
  <ele>1166.599980</ele>
  <time>2012-05-06T14:36:48Z</time>
</trkpt>
<trkpt lat="46.208450000" lon="7.428060000">
  <ele>1166.799930</ele>
  <time>2012-05-06T14:36:49Z</time>
</trkpt>
<trkpt lat="46.208440000" lon="7.428030000">
  <ele>1167.000000</ele>
  <time>2012-05-06T14:36:50Z</time>
</trkpt>
<trkpt lat="46.208420000" lon="7.428010000">
  <ele>1167.199950</ele>
  <time>2012-05-06T14:36:51Z</time>
</trkpt>
<trkpt lat="46.208330000" lon="7.427910000">
  <ele>1167.199950</ele>
  <time>2012-05-06T14:36:56Z</time>
</trkpt>
<trkpt lat="46.208310000" lon="7.427890000">
  <ele>1167.599980</ele>
  <time>2012-05-06T14:36:57Z</time>
</trkpt>
<trkpt lat="46.208290000" lon="7.427870000">
  <ele>1168.000000</ele>
  <time>2012-05-06T14:36:58Z</time>
</trkpt>
<trkpt lat="46.208270000" lon="7.427850000">
  <ele>1168.399900</ele>
  <time>2012-05-06T14:36:59Z</time>
</trkpt>
<trkpt lat="46.208260000" lon="7.427840000">
  <ele>1168.799930</ele>
  <time>2012-05-06T14:37:00Z</time>
</trkpt>
<trkpt lat="46.208230000" lon="7.427820000">
  <ele>1169.199950</ele>
  <time>2012-05-06T14:37:01Z</time>
</trkpt>
<trkpt lat="46.208200000" lon="7.427810000">
  <ele>1169.199950</ele>
  <time>2012-05-06T14:37:03Z</time>
</trkpt>
<trkpt lat="46.208160000" lon="7.427790000">
  <ele>1170.422240</ele>
  <time>2012-05-06T14:37:08Z</time>
</trkpt>
<trkpt lat="46.208160000" lon="7.427790000">
  <ele>1170.666630</ele>
  <time>2012-05-06T14:37:09Z</time>
</trkpt>
<trkpt lat="46.208160000" lon="7.427790000">
  <ele>1170.911130</ele>
  <time>2012-05-06T14:37:10Z</time>
</trkpt>
<trkpt lat="46.208160000" lon="7.427790000">
  <ele>1171.155520</ele>
  <time>2012-05-06T14:37:11Z</time>
</trkpt>
<trkpt lat="46.208160000" lon="7.427790000">
  <ele>1171.400020</ele>
  <time>2012-05-06T14:37:12Z</time>
</trkpt>
<trkpt lat="46.208160000" lon="7.427790000">
  <ele>1171.400020</ele>
  <time>2012-05-06T14:37:18Z</time>
</trkpt>
<trkpt lat="46.208160000" lon="7.427790000">
  <ele>1171.888920</ele>
  <time>2012-05-06T14:37:29Z</time>
</trkpt>
<trkpt lat="46.208160000" lon="7.427790000">
  <ele>1171.933350</ele>
  <time>2012-05-06T14:37:30Z</time>
</trkpt>
<trkpt lat="46.208160000" lon="7.427790000">
  <ele>1172.066650</ele>
  <time>2012-05-06T14:37:33Z</time>
</trkpt>
<trkpt lat="46.208140000" lon="7.427790000">
  <ele>1172.511110</ele>
  <time>2012-05-06T14:37:43Z</time>
</trkpt>
<trkpt lat="46.208110000" lon="7.427780000">
  <ele>1172.599980</ele>
  <time>2012-05-06T14:37:45Z</time>
</trkpt>
<trkpt lat="46.208040000" lon="7.427770000">
  <ele>1172.733400</ele>
  <time>2012-05-06T14:37:48Z</time>
</trkpt>
<trkpt lat="46.207960000" lon="7.427750000">
  <ele>1172.866700</ele>
  <time>2012-05-06T14:37:51Z</time>
</trkpt>
<trkpt lat="46.207830000" lon="7.427720000">
  <ele>1173.088870</ele>
  <time>2012-05-06T14:37:56Z</time>
</trkpt>
<trkpt lat="46.207750000" lon="7.427690000">
  <ele>1173.222290</ele>
  <time>2012-05-06T14:37:59Z</time>
</trkpt>
<trkpt lat="46.207720000" lon="7.427670000">
  <ele>1173.266720</ele>
  <time>2012-05-06T14:38:00Z</time>
</trkpt>
<trkpt lat="46.207700000" lon="7.427660000">
  <ele>1173.311160</ele>
  <time>2012-05-06T14:38:01Z</time>
</trkpt>
<trkpt lat="46.207670000" lon="7.427650000">
  <ele>1173.355590</ele>
  <time>2012-05-06T14:38:02Z</time>
</trkpt>
<trkpt lat="46.207640000" lon="7.427640000">
  <ele>1173.400020</ele>
  <time>2012-05-06T14:38:03Z</time>
</trkpt>
<trkpt lat="46.207540000" lon="7.427590000">
  <ele>1173.400020</ele>
  <time>2012-05-06T14:38:07Z</time>
</trkpt>
<trkpt lat="46.207520000" lon="7.427580000">
  <ele>1173.880000</ele>
  <time>2012-05-06T14:38:08Z</time>
</trkpt>
<trkpt lat="46.207490000" lon="7.427570000">
  <ele>1174.359990</ele>
  <time>2012-05-06T14:38:09Z</time>
</trkpt>
<trkpt lat="46.207470000" lon="7.427560000">
  <ele>1174.840090</ele>
  <time>2012-05-06T14:38:10Z</time>
</trkpt>
<trkpt lat="46.207450000" lon="7.427550000">
  <ele>1175.320070</ele>
  <time>2012-05-06T14:38:11Z</time>
</trkpt>
<trkpt lat="46.207420000" lon="7.427530000">
  <ele>1175.800050</ele>
  <time>2012-05-06T14:38:12Z</time>
</trkpt>
<trkpt lat="46.207320000" lon="7.427530000">
  <ele>1175.800050</ele>
  <time>2012-05-06T14:38:16Z</time>
</trkpt>
<trkpt lat="46.207280000" lon="7.427550000">
  <ele>1176.533330</ele>
  <time>2012-05-06T14:38:18Z</time>
</trkpt>
<trkpt lat="46.207250000" lon="7.427570000">
  <ele>1176.900020</ele>
  <time>2012-05-06T14:38:19Z</time>
</trkpt>
<trkpt lat="46.207230000" lon="7.427600000">
  <ele>1177.266720</ele>
  <time>2012-05-06T14:38:20Z</time>
</trkpt>
<trkpt lat="46.207210000" lon="7.427620000">
  <ele>1177.633300</ele>
  <time>2012-05-06T14:38:21Z</time>
</trkpt>
<trkpt lat="46.207200000" lon="7.427650000">
  <ele>1178.000000</ele>
  <time>2012-05-06T14:38:22Z</time>
</trkpt>
<trkpt lat="46.207160000" lon="7.427720000">
  <ele>1178.000000</ele>
  <time>2012-05-06T14:38:24Z</time>
</trkpt>
<trkpt lat="46.207080000" lon="7.427860000">
  <ele>1178.971440</ele>
  <time>2012-05-06T14:38:28Z</time>
</trkpt>
<trkpt lat="46.207070000" lon="7.427890000">
  <ele>1179.214230</ele>
  <time>2012-05-06T14:38:29Z</time>
</trkpt>
<trkpt lat="46.207050000" lon="7.427910000">
  <ele>1179.457150</ele>
  <time>2012-05-06T14:38:30Z</time>
</trkpt>
<trkpt lat="46.207020000" lon="7.427920000">
  <ele>1179.699950</ele>
  <time>2012-05-06T14:38:31Z</time>
</trkpt>
<trkpt lat="46.207000000" lon="7.427930000">
  <ele>1179.942870</ele>
  <time>2012-05-06T14:38:32Z</time>
</trkpt>
<trkpt lat="46.206930000" lon="7.427940000">
  <ele>1180.671390</ele>
  <time>2012-05-06T14:38:35Z</time>
</trkpt>
<trkpt lat="46.206900000" lon="7.427940000">
  <ele>1180.914310</ele>
  <time>2012-05-06T14:38:36Z</time>
</trkpt>
<trkpt lat="46.206880000" lon="7.427930000">
  <ele>1181.157100</ele>
  <time>2012-05-06T14:38:37Z</time>
</trkpt>
<trkpt lat="46.206850000" lon="7.427920000">
  <ele>1181.400020</ele>
  <time>2012-05-06T14:38:38Z</time>
</trkpt>
<trkpt lat="46.206830000" lon="7.427900000">
  <ele>1181.642820</ele>
  <time>2012-05-06T14:38:39Z</time>
</trkpt>
<trkpt lat="46.206750000" lon="7.427850000">
  <ele>1182.614260</ele>
  <time>2012-05-06T14:38:43Z</time>
</trkpt>
<trkpt lat="46.206730000" lon="7.427830000">
  <ele>1182.857180</ele>
  <time>2012-05-06T14:38:44Z</time>
</trkpt>
<trkpt lat="46.206710000" lon="7.427810000">
  <ele>1183.099980</ele>
  <time>2012-05-06T14:38:45Z</time>
</trkpt>
<trkpt lat="46.206680000" lon="7.427800000">
  <ele>1183.342770</ele>
  <time>2012-05-06T14:38:46Z</time>
</trkpt>
<trkpt lat="46.206660000" lon="7.427790000">
  <ele>1183.585690</ele>
  <time>2012-05-06T14:38:47Z</time>
</trkpt>
<trkpt lat="46.206570000" lon="7.427740000">
  <ele>1184.557130</ele>
  <time>2012-05-06T14:38:51Z</time>
</trkpt>
<trkpt lat="46.206550000" lon="7.427730000">
  <ele>1184.799930</ele>
  <time>2012-05-06T14:38:52Z</time>
</trkpt>
<trkpt lat="46.206530000" lon="7.427720000">
  <ele>1185.042850</ele>
  <time>2012-05-06T14:38:53Z</time>
</trkpt>
<trkpt lat="46.206500000" lon="7.427710000">
  <ele>1185.285640</ele>
  <time>2012-05-06T14:38:54Z</time>
</trkpt>
<trkpt lat="46.206480000" lon="7.427710000">
  <ele>1185.528560</ele>
  <time>2012-05-06T14:38:55Z</time>
</trkpt>
<trkpt lat="46.206320000" lon="7.427650000">
  <ele>1187.228520</ele>
  <time>2012-05-06T14:39:02Z</time>
</trkpt>
<trkpt lat="46.206300000" lon="7.427640000">
  <ele>1187.471440</ele>
  <time>2012-05-06T14:39:03Z</time>
</trkpt>
<trkpt lat="46.206280000" lon="7.427640000">
  <ele>1187.714230</ele>
  <time>2012-05-06T14:39:04Z</time>
</trkpt>
<trkpt lat="46.206250000" lon="7.427630000">
  <ele>1187.957150</ele>
  <time>2012-05-06T14:39:05Z</time>
</trkpt>
<trkpt lat="46.206230000" lon="7.427620000">
  <ele>1188.199950</ele>
  <time>2012-05-06T14:39:06Z</time>
</trkpt>
<trkpt lat="46.206180000" lon="7.427620000">
  <ele>1188.199950</ele>
  <time>2012-05-06T14:39:08Z</time>
</trkpt>
<trkpt lat="46.206060000" lon="7.427620000">
  <ele>1189.311040</ele>
  <time>2012-05-06T14:39:13Z</time>
</trkpt>
<trkpt lat="46.206040000" lon="7.427630000">
  <ele>1189.533330</ele>
  <time>2012-05-06T14:39:14Z</time>
</trkpt>
<trkpt lat="46.206020000" lon="7.427640000">
  <ele>1189.755490</ele>
  <time>2012-05-06T14:39:15Z</time>
</trkpt>
<trkpt lat="46.205990000" lon="7.427650000">
  <ele>1189.977780</ele>
  <time>2012-05-06T14:39:16Z</time>
</trkpt>
<trkpt lat="46.205970000" lon="7.427660000">
  <ele>1190.199950</ele>
  <time>2012-05-06T14:39:17Z</time>
</trkpt>
<trkpt lat="46.205920000" lon="7.427690000">
  <ele>1190.199950</ele>
  <time>2012-05-06T14:39:19Z</time>
</trkpt>
<trkpt lat="46.205820000" lon="7.427710000">
  <ele>1191.199950</ele>
  <time>2012-05-06T14:39:23Z</time>
</trkpt>
<trkpt lat="46.205800000" lon="7.427710000">
  <ele>1191.449950</ele>
  <time>2012-05-06T14:39:24Z</time>
</trkpt>
<trkpt lat="46.205770000" lon="7.427710000">
  <ele>1191.699950</ele>
  <time>2012-05-06T14:39:25Z</time>
</trkpt>
<trkpt lat="46.205750000" lon="7.427710000">
  <ele>1191.949950</ele>
  <time>2012-05-06T14:39:26Z</time>
</trkpt>
<trkpt lat="46.205720000" lon="7.427700000">
  <ele>1192.199950</ele>
  <time>2012-05-06T14:39:27Z</time>
</trkpt>
<trkpt lat="46.205660000" lon="7.427650000">
  <ele>1192.199950</ele>
  <time>2012-05-06T14:39:30Z</time>
</trkpt>
<trkpt lat="46.205570000" lon="7.427590000">
  <ele>1193.159910</ele>
  <time>2012-05-06T14:39:34Z</time>
</trkpt>
<trkpt lat="46.205550000" lon="7.427580000">
  <ele>1193.399900</ele>
  <time>2012-05-06T14:39:35Z</time>
</trkpt>
<trkpt lat="46.205520000" lon="7.427570000">
  <ele>1193.640010</ele>
  <time>2012-05-06T14:39:36Z</time>
</trkpt>
<trkpt lat="46.205510000" lon="7.427550000">
  <ele>1193.880000</ele>
  <time>2012-05-06T14:39:37Z</time>
</trkpt>
<trkpt lat="46.205480000" lon="7.427540000">
  <ele>1194.120000</ele>
  <time>2012-05-06T14:39:38Z</time>
</trkpt>
<trkpt lat="46.205380000" lon="7.427450000">
  <ele>1195.319950</ele>
  <time>2012-05-06T14:39:43Z</time>
</trkpt>
<trkpt lat="46.205360000" lon="7.427430000">
  <ele>1195.559940</ele>
  <time>2012-05-06T14:39:44Z</time>
</trkpt>
<trkpt lat="46.205340000" lon="7.427410000">
  <ele>1195.799930</ele>
  <time>2012-05-06T14:39:45Z</time>
</trkpt>
<trkpt lat="46.205320000" lon="7.427400000">
  <ele>1196.039920</ele>
  <time>2012-05-06T14:39:46Z</time>
</trkpt>
<trkpt lat="46.205300000" lon="7.427380000">
  <ele>1196.279910</ele>
  <time>2012-05-06T14:39:47Z</time>
</trkpt>
<trkpt lat="46.205210000" lon="7.427330000">
  <ele>1197.239990</ele>
  <time>2012-05-06T14:39:51Z</time>
</trkpt>
<trkpt lat="46.205190000" lon="7.427310000">
  <ele>1197.479980</ele>
  <time>2012-05-06T14:39:52Z</time>
</trkpt>
<trkpt lat="46.205170000" lon="7.427300000">
  <ele>1197.719970</ele>
  <time>2012-05-06T14:39:53Z</time>
</trkpt>
<trkpt lat="46.205150000" lon="7.427290000">
  <ele>1197.959960</ele>
  <time>2012-05-06T14:39:54Z</time>
</trkpt>
<trkpt lat="46.205130000" lon="7.427270000">
  <ele>1198.199950</ele>
  <time>2012-05-06T14:39:55Z</time>
</trkpt>
<trkpt lat="46.204990000" lon="7.427200000">
  <ele>1199.640010</ele>
  <time>2012-05-06T14:40:01Z</time>
</trkpt>
<trkpt lat="46.204960000" lon="7.427200000">
  <ele>1199.880000</ele>
  <time>2012-05-06T14:40:02Z</time>
</trkpt>
<trkpt lat="46.204940000" lon="7.427200000">
  <ele>1200.120000</ele>
  <time>2012-05-06T14:40:03Z</time>
</trkpt>
<trkpt lat="46.204910000" lon="7.427200000">
  <ele>1200.359990</ele>
  <time>2012-05-06T14:40:04Z</time>
</trkpt>
<trkpt lat="46.204890000" lon="7.427200000">
  <ele>1200.599980</ele>
  <time>2012-05-06T14:40:05Z</time>
</trkpt>
<trkpt lat="46.204820000" lon="7.427190000">
  <ele>1200.599980</ele>
  <time>2012-05-06T14:40:08Z</time>
</trkpt>
<trkpt lat="46.204760000" lon="7.427170000">
  <ele>1201.387450</ele>
  <time>2012-05-06T14:40:11Z</time>
</trkpt>
<trkpt lat="46.204730000" lon="7.427160000">
  <ele>1201.650020</ele>
  <time>2012-05-06T14:40:12Z</time>
</trkpt>
<trkpt lat="46.204710000" lon="7.427160000">
  <ele>1201.912480</ele>
  <time>2012-05-06T14:40:13Z</time>
</trkpt>
<trkpt lat="46.204690000" lon="7.427160000">
  <ele>1202.175050</ele>
  <time>2012-05-06T14:40:14Z</time>
</trkpt>
<trkpt lat="46.204560000" lon="7.427130000">
  <ele>1203.750000</ele>
  <time>2012-05-06T14:40:20Z</time>
</trkpt>
<trkpt lat="46.204530000" lon="7.427110000">
  <ele>1204.012570</ele>
  <time>2012-05-06T14:40:21Z</time>
</trkpt>
<trkpt lat="46.204510000" lon="7.427100000">
  <ele>1204.275020</ele>
  <time>2012-05-06T14:40:22Z</time>
</trkpt>
<trkpt lat="46.204480000" lon="7.427090000">
  <ele>1204.537600</ele>
  <time>2012-05-06T14:40:23Z</time>
</trkpt>
<trkpt lat="46.204460000" lon="7.427080000">
  <ele>1204.800050</ele>
  <time>2012-05-06T14:40:24Z</time>
</trkpt>
<trkpt lat="46.204380000" lon="7.427040000">
  <ele>1204.800050</ele>
  <time>2012-05-06T14:40:28Z</time>
</trkpt>
<trkpt lat="46.204280000" lon="7.426980000">
  <ele>1205.726320</ele>
  <time>2012-05-06T14:40:32Z</time>
</trkpt>
<trkpt lat="46.204260000" lon="7.426970000">
  <ele>1205.957890</ele>
  <time>2012-05-06T14:40:33Z</time>
</trkpt>
<trkpt lat="46.204230000" lon="7.426960000">
  <ele>1206.189450</ele>
  <time>2012-05-06T14:40:34Z</time>
</trkpt>
<trkpt lat="46.204210000" lon="7.426950000">
  <ele>1206.421020</ele>
  <time>2012-05-06T14:40:35Z</time>
</trkpt>
<trkpt lat="46.204190000" lon="7.426940000">
  <ele>1206.652590</ele>
  <time>2012-05-06T14:40:36Z</time>
</trkpt>
<trkpt lat="46.204030000" lon="7.426850000">
  <ele>1208.273680</ele>
  <time>2012-05-06T14:40:43Z</time>
</trkpt>
<trkpt lat="46.204000000" lon="7.426830000">
  <ele>1208.505250</ele>
  <time>2012-05-06T14:40:44Z</time>
</trkpt>
<trkpt lat="46.203980000" lon="7.426800000">
  <ele>1208.736820</ele>
  <time>2012-05-06T14:40:45Z</time>
</trkpt>
<trkpt lat="46.203950000" lon="7.426780000">
  <ele>1208.968380</ele>
  <time>2012-05-06T14:40:46Z</time>
</trkpt>
<trkpt lat="46.203930000" lon="7.426770000">
  <ele>1209.199950</ele>
  <time>2012-05-06T14:40:47Z</time>
</trkpt>
<trkpt lat="46.203910000" lon="7.426750000">
  <ele>1209.199950</ele>
  <time>2012-05-06T14:40:48Z</time>
</trkpt>
<trkpt lat="46.203770000" lon="7.426700000">
  <ele>1210.520020</ele>
  <time>2012-05-06T14:40:54Z</time>
</trkpt>
<trkpt lat="46.203740000" lon="7.426690000">
  <ele>1210.739990</ele>
  <time>2012-05-06T14:40:55Z</time>
</trkpt>
<trkpt lat="46.203700000" lon="7.426690000">
  <ele>1210.959960</ele>
  <time>2012-05-06T14:40:56Z</time>
</trkpt>
<trkpt lat="46.203680000" lon="7.426680000">
  <ele>1211.180050</ele>
  <time>2012-05-06T14:40:57Z</time>
</trkpt>
<trkpt lat="46.203650000" lon="7.426670000">
  <ele>1211.400020</ele>
  <time>2012-05-06T14:40:58Z</time>
</trkpt>
<trkpt lat="46.203620000" lon="7.426670000">
  <ele>1211.400020</ele>
  <time>2012-05-06T14:40:59Z</time>
</trkpt>
<trkpt lat="46.203500000" lon="7.426660000">
  <ele>1212.511110</ele>
  <time>2012-05-06T14:41:04Z</time>
</trkpt>
<trkpt lat="46.203470000" lon="7.426660000">
  <ele>1212.733400</ele>
  <time>2012-05-06T14:41:05Z</time>
</trkpt>
<trkpt lat="46.203450000" lon="7.426650000">
  <ele>1212.955570</ele>
  <time>2012-05-06T14:41:06Z</time>
</trkpt>
<trkpt lat="46.203420000" lon="7.426640000">
  <ele>1213.177860</ele>
  <time>2012-05-06T14:41:07Z</time>
</trkpt>
<trkpt lat="46.203400000" lon="7.426630000">
  <ele>1213.400020</ele>
  <time>2012-05-06T14:41:08Z</time>
</trkpt>
<trkpt lat="46.203290000" lon="7.426570000">
  <ele>1213.400020</ele>
  <time>2012-05-06T14:41:13Z</time>
</trkpt>
<trkpt lat="46.203240000" lon="7.426540000">
  <ele>1214.133300</ele>
  <time>2012-05-06T14:41:15Z</time>
</trkpt>
<trkpt lat="46.203210000" lon="7.426530000">
  <ele>1214.500000</ele>
  <time>2012-05-06T14:41:16Z</time>
</trkpt>
<trkpt lat="46.203190000" lon="7.426520000">
  <ele>1214.866700</ele>
  <time>2012-05-06T14:41:17Z</time>
</trkpt>
<trkpt lat="46.203160000" lon="7.426500000">
  <ele>1215.233280</ele>
  <time>2012-05-06T14:41:18Z</time>
</trkpt>
<trkpt lat="46.203140000" lon="7.426490000">
  <ele>1215.599980</ele>
  <time>2012-05-06T14:41:19Z</time>
</trkpt>
<trkpt lat="46.203110000" lon="7.426480000">
  <ele>1215.599980</ele>
  <time>2012-05-06T14:41:20Z</time>
</trkpt>
<trkpt lat="46.203020000" lon="7.426430000">
  <ele>1216.742800</ele>
  <time>2012-05-06T14:41:24Z</time>
</trkpt>
<trkpt lat="46.202990000" lon="7.426410000">
  <ele>1217.028560</ele>
  <time>2012-05-06T14:41:25Z</time>
</trkpt>
<trkpt lat="46.202970000" lon="7.426400000">
  <ele>1217.314210</ele>
  <time>2012-05-06T14:41:26Z</time>
</trkpt>
<trkpt lat="46.202950000" lon="7.426390000">
  <ele>1217.599980</ele>
  <time>2012-05-06T14:41:27Z</time>
</trkpt>
<trkpt lat="46.202890000" lon="7.426370000">
  <ele>1217.599980</ele>
  <time>2012-05-06T14:41:29Z</time>
</trkpt>
<trkpt lat="46.202790000" lon="7.426320000">
  <ele>1218.599980</ele>
  <time>2012-05-06T14:41:33Z</time>
</trkpt>
<trkpt lat="46.202760000" lon="7.426310000">
  <ele>1218.849980</ele>
  <time>2012-05-06T14:41:34Z</time>
</trkpt>
<trkpt lat="46.202740000" lon="7.426300000">
  <ele>1219.099980</ele>
  <time>2012-05-06T14:41:35Z</time>
</trkpt>
<trkpt lat="46.202720000" lon="7.426290000">
  <ele>1219.349980</ele>
  <time>2012-05-06T14:41:36Z</time>
</trkpt>
<trkpt lat="46.202690000" lon="7.426280000">
  <ele>1219.599980</ele>
  <time>2012-05-06T14:41:37Z</time>
</trkpt>
<trkpt lat="46.202580000" lon="7.426270000">
  <ele>1219.599980</ele>
  <time>2012-05-06T14:41:41Z</time>
</trkpt>
<trkpt lat="46.202540000" lon="7.426280000">
  <ele>1220.333370</ele>
  <time>2012-05-06T14:41:43Z</time>
</trkpt>
<trkpt lat="46.202510000" lon="7.426300000">
  <ele>1220.699950</ele>
  <time>2012-05-06T14:41:44Z</time>
</trkpt>
<trkpt lat="46.202490000" lon="7.426310000">
  <ele>1221.066650</ele>
  <time>2012-05-06T14:41:45Z</time>
</trkpt>
<trkpt lat="46.202470000" lon="7.426320000">
  <ele>1221.433350</ele>
  <time>2012-05-06T14:41:46Z</time>
</trkpt>
<trkpt lat="46.202440000" lon="7.426340000">
  <ele>1221.800050</ele>
  <time>2012-05-06T14:41:47Z</time>
</trkpt>
<trkpt lat="46.202420000" lon="7.426360000">
  <ele>1221.800050</ele>
  <time>2012-05-06T14:41:48Z</time>
</trkpt>
<trkpt lat="46.202260000" lon="7.426500000">
  <ele>1223.109130</ele>
  <time>2012-05-06T14:41:54Z</time>
</trkpt>
<trkpt lat="46.202240000" lon="7.426510000">
  <ele>1223.327270</ele>
  <time>2012-05-06T14:41:55Z</time>
</trkpt>
<trkpt lat="46.202210000" lon="7.426520000">
  <ele>1223.545410</ele>
  <time>2012-05-06T14:41:56Z</time>
</trkpt>
<trkpt lat="46.202190000" lon="7.426540000">
  <ele>1223.763550</ele>
  <time>2012-05-06T14:41:57Z</time>
</trkpt>
<trkpt lat="46.202170000" lon="7.426550000">
  <ele>1223.981810</ele>
  <time>2012-05-06T14:41:58Z</time>
</trkpt>
<trkpt lat="46.202150000" lon="7.426560000">
  <ele>1224.199950</ele>
  <time>2012-05-06T14:41:59Z</time>
</trkpt>
<trkpt lat="46.202100000" lon="7.426580000">
  <ele>1224.199950</ele>
  <time>2012-05-06T14:42:01Z</time>
</trkpt>
<trkpt lat="46.202010000" lon="7.426600000">
  <ele>1225.057130</ele>
  <time>2012-05-06T14:42:04Z</time>
</trkpt>
<trkpt lat="46.201990000" lon="7.426620000">
  <ele>1225.342770</ele>
  <time>2012-05-06T14:42:05Z</time>
</trkpt>
<trkpt lat="46.201970000" lon="7.426630000">
  <ele>1225.628540</ele>
  <time>2012-05-06T14:42:06Z</time>
</trkpt>
<trkpt lat="46.201940000" lon="7.426630000">
  <ele>1225.914180</ele>
  <time>2012-05-06T14:42:07Z</time>
</trkpt>
<trkpt lat="46.201920000" lon="7.426650000">
  <ele>1226.199950</ele>
  <time>2012-05-06T14:42:08Z</time>
</trkpt>
<trkpt lat="46.201790000" lon="7.426690000">
  <ele>1226.199950</ele>
  <time>2012-05-06T14:42:13Z</time>
</trkpt>
<trkpt lat="46.201740000" lon="7.426700000">
  <ele>1227.079960</ele>
  <time>2012-05-06T14:42:15Z</time>
</trkpt>
<trkpt lat="46.201720000" lon="7.426710000">
  <ele>1227.520020</ele>
  <time>2012-05-06T14:42:16Z</time>
</trkpt>
<trkpt lat="46.201690000" lon="7.426710000">
  <ele>1227.959960</ele>
  <time>2012-05-06T14:42:17Z</time>
</trkpt>
<trkpt lat="46.201670000" lon="7.426710000">
  <ele>1228.400020</ele>
  <time>2012-05-06T14:42:18Z</time>
</trkpt>
<trkpt lat="46.201610000" lon="7.426710000">
  <ele>1228.400020</ele>
  <time>2012-05-06T14:42:20Z</time>
</trkpt>
<trkpt lat="46.201510000" lon="7.426710000">
  <ele>1229.353880</ele>
  <time>2012-05-06T14:42:24Z</time>
</trkpt>
<trkpt lat="46.201480000" lon="7.426700000">
  <ele>1229.592290</ele>
  <time>2012-05-06T14:42:25Z</time>
</trkpt>
<trkpt lat="46.201450000" lon="7.426700000">
  <ele>1229.830810</ele>
  <time>2012-05-06T14:42:26Z</time>
</trkpt>
<trkpt lat="46.201420000" lon="7.426700000">
  <ele>1230.069210</ele>
  <time>2012-05-06T14:42:27Z</time>
</trkpt>
<trkpt lat="46.201400000" lon="7.426690000">
  <ele>1230.307740</ele>
  <time>2012-05-06T14:42:28Z</time>
</trkpt>
<trkpt lat="46.201240000" lon="7.426650000">
  <ele>1231.738400</ele>
  <time>2012-05-06T14:42:34Z</time>
</trkpt>
<trkpt lat="46.201220000" lon="7.426640000">
  <ele>1231.976930</ele>
  <time>2012-05-06T14:42:35Z</time>
</trkpt>
<trkpt lat="46.201200000" lon="7.426640000">
  <ele>1232.215330</ele>
  <time>2012-05-06T14:42:36Z</time>
</trkpt>
<trkpt lat="46.201180000" lon="7.426630000">
  <ele>1232.453860</ele>
  <time>2012-05-06T14:42:37Z</time>
</trkpt>
<trkpt lat="46.201150000" lon="7.426620000">
  <ele>1232.692260</ele>
  <time>2012-05-06T14:42:38Z</time>
</trkpt>
<trkpt lat="46.201050000" lon="7.426590000">
  <ele>1233.646120</ele>
  <time>2012-05-06T14:42:42Z</time>
</trkpt>
<trkpt lat="46.201030000" lon="7.426590000">
  <ele>1233.884640</ele>
  <time>2012-05-06T14:42:43Z</time>
</trkpt>
<trkpt lat="46.201000000" lon="7.426580000">
  <ele>1234.123050</ele>
  <time>2012-05-06T14:42:44Z</time>
</trkpt>
<trkpt lat="46.200980000" lon="7.426580000">
  <ele>1234.361570</ele>
  <time>2012-05-06T14:42:45Z</time>
</trkpt>
<trkpt lat="46.200950000" lon="7.426580000">
  <ele>1234.599980</ele>
  <time>2012-05-06T14:42:46Z</time>
</trkpt>
<trkpt lat="46.200880000" lon="7.426590000">
  <ele>1234.599980</ele>
  <time>2012-05-06T14:42:49Z</time>
</trkpt>
<trkpt lat="46.200830000" lon="7.426600000">
  <ele>1235.266600</ele>
  <time>2012-05-06T14:42:51Z</time>
</trkpt>
<trkpt lat="46.200800000" lon="7.426620000">
  <ele>1235.599980</ele>
  <time>2012-05-06T14:42:52Z</time>
</trkpt>
<trkpt lat="46.200780000" lon="7.426630000">
  <ele>1235.933350</ele>
  <time>2012-05-06T14:42:53Z</time>
</trkpt>
<trkpt lat="46.200750000" lon="7.426640000">
  <ele>1236.266600</ele>
  <time>2012-05-06T14:42:54Z</time>
</trkpt>
<trkpt lat="46.200730000" lon="7.426660000">
  <ele>1236.599980</ele>
  <time>2012-05-06T14:42:55Z</time>
</trkpt>
<trkpt lat="46.200710000" lon="7.426670000">
  <ele>1236.599980</ele>
  <time>2012-05-06T14:42:56Z</time>
</trkpt>
<trkpt lat="46.200520000" lon="7.426730000">
  <ele>1237.784670</ele>
  <time>2012-05-06T14:43:03Z</time>
</trkpt>
<trkpt lat="46.200460000" lon="7.426730000">
  <ele>1238.123050</ele>
  <time>2012-05-06T14:43:05Z</time>
</trkpt>
<trkpt lat="46.200430000" lon="7.426740000">
  <ele>1238.292360</ele>
  <time>2012-05-06T14:43:06Z</time>
</trkpt>
<trkpt lat="46.200410000" lon="7.426750000">
  <ele>1238.461550</ele>
  <time>2012-05-06T14:43:07Z</time>
</trkpt>
<trkpt lat="46.200380000" lon="7.426750000">
  <ele>1238.630860</ele>
  <time>2012-05-06T14:43:08Z</time>
</trkpt>
<trkpt lat="46.200350000" lon="7.426750000">
  <ele>1238.800050</ele>
  <time>2012-05-06T14:43:09Z</time>
</trkpt>
<trkpt lat="46.200300000" lon="7.426750000">
  <ele>1238.800050</ele>
  <time>2012-05-06T14:43:11Z</time>
</trkpt>
<trkpt lat="46.200200000" lon="7.426760000">
  <ele>1239.823970</ele>
  <time>2012-05-06T14:43:15Z</time>
</trkpt>
<trkpt lat="46.200180000" lon="7.426760000">
  <ele>1240.080080</ele>
  <time>2012-05-06T14:43:16Z</time>
</trkpt>
<trkpt lat="46.200150000" lon="7.426760000">
  <ele>1240.336060</ele>
  <time>2012-05-06T14:43:17Z</time>
</trkpt>
<trkpt lat="46.200130000" lon="7.426770000">
  <ele>1240.592040</ele>
  <time>2012-05-06T14:43:18Z</time>
</trkpt>
<trkpt lat="46.200110000" lon="7.426770000">
  <ele>1240.848020</ele>
  <time>2012-05-06T14:43:19Z</time>
</trkpt>
<trkpt lat="46.199960000" lon="7.426760000">
  <ele>1242.384030</ele>
  <time>2012-05-06T14:43:25Z</time>
</trkpt>
<trkpt lat="46.199940000" lon="7.426750000">
  <ele>1242.640010</ele>
  <time>2012-05-06T14:43:26Z</time>
</trkpt>
<trkpt lat="46.199910000" lon="7.426740000">
  <ele>1242.896000</ele>
  <time>2012-05-06T14:43:27Z</time>
</trkpt>
<trkpt lat="46.199890000" lon="7.426740000">
  <ele>1243.151980</ele>
  <time>2012-05-06T14:43:28Z</time>
</trkpt>
<trkpt lat="46.199790000" lon="7.426690000">
  <ele>1244.176030</ele>
  <time>2012-05-06T14:43:32Z</time>
</trkpt>
<trkpt lat="46.199770000" lon="7.426670000">
  <ele>1244.432010</ele>
  <time>2012-05-06T14:43:33Z</time>
</trkpt>
<trkpt lat="46.199750000" lon="7.426650000">
  <ele>1244.687990</ele>
  <time>2012-05-06T14:43:34Z</time>
</trkpt>
<trkpt lat="46.199730000" lon="7.426620000">
  <ele>1244.943970</ele>
  <time>2012-05-06T14:43:35Z</time>
</trkpt>
<trkpt lat="46.199710000" lon="7.426600000">
  <ele>1245.199950</ele>
  <time>2012-05-06T14:43:36Z</time>
</trkpt>
<trkpt lat="46.199650000" lon="7.426510000">
  <ele>1245.199950</ele>
  <time>2012-05-06T14:43:40Z</time>
</trkpt>
<trkpt lat="46.199590000" lon="7.426440000">
  <ele>1246.142820</ele>
  <time>2012-05-06T14:43:43Z</time>
</trkpt>
<trkpt lat="46.199580000" lon="7.426410000">
  <ele>1246.457150</ele>
  <time>2012-05-06T14:43:44Z</time>
</trkpt>
<trkpt lat="46.199560000" lon="7.426390000">
  <ele>1246.771480</ele>
  <time>2012-05-06T14:43:45Z</time>
</trkpt>
<trkpt lat="46.199540000" lon="7.426370000">
  <ele>1247.085690</ele>
  <time>2012-05-06T14:43:46Z</time>
</trkpt>
<trkpt lat="46.199520000" lon="7.426350000">
  <ele>1247.400020</ele>
  <time>2012-05-06T14:43:47Z</time>
</trkpt>
<trkpt lat="46.199490000" lon="7.426310000">
  <ele>1247.400020</ele>
  <time>2012-05-06T14:43:49Z</time>
</trkpt>
<trkpt lat="46.199420000" lon="7.426220000">
  <ele>1248.500000</ele>
  <time>2012-05-06T14:43:53Z</time>
</trkpt>
<trkpt lat="46.199400000" lon="7.426190000">
  <ele>1248.775020</ele>
  <time>2012-05-06T14:43:54Z</time>
</trkpt>
<trkpt lat="46.199380000" lon="7.426170000">
  <ele>1249.050050</ele>
  <time>2012-05-06T14:43:55Z</time>
</trkpt>
<trkpt lat="46.199360000" lon="7.426150000">
  <ele>1249.324950</ele>
  <time>2012-05-06T14:43:56Z</time>
</trkpt>
<trkpt lat="46.199350000" lon="7.426130000">
  <ele>1249.599980</ele>
  <time>2012-05-06T14:43:57Z</time>
</trkpt>
<trkpt lat="46.199330000" lon="7.426110000">
  <ele>1249.599980</ele>
  <time>2012-05-06T14:43:58Z</time>
</trkpt>
<trkpt lat="46.199280000" lon="7.426030000">
  <ele>1250.376460</ele>
  <time>2012-05-06T14:44:01Z</time>
</trkpt>
<trkpt lat="46.199260000" lon="7.426010000">
  <ele>1250.635250</ele>
  <time>2012-05-06T14:44:02Z</time>
</trkpt>
<trkpt lat="46.199250000" lon="7.425980000">
  <ele>1250.894040</ele>
  <time>2012-05-06T14:44:03Z</time>
</trkpt>
<trkpt lat="46.199230000" lon="7.425960000">
  <ele>1251.152950</ele>
  <time>2012-05-06T14:44:04Z</time>
</trkpt>
<trkpt lat="46.199210000" lon="7.425940000">
  <ele>1251.411740</ele>
  <time>2012-05-06T14:44:05Z</time>
</trkpt>
<trkpt lat="46.199090000" lon="7.425850000">
  <ele>1252.964720</ele>
  <time>2012-05-06T14:44:11Z</time>
</trkpt>
<trkpt lat="46.199060000" lon="7.425860000">
  <ele>1253.223510</ele>
  <time>2012-05-06T14:44:12Z</time>
</trkpt>
<trkpt lat="46.199030000" lon="7.425860000">
  <ele>1253.482300</ele>
  <time>2012-05-06T14:44:13Z</time>
</trkpt>
<trkpt lat="46.199000000" lon="7.425860000">
  <ele>1253.741210</ele>
  <time>2012-05-06T14:44:14Z</time>
</trkpt>
<trkpt lat="46.198970000" lon="7.425870000">
  <ele>1254.000000</ele>
  <time>2012-05-06T14:44:15Z</time>
</trkpt>
<trkpt lat="46.198910000" lon="7.425890000">
  <ele>1254.000000</ele>
  <time>2012-05-06T14:44:18Z</time>
</trkpt>
<trkpt lat="46.198860000" lon="7.425910000">
  <ele>1254.733280</ele>
  <time>2012-05-06T14:44:20Z</time>
</trkpt>
<trkpt lat="46.198830000" lon="7.425930000">
  <ele>1255.099980</ele>
  <time>2012-05-06T14:44:21Z</time>
</trkpt>
<trkpt lat="46.198810000" lon="7.425940000">
  <ele>1255.466670</ele>
  <time>2012-05-06T14:44:22Z</time>
</trkpt>
<trkpt lat="46.198790000" lon="7.425950000">
  <ele>1255.833250</ele>
  <time>2012-05-06T14:44:23Z</time>
</trkpt>
<trkpt lat="46.198760000" lon="7.425960000">
  <ele>1256.199950</ele>
  <time>2012-05-06T14:44:24Z</time>
</trkpt>
<trkpt lat="46.198720000" lon="7.425990000">
  <ele>1256.199950</ele>
  <time>2012-05-06T14:44:26Z</time>
</trkpt>
<trkpt lat="46.198650000" lon="7.426030000">
  <ele>1257.057130</ele>
  <time>2012-05-06T14:44:29Z</time>
</trkpt>
<trkpt lat="46.198630000" lon="7.426040000">
  <ele>1257.342770</ele>
  <time>2012-05-06T14:44:30Z</time>
</trkpt>
<trkpt lat="46.198610000" lon="7.426050000">
  <ele>1257.628540</ele>
  <time>2012-05-06T14:44:31Z</time>
</trkpt>
<trkpt lat="46.198590000" lon="7.426070000">
  <ele>1257.914180</ele>
  <time>2012-05-06T14:44:32Z</time>
</trkpt>
<trkpt lat="46.198570000" lon="7.426090000">
  <ele>1258.199950</ele>
  <time>2012-05-06T14:44:33Z</time>
</trkpt>
<trkpt lat="46.198550000" lon="7.426100000">
  <ele>1258.199950</ele>
  <time>2012-05-06T14:44:34Z</time>
</trkpt>
<trkpt lat="46.198460000" lon="7.426160000">
  <ele>1259.133300</ele>
  <time>2012-05-06T14:44:38Z</time>
</trkpt>
<trkpt lat="46.198440000" lon="7.426180000">
  <ele>1259.366700</ele>
  <time>2012-05-06T14:44:39Z</time>
</trkpt>
<trkpt lat="46.198430000" lon="7.426210000">
  <ele>1259.599980</ele>
  <time>2012-05-06T14:44:40Z</time>
</trkpt>
<trkpt lat="46.198410000" lon="7.426230000">
  <ele>1259.833250</ele>
  <time>2012-05-06T14:44:41Z</time>
</trkpt>
<trkpt lat="46.198390000" lon="7.426260000">
  <ele>1260.066650</ele>
  <time>2012-05-06T14:44:42Z</time>
</trkpt>
<trkpt lat="46.198310000" lon="7.426430000">
  <ele>1261.466670</ele>
  <time>2012-05-06T14:44:48Z</time>
</trkpt>
<trkpt lat="46.198300000" lon="7.426460000">
  <ele>1261.699950</ele>
  <time>2012-05-06T14:44:49Z</time>
</trkpt>
<trkpt lat="46.198300000" lon="7.426490000">
  <ele>1261.933350</ele>
  <time>2012-05-06T14:44:50Z</time>
</trkpt>
<trkpt lat="46.198280000" lon="7.426520000">
  <ele>1262.166750</ele>
  <time>2012-05-06T14:44:51Z</time>
</trkpt>
<trkpt lat="46.198280000" lon="7.426560000">
  <ele>1262.400020</ele>
  <time>2012-05-06T14:44:52Z</time>
</trkpt>
<trkpt lat="46.198270000" lon="7.426660000">
  <ele>1262.400020</ele>
  <time>2012-05-06T14:44:55Z</time>
</trkpt>
<trkpt lat="46.198250000" lon="7.426790000">
  <ele>1263.400020</ele>
  <time>2012-05-06T14:44:59Z</time>
</trkpt>
<trkpt lat="46.198250000" lon="7.426830000">
  <ele>1263.650020</ele>
  <time>2012-05-06T14:45:00Z</time>
</trkpt>
<trkpt lat="46.198240000" lon="7.426860000">
  <ele>1263.900020</ele>
  <time>2012-05-06T14:45:01Z</time>
</trkpt>
<trkpt lat="46.198240000" lon="7.426900000">
  <ele>1264.150020</ele>
  <time>2012-05-06T14:45:02Z</time>
</trkpt>
<trkpt lat="46.198240000" lon="7.426940000">
  <ele>1264.400020</ele>
  <time>2012-05-06T14:45:03Z</time>
</trkpt>
<trkpt lat="46.198250000" lon="7.426980000">
  <ele>1264.400020</ele>
  <time>2012-05-06T14:45:04Z</time>
</trkpt>
<trkpt lat="46.198240000" lon="7.427240000">
  <ele>1265.927370</ele>
  <time>2012-05-06T14:45:11Z</time>
</trkpt>
<trkpt lat="46.198240000" lon="7.427270000">
  <ele>1266.145510</ele>
  <time>2012-05-06T14:45:12Z</time>
</trkpt>
<trkpt lat="46.198230000" lon="7.427310000">
  <ele>1266.363650</ele>
  <time>2012-05-06T14:45:13Z</time>
</trkpt>
<trkpt lat="46.198220000" lon="7.427340000">
  <ele>1266.581910</ele>
  <time>2012-05-06T14:45:14Z</time>
</trkpt>
<trkpt lat="46.198220000" lon="7.427380000">
  <ele>1266.800050</ele>
  <time>2012-05-06T14:45:15Z</time>
</trkpt>
<trkpt lat="46.198180000" lon="7.427470000">
  <ele>1266.800050</ele>
  <time>2012-05-06T14:45:18Z</time>
</trkpt>
<trkpt lat="46.198120000" lon="7.427540000">
  <ele>1267.800050</ele>
  <time>2012-05-06T14:45:22Z</time>
</trkpt>
<trkpt lat="46.198100000" lon="7.427550000">
  <ele>1268.050050</ele>
  <time>2012-05-06T14:45:23Z</time>
</trkpt>
<trkpt lat="46.198070000" lon="7.427570000">
  <ele>1268.300050</ele>
  <time>2012-05-06T14:45:24Z</time>
</trkpt>
<trkpt lat="46.198050000" lon="7.427590000">
  <ele>1268.550050</ele>
  <time>2012-05-06T14:45:25Z</time>
</trkpt>
<trkpt lat="46.198020000" lon="7.427600000">
  <ele>1268.800050</ele>
  <time>2012-05-06T14:45:26Z</time>
</trkpt>
<trkpt lat="46.197900000" lon="7.427660000">
  <ele>1268.800050</ele>
  <time>2012-05-06T14:45:30Z</time>
</trkpt>
<trkpt lat="46.197830000" lon="7.427710000">
  <ele>1269.662600</ele>
  <time>2012-05-06T14:45:33Z</time>
</trkpt>
<trkpt lat="46.197800000" lon="7.427730000">
  <ele>1269.950070</ele>
  <time>2012-05-06T14:45:34Z</time>
</trkpt>
<trkpt lat="46.197770000" lon="7.427750000">
  <ele>1270.237550</ele>
  <time>2012-05-06T14:45:35Z</time>
</trkpt>
<trkpt lat="46.197750000" lon="7.427760000">
  <ele>1270.525020</ele>
  <time>2012-05-06T14:45:36Z</time>
</trkpt>
<trkpt lat="46.197730000" lon="7.427770000">
  <ele>1270.812500</ele>
  <time>2012-05-06T14:45:37Z</time>
</trkpt>
<trkpt lat="46.197620000" lon="7.427830000">
  <ele>1272.250000</ele>
  <time>2012-05-06T14:45:42Z</time>
</trkpt>
<trkpt lat="46.197600000" lon="7.427830000">
  <ele>1272.537480</ele>
  <time>2012-05-06T14:45:43Z</time>
</trkpt>
<trkpt lat="46.197570000" lon="7.427830000">
  <ele>1272.825070</ele>
  <time>2012-05-06T14:45:44Z</time>
</trkpt>
<trkpt lat="46.197540000" lon="7.427830000">
  <ele>1273.112550</ele>
  <time>2012-05-06T14:45:45Z</time>
</trkpt>
<trkpt lat="46.197510000" lon="7.427820000">
  <ele>1273.400020</ele>
  <time>2012-05-06T14:45:46Z</time>
</trkpt>
<trkpt lat="46.197490000" lon="7.427810000">
  <ele>1273.400020</ele>
  <time>2012-05-06T14:45:47Z</time>
</trkpt>
<trkpt lat="46.197440000" lon="7.427790000">
  <ele>1273.973390</ele>
  <time>2012-05-06T14:45:49Z</time>
</trkpt>
<trkpt lat="46.197410000" lon="7.427770000">
  <ele>1274.260010</ele>
  <time>2012-05-06T14:45:50Z</time>
</trkpt>
<trkpt lat="46.197390000" lon="7.427760000">
  <ele>1274.546630</ele>
  <time>2012-05-06T14:45:51Z</time>
</trkpt>
<trkpt lat="46.197360000" lon="7.427750000">
  <ele>1274.833370</ele>
  <time>2012-05-06T14:45:52Z</time>
</trkpt>
<trkpt lat="46.197340000" lon="7.427730000">
  <ele>1275.120000</ele>
  <time>2012-05-06T14:45:53Z</time>
</trkpt>
<trkpt lat="46.197270000" lon="7.427690000">
  <ele>1275.979980</ele>
  <time>2012-05-06T14:45:56Z</time>
</trkpt>
<trkpt lat="46.197250000" lon="7.427670000">
  <ele>1276.266720</ele>
  <time>2012-05-06T14:45:57Z</time>
</trkpt>
<trkpt lat="46.197230000" lon="7.427660000">
  <ele>1276.553340</ele>
  <time>2012-05-06T14:45:58Z</time>
</trkpt>
<trkpt lat="46.197220000" lon="7.427640000">
  <ele>1276.839970</ele>
  <time>2012-05-06T14:45:59Z</time>
</trkpt>
<trkpt lat="46.197150000" lon="7.427580000">
  <ele>1278.273320</ele>
  <time>2012-05-06T14:46:04Z</time>
</trkpt>
<trkpt lat="46.197130000" lon="7.427560000">
  <ele>1278.560060</ele>
  <time>2012-05-06T14:46:05Z</time>
</trkpt>
<trkpt lat="46.197110000" lon="7.427530000">
  <ele>1278.846680</ele>
  <time>2012-05-06T14:46:06Z</time>
</trkpt>
<trkpt lat="46.197090000" lon="7.427510000">
  <ele>1279.133300</ele>
  <time>2012-05-06T14:46:07Z</time>
</trkpt>
<trkpt lat="46.197070000" lon="7.427500000">
  <ele>1279.420040</ele>
  <time>2012-05-06T14:46:08Z</time>
</trkpt>
<trkpt lat="46.196960000" lon="7.427460000">
  <ele>1280.853390</ele>
  <time>2012-05-06T14:46:13Z</time>
</trkpt>
<trkpt lat="46.196940000" lon="7.427460000">
  <ele>1281.140010</ele>
  <time>2012-05-06T14:46:14Z</time>
</trkpt>
<trkpt lat="46.196920000" lon="7.427460000">
  <ele>1281.426640</ele>
  <time>2012-05-06T14:46:15Z</time>
</trkpt>
<trkpt lat="46.196900000" lon="7.427460000">
  <ele>1281.713380</ele>
  <time>2012-05-06T14:46:16Z</time>
</trkpt>
<trkpt lat="46.196880000" lon="7.427470000">
  <ele>1282.000000</ele>
  <time>2012-05-06T14:46:17Z</time>
</trkpt>
<trkpt lat="46.196830000" lon="7.427480000">
  <ele>1282.000000</ele>
  <time>2012-05-06T14:46:19Z</time>
</trkpt>
<trkpt lat="46.196770000" lon="7.427500000">
  <ele>1282.800050</ele>
  <time>2012-05-06T14:46:22Z</time>
</trkpt>
<trkpt lat="46.196740000" lon="7.427510000">
  <ele>1283.066650</ele>
  <time>2012-05-06T14:46:23Z</time>
</trkpt>
<trkpt lat="46.196720000" lon="7.427510000">
  <ele>1283.333370</ele>
  <time>2012-05-06T14:46:24Z</time>
</trkpt>
<trkpt lat="46.196690000" lon="7.427500000">
  <ele>1283.599980</ele>
  <time>2012-05-06T14:46:25Z</time>
</trkpt>
<trkpt lat="46.196670000" lon="7.427500000">
  <ele>1283.866700</ele>
  <time>2012-05-06T14:46:26Z</time>
</trkpt>
<trkpt lat="46.196600000" lon="7.427490000">
  <ele>1284.666630</ele>
  <time>2012-05-06T14:46:29Z</time>
</trkpt>
<trkpt lat="46.196580000" lon="7.427490000">
  <ele>1284.933350</ele>
  <time>2012-05-06T14:46:30Z</time>
</trkpt>
<trkpt lat="46.196560000" lon="7.427470000">
  <ele>1285.199950</ele>
  <time>2012-05-06T14:46:31Z</time>
</trkpt>
<trkpt lat="46.196530000" lon="7.427460000">
  <ele>1285.466670</ele>
  <time>2012-05-06T14:46:32Z</time>
</trkpt>
<trkpt lat="46.196510000" lon="7.427450000">
  <ele>1285.733400</ele>
  <time>2012-05-06T14:46:33Z</time>
</trkpt>
<trkpt lat="46.196370000" lon="7.427420000">
  <ele>1287.333370</ele>
  <time>2012-05-06T14:46:39Z</time>
</trkpt>
<trkpt lat="46.196340000" lon="7.427410000">
  <ele>1287.599980</ele>
  <time>2012-05-06T14:46:40Z</time>
</trkpt>
<trkpt lat="46.196320000" lon="7.427400000">
  <ele>1287.866700</ele>
  <time>2012-05-06T14:46:41Z</time>
</trkpt>
<trkpt lat="46.196290000" lon="7.427400000">
  <ele>1288.133300</ele>
  <time>2012-05-06T14:46:42Z</time>
</trkpt>
<trkpt lat="46.196270000" lon="7.427390000">
  <ele>1288.400020</ele>
  <time>2012-05-06T14:46:43Z</time>
</trkpt>
<trkpt lat="46.196200000" lon="7.427350000">
  <ele>1288.400020</ele>
  <time>2012-05-06T14:46:46Z</time>
</trkpt>
<trkpt lat="46.196170000" lon="7.427340000">
  <ele>1288.839970</ele>
  <time>2012-05-06T14:46:47Z</time>
</trkpt>
<trkpt lat="46.196160000" lon="7.427330000">
  <ele>1289.280030</ele>
  <time>2012-05-06T14:46:48Z</time>
</trkpt>
<trkpt lat="46.196130000" lon="7.427320000">
  <ele>1289.719970</ele>
  <time>2012-05-06T14:46:49Z</time>
</trkpt>
<trkpt lat="46.196110000" lon="7.427300000">
  <ele>1290.160030</ele>
  <time>2012-05-06T14:46:50Z</time>
</trkpt>
<trkpt lat="46.196090000" lon="7.427300000">
  <ele>1290.599980</ele>
  <time>2012-05-06T14:46:51Z</time>
</trkpt>
<trkpt lat="46.196030000" lon="7.427290000">
  <ele>1290.599980</ele>
  <time>2012-05-06T14:46:53Z</time>
</trkpt>
<trkpt lat="46.195960000" lon="7.427260000">
  <ele>1291.542850</ele>
  <time>2012-05-06T14:46:56Z</time>
</trkpt>
<trkpt lat="46.195940000" lon="7.427250000">
  <ele>1291.857180</ele>
  <time>2012-05-06T14:46:57Z</time>
</trkpt>
<trkpt lat="46.195910000" lon="7.427240000">
  <ele>1292.171510</ele>
  <time>2012-05-06T14:46:58Z</time>
</trkpt>
<trkpt lat="46.195890000" lon="7.427220000">
  <ele>1292.485720</ele>
  <time>2012-05-06T14:46:59Z</time>
</trkpt>
<trkpt lat="46.195860000" lon="7.427210000">
  <ele>1292.800050</ele>
  <time>2012-05-06T14:47:00Z</time>
</trkpt>
<trkpt lat="46.195740000" lon="7.427190000">
  <ele>1292.800050</ele>
  <time>2012-05-06T14:47:05Z</time>
</trkpt>
<trkpt lat="46.195720000" lon="7.427180000">
  <ele>1293.200070</ele>
  <time>2012-05-06T14:47:06Z</time>
</trkpt>
<trkpt lat="46.195690000" lon="7.427180000">
  <ele>1293.600100</ele>
  <time>2012-05-06T14:47:07Z</time>
</trkpt>
<trkpt lat="46.195670000" lon="7.427170000">
  <ele>1294.000000</ele>
  <time>2012-05-06T14:47:08Z</time>
</trkpt>
<trkpt lat="46.195640000" lon="7.427170000">
  <ele>1294.400020</ele>
  <time>2012-05-06T14:47:09Z</time>
</trkpt>
<trkpt lat="46.195620000" lon="7.427170000">
  <ele>1294.800050</ele>
  <time>2012-05-06T14:47:10Z</time>
</trkpt>
<trkpt lat="46.195550000" lon="7.427190000">
  <ele>1294.800050</ele>
  <time>2012-05-06T14:47:13Z</time>
</trkpt>
<trkpt lat="46.195530000" lon="7.427190000">
  <ele>1295.104860</ele>
  <time>2012-05-06T14:47:14Z</time>
</trkpt>
<trkpt lat="46.195500000" lon="7.427200000">
  <ele>1295.409550</ele>
  <time>2012-05-06T14:47:15Z</time>
</trkpt>
<trkpt lat="46.195480000" lon="7.427210000">
  <ele>1295.714360</ele>
  <time>2012-05-06T14:47:16Z</time>
</trkpt>
<trkpt lat="46.195450000" lon="7.427220000">
  <ele>1296.019040</ele>
  <time>2012-05-06T14:47:17Z</time>
</trkpt>
<trkpt lat="46.195430000" lon="7.427220000">
  <ele>1296.323850</ele>
  <time>2012-05-06T14:47:18Z</time>
</trkpt>
<trkpt lat="46.195350000" lon="7.427230000">
  <ele>1297.238160</ele>
  <time>2012-05-06T14:47:21Z</time>
</trkpt>
<trkpt lat="46.195330000" lon="7.427230000">
  <ele>1297.542850</ele>
  <time>2012-05-06T14:47:22Z</time>
</trkpt>
<trkpt lat="46.195300000" lon="7.427240000">
  <ele>1297.847660</ele>
  <time>2012-05-06T14:47:23Z</time>
</trkpt>
<trkpt lat="46.195280000" lon="7.427250000">
  <ele>1298.152340</ele>
  <time>2012-05-06T14:47:24Z</time>
</trkpt>
<trkpt lat="46.195250000" lon="7.427260000">
  <ele>1298.457150</ele>
  <time>2012-05-06T14:47:25Z</time>
</trkpt>
<trkpt lat="46.195130000" lon="7.427340000">
  <ele>1299.980960</ele>
  <time>2012-05-06T14:47:30Z</time>
</trkpt>
<trkpt lat="46.195110000" lon="7.427360000">
  <ele>1300.285640</ele>
  <time>2012-05-06T14:47:31Z</time>
</trkpt>
<trkpt lat="46.195080000" lon="7.427380000">
  <ele>1300.590450</ele>
  <time>2012-05-06T14:47:32Z</time>
</trkpt>
<trkpt lat="46.195060000" lon="7.427410000">
  <ele>1300.895140</ele>
  <time>2012-05-06T14:47:33Z</time>
</trkpt>
<trkpt lat="46.195050000" lon="7.427430000">
  <ele>1301.199950</ele>
  <time>2012-05-06T14:47:34Z</time>
</trkpt>
<trkpt lat="46.195000000" lon="7.427520000">
  <ele>1301.199950</ele>
  <time>2012-05-06T14:47:37Z</time>
</trkpt>
<trkpt lat="46.194920000" lon="7.427680000">
  <ele>1302.311040</ele>
  <time>2012-05-06T14:47:42Z</time>
</trkpt>
<trkpt lat="46.194910000" lon="7.427720000">
  <ele>1302.533330</ele>
  <time>2012-05-06T14:47:43Z</time>
</trkpt>
<trkpt lat="46.194900000" lon="7.427750000">
  <ele>1302.755490</ele>
  <time>2012-05-06T14:47:44Z</time>
</trkpt>
<trkpt lat="46.194890000" lon="7.427790000">
  <ele>1302.977780</ele>
  <time>2012-05-06T14:47:45Z</time>
</trkpt>
<trkpt lat="46.194890000" lon="7.427830000">
  <ele>1303.199950</ele>
  <time>2012-05-06T14:47:46Z</time>
</trkpt>
<trkpt lat="46.194810000" lon="7.428130000">
  <ele>1303.199950</ele>
  <time>2012-05-06T14:47:54Z</time>
</trkpt>
<trkpt lat="46.194790000" lon="7.428200000">
  <ele>1303.866580</ele>
  <time>2012-05-06T14:47:56Z</time>
</trkpt>
<trkpt lat="46.194780000" lon="7.428240000">
  <ele>1304.199950</ele>
  <time>2012-05-06T14:47:57Z</time>
</trkpt>
<trkpt lat="46.194770000" lon="7.428280000">
  <ele>1304.533330</ele>
  <time>2012-05-06T14:47:58Z</time>
</trkpt>
<trkpt lat="46.194760000" lon="7.428310000">
  <ele>1304.866580</ele>
  <time>2012-05-06T14:47:59Z</time>
</trkpt>
<trkpt lat="46.194750000" lon="7.428340000">
  <ele>1305.199950</ele>
  <time>2012-05-06T14:48:00Z</time>
</trkpt>
<trkpt lat="46.194720000" lon="7.428400000">
  <ele>1305.199950</ele>
  <time>2012-05-06T14:48:02Z</time>
</trkpt>
<trkpt lat="46.194680000" lon="7.428480000">
  <ele>1306.057130</ele>
  <time>2012-05-06T14:48:05Z</time>
</trkpt>
<trkpt lat="46.194660000" lon="7.428510000">
  <ele>1306.342770</ele>
  <time>2012-05-06T14:48:06Z</time>
</trkpt>
<trkpt lat="46.194640000" lon="7.428540000">
  <ele>1306.628540</ele>
  <time>2012-05-06T14:48:07Z</time>
</trkpt>
<trkpt lat="46.194630000" lon="7.428570000">
  <ele>1306.914180</ele>
  <time>2012-05-06T14:48:08Z</time>
</trkpt>
<trkpt lat="46.194610000" lon="7.428600000">
  <ele>1307.199950</ele>
  <time>2012-05-06T14:48:09Z</time>
</trkpt>
<trkpt lat="46.194600000" lon="7.428630000">
  <ele>1307.199950</ele>
  <time>2012-05-06T14:48:10Z</time>
</trkpt>
<trkpt lat="46.194500000" lon="7.428770000">
  <ele>1308.422240</ele>
  <time>2012-05-06T14:48:15Z</time>
</trkpt>
<trkpt lat="46.194480000" lon="7.428790000">
  <ele>1308.666630</ele>
  <time>2012-05-06T14:48:16Z</time>
</trkpt>
<trkpt lat="46.194470000" lon="7.428810000">
  <ele>1308.911130</ele>
  <time>2012-05-06T14:48:17Z</time>
</trkpt>
<trkpt lat="46.194440000" lon="7.428840000">
  <ele>1309.155520</ele>
  <time>2012-05-06T14:48:18Z</time>
</trkpt>
<trkpt lat="46.194430000" lon="7.428860000">
  <ele>1309.400020</ele>
  <time>2012-05-06T14:48:19Z</time>
</trkpt>
<trkpt lat="46.194340000" lon="7.428990000">
  <ele>1309.400020</ele>
  <time>2012-05-06T14:48:24Z</time>
</trkpt>
<trkpt lat="46.194300000" lon="7.429050000">
  <ele>1309.959960</ele>
  <time>2012-05-06T14:48:26Z</time>
</trkpt>
<trkpt lat="46.194280000" lon="7.429080000">
  <ele>1310.239990</ele>
  <time>2012-05-06T14:48:27Z</time>
</trkpt>
<trkpt lat="46.194270000" lon="7.429110000">
  <ele>1310.520020</ele>
  <time>2012-05-06T14:48:28Z</time>
</trkpt>
<trkpt lat="46.194260000" lon="7.429140000">
  <ele>1310.800050</ele>
  <time>2012-05-06T14:48:29Z</time>
</trkpt>
<trkpt lat="46.194240000" lon="7.429170000">
  <ele>1311.079960</ele>
  <time>2012-05-06T14:48:30Z</time>
</trkpt>
<trkpt lat="46.194170000" lon="7.429320000">
  <ele>1312.479980</ele>
  <time>2012-05-06T14:48:35Z</time>
</trkpt>
<trkpt lat="46.194160000" lon="7.429360000">
  <ele>1312.760010</ele>
  <time>2012-05-06T14:48:36Z</time>
</trkpt>
<trkpt lat="46.194150000" lon="7.429400000">
  <ele>1313.040040</ele>
  <time>2012-05-06T14:48:37Z</time>
</trkpt>
<trkpt lat="46.194130000" lon="7.429440000">
  <ele>1313.319950</ele>
  <time>2012-05-06T14:48:38Z</time>
</trkpt>
<trkpt lat="46.194120000" lon="7.429470000">
  <ele>1313.599980</ele>
  <time>2012-05-06T14:48:39Z</time>
</trkpt>
<trkpt lat="46.194110000" lon="7.429510000">
  <ele>1313.599980</ele>
  <time>2012-05-06T14:48:40Z</time>
</trkpt>
<trkpt lat="46.194040000" lon="7.429780000">
  <ele>1314.883300</ele>
  <time>2012-05-06T14:48:47Z</time>
</trkpt>
<trkpt lat="46.194020000" lon="7.429850000">
  <ele>1315.250000</ele>
  <time>2012-05-06T14:48:49Z</time>
</trkpt>
<trkpt lat="46.194020000" lon="7.429890000">
  <ele>1315.433350</ele>
  <time>2012-05-06T14:48:50Z</time>
</trkpt>
<trkpt lat="46.194000000" lon="7.429920000">
  <ele>1315.616700</ele>
  <time>2012-05-06T14:48:51Z</time>
</trkpt>
<trkpt lat="46.194000000" lon="7.429960000">
  <ele>1315.800050</ele>
  <time>2012-05-06T14:48:52Z</time>
</trkpt>
<trkpt lat="46.193960000" lon="7.430070000">
  <ele>1315.800050</ele>
  <time>2012-05-06T14:48:55Z</time>
</trkpt>
<trkpt lat="46.193910000" lon="7.430290000">
  <ele>1317.000000</ele>
  <time>2012-05-06T14:49:01Z</time>
</trkpt>
<trkpt lat="46.193900000" lon="7.430330000">
  <ele>1317.200070</ele>
  <time>2012-05-06T14:49:02Z</time>
</trkpt>
<trkpt lat="46.193900000" lon="7.430380000">
  <ele>1317.400020</ele>
  <time>2012-05-06T14:49:03Z</time>
</trkpt>
<trkpt lat="46.193900000" lon="7.430420000">
  <ele>1317.600100</ele>
  <time>2012-05-06T14:49:04Z</time>
</trkpt>
<trkpt lat="46.193890000" lon="7.430460000">
  <ele>1317.800050</ele>
  <time>2012-05-06T14:49:05Z</time>
</trkpt>
<trkpt lat="46.193890000" lon="7.430670000">
  <ele>1317.800050</ele>
  <time>2012-05-06T14:49:10Z</time>
</trkpt>
<trkpt lat="46.193900000" lon="7.430880000">
  <ele>1319.050050</ele>
  <time>2012-05-06T14:49:15Z</time>
</trkpt>
<trkpt lat="46.193910000" lon="7.430920000">
  <ele>1319.300050</ele>
  <time>2012-05-06T14:49:16Z</time>
</trkpt>
<trkpt lat="46.193910000" lon="7.430970000">
  <ele>1319.550050</ele>
  <time>2012-05-06T14:49:17Z</time>
</trkpt>
<trkpt lat="46.193920000" lon="7.431010000">
  <ele>1319.800050</ele>
  <time>2012-05-06T14:49:18Z</time>
</trkpt>
<trkpt lat="46.193930000" lon="7.431090000">
  <ele>1319.800050</ele>
  <time>2012-05-06T14:49:20Z</time>
</trkpt>
<trkpt lat="46.194000000" lon="7.431360000">
  <ele>1321.025020</ele>
  <time>2012-05-06T14:49:27Z</time>
</trkpt>
<trkpt lat="46.194050000" lon="7.431510000">
  <ele>1321.724980</ele>
  <time>2012-05-06T14:49:31Z</time>
</trkpt>
<trkpt lat="46.194070000" lon="7.431550000">
  <ele>1321.900020</ele>
  <time>2012-05-06T14:49:32Z</time>
</trkpt>
<trkpt lat="46.194080000" lon="7.431600000">
  <ele>1322.075070</ele>
  <time>2012-05-06T14:49:33Z</time>
</trkpt>
<trkpt lat="46.194090000" lon="7.431640000">
  <ele>1322.250000</ele>
  <time>2012-05-06T14:49:34Z</time>
</trkpt>
<trkpt lat="46.194110000" lon="7.431690000">
  <ele>1322.425050</ele>
  <time>2012-05-06T14:49:35Z</time>
</trkpt>
<trkpt lat="46.194160000" lon="7.431890000">
  <ele>1323.300050</ele>
  <time>2012-05-06T14:49:40Z</time>
</trkpt>
<trkpt lat="46.194170000" lon="7.431930000">
  <ele>1323.474980</ele>
  <time>2012-05-06T14:49:41Z</time>
</trkpt>
<trkpt lat="46.194180000" lon="7.431970000">
  <ele>1323.650020</ele>
  <time>2012-05-06T14:49:42Z</time>
</trkpt>
<trkpt lat="46.194180000" lon="7.432010000">
  <ele>1323.824950</ele>
  <time>2012-05-06T14:49:43Z</time>
</trkpt>
<trkpt lat="46.194180000" lon="7.432050000">
  <ele>1324.000000</ele>
  <time>2012-05-06T14:49:44Z</time>
</trkpt>
<trkpt lat="46.194190000" lon="7.432260000">
  <ele>1324.000000</ele>
  <time>2012-05-06T14:49:49Z</time>
</trkpt>
<trkpt lat="46.194160000" lon="7.432540000">
  <ele>1325.184570</ele>
  <time>2012-05-06T14:49:56Z</time>
</trkpt>
<trkpt lat="46.194150000" lon="7.432620000">
  <ele>1325.523070</ele>
  <time>2012-05-06T14:49:58Z</time>
</trkpt>
<trkpt lat="46.194140000" lon="7.432660000">
  <ele>1325.692260</ele>
  <time>2012-05-06T14:49:59Z</time>
</trkpt>
<trkpt lat="46.194140000" lon="7.432710000">
  <ele>1325.861450</ele>
  <time>2012-05-06T14:50:00Z</time>
</trkpt>
<trkpt lat="46.194130000" lon="7.432750000">
  <ele>1326.030760</ele>
  <time>2012-05-06T14:50:01Z</time>
</trkpt>
<trkpt lat="46.194110000" lon="7.432790000">
  <ele>1326.199950</ele>
  <time>2012-05-06T14:50:02Z</time>
</trkpt>
<trkpt lat="46.194100000" lon="7.432830000">
  <ele>1326.199950</ele>
  <time>2012-05-06T14:50:03Z</time>
</trkpt>
<trkpt lat="46.194040000" lon="7.433130000">
  <ele>1326.799930</ele>
  <time>2012-05-06T14:50:09Z</time>
</trkpt>
<trkpt lat="46.193920000" lon="7.433590000">
  <ele>1327.699950</ele>
  <time>2012-05-06T14:50:18Z</time>
</trkpt>
<trkpt lat="46.193870000" lon="7.433750000">
  <ele>1328.000000</ele>
  <time>2012-05-06T14:50:21Z</time>
</trkpt>
<trkpt lat="46.193850000" lon="7.433800000">
  <ele>1328.099980</ele>
  <time>2012-05-06T14:50:22Z</time>
</trkpt>
<trkpt lat="46.193830000" lon="7.433850000">
  <ele>1328.200070</ele>
  <time>2012-05-06T14:50:23Z</time>
</trkpt>
<trkpt lat="46.193810000" lon="7.433900000">
  <ele>1328.300050</ele>
  <time>2012-05-06T14:50:24Z</time>
</trkpt>
<trkpt lat="46.193790000" lon="7.433960000">
  <ele>1328.400020</ele>
  <time>2012-05-06T14:50:25Z</time>
</trkpt>
<trkpt lat="46.193720000" lon="7.434120000">
  <ele>1328.400020</ele>
  <time>2012-05-06T14:50:28Z</time>
</trkpt>
<trkpt lat="46.193660000" lon="7.434290000">
  <ele>1328.840090</ele>
  <time>2012-05-06T14:50:31Z</time>
</trkpt>
<trkpt lat="46.193570000" lon="7.434710000">
  <ele>1329.866700</ele>
  <time>2012-05-06T14:50:38Z</time>
</trkpt>
<trkpt lat="46.193560000" lon="7.434920000">
  <ele>1330.453370</ele>
  <time>2012-05-06T14:50:42Z</time>
</trkpt>
<trkpt lat="46.193570000" lon="7.435080000">
  <ele>1330.893310</ele>
  <time>2012-05-06T14:50:45Z</time>
</trkpt>
<trkpt lat="46.193570000" lon="7.435170000">
  <ele>1331.186770</ele>
  <time>2012-05-06T14:50:47Z</time>
</trkpt>
<trkpt lat="46.193570000" lon="7.435220000">
  <ele>1331.333370</ele>
  <time>2012-05-06T14:50:48Z</time>
</trkpt>
<trkpt lat="46.193570000" lon="7.435270000">
  <ele>1331.479980</ele>
  <time>2012-05-06T14:50:49Z</time>
</trkpt>
<trkpt lat="46.193580000" lon="7.435330000">
  <ele>1331.626710</ele>
  <time>2012-05-06T14:50:50Z</time>
</trkpt>
<trkpt lat="46.193590000" lon="7.435390000">
  <ele>1331.773440</ele>
  <time>2012-05-06T14:50:51Z</time>
</trkpt>
<trkpt lat="46.193600000" lon="7.435540000">
  <ele>1332.213380</ele>
  <time>2012-05-06T14:50:54Z</time>
</trkpt>
<trkpt lat="46.193610000" lon="7.435580000">
  <ele>1332.360110</ele>
  <time>2012-05-06T14:50:55Z</time>
</trkpt>
<trkpt lat="46.193610000" lon="7.435630000">
  <ele>1332.506710</ele>
  <time>2012-05-06T14:50:56Z</time>
</trkpt>
<trkpt lat="46.193620000" lon="7.435680000">
  <ele>1332.653320</ele>
  <time>2012-05-06T14:50:57Z</time>
</trkpt>
<trkpt lat="46.193620000" lon="7.435730000">
  <ele>1332.800050</ele>
  <time>2012-05-06T14:50:58Z</time>
</trkpt>
<trkpt lat="46.193620000" lon="7.435860000">
  <ele>1332.800050</ele>
  <time>2012-05-06T14:51:01Z</time>
</trkpt>
<trkpt lat="46.193610000" lon="7.436030000">
  <ele>1333.920040</ele>
  <time>2012-05-06T14:51:05Z</time>
</trkpt>
<trkpt lat="46.193610000" lon="7.436080000">
  <ele>1334.200070</ele>
  <time>2012-05-06T14:51:06Z</time>
</trkpt>
<trkpt lat="46.193600000" lon="7.436130000">
  <ele>1334.479980</ele>
  <time>2012-05-06T14:51:07Z</time>
</trkpt>
<trkpt lat="46.193600000" lon="7.436180000">
  <ele>1334.760010</ele>
  <time>2012-05-06T14:51:08Z</time>
</trkpt>
<trkpt lat="46.193600000" lon="7.436220000">
  <ele>1335.040040</ele>
  <time>2012-05-06T14:51:09Z</time>
</trkpt>
<trkpt lat="46.193580000" lon="7.436340000">
  <ele>1335.880000</ele>
  <time>2012-05-06T14:51:12Z</time>
</trkpt>
<trkpt lat="46.193580000" lon="7.436390000">
  <ele>1336.160030</ele>
  <time>2012-05-06T14:51:13Z</time>
</trkpt>
<trkpt lat="46.193580000" lon="7.436440000">
  <ele>1336.440060</ele>
  <time>2012-05-06T14:51:14Z</time>
</trkpt>
<trkpt lat="46.193580000" lon="7.436490000">
  <ele>1336.719970</ele>
  <time>2012-05-06T14:51:15Z</time>
</trkpt>
<trkpt lat="46.193580000" lon="7.436530000">
  <ele>1337.000000</ele>
  <time>2012-05-06T14:51:16Z</time>
</trkpt>
<trkpt lat="46.193590000" lon="7.436570000">
  <ele>1337.000000</ele>
  <time>2012-05-06T14:51:17Z</time>
</trkpt>
<trkpt lat="46.193600000" lon="7.436710000">
  <ele>1337.857180</ele>
  <time>2012-05-06T14:51:20Z</time>
</trkpt>
<trkpt lat="46.193600000" lon="7.436750000">
  <ele>1338.142820</ele>
  <time>2012-05-06T14:51:21Z</time>
</trkpt>
<trkpt lat="46.193600000" lon="7.436790000">
  <ele>1338.428590</ele>
  <time>2012-05-06T14:51:22Z</time>
</trkpt>
<trkpt lat="46.193600000" lon="7.436830000">
  <ele>1338.714230</ele>
  <time>2012-05-06T14:51:23Z</time>
</trkpt>
<trkpt lat="46.193600000" lon="7.436870000">
  <ele>1339.000000</ele>
  <time>2012-05-06T14:51:24Z</time>
</trkpt>
<trkpt lat="46.193620000" lon="7.437010000">
  <ele>1339.000000</ele>
  <time>2012-05-06T14:51:27Z</time>
</trkpt>
<trkpt lat="46.193630000" lon="7.437050000">
  <ele>1339.439940</ele>
  <time>2012-05-06T14:51:28Z</time>
</trkpt>
<trkpt lat="46.193630000" lon="7.437100000">
  <ele>1339.880000</ele>
  <time>2012-05-06T14:51:29Z</time>
</trkpt>
<trkpt lat="46.193630000" lon="7.437130000">
  <ele>1340.319950</ele>
  <time>2012-05-06T14:51:30Z</time>
</trkpt>
<trkpt lat="46.193630000" lon="7.437170000">
  <ele>1340.760010</ele>
  <time>2012-05-06T14:51:31Z</time>
</trkpt>
<trkpt lat="46.193630000" lon="7.437210000">
  <ele>1341.199950</ele>
  <time>2012-05-06T14:51:32Z</time>
</trkpt>
<trkpt lat="46.193640000" lon="7.437290000">
  <ele>1341.199950</ele>
  <time>2012-05-06T14:51:34Z</time>
</trkpt>
<trkpt lat="46.193650000" lon="7.437380000">
  <ele>1341.666630</ele>
  <time>2012-05-06T14:51:36Z</time>
</trkpt>
<trkpt lat="46.193660000" lon="7.437460000">
  <ele>1342.133300</ele>
  <time>2012-05-06T14:51:38Z</time>
</trkpt>
<trkpt lat="46.193660000" lon="7.437500000">
  <ele>1342.366700</ele>
  <time>2012-05-06T14:51:39Z</time>
</trkpt>
<trkpt lat="46.193660000" lon="7.437540000">
  <ele>1342.599980</ele>
  <time>2012-05-06T14:51:40Z</time>
</trkpt>
<trkpt lat="46.193670000" lon="7.437580000">
  <ele>1342.833250</ele>
  <time>2012-05-06T14:51:41Z</time>
</trkpt>
<trkpt lat="46.193680000" lon="7.437620000">
  <ele>1343.066650</ele>
  <time>2012-05-06T14:51:42Z</time>
</trkpt>
<trkpt lat="46.193700000" lon="7.437860000">
  <ele>1344.466670</ele>
  <time>2012-05-06T14:51:48Z</time>
</trkpt>
<trkpt lat="46.193700000" lon="7.437900000">
  <ele>1344.699950</ele>
  <time>2012-05-06T14:51:49Z</time>
</trkpt>
<trkpt lat="46.193700000" lon="7.437940000">
  <ele>1344.933350</ele>
  <time>2012-05-06T14:51:50Z</time>
</trkpt>
<trkpt lat="46.193700000" lon="7.437980000">
  <ele>1345.166750</ele>
  <time>2012-05-06T14:51:51Z</time>
</trkpt>
<trkpt lat="46.193700000" lon="7.438020000">
  <ele>1345.400020</ele>
  <time>2012-05-06T14:51:52Z</time>
</trkpt>
<trkpt lat="46.193710000" lon="7.438170000">
  <ele>1345.400020</ele>
  <time>2012-05-06T14:51:56Z</time>
</trkpt>
<trkpt lat="46.193720000" lon="7.438250000">
  <ele>1345.986690</ele>
  <time>2012-05-06T14:51:58Z</time>
</trkpt>
<trkpt lat="46.193720000" lon="7.438290000">
  <ele>1346.280030</ele>
  <time>2012-05-06T14:51:59Z</time>
</trkpt>
<trkpt lat="46.193730000" lon="7.438330000">
  <ele>1346.573360</ele>
  <time>2012-05-06T14:52:00Z</time>
</trkpt>
<trkpt lat="46.193730000" lon="7.438370000">
  <ele>1346.866700</ele>
  <time>2012-05-06T14:52:01Z</time>
</trkpt>
<trkpt lat="46.193730000" lon="7.438410000">
  <ele>1347.160030</ele>
  <time>2012-05-06T14:52:02Z</time>
</trkpt>
<trkpt lat="46.193680000" lon="7.438640000">
  <ele>1348.920040</ele>
  <time>2012-05-06T14:52:08Z</time>
</trkpt>
<trkpt lat="46.193660000" lon="7.438670000">
  <ele>1349.213380</ele>
  <time>2012-05-06T14:52:09Z</time>
</trkpt>
<trkpt lat="46.193650000" lon="7.438710000">
  <ele>1349.506710</ele>
  <time>2012-05-06T14:52:10Z</time>
</trkpt>
<trkpt lat="46.193640000" lon="7.438740000">
  <ele>1349.800050</ele>
  <time>2012-05-06T14:52:11Z</time>
</trkpt>
<trkpt lat="46.193580000" lon="7.438880000">
  <ele>1349.800050</ele>
  <time>2012-05-06T14:52:15Z</time>
</trkpt>
<trkpt lat="46.193560000" lon="7.438910000">
  <ele>1350.200070</ele>
  <time>2012-05-06T14:52:16Z</time>
</trkpt>
<trkpt lat="46.193550000" lon="7.438950000">
  <ele>1350.600100</ele>
  <time>2012-05-06T14:52:17Z</time>
</trkpt>
<trkpt lat="46.193530000" lon="7.438980000">
  <ele>1351.000000</ele>
  <time>2012-05-06T14:52:18Z</time>
</trkpt>
<trkpt lat="46.193520000" lon="7.439020000">
  <ele>1351.400020</ele>
  <time>2012-05-06T14:52:19Z</time>
</trkpt>
<trkpt lat="46.193520000" lon="7.439050000">
  <ele>1351.800050</ele>
  <time>2012-05-06T14:52:20Z</time>
</trkpt>
<trkpt lat="46.193500000" lon="7.439170000">
  <ele>1351.800050</ele>
  <time>2012-05-06T14:52:23Z</time>
</trkpt>
<trkpt lat="46.193500000" lon="7.439210000">
  <ele>1352.239990</ele>
  <time>2012-05-06T14:52:24Z</time>
</trkpt>
<trkpt lat="46.193500000" lon="7.439250000">
  <ele>1352.680050</ele>
  <time>2012-05-06T14:52:25Z</time>
</trkpt>
<trkpt lat="46.193500000" lon="7.439290000">
  <ele>1353.120000</ele>
  <time>2012-05-06T14:52:26Z</time>
</trkpt>
<trkpt lat="46.193490000" lon="7.439330000">
  <ele>1353.560060</ele>
  <time>2012-05-06T14:52:27Z</time>
</trkpt>
<trkpt lat="46.193500000" lon="7.439370000">
  <ele>1354.000000</ele>
  <time>2012-05-06T14:52:28Z</time>
</trkpt>
<trkpt lat="46.193500000" lon="7.439480000">
  <ele>1354.000000</ele>
  <time>2012-05-06T14:52:31Z</time>
</trkpt>
<trkpt lat="46.193500000" lon="7.439580000">
  <ele>1354.942870</ele>
  <time>2012-05-06T14:52:34Z</time>
</trkpt>
<trkpt lat="46.193500000" lon="7.439620000">
  <ele>1355.257080</ele>
  <time>2012-05-06T14:52:35Z</time>
</trkpt>
<trkpt lat="46.193500000" lon="7.439660000">
  <ele>1355.571410</ele>
  <time>2012-05-06T14:52:36Z</time>
</trkpt>
<trkpt lat="46.193500000" lon="7.439700000">
  <ele>1355.885620</ele>
  <time>2012-05-06T14:52:37Z</time>
</trkpt>
<trkpt lat="46.193500000" lon="7.439740000">
  <ele>1356.199950</ele>
  <time>2012-05-06T14:52:38Z</time>
</trkpt>
<trkpt lat="46.193500000" lon="7.439810000">
  <ele>1356.199950</ele>
  <time>2012-05-06T14:52:40Z</time>
</trkpt>
<trkpt lat="46.193500000" lon="7.439920000">
  <ele>1356.941160</ele>
  <time>2012-05-06T14:52:43Z</time>
</trkpt>
<trkpt lat="46.193500000" lon="7.439950000">
  <ele>1357.188230</ele>
  <time>2012-05-06T14:52:44Z</time>
</trkpt>
<trkpt lat="46.193500000" lon="7.439990000">
  <ele>1357.435300</ele>
  <time>2012-05-06T14:52:45Z</time>
</trkpt>
<trkpt lat="46.193500000" lon="7.440030000">
  <ele>1357.682370</ele>
  <time>2012-05-06T14:52:46Z</time>
</trkpt>
<trkpt lat="46.193500000" lon="7.440070000">
  <ele>1357.929440</ele>
  <time>2012-05-06T14:52:47Z</time>
</trkpt>
<trkpt lat="46.193540000" lon="7.440310000">
  <ele>1359.658810</ele>
  <time>2012-05-06T14:52:54Z</time>
</trkpt>
<trkpt lat="46.193550000" lon="7.440350000">
  <ele>1359.905880</ele>
  <time>2012-05-06T14:52:55Z</time>
</trkpt>
<trkpt lat="46.193550000" lon="7.440380000">
  <ele>1360.152950</ele>
  <time>2012-05-06T14:52:56Z</time>
</trkpt>
<trkpt lat="46.193550000" lon="7.440410000">
  <ele>1360.400020</ele>
  <time>2012-05-06T14:52:57Z</time>
</trkpt>
<trkpt lat="46.193590000" lon="7.440550000">
  <ele>1360.400020</ele>
  <time>2012-05-06T14:53:01Z</time>
</trkpt>
<trkpt lat="46.193600000" lon="7.440630000">
  <ele>1360.900020</ele>
  <time>2012-05-06T14:53:03Z</time>
</trkpt>
<trkpt lat="46.193620000" lon="7.440700000">
  <ele>1361.400020</ele>
  <time>2012-05-06T14:53:05Z</time>
</trkpt>
<trkpt lat="46.193630000" lon="7.440730000">
  <ele>1361.650020</ele>
  <time>2012-05-06T14:53:06Z</time>
</trkpt>
<trkpt lat="46.193640000" lon="7.440770000">
  <ele>1361.900020</ele>
  <time>2012-05-06T14:53:07Z</time>
</trkpt>
<trkpt lat="46.193650000" lon="7.440810000">
  <ele>1362.150020</ele>
  <time>2012-05-06T14:53:08Z</time>
</trkpt>
<trkpt lat="46.193650000" lon="7.440840000">
  <ele>1362.400020</ele>
  <time>2012-05-06T14:53:09Z</time>
</trkpt>
<trkpt lat="46.193670000" lon="7.440920000">
  <ele>1362.400020</ele>
  <time>2012-05-06T14:53:11Z</time>
</trkpt>
<trkpt lat="46.193740000" lon="7.441170000">
  <ele>1363.719970</ele>
  <time>2012-05-06T14:53:17Z</time>
</trkpt>
<trkpt lat="46.193740000" lon="7.441210000">
  <ele>1363.939940</ele>
  <time>2012-05-06T14:53:18Z</time>
</trkpt>
<trkpt lat="46.193760000" lon="7.441250000">
  <ele>1364.160030</ele>
  <time>2012-05-06T14:53:19Z</time>
</trkpt>
<trkpt lat="46.193770000" lon="7.441290000">
  <ele>1364.380000</ele>
  <time>2012-05-06T14:53:20Z</time>
</trkpt>
<trkpt lat="46.193780000" lon="7.441340000">
  <ele>1364.599980</ele>
  <time>2012-05-06T14:53:21Z</time>
</trkpt>
<trkpt lat="46.193830000" lon="7.441520000">
  <ele>1364.599980</ele>
  <time>2012-05-06T14:53:25Z</time>
</trkpt>
<trkpt lat="46.193910000" lon="7.441820000">
  <ele>1365.305910</ele>
  <time>2012-05-06T14:53:31Z</time>
</trkpt>
<trkpt lat="46.193920000" lon="7.441860000">
  <ele>1365.423460</ele>
  <time>2012-05-06T14:53:32Z</time>
</trkpt>
<trkpt lat="46.193990000" lon="7.442160000">
  <ele>1366.129390</ele>
  <time>2012-05-06T14:53:38Z</time>
</trkpt>
<trkpt lat="46.194000000" lon="7.442210000">
  <ele>1366.247070</ele>
  <time>2012-05-06T14:53:39Z</time>
</trkpt>
<trkpt lat="46.194010000" lon="7.442260000">
  <ele>1366.364620</ele>
  <time>2012-05-06T14:53:40Z</time>
</trkpt>
<trkpt lat="46.194020000" lon="7.442310000">
  <ele>1366.482300</ele>
  <time>2012-05-06T14:53:41Z</time>
</trkpt>
<trkpt lat="46.194020000" lon="7.442360000">
  <ele>1366.599980</ele>
  <time>2012-05-06T14:53:42Z</time>
</trkpt>
<trkpt lat="46.194040000" lon="7.442570000">
  <ele>1366.599980</ele>
  <time>2012-05-06T14:53:46Z</time>
</trkpt>
<trkpt lat="46.194050000" lon="7.442630000">
  <ele>1366.722170</ele>
  <time>2012-05-06T14:53:47Z</time>
</trkpt>
<trkpt lat="46.194080000" lon="7.442900000">
  <ele>1367.333370</ele>
  <time>2012-05-06T14:53:52Z</time>
</trkpt>
<trkpt lat="46.194100000" lon="7.443010000">
  <ele>1367.577760</ele>
  <time>2012-05-06T14:53:54Z</time>
</trkpt>
<trkpt lat="46.194160000" lon="7.443330000">
  <ele>1368.311160</ele>
  <time>2012-05-06T14:54:00Z</time>
</trkpt>
<trkpt lat="46.194160000" lon="7.443380000">
  <ele>1368.433350</ele>
  <time>2012-05-06T14:54:01Z</time>
</trkpt>
<trkpt lat="46.194170000" lon="7.443440000">
  <ele>1368.555540</ele>
  <time>2012-05-06T14:54:02Z</time>
</trkpt>
<trkpt lat="46.194160000" lon="7.443500000">
  <ele>1368.677860</ele>
  <time>2012-05-06T14:54:03Z</time>
</trkpt>
<trkpt lat="46.194160000" lon="7.443550000">
  <ele>1368.800050</ele>
  <time>2012-05-06T14:54:04Z</time>
</trkpt>
<trkpt lat="46.194100000" lon="7.443820000">
  <ele>1368.800050</ele>
  <time>2012-05-06T14:54:09Z</time>
</trkpt>
<trkpt lat="46.193970000" lon="7.444170000">
  <ele>1369.623540</ele>
  <time>2012-05-06T14:54:16Z</time>
</trkpt>
<trkpt lat="46.193870000" lon="7.444460000">
  <ele>1370.329470</ele>
  <time>2012-05-06T14:54:22Z</time>
</trkpt>
<trkpt lat="46.193860000" lon="7.444520000">
  <ele>1370.447140</ele>
  <time>2012-05-06T14:54:23Z</time>
</trkpt>
<trkpt lat="46.193840000" lon="7.444570000">
  <ele>1370.564700</ele>
  <time>2012-05-06T14:54:24Z</time>
</trkpt>
<trkpt lat="46.193820000" lon="7.444630000">
  <ele>1370.682370</ele>
  <time>2012-05-06T14:54:25Z</time>
</trkpt>
<trkpt lat="46.193810000" lon="7.444680000">
  <ele>1370.800050</ele>
  <time>2012-05-06T14:54:26Z</time>
</trkpt>
<trkpt lat="46.193730000" lon="7.444960000">
  <ele>1370.800050</ele>
  <time>2012-05-06T14:54:31Z</time>
</trkpt>
<trkpt lat="46.193570000" lon="7.445270000">
  <ele>1372.083370</ele>
  <time>2012-05-06T14:54:38Z</time>
</trkpt>
<trkpt lat="46.193540000" lon="7.445300000">
  <ele>1372.266720</ele>
  <time>2012-05-06T14:54:39Z</time>
</trkpt>
<trkpt lat="46.193510000" lon="7.445340000">
  <ele>1372.449950</ele>
  <time>2012-05-06T14:54:40Z</time>
</trkpt>
<trkpt lat="46.193480000" lon="7.445370000">
  <ele>1372.633300</ele>
  <time>2012-05-06T14:54:41Z</time>
</trkpt>
<trkpt lat="46.193450000" lon="7.445410000">
  <ele>1372.816650</ele>
  <time>2012-05-06T14:54:42Z</time>
</trkpt>
<trkpt lat="46.193420000" lon="7.445450000">
  <ele>1373.000000</ele>
  <time>2012-05-06T14:54:43Z</time>
</trkpt>
<trkpt lat="46.193390000" lon="7.445480000">
  <ele>1373.000000</ele>
  <time>2012-05-06T14:54:44Z</time>
</trkpt>
<trkpt lat="46.193220000" lon="7.445770000">
  <ele>1373.636350</ele>
  <time>2012-05-06T14:54:51Z</time>
</trkpt>
<trkpt lat="46.193200000" lon="7.446040000">
  <ele>1374.090940</ele>
  <time>2012-05-06T14:54:56Z</time>
</trkpt>
<trkpt lat="46.193160000" lon="7.446380000">
  <ele>1374.636350</ele>
  <time>2012-05-06T14:55:02Z</time>
</trkpt>
<trkpt lat="46.193160000" lon="7.446440000">
  <ele>1374.727290</ele>
  <time>2012-05-06T14:55:03Z</time>
</trkpt>
<trkpt lat="46.193160000" lon="7.446500000">
  <ele>1374.818240</ele>
  <time>2012-05-06T14:55:04Z</time>
</trkpt>
<trkpt lat="46.193160000" lon="7.446560000">
  <ele>1374.909060</ele>
  <time>2012-05-06T14:55:05Z</time>
</trkpt>
<trkpt lat="46.193170000" lon="7.446610000">
  <ele>1375.000000</ele>
  <time>2012-05-06T14:55:06Z</time>
</trkpt>
<trkpt lat="46.193190000" lon="7.446840000">
  <ele>1375.000000</ele>
  <time>2012-05-06T14:55:10Z</time>
</trkpt>
<trkpt lat="46.193240000" lon="7.447250000">
  <ele>1376.000000</ele>
  <time>2012-05-06T14:55:17Z</time>
</trkpt>
<trkpt lat="46.193230000" lon="7.447410000">
  <ele>1376.428590</ele>
  <time>2012-05-06T14:55:20Z</time>
</trkpt>
<trkpt lat="46.193210000" lon="7.447470000">
  <ele>1376.571410</ele>
  <time>2012-05-06T14:55:21Z</time>
</trkpt>
<trkpt lat="46.193210000" lon="7.447530000">
  <ele>1376.714230</ele>
  <time>2012-05-06T14:55:22Z</time>
</trkpt>
<trkpt lat="46.193200000" lon="7.447590000">
  <ele>1376.857180</ele>
  <time>2012-05-06T14:55:23Z</time>
</trkpt>
<trkpt lat="46.193190000" lon="7.447640000">
  <ele>1377.000000</ele>
  <time>2012-05-06T14:55:24Z</time>
</trkpt>
<trkpt lat="46.193130000" lon="7.447940000">
  <ele>1377.000000</ele>
  <time>2012-05-06T14:55:29Z</time>
</trkpt>
<trkpt lat="46.193070000" lon="7.448170000">
  <ele>1377.235350</ele>
  <time>2012-05-06T14:55:33Z</time>
</trkpt>
<trkpt lat="46.192990000" lon="7.448340000">
  <ele>1377.411740</ele>
  <time>2012-05-06T14:55:36Z</time>
</trkpt>
<trkpt lat="46.192940000" lon="7.448450000">
  <ele>1377.529420</ele>
  <time>2012-05-06T14:55:38Z</time>
</trkpt>
<trkpt lat="46.192810000" lon="7.448730000">
  <ele>1377.823490</ele>
  <time>2012-05-06T14:55:43Z</time>
</trkpt>
<trkpt lat="46.192720000" lon="7.449180000">
  <ele>1378.235350</ele>
  <time>2012-05-06T14:55:50Z</time>
</trkpt>
<trkpt lat="46.192640000" lon="7.449610000">
  <ele>1378.647090</ele>
  <time>2012-05-06T14:55:57Z</time>
</trkpt>
<trkpt lat="46.192610000" lon="7.449730000">
  <ele>1378.764650</ele>
  <time>2012-05-06T14:55:59Z</time>
</trkpt>
<trkpt lat="46.192590000" lon="7.449790000">
  <ele>1378.823490</ele>
  <time>2012-05-06T14:56:00Z</time>
</trkpt>
<trkpt lat="46.192570000" lon="7.449850000">
  <ele>1378.882320</ele>
  <time>2012-05-06T14:56:01Z</time>
</trkpt>
<trkpt lat="46.192550000" lon="7.449910000">
  <ele>1378.941160</ele>
  <time>2012-05-06T14:56:02Z</time>
</trkpt>
<trkpt lat="46.192530000" lon="7.449970000">
  <ele>1379.000000</ele>
  <time>2012-05-06T14:56:03Z</time>
</trkpt>
<trkpt lat="46.192500000" lon="7.450090000">
  <ele>1379.000000</ele>
  <time>2012-05-06T14:56:05Z</time>
</trkpt>
<trkpt lat="46.192420000" lon="7.450340000">
  <ele>1380.000000</ele>
  <time>2012-05-06T14:56:09Z</time>
</trkpt>
<trkpt lat="46.192400000" lon="7.450400000">
  <ele>1380.250000</ele>
  <time>2012-05-06T14:56:10Z</time>
</trkpt>
<trkpt lat="46.192380000" lon="7.450460000">
  <ele>1380.500000</ele>
  <time>2012-05-06T14:56:11Z</time>
</trkpt>
<trkpt lat="46.192360000" lon="7.450530000">
  <ele>1380.750000</ele>
  <time>2012-05-06T14:56:12Z</time>
</trkpt>
<trkpt lat="46.192330000" lon="7.450580000">
  <ele>1381.000000</ele>
  <time>2012-05-06T14:56:13Z</time>
</trkpt>
<trkpt lat="46.192310000" lon="7.450640000">
  <ele>1381.000000</ele>
  <time>2012-05-06T14:56:14Z</time>
</trkpt>
<trkpt lat="46.192120000" lon="7.450770000">
  <ele>1380.527220</ele>
  <time>2012-05-06T14:56:18Z</time>
</trkpt>
<trkpt lat="46.191990000" lon="7.450670000">
  <ele>1380.172730</ele>
  <time>2012-05-06T14:56:21Z</time>
</trkpt>
<trkpt lat="46.191920000" lon="7.450470000">
  <ele>1379.818240</ele>
  <time>2012-05-06T14:56:24Z</time>
</trkpt>
<trkpt lat="46.191920000" lon="7.450310000">
  <ele>1379.581790</ele>
  <time>2012-05-06T14:56:26Z</time>
</trkpt>
<trkpt lat="46.191920000" lon="7.450050000">
  <ele>1379.227290</ele>
  <time>2012-05-06T14:56:29Z</time>
</trkpt>
<trkpt lat="46.191910000" lon="7.449810000">
  <ele>1378.872800</ele>
  <time>2012-05-06T14:56:32Z</time>
</trkpt>
<trkpt lat="46.191900000" lon="7.449730000">
  <ele>1378.754520</ele>
  <time>2012-05-06T14:56:33Z</time>
</trkpt>
<trkpt lat="46.191890000" lon="7.449650000">
  <ele>1378.636350</ele>
  <time>2012-05-06T14:56:34Z</time>
</trkpt>
<trkpt lat="46.191880000" lon="7.449580000">
  <ele>1378.518190</ele>
  <time>2012-05-06T14:56:35Z</time>
</trkpt>
<trkpt lat="46.191860000" lon="7.449510000">
  <ele>1378.400020</ele>
  <time>2012-05-06T14:56:36Z</time>
</trkpt>
<trkpt lat="46.191720000" lon="7.449060000">
  <ele>1378.400020</ele>
  <time>2012-05-06T14:56:43Z</time>
</trkpt>
<trkpt lat="46.191540000" lon="7.448770000">
  <ele>1379.342900</ele>
  <time>2012-05-06T14:56:49Z</time>
</trkpt>
<trkpt lat="46.191420000" lon="7.448580000">
  <ele>1379.971440</ele>
  <time>2012-05-06T14:56:53Z</time>
</trkpt>
<trkpt lat="46.191400000" lon="7.448540000">
  <ele>1380.128540</ele>
  <time>2012-05-06T14:56:54Z</time>
</trkpt>
<trkpt lat="46.191370000" lon="7.448490000">
  <ele>1380.285640</ele>
  <time>2012-05-06T14:56:55Z</time>
</trkpt>
<trkpt lat="46.191340000" lon="7.448440000">
  <ele>1380.442870</ele>
  <time>2012-05-06T14:56:56Z</time>
</trkpt>
<trkpt lat="46.191320000" lon="7.448400000">
  <ele>1380.599980</ele>
  <time>2012-05-06T14:56:57Z</time>
</trkpt>
<trkpt lat="46.191170000" lon="7.448170000">
  <ele>1380.599980</ele>
  <time>2012-05-06T14:57:02Z</time>
</trkpt>
<trkpt lat="46.191150000" lon="7.448110000">
  <ele>1380.844480</ele>
  <time>2012-05-06T14:57:03Z</time>
</trkpt>
<trkpt lat="46.191120000" lon="7.448000000">
  <ele>1381.333370</ele>
  <time>2012-05-06T14:57:05Z</time>
</trkpt>
<trkpt lat="46.191100000" lon="7.447880000">
  <ele>1381.822270</ele>
  <time>2012-05-06T14:57:07Z</time>
</trkpt>
<trkpt lat="46.191090000" lon="7.447820000">
  <ele>1382.066650</ele>
  <time>2012-05-06T14:57:08Z</time>
</trkpt>
<trkpt lat="46.191090000" lon="7.447760000">
  <ele>1382.311160</ele>
  <time>2012-05-06T14:57:09Z</time>
</trkpt>
<trkpt lat="46.191080000" lon="7.447700000">
  <ele>1382.555540</ele>
  <time>2012-05-06T14:57:10Z</time>
</trkpt>
<trkpt lat="46.191070000" lon="7.447630000">
  <ele>1382.800050</ele>
  <time>2012-05-06T14:57:11Z</time>
</trkpt>
<trkpt lat="46.191020000" lon="7.447310000">
  <ele>1382.800050</ele>
  <time>2012-05-06T14:57:16Z</time>
</trkpt>
<trkpt lat="46.191010000" lon="7.447240000">
  <ele>1382.942870</ele>
  <time>2012-05-06T14:57:17Z</time>
</trkpt>
<trkpt lat="46.190950000" lon="7.447000000">
  <ele>1383.514280</ele>
  <time>2012-05-06T14:57:21Z</time>
</trkpt>
<trkpt lat="46.190910000" lon="7.446880000">
  <ele>1383.800050</ele>
  <time>2012-05-06T14:57:23Z</time>
</trkpt>
<trkpt lat="46.190860000" lon="7.446710000">
  <ele>1384.228640</ele>
  <time>2012-05-06T14:57:26Z</time>
</trkpt>
<trkpt lat="46.190850000" lon="7.446660000">
  <ele>1384.371460</ele>
  <time>2012-05-06T14:57:27Z</time>
</trkpt>
<trkpt lat="46.190840000" lon="7.446610000">
  <ele>1384.514280</ele>
  <time>2012-05-06T14:57:28Z</time>
</trkpt>
<trkpt lat="46.190830000" lon="7.446550000">
  <ele>1384.657230</ele>
  <time>2012-05-06T14:57:29Z</time>
</trkpt>
<trkpt lat="46.190800000" lon="7.446500000">
  <ele>1384.800050</ele>
  <time>2012-05-06T14:57:30Z</time>
</trkpt>
<trkpt lat="46.190780000" lon="7.446440000">
  <ele>1384.800050</ele>
  <time>2012-05-06T14:57:31Z</time>
</trkpt>
<trkpt lat="46.190720000" lon="7.446290000">
  <ele>1385.075070</ele>
  <time>2012-05-06T14:57:34Z</time>
</trkpt>
<trkpt lat="46.190680000" lon="7.446170000">
  <ele>1385.258420</ele>
  <time>2012-05-06T14:57:36Z</time>
</trkpt>
<trkpt lat="46.190650000" lon="7.446120000">
  <ele>1385.350100</ele>
  <time>2012-05-06T14:57:37Z</time>
</trkpt>
<trkpt lat="46.190540000" lon="7.445900000">
  <ele>1385.716670</ele>
  <time>2012-05-06T14:57:41Z</time>
</trkpt>
<trkpt lat="46.190410000" lon="7.445660000">
  <ele>1386.175050</ele>
  <time>2012-05-06T14:57:46Z</time>
</trkpt>
<trkpt lat="46.190390000" lon="7.445620000">
  <ele>1386.266720</ele>
  <time>2012-05-06T14:57:47Z</time>
</trkpt>
<trkpt lat="46.190260000" lon="7.445450000">
  <ele>1386.724980</ele>
  <time>2012-05-06T14:57:52Z</time>
</trkpt>
<trkpt lat="46.190220000" lon="7.445420000">
  <ele>1386.816650</ele>
  <time>2012-05-06T14:57:53Z</time>
</trkpt>
<trkpt lat="46.190190000" lon="7.445400000">
  <ele>1386.908330</ele>
  <time>2012-05-06T14:57:54Z</time>
</trkpt>
<trkpt lat="46.190160000" lon="7.445370000">
  <ele>1387.000000</ele>
  <time>2012-05-06T14:57:55Z</time>
</trkpt>
<trkpt lat="46.190130000" lon="7.445350000">
  <ele>1387.000000</ele>
  <time>2012-05-06T14:57:56Z</time>
</trkpt>
<trkpt lat="46.190000000" lon="7.445240000">
  <ele>1387.800050</ele>
  <time>2012-05-06T14:58:00Z</time>
</trkpt>
<trkpt lat="46.189940000" lon="7.445190000">
  <ele>1388.199950</ele>
  <time>2012-05-06T14:58:02Z</time>
</trkpt>
<trkpt lat="46.189910000" lon="7.445150000">
  <ele>1388.400020</ele>
  <time>2012-05-06T14:58:03Z</time>
</trkpt>
<trkpt lat="46.189880000" lon="7.445120000">
  <ele>1388.599980</ele>
  <time>2012-05-06T14:58:04Z</time>
</trkpt>
<trkpt lat="46.189850000" lon="7.445070000">
  <ele>1388.800050</ele>
  <time>2012-05-06T14:58:05Z</time>
</trkpt>
<trkpt lat="46.189830000" lon="7.445030000">
  <ele>1389.000000</ele>
  <time>2012-05-06T14:58:06Z</time>
</trkpt>
<trkpt lat="46.189740000" lon="7.444770000">
  <ele>1389.000000</ele>
  <time>2012-05-06T14:58:11Z</time>
</trkpt>
<trkpt lat="46.189690000" lon="7.444480000">
  <ele>1390.250000</ele>
  <time>2012-05-06T14:58:16Z</time>
</trkpt>
<trkpt lat="46.189680000" lon="7.444420000">
  <ele>1390.500000</ele>
  <time>2012-05-06T14:58:17Z</time>
</trkpt>
<trkpt lat="46.189670000" lon="7.444360000">
  <ele>1390.750000</ele>
  <time>2012-05-06T14:58:18Z</time>
</trkpt>
<trkpt lat="46.189670000" lon="7.444300000">
  <ele>1391.000000</ele>
  <time>2012-05-06T14:58:19Z</time>
</trkpt>
<trkpt lat="46.189580000" lon="7.443900000">
  <ele>1391.000000</ele>
  <time>2012-05-06T14:58:26Z</time>
</trkpt>
<trkpt lat="46.189530000" lon="7.443730000">
  <ele>1391.349980</ele>
  <time>2012-05-06T14:58:29Z</time>
</trkpt>
<trkpt lat="46.189460000" lon="7.443580000">
  <ele>1391.699950</ele>
  <time>2012-05-06T14:58:32Z</time>
</trkpt>
<trkpt lat="46.189410000" lon="7.443490000">
  <ele>1391.933350</ele>
  <time>2012-05-06T14:58:34Z</time>
</trkpt>
<trkpt lat="46.187690000" lon="7.440740000">
  <ele>1399.400020</ele>
  <time>2012-05-06T14:59:38Z</time>
</trkpt>
<trkpt lat="46.187630000" lon="7.440650000">
  <ele>1399.400020</ele>
  <time>2012-05-06T14:59:40Z</time>
</trkpt>
<trkpt lat="46.187600000" lon="7.440600000">
  <ele>1399.839970</ele>
  <time>2012-05-06T14:59:41Z</time>
</trkpt>
<trkpt lat="46.187570000" lon="7.440560000">
  <ele>1400.280030</ele>
  <time>2012-05-06T14:59:42Z</time>
</trkpt>
<trkpt lat="46.187540000" lon="7.440520000">
  <ele>1400.719970</ele>
  <time>2012-05-06T14:59:43Z</time>
</trkpt>
<trkpt lat="46.187510000" lon="7.440480000">
  <ele>1401.160030</ele>
  <time>2012-05-06T14:59:44Z</time>
</trkpt>
<trkpt lat="46.187470000" lon="7.440450000">
  <ele>1401.599980</ele>
  <time>2012-05-06T14:59:45Z</time>
</trkpt>
<trkpt lat="46.187370000" lon="7.440350000">
  <ele>1401.599980</ele>
  <time>2012-05-06T14:59:48Z</time>
</trkpt>
<trkpt lat="46.187190000" lon="7.440220000">
  <ele>1402.705200</ele>
  <time>2012-05-06T14:59:53Z</time>
</trkpt>
<trkpt lat="46.187100000" lon="7.440150000">
  <ele>1403.368410</ele>
  <time>2012-05-06T14:59:56Z</time>
</trkpt>
<trkpt lat="46.187070000" lon="7.440120000">
  <ele>1403.589480</ele>
  <time>2012-05-06T14:59:57Z</time>
</trkpt>
<trkpt lat="46.187030000" lon="7.440090000">
  <ele>1403.810550</ele>
  <time>2012-05-06T14:59:58Z</time>
</trkpt>
<trkpt lat="46.187000000" lon="7.440070000">
  <ele>1404.031620</ele>
  <time>2012-05-06T14:59:59Z</time>
</trkpt>
<trkpt lat="46.186870000" lon="7.439980000">
  <ele>1404.915770</ele>
  <time>2012-05-06T15:00:03Z</time>
</trkpt>
<trkpt lat="46.186840000" lon="7.439960000">
  <ele>1405.136840</ele>
  <time>2012-05-06T15:00:04Z</time>
</trkpt>
<trkpt lat="46.186810000" lon="7.439940000">
  <ele>1405.357910</ele>
  <time>2012-05-06T15:00:05Z</time>
</trkpt>
<trkpt lat="46.186780000" lon="7.439920000">
  <ele>1405.578980</ele>
  <time>2012-05-06T15:00:06Z</time>
</trkpt>
<trkpt lat="46.186750000" lon="7.439900000">
  <ele>1405.800050</ele>
  <time>2012-05-06T15:00:07Z</time>
</trkpt>
<trkpt lat="46.186500000" lon="7.439750000">
  <ele>1405.800050</ele>
  <time>2012-05-06T15:00:14Z</time>
</trkpt>
<trkpt lat="46.186410000" lon="7.439650000">
  <ele>1406.742920</ele>
  <time>2012-05-06T15:00:17Z</time>
</trkpt>
<trkpt lat="46.186380000" lon="7.439620000">
  <ele>1407.057130</ele>
  <time>2012-05-06T15:00:18Z</time>
</trkpt>
<trkpt lat="46.186360000" lon="7.439580000">
  <ele>1407.371460</ele>
  <time>2012-05-06T15:00:19Z</time>
</trkpt>
<trkpt lat="46.186330000" lon="7.439530000">
  <ele>1407.685670</ele>
  <time>2012-05-06T15:00:20Z</time>
</trkpt>
<trkpt lat="46.186310000" lon="7.439500000">
  <ele>1408.000000</ele>
  <time>2012-05-06T15:00:21Z</time>
</trkpt>
<trkpt lat="46.186150000" lon="7.439240000">
  <ele>1408.000000</ele>
  <time>2012-05-06T15:00:27Z</time>
</trkpt>
<trkpt lat="46.186010000" lon="7.438970000">
  <ele>1409.309080</ele>
  <time>2012-05-06T15:00:33Z</time>
</trkpt>
<trkpt lat="46.185980000" lon="7.438940000">
  <ele>1409.527340</ele>
  <time>2012-05-06T15:00:34Z</time>
</trkpt>
<trkpt lat="46.185960000" lon="7.438900000">
  <ele>1409.745480</ele>
  <time>2012-05-06T15:00:35Z</time>
</trkpt>
<trkpt lat="46.185940000" lon="7.438860000">
  <ele>1409.963620</ele>
  <time>2012-05-06T15:00:36Z</time>
</trkpt>
<trkpt lat="46.185910000" lon="7.438820000">
  <ele>1410.181880</ele>
  <time>2012-05-06T15:00:37Z</time>
</trkpt>
<trkpt lat="46.185890000" lon="7.438780000">
  <ele>1410.400020</ele>
  <time>2012-05-06T15:00:38Z</time>
</trkpt>
<trkpt lat="46.185870000" lon="7.438740000">
  <ele>1410.400020</ele>
  <time>2012-05-06T15:00:39Z</time>
</trkpt>
<trkpt lat="46.185850000" lon="7.438690000">
  <ele>1410.800050</ele>
  <time>2012-05-06T15:00:40Z</time>
</trkpt>
<trkpt lat="46.185830000" lon="7.438650000">
  <ele>1411.200070</ele>
  <time>2012-05-06T15:00:41Z</time>
</trkpt>
<trkpt lat="46.185800000" lon="7.438620000">
  <ele>1411.599980</ele>
  <time>2012-05-06T15:00:42Z</time>
</trkpt>
<trkpt lat="46.185780000" lon="7.438580000">
  <ele>1412.000000</ele>
  <time>2012-05-06T15:00:43Z</time>
</trkpt>
<trkpt lat="46.185750000" lon="7.438550000">
  <ele>1412.400020</ele>
  <time>2012-05-06T15:00:44Z</time>
</trkpt>
<trkpt lat="46.185590000" lon="7.438310000">
  <ele>1412.400020</ele>
  <time>2012-05-06T15:00:50Z</time>
</trkpt>
<trkpt lat="46.185430000" lon="7.438080000">
  <ele>1413.490970</ele>
  <time>2012-05-06T15:00:56Z</time>
</trkpt>
<trkpt lat="46.185400000" lon="7.438050000">
  <ele>1413.672730</ele>
  <time>2012-05-06T15:00:57Z</time>
</trkpt>
<trkpt lat="46.185370000" lon="7.438010000">
  <ele>1413.854610</ele>
  <time>2012-05-06T15:00:58Z</time>
</trkpt>
<trkpt lat="46.185340000" lon="7.437980000">
  <ele>1414.036380</ele>
  <time>2012-05-06T15:00:59Z</time>
</trkpt>
<trkpt lat="46.185310000" lon="7.437950000">
  <ele>1414.218260</ele>
  <time>2012-05-06T15:01:00Z</time>
</trkpt>
<trkpt lat="46.185280000" lon="7.437920000">
  <ele>1414.400020</ele>
  <time>2012-05-06T15:01:01Z</time>
</trkpt>
<trkpt lat="46.185250000" lon="7.437890000">
  <ele>1414.400020</ele>
  <time>2012-05-06T15:01:02Z</time>
</trkpt>
<trkpt lat="46.185100000" lon="7.437690000">
  <ele>1415.719970</ele>
  <time>2012-05-06T15:01:08Z</time>
</trkpt>
<trkpt lat="46.185080000" lon="7.437660000">
  <ele>1415.939940</ele>
  <time>2012-05-06T15:01:09Z</time>
</trkpt>
<trkpt lat="46.185060000" lon="7.437630000">
  <ele>1416.160030</ele>
  <time>2012-05-06T15:01:10Z</time>
</trkpt>
<trkpt lat="46.185040000" lon="7.437590000">
  <ele>1416.380000</ele>
  <time>2012-05-06T15:01:11Z</time>
</trkpt>
<trkpt lat="46.185020000" lon="7.437560000">
  <ele>1416.599980</ele>
  <time>2012-05-06T15:01:12Z</time>
</trkpt>
<trkpt lat="46.185000000" lon="7.437520000">
  <ele>1416.599980</ele>
  <time>2012-05-06T15:01:13Z</time>
</trkpt>
<trkpt lat="46.184880000" lon="7.437280000">
  <ele>1417.690920</ele>
  <time>2012-05-06T15:01:19Z</time>
</trkpt>
<trkpt lat="46.184850000" lon="7.437240000">
  <ele>1417.872680</ele>
  <time>2012-05-06T15:01:20Z</time>
</trkpt>
<trkpt lat="46.184830000" lon="7.437200000">
  <ele>1418.054570</ele>
  <time>2012-05-06T15:01:21Z</time>
</trkpt>
<trkpt lat="46.184810000" lon="7.437170000">
  <ele>1418.236330</ele>
  <time>2012-05-06T15:01:22Z</time>
</trkpt>
<trkpt lat="46.184800000" lon="7.437130000">
  <ele>1418.418210</ele>
  <time>2012-05-06T15:01:23Z</time>
</trkpt>
<trkpt lat="46.184780000" lon="7.437100000">
  <ele>1418.599980</ele>
  <time>2012-05-06T15:01:24Z</time>
</trkpt>
<trkpt lat="46.184720000" lon="7.437040000">
  <ele>1418.599980</ele>
  <time>2012-05-06T15:01:26Z</time>
</trkpt>
<trkpt lat="46.184560000" lon="7.436930000">
  <ele>1419.599980</ele>
  <time>2012-05-06T15:01:32Z</time>
</trkpt>
<trkpt lat="46.184470000" lon="7.436880000">
  <ele>1420.099980</ele>
  <time>2012-05-06T15:01:35Z</time>
</trkpt>
<trkpt lat="46.184440000" lon="7.436870000">
  <ele>1420.266600</ele>
  <time>2012-05-06T15:01:36Z</time>
</trkpt>
<trkpt lat="46.184410000" lon="7.436860000">
  <ele>1420.433350</ele>
  <time>2012-05-06T15:01:37Z</time>
</trkpt>
<trkpt lat="46.184380000" lon="7.436850000">
  <ele>1420.599980</ele>
  <time>2012-05-06T15:01:38Z</time>
</trkpt>
<trkpt lat="46.184350000" lon="7.436830000">
  <ele>1420.599980</ele>
  <time>2012-05-06T15:01:39Z</time>
</trkpt>
<trkpt lat="46.184120000" lon="7.436730000">
  <ele>1421.626710</ele>
  <time>2012-05-06T15:01:46Z</time>
</trkpt>
<trkpt lat="46.184010000" lon="7.436660000">
  <ele>1422.213380</ele>
  <time>2012-05-06T15:01:50Z</time>
</trkpt>
<trkpt lat="46.183980000" lon="7.436640000">
  <ele>1422.359990</ele>
  <time>2012-05-06T15:01:51Z</time>
</trkpt>
<trkpt lat="46.183960000" lon="7.436630000">
  <ele>1422.506710</ele>
  <time>2012-05-06T15:01:52Z</time>
</trkpt>
<trkpt lat="46.183930000" lon="7.436620000">
  <ele>1422.653320</ele>
  <time>2012-05-06T15:01:53Z</time>
</trkpt>
<trkpt lat="46.183900000" lon="7.436600000">
  <ele>1422.800050</ele>
  <time>2012-05-06T15:01:54Z</time>
</trkpt>
<trkpt lat="46.183730000" lon="7.436490000">
  <ele>1422.800050</ele>
  <time>2012-05-06T15:02:00Z</time>
</trkpt>
<trkpt lat="46.183670000" lon="7.436450000">
  <ele>1423.600100</ele>
  <time>2012-05-06T15:02:02Z</time>
</trkpt>
<trkpt lat="46.183640000" lon="7.436440000">
  <ele>1424.000000</ele>
  <time>2012-05-06T15:02:03Z</time>
</trkpt>
<trkpt lat="46.183610000" lon="7.436420000">
  <ele>1424.400020</ele>
  <time>2012-05-06T15:02:04Z</time>
</trkpt>
<trkpt lat="46.183570000" lon="7.436400000">
  <ele>1424.800050</ele>
  <time>2012-05-06T15:02:05Z</time>
</trkpt>
<trkpt lat="46.183490000" lon="7.436380000">
  <ele>1424.800050</ele>
  <time>2012-05-06T15:02:07Z</time>
</trkpt>
<trkpt lat="46.183270000" lon="7.436320000">
  <ele>1426.000000</ele>
  <time>2012-05-06T15:02:13Z</time>
</trkpt>
<trkpt lat="46.183230000" lon="7.436320000">
  <ele>1426.200070</ele>
  <time>2012-05-06T15:02:14Z</time>
</trkpt>
<trkpt lat="46.183190000" lon="7.436330000">
  <ele>1426.400020</ele>
  <time>2012-05-06T15:02:15Z</time>
</trkpt>
<trkpt lat="46.183160000" lon="7.436320000">
  <ele>1426.600100</ele>
  <time>2012-05-06T15:02:16Z</time>
</trkpt>
<trkpt lat="46.183120000" lon="7.436320000">
  <ele>1426.800050</ele>
  <time>2012-05-06T15:02:17Z</time>
</trkpt>
<trkpt lat="46.183030000" lon="7.436340000">
  <ele>1426.800050</ele>
  <time>2012-05-06T15:02:20Z</time>
</trkpt>
<trkpt lat="46.182930000" lon="7.436360000">
  <ele>1427.657230</ele>
  <time>2012-05-06T15:02:23Z</time>
</trkpt>
<trkpt lat="46.182900000" lon="7.436360000">
  <ele>1427.942870</ele>
  <time>2012-05-06T15:02:24Z</time>
</trkpt>
<trkpt lat="46.182870000" lon="7.436360000">
  <ele>1428.228640</ele>
  <time>2012-05-06T15:02:25Z</time>
</trkpt>
<trkpt lat="46.182840000" lon="7.436360000">
  <ele>1428.514280</ele>
  <time>2012-05-06T15:02:26Z</time>
</trkpt>
<trkpt lat="46.182810000" lon="7.436350000">
  <ele>1428.800050</ele>
  <time>2012-05-06T15:02:27Z</time>
</trkpt>
<trkpt lat="46.182750000" lon="7.436340000">
  <ele>1428.800050</ele>
  <time>2012-05-06T15:02:29Z</time>
</trkpt>
<trkpt lat="46.182570000" lon="7.436310000">
  <ele>1430.120000</ele>
  <time>2012-05-06T15:02:35Z</time>
</trkpt>
<trkpt lat="46.182540000" lon="7.436300000">
  <ele>1430.339970</ele>
  <time>2012-05-06T15:02:36Z</time>
</trkpt>
<trkpt lat="46.182510000" lon="7.436290000">
  <ele>1430.560060</ele>
  <time>2012-05-06T15:02:37Z</time>
</trkpt>
<trkpt lat="46.182480000" lon="7.436280000">
  <ele>1430.780030</ele>
  <time>2012-05-06T15:02:38Z</time>
</trkpt>
<trkpt lat="46.182450000" lon="7.436280000">
  <ele>1431.000000</ele>
  <time>2012-05-06T15:02:39Z</time>
</trkpt>
<trkpt lat="46.182340000" lon="7.436250000">
  <ele>1431.000000</ele>
  <time>2012-05-06T15:02:42Z</time>
</trkpt>
<trkpt lat="46.182140000" lon="7.436220000">
  <ele>1432.000000</ele>
  <time>2012-05-06T15:02:48Z</time>
</trkpt>
<trkpt lat="46.182040000" lon="7.436210000">
  <ele>1432.500000</ele>
  <time>2012-05-06T15:02:51Z</time>
</trkpt>
<trkpt lat="46.182000000" lon="7.436220000">
  <ele>1432.666630</ele>
  <time>2012-05-06T15:02:52Z</time>
</trkpt>
<trkpt lat="46.181970000" lon="7.436210000">
  <ele>1432.833370</ele>
  <time>2012-05-06T15:02:53Z</time>
</trkpt>
<trkpt lat="46.181930000" lon="7.436220000">
  <ele>1433.000000</ele>
  <time>2012-05-06T15:02:54Z</time>
</trkpt>
<trkpt lat="46.181900000" lon="7.436220000">
  <ele>1433.000000</ele>
  <time>2012-05-06T15:02:55Z</time>
</trkpt>
<trkpt lat="46.181710000" lon="7.436340000">
  <ele>1433.694700</ele>
  <time>2012-05-06T15:03:01Z</time>
</trkpt>
<trkpt lat="46.181540000" lon="7.436470000">
  <ele>1434.273680</ele>
  <time>2012-05-06T15:03:06Z</time>
</trkpt>
<trkpt lat="46.181420000" lon="7.436570000">
  <ele>1434.736820</ele>
  <time>2012-05-06T15:03:10Z</time>
</trkpt>
<trkpt lat="46.181390000" lon="7.436600000">
  <ele>1434.852540</ele>
  <time>2012-05-06T15:03:11Z</time>
</trkpt>
<trkpt lat="46.181350000" lon="7.436620000">
  <ele>1434.968380</ele>
  <time>2012-05-06T15:03:12Z</time>
</trkpt>
<trkpt lat="46.181320000" lon="7.436650000">
  <ele>1435.084110</ele>
  <time>2012-05-06T15:03:13Z</time>
</trkpt>
<trkpt lat="46.181290000" lon="7.436690000">
  <ele>1435.199950</ele>
  <time>2012-05-06T15:03:14Z</time>
</trkpt>
<trkpt lat="46.181220000" lon="7.436750000">
  <ele>1435.199950</ele>
  <time>2012-05-06T15:03:16Z</time>
</trkpt>
<trkpt lat="46.181150000" lon="7.436830000">
  <ele>1434.868900</ele>
  <time>2012-05-06T15:03:18Z</time>
</trkpt>
<trkpt lat="46.181080000" lon="7.436920000">
  <ele>1434.537840</ele>
  <time>2012-05-06T15:03:20Z</time>
</trkpt>
<trkpt lat="46.181010000" lon="7.437100000">
  <ele>1434.041380</ele>
  <time>2012-05-06T15:03:23Z</time>
</trkpt>
<trkpt lat="46.180990000" lon="7.437160000">
  <ele>1433.875850</ele>
  <time>2012-05-06T15:03:24Z</time>
</trkpt>
<trkpt lat="46.180910000" lon="7.437410000">
  <ele>1433.213750</ele>
  <time>2012-05-06T15:03:28Z</time>
</trkpt>
<trkpt lat="46.180890000" lon="7.437480000">
  <ele>1433.048220</ele>
  <time>2012-05-06T15:03:29Z</time>
</trkpt>
<trkpt lat="46.180800000" lon="7.437690000">
  <ele>1432.551760</ele>
  <time>2012-05-06T15:03:32Z</time>
</trkpt>
<trkpt lat="46.180760000" lon="7.437760000">
  <ele>1432.386230</ele>
  <time>2012-05-06T15:03:33Z</time>
</trkpt>
<trkpt lat="46.180650000" lon="7.437970000">
  <ele>1431.889650</ele>
  <time>2012-05-06T15:03:36Z</time>
</trkpt>
<trkpt lat="46.180600000" lon="7.438020000">
  <ele>1431.724120</ele>
  <time>2012-05-06T15:03:37Z</time>
</trkpt>
<trkpt lat="46.180550000" lon="7.438070000">
  <ele>1431.558590</ele>
  <time>2012-05-06T15:03:38Z</time>
</trkpt>
<trkpt lat="46.180490000" lon="7.438100000">
  <ele>1431.393070</ele>
  <time>2012-05-06T15:03:39Z</time>
</trkpt>
<trkpt lat="46.180430000" lon="7.438130000">
  <ele>1431.227540</ele>
  <time>2012-05-06T15:03:40Z</time>
</trkpt>
<trkpt lat="46.180370000" lon="7.438140000">
  <ele>1431.062130</ele>
  <time>2012-05-06T15:03:41Z</time>
</trkpt>
<trkpt lat="46.180300000" lon="7.438150000">
  <ele>1430.896610</ele>
  <time>2012-05-06T15:03:42Z</time>
</trkpt>
<trkpt lat="46.180240000" lon="7.438160000">
  <ele>1430.731080</ele>
  <time>2012-05-06T15:03:43Z</time>
</trkpt>
<trkpt lat="46.180170000" lon="7.438160000">
  <ele>1430.565550</ele>
  <time>2012-05-06T15:03:44Z</time>
</trkpt>
<trkpt lat="46.180110000" lon="7.438180000">
  <ele>1430.400020</ele>
  <time>2012-05-06T15:03:45Z</time>
</trkpt>
<trkpt lat="46.179990000" lon="7.438210000">
  <ele>1430.400020</ele>
  <time>2012-05-06T15:03:47Z</time>
</trkpt>
<trkpt lat="46.179930000" lon="7.438230000">
  <ele>1430.180050</ele>
  <time>2012-05-06T15:03:48Z</time>
</trkpt>
<trkpt lat="46.179600000" lon="7.438320000">
  <ele>1429.079960</ele>
  <time>2012-05-06T15:03:53Z</time>
</trkpt>
<trkpt lat="46.179530000" lon="7.438330000">
  <ele>1428.859990</ele>
  <time>2012-05-06T15:03:54Z</time>
</trkpt>
<trkpt lat="46.179450000" lon="7.438350000">
  <ele>1428.640010</ele>
  <time>2012-05-06T15:03:55Z</time>
</trkpt>
<trkpt lat="46.179380000" lon="7.438360000">
  <ele>1428.419920</ele>
  <time>2012-05-06T15:03:56Z</time>
</trkpt>
<trkpt lat="46.179310000" lon="7.438380000">
  <ele>1428.199950</ele>
  <time>2012-05-06T15:03:57Z</time>
</trkpt>
<trkpt lat="46.179080000" lon="7.438390000">
  <ele>1428.199950</ele>
  <time>2012-05-06T15:04:00Z</time>
</trkpt>
<trkpt lat="46.178920000" lon="7.438380000">
  <ele>1427.466670</ele>
  <time>2012-05-06T15:04:02Z</time>
</trkpt>
<trkpt lat="46.178850000" lon="7.438380000">
  <ele>1427.099980</ele>
  <time>2012-05-06T15:04:03Z</time>
</trkpt>
<trkpt lat="46.178770000" lon="7.438390000">
  <ele>1426.733280</ele>
  <time>2012-05-06T15:04:04Z</time>
</trkpt>
<trkpt lat="46.178680000" lon="7.438390000">
  <ele>1426.366700</ele>
  <time>2012-05-06T15:04:05Z</time>
</trkpt>
<trkpt lat="46.178600000" lon="7.438390000">
  <ele>1426.000000</ele>
  <time>2012-05-06T15:04:06Z</time>
</trkpt>
<trkpt lat="46.178440000" lon="7.438410000">
  <ele>1426.000000</ele>
  <time>2012-05-06T15:04:08Z</time>
</trkpt>
<trkpt lat="46.178360000" lon="7.438430000">
  <ele>1425.579960</ele>
  <time>2012-05-06T15:04:09Z</time>
</trkpt>
<trkpt lat="46.178280000" lon="7.438460000">
  <ele>1425.160030</ele>
  <time>2012-05-06T15:04:10Z</time>
</trkpt>
<trkpt lat="46.178210000" lon="7.438510000">
  <ele>1424.739990</ele>
  <time>2012-05-06T15:04:11Z</time>
</trkpt>
<trkpt lat="46.178140000" lon="7.438580000">
  <ele>1424.320070</ele>
  <time>2012-05-06T15:04:12Z</time>
</trkpt>
<trkpt lat="46.178070000" lon="7.438660000">
  <ele>1423.900020</ele>
  <time>2012-05-06T15:04:13Z</time>
</trkpt>
<trkpt lat="46.178020000" lon="7.438760000">
  <ele>1423.479980</ele>
  <time>2012-05-06T15:04:14Z</time>
</trkpt>
<trkpt lat="46.177960000" lon="7.438860000">
  <ele>1423.060060</ele>
  <time>2012-05-06T15:04:15Z</time>
</trkpt>
<trkpt lat="46.177900000" lon="7.438940000">
  <ele>1422.640010</ele>
  <time>2012-05-06T15:04:16Z</time>
</trkpt>
<trkpt lat="46.177840000" lon="7.439020000">
  <ele>1422.220090</ele>
  <time>2012-05-06T15:04:17Z</time>
</trkpt>
<trkpt lat="46.177770000" lon="7.439100000">
  <ele>1421.800050</ele>
  <time>2012-05-06T15:04:18Z</time>
</trkpt>
<trkpt lat="46.177630000" lon="7.439260000">
  <ele>1421.800050</ele>
  <time>2012-05-06T15:04:20Z</time>
</trkpt>
<trkpt lat="46.177560000" lon="7.439340000">
  <ele>1421.340090</ele>
  <time>2012-05-06T15:04:21Z</time>
</trkpt>
<trkpt lat="46.177490000" lon="7.439420000">
  <ele>1420.880000</ele>
  <time>2012-05-06T15:04:22Z</time>
</trkpt>
<trkpt lat="46.177420000" lon="7.439500000">
  <ele>1420.420040</ele>
  <time>2012-05-06T15:04:23Z</time>
</trkpt>
<trkpt lat="46.177350000" lon="7.439580000">
  <ele>1419.959960</ele>
  <time>2012-05-06T15:04:24Z</time>
</trkpt>
<trkpt lat="46.177270000" lon="7.439660000">
  <ele>1419.500000</ele>
  <time>2012-05-06T15:04:25Z</time>
</trkpt>
<trkpt lat="46.177190000" lon="7.439730000">
  <ele>1419.040040</ele>
  <time>2012-05-06T15:04:26Z</time>
</trkpt>
<trkpt lat="46.177110000" lon="7.439800000">
  <ele>1418.579960</ele>
  <time>2012-05-06T15:04:27Z</time>
</trkpt>
<trkpt lat="46.177020000" lon="7.439850000">
  <ele>1418.120000</ele>
  <time>2012-05-06T15:04:28Z</time>
</trkpt>
<trkpt lat="46.176940000" lon="7.439910000">
  <ele>1417.659910</ele>
  <time>2012-05-06T15:04:29Z</time>
</trkpt>
<trkpt lat="46.176850000" lon="7.439970000">
  <ele>1417.199950</ele>
  <time>2012-05-06T15:04:30Z</time>
</trkpt>
<trkpt lat="46.176510000" lon="7.440190000">
  <ele>1417.199950</ele>
  <time>2012-05-06T15:04:34Z</time>
</trkpt>
<trkpt lat="46.176250000" lon="7.440340000">
  <ele>1416.285640</ele>
  <time>2012-05-06T15:04:37Z</time>
</trkpt>
<trkpt lat="46.176160000" lon="7.440390000">
  <ele>1415.980960</ele>
  <time>2012-05-06T15:04:38Z</time>
</trkpt>
<trkpt lat="46.176080000" lon="7.440460000">
  <ele>1415.676150</ele>
  <time>2012-05-06T15:04:39Z</time>
</trkpt>
<trkpt lat="46.175990000" lon="7.440520000">
  <ele>1415.371460</ele>
  <time>2012-05-06T15:04:40Z</time>
</trkpt>
<trkpt lat="46.175910000" lon="7.440590000">
  <ele>1415.066650</ele>
  <time>2012-05-06T15:04:41Z</time>
</trkpt>
<trkpt lat="46.175830000" lon="7.440660000">
  <ele>1414.761840</ele>
  <time>2012-05-06T15:04:42Z</time>
</trkpt>
<trkpt lat="46.175750000" lon="7.440740000">
  <ele>1414.457150</ele>
  <time>2012-05-06T15:04:43Z</time>
</trkpt>
<trkpt lat="46.175660000" lon="7.440810000">
  <ele>1414.152340</ele>
  <time>2012-05-06T15:04:44Z</time>
</trkpt>
<trkpt lat="46.175580000" lon="7.440880000">
  <ele>1413.847660</ele>
  <time>2012-05-06T15:04:45Z</time>
</trkpt>
<trkpt lat="46.175490000" lon="7.440940000">
  <ele>1413.542850</ele>
  <time>2012-05-06T15:04:46Z</time>
</trkpt>
<trkpt lat="46.175040000" lon="7.441200000">
  <ele>1412.019040</ele>
  <time>2012-05-06T15:04:51Z</time>
</trkpt>
<trkpt lat="46.174950000" lon="7.441250000">
  <ele>1411.714360</ele>
  <time>2012-05-06T15:04:52Z</time>
</trkpt>
<trkpt lat="46.174860000" lon="7.441300000">
  <ele>1411.409550</ele>
  <time>2012-05-06T15:04:53Z</time>
</trkpt>
<trkpt lat="46.174770000" lon="7.441340000">
  <ele>1411.104860</ele>
  <time>2012-05-06T15:04:54Z</time>
</trkpt>
<trkpt lat="46.174690000" lon="7.441390000">
  <ele>1410.800050</ele>
  <time>2012-05-06T15:04:55Z</time>
</trkpt>
<trkpt lat="46.174430000" lon="7.441550000">
  <ele>1410.800050</ele>
  <time>2012-05-06T15:04:58Z</time>
</trkpt>
<trkpt lat="46.174190000" lon="7.441750000">
  <ele>1409.830810</ele>
  <time>2012-05-06T15:05:01Z</time>
</trkpt>
<trkpt lat="46.174080000" lon="7.441960000">
  <ele>1409.184690</ele>
  <time>2012-05-06T15:05:03Z</time>
</trkpt>
<trkpt lat="46.174020000" lon="7.442050000">
  <ele>1408.861570</ele>
  <time>2012-05-06T15:05:04Z</time>
</trkpt>
<trkpt lat="46.173950000" lon="7.442150000">
  <ele>1408.538450</ele>
  <time>2012-05-06T15:05:05Z</time>
</trkpt>
<trkpt lat="46.173900000" lon="7.442270000">
  <ele>1408.215330</ele>
  <time>2012-05-06T15:05:06Z</time>
</trkpt>
<trkpt lat="46.173850000" lon="7.442370000">
  <ele>1407.892330</ele>
  <time>2012-05-06T15:05:07Z</time>
</trkpt>
<trkpt lat="46.173800000" lon="7.442480000">
  <ele>1407.569210</ele>
  <time>2012-05-06T15:05:08Z</time>
</trkpt>
<trkpt lat="46.173750000" lon="7.442580000">
  <ele>1407.246090</ele>
  <time>2012-05-06T15:05:09Z</time>
</trkpt>
<trkpt lat="46.173690000" lon="7.442690000">
  <ele>1406.923100</ele>
  <time>2012-05-06T15:05:10Z</time>
</trkpt>
<trkpt lat="46.173640000" lon="7.442780000">
  <ele>1406.599980</ele>
  <time>2012-05-06T15:05:11Z</time>
</trkpt>
<trkpt lat="46.173530000" lon="7.442960000">
  <ele>1406.599980</ele>
  <time>2012-05-06T15:05:13Z</time>
</trkpt>
<trkpt lat="46.173470000" lon="7.443040000">
  <ele>1406.150020</ele>
  <time>2012-05-06T15:05:14Z</time>
</trkpt>
<trkpt lat="46.173420000" lon="7.443110000">
  <ele>1405.699950</ele>
  <time>2012-05-06T15:05:15Z</time>
</trkpt>
<trkpt lat="46.173360000" lon="7.443180000">
  <ele>1405.250000</ele>
  <time>2012-05-06T15:05:16Z</time>
</trkpt>
<trkpt lat="46.173310000" lon="7.443240000">
  <ele>1404.800050</ele>
  <time>2012-05-06T15:05:17Z</time>
</trkpt>
<trkpt lat="46.173280000" lon="7.443290000">
  <ele>1405.400020</ele>
  <time>2012-05-06T15:05:18Z</time>
</trkpt>
<trkpt lat="46.173280000" lon="7.443330000">
  <ele>1406.033330</ele>
  <time>2012-05-06T15:05:19Z</time>
</trkpt>
<trkpt lat="46.173310000" lon="7.443350000">
  <ele>1406.666630</ele>
  <time>2012-05-06T15:05:20Z</time>
</trkpt>
<trkpt lat="46.173310000" lon="7.443370000">
  <ele>1407.300050</ele>
  <time>2012-05-06T15:05:21Z</time>
</trkpt>
<trkpt lat="46.173300000" lon="7.443370000">
  <ele>1407.933350</ele>
  <time>2012-05-06T15:05:22Z</time>
</trkpt>
<trkpt lat="46.173310000" lon="7.443370000">
  <ele>1408.566650</ele>
  <time>2012-05-06T15:05:23Z</time>
</trkpt>
<trkpt lat="46.173310000" lon="7.443370000">
  <ele>1409.199950</ele>
  <time>2012-05-06T15:05:24Z</time>
</trkpt>
<trkpt lat="46.173310000" lon="7.443370000">
  <ele>1409.199950</ele>
  <time>2012-05-06T15:05:28Z</time>
</trkpt>
<trkpt lat="46.173310000" lon="7.443370000">
  <ele>1409.482300</ele>
  <time>2012-05-06T15:05:32Z</time>
</trkpt>
<trkpt lat="46.173310000" lon="7.443370000">
  <ele>1409.976440</ele>
  <time>2012-05-06T15:05:39Z</time>
</trkpt>
<trkpt lat="46.173310000" lon="7.443370000">
  <ele>1410.188230</ele>
  <time>2012-05-06T15:05:42Z</time>
</trkpt>
<trkpt lat="46.173300000" lon="7.443370000">
  <ele>1410.258790</ele>
  <time>2012-05-06T15:05:43Z</time>
</trkpt>
<trkpt lat="46.173230000" lon="7.443430000">
  <ele>1410.611690</ele>
  <time>2012-05-06T15:05:48Z</time>
</trkpt>
<trkpt lat="46.173220000" lon="7.443450000">
  <ele>1410.682370</ele>
  <time>2012-05-06T15:05:49Z</time>
</trkpt>
<trkpt lat="46.173150000" lon="7.443490000">
  <ele>1410.894040</ele>
  <time>2012-05-06T15:05:52Z</time>
</trkpt>
<trkpt lat="46.173030000" lon="7.443600000">
  <ele>1411.176390</ele>
  <time>2012-05-06T15:05:56Z</time>
</trkpt>
<trkpt lat="46.172970000" lon="7.443660000">
  <ele>1411.317630</ele>
  <time>2012-05-06T15:05:58Z</time>
</trkpt>
<trkpt lat="46.172940000" lon="7.443690000">
  <ele>1411.388180</ele>
  <time>2012-05-06T15:05:59Z</time>
</trkpt>
<trkpt lat="46.172900000" lon="7.443730000">
  <ele>1411.458740</ele>
  <time>2012-05-06T15:06:00Z</time>
</trkpt>
<trkpt lat="46.172870000" lon="7.443750000">
  <ele>1411.529420</ele>
  <time>2012-05-06T15:06:01Z</time>
</trkpt>
<trkpt lat="46.172850000" lon="7.443780000">
  <ele>1411.599980</ele>
  <time>2012-05-06T15:06:02Z</time>
</trkpt>
<trkpt lat="46.172820000" lon="7.443810000">
  <ele>1411.599980</ele>
  <time>2012-05-06T15:06:03Z</time>
</trkpt>
<trkpt lat="46.172710000" lon="7.443950000">
  <ele>1412.800050</ele>
  <time>2012-05-06T15:06:07Z</time>
</trkpt>
<trkpt lat="46.172670000" lon="7.443970000">
  <ele>1413.099980</ele>
  <time>2012-05-06T15:06:08Z</time>
</trkpt>
<trkpt lat="46.172640000" lon="7.443980000">
  <ele>1413.400020</ele>
  <time>2012-05-06T15:06:09Z</time>
</trkpt>
<trkpt lat="46.172610000" lon="7.444000000">
  <ele>1413.699950</ele>
  <time>2012-05-06T15:06:10Z</time>
</trkpt>
<trkpt lat="46.172510000" lon="7.444060000">
  <ele>1414.599980</ele>
  <time>2012-05-06T15:06:13Z</time>
</trkpt>
<trkpt lat="46.172480000" lon="7.444080000">
  <ele>1414.900020</ele>
  <time>2012-05-06T15:06:14Z</time>
</trkpt>
<trkpt lat="46.172440000" lon="7.444090000">
  <ele>1415.200070</ele>
  <time>2012-05-06T15:06:15Z</time>
</trkpt>
<trkpt lat="46.172410000" lon="7.444100000">
  <ele>1415.500000</ele>
  <time>2012-05-06T15:06:16Z</time>
</trkpt>
<trkpt lat="46.172370000" lon="7.444110000">
  <ele>1415.800050</ele>
  <time>2012-05-06T15:06:17Z</time>
</trkpt>
<trkpt lat="46.172230000" lon="7.444140000">
  <ele>1415.800050</ele>
  <time>2012-05-06T15:06:21Z</time>
</trkpt>
<trkpt lat="46.172020000" lon="7.444280000">
  <ele>1417.133420</ele>
  <time>2012-05-06T15:06:27Z</time>
</trkpt>
<trkpt lat="46.171920000" lon="7.444340000">
  <ele>1417.800050</ele>
  <time>2012-05-06T15:06:30Z</time>
</trkpt>
<trkpt lat="46.171890000" lon="7.444350000">
  <ele>1418.022220</ele>
  <time>2012-05-06T15:06:31Z</time>
</trkpt>
<trkpt lat="46.171860000" lon="7.444380000">
  <ele>1418.244510</ele>
  <time>2012-05-06T15:06:32Z</time>
</trkpt>
<trkpt lat="46.171830000" lon="7.444400000">
  <ele>1418.466670</ele>
  <time>2012-05-06T15:06:33Z</time>
</trkpt>
<trkpt lat="46.171810000" lon="7.444420000">
  <ele>1418.688960</ele>
  <time>2012-05-06T15:06:34Z</time>
</trkpt>
<trkpt lat="46.171770000" lon="7.444480000">
  <ele>1419.133420</ele>
  <time>2012-05-06T15:06:36Z</time>
</trkpt>
<trkpt lat="46.171750000" lon="7.444510000">
  <ele>1419.355590</ele>
  <time>2012-05-06T15:06:37Z</time>
</trkpt>
<trkpt lat="46.171750000" lon="7.444540000">
  <ele>1419.577880</ele>
  <time>2012-05-06T15:06:38Z</time>
</trkpt>
<trkpt lat="46.171730000" lon="7.444580000">
  <ele>1419.800050</ele>
  <time>2012-05-06T15:06:39Z</time>
</trkpt>
<trkpt lat="46.171720000" lon="7.444620000">
  <ele>1420.022220</ele>
  <time>2012-05-06T15:06:40Z</time>
</trkpt>
<trkpt lat="46.171670000" lon="7.444750000">
  <ele>1420.911130</ele>
  <time>2012-05-06T15:06:44Z</time>
</trkpt>
<trkpt lat="46.171660000" lon="7.444790000">
  <ele>1421.133420</ele>
  <time>2012-05-06T15:06:45Z</time>
</trkpt>
<trkpt lat="46.171650000" lon="7.444820000">
  <ele>1421.355590</ele>
  <time>2012-05-06T15:06:46Z</time>
</trkpt>
<trkpt lat="46.171640000" lon="7.444850000">
  <ele>1421.577880</ele>
  <time>2012-05-06T15:06:47Z</time>
</trkpt>
<trkpt lat="46.171630000" lon="7.444890000">
  <ele>1421.800050</ele>
  <time>2012-05-06T15:06:48Z</time>
</trkpt>
<trkpt lat="46.171550000" lon="7.444970000">
  <ele>1421.800050</ele>
  <time>2012-05-06T15:06:52Z</time>
</trkpt>
<trkpt lat="46.171530000" lon="7.444970000">
  <ele>1422.200070</ele>
  <time>2012-05-06T15:06:53Z</time>
</trkpt>
<trkpt lat="46.171500000" lon="7.444990000">
  <ele>1422.600100</ele>
  <time>2012-05-06T15:06:54Z</time>
</trkpt>
<trkpt lat="46.171480000" lon="7.445000000">
  <ele>1423.000000</ele>
  <time>2012-05-06T15:06:55Z</time>
</trkpt>
<trkpt lat="46.171460000" lon="7.445000000">
  <ele>1423.400020</ele>
  <time>2012-05-06T15:06:56Z</time>
</trkpt>
<trkpt lat="46.171440000" lon="7.445010000">
  <ele>1423.800050</ele>
  <time>2012-05-06T15:06:57Z</time>
</trkpt>
<trkpt lat="46.171420000" lon="7.445020000">
  <ele>1423.800050</ele>
  <time>2012-05-06T15:06:58Z</time>
</trkpt>
<trkpt lat="46.171380000" lon="7.445040000">
  <ele>1424.321290</ele>
  <time>2012-05-06T15:07:00Z</time>
</trkpt>
<trkpt lat="46.171350000" lon="7.445050000">
  <ele>1424.581910</ele>
  <time>2012-05-06T15:07:01Z</time>
</trkpt>
<trkpt lat="46.171330000" lon="7.445060000">
  <ele>1424.842530</ele>
  <time>2012-05-06T15:07:02Z</time>
</trkpt>
<trkpt lat="46.171310000" lon="7.445070000">
  <ele>1425.103030</ele>
  <time>2012-05-06T15:07:03Z</time>
</trkpt>
<trkpt lat="46.171290000" lon="7.445090000">
  <ele>1425.363650</ele>
  <time>2012-05-06T15:07:04Z</time>
</trkpt>
<trkpt lat="46.171190000" lon="7.445200000">
  <ele>1426.666750</ele>
  <time>2012-05-06T15:07:09Z</time>
</trkpt>
<trkpt lat="46.171170000" lon="7.445230000">
  <ele>1426.927370</ele>
  <time>2012-05-06T15:07:10Z</time>
</trkpt>
<trkpt lat="46.171150000" lon="7.445260000">
  <ele>1427.187870</ele>
  <time>2012-05-06T15:07:11Z</time>
</trkpt>
<trkpt lat="46.171140000" lon="7.445280000">
  <ele>1427.448490</ele>
  <time>2012-05-06T15:07:12Z</time>
</trkpt>
<trkpt lat="46.171120000" lon="7.445310000">
  <ele>1427.709110</ele>
  <time>2012-05-06T15:07:13Z</time>
</trkpt>
<trkpt lat="46.171020000" lon="7.445480000">
  <ele>1429.272710</ele>
  <time>2012-05-06T15:07:19Z</time>
</trkpt>
<trkpt lat="46.171010000" lon="7.445500000">
  <ele>1429.533330</ele>
  <time>2012-05-06T15:07:20Z</time>
</trkpt>
<trkpt lat="46.171000000" lon="7.445530000">
  <ele>1429.793950</ele>
  <time>2012-05-06T15:07:21Z</time>
</trkpt>
<trkpt lat="46.170990000" lon="7.445560000">
  <ele>1430.054570</ele>
  <time>2012-05-06T15:07:22Z</time>
</trkpt>
<trkpt lat="46.170970000" lon="7.445590000">
  <ele>1430.315190</ele>
  <time>2012-05-06T15:07:23Z</time>
</trkpt>
<trkpt lat="46.170930000" lon="7.445720000">
  <ele>1431.357540</ele>
  <time>2012-05-06T15:07:27Z</time>
</trkpt>
<trkpt lat="46.170920000" lon="7.445760000">
  <ele>1431.618160</ele>
  <time>2012-05-06T15:07:28Z</time>
</trkpt>
<trkpt lat="46.170920000" lon="7.445790000">
  <ele>1431.878780</ele>
  <time>2012-05-06T15:07:29Z</time>
</trkpt>
<trkpt lat="46.170910000" lon="7.445820000">
  <ele>1432.139400</ele>
  <time>2012-05-06T15:07:30Z</time>
</trkpt>
<trkpt lat="46.170910000" lon="7.445860000">
  <ele>1432.400020</ele>
  <time>2012-05-06T15:07:31Z</time>
</trkpt>
<trkpt lat="46.170890000" lon="7.445960000">
  <ele>1432.400020</ele>
  <time>2012-05-06T15:07:34Z</time>
</trkpt>
<trkpt lat="46.170860000" lon="7.446090000">
  <ele>1433.415410</ele>
  <time>2012-05-06T15:07:38Z</time>
</trkpt>
<trkpt lat="46.170860000" lon="7.446120000">
  <ele>1433.669190</ele>
  <time>2012-05-06T15:07:39Z</time>
</trkpt>
<trkpt lat="46.170850000" lon="7.446160000">
  <ele>1433.923100</ele>
  <time>2012-05-06T15:07:40Z</time>
</trkpt>
<trkpt lat="46.170850000" lon="7.446190000">
  <ele>1434.177000</ele>
  <time>2012-05-06T15:07:41Z</time>
</trkpt>
<trkpt lat="46.170850000" lon="7.446220000">
  <ele>1434.430790</ele>
  <time>2012-05-06T15:07:42Z</time>
</trkpt>
<trkpt lat="46.170800000" lon="7.446420000">
  <ele>1435.953860</ele>
  <time>2012-05-06T15:07:48Z</time>
</trkpt>
<trkpt lat="46.170780000" lon="7.446460000">
  <ele>1436.207760</ele>
  <time>2012-05-06T15:07:49Z</time>
</trkpt>
<trkpt lat="46.170770000" lon="7.446490000">
  <ele>1436.461550</ele>
  <time>2012-05-06T15:07:50Z</time>
</trkpt>
<trkpt lat="46.170760000" lon="7.446520000">
  <ele>1436.715330</ele>
  <time>2012-05-06T15:07:51Z</time>
</trkpt>
<trkpt lat="46.170710000" lon="7.446670000">
  <ele>1437.984620</ele>
  <time>2012-05-06T15:07:56Z</time>
</trkpt>
<trkpt lat="46.170700000" lon="7.446700000">
  <ele>1438.238530</ele>
  <time>2012-05-06T15:07:57Z</time>
</trkpt>
<trkpt lat="46.170690000" lon="7.446730000">
  <ele>1438.492310</ele>
  <time>2012-05-06T15:07:58Z</time>
</trkpt>
<trkpt lat="46.170680000" lon="7.446760000">
  <ele>1438.746090</ele>
  <time>2012-05-06T15:07:59Z</time>
</trkpt>
<trkpt lat="46.170670000" lon="7.446790000">
  <ele>1439.000000</ele>
  <time>2012-05-06T15:08:00Z</time>
</trkpt>
<trkpt lat="46.170650000" lon="7.446880000">
  <ele>1439.000000</ele>
  <time>2012-05-06T15:08:03Z</time>
</trkpt>
<trkpt lat="46.170630000" lon="7.446970000">
  <ele>1439.942870</ele>
  <time>2012-05-06T15:08:06Z</time>
</trkpt>
<trkpt lat="46.170620000" lon="7.447010000">
  <ele>1440.257080</ele>
  <time>2012-05-06T15:08:07Z</time>
</trkpt>
<trkpt lat="46.170610000" lon="7.447040000">
  <ele>1440.571410</ele>
  <time>2012-05-06T15:08:08Z</time>
</trkpt>
<trkpt lat="46.170600000" lon="7.447060000">
  <ele>1440.885620</ele>
  <time>2012-05-06T15:08:09Z</time>
</trkpt>
<trkpt lat="46.170590000" lon="7.447100000">
  <ele>1441.199950</ele>
  <time>2012-05-06T15:08:10Z</time>
</trkpt>
<trkpt lat="46.170540000" lon="7.447300000">
  <ele>1441.199950</ele>
  <time>2012-05-06T15:08:16Z</time>
</trkpt>
<trkpt lat="46.170520000" lon="7.447330000">
  <ele>1441.510010</ele>
  <time>2012-05-06T15:08:17Z</time>
</trkpt>
<trkpt lat="46.170510000" lon="7.447370000">
  <ele>1441.819950</ele>
  <time>2012-05-06T15:08:18Z</time>
</trkpt>
<trkpt lat="46.170500000" lon="7.447400000">
  <ele>1442.130000</ele>
  <time>2012-05-06T15:08:19Z</time>
</trkpt>
<trkpt lat="46.170490000" lon="7.447430000">
  <ele>1442.439940</ele>
  <time>2012-05-06T15:08:20Z</time>
</trkpt>
<trkpt lat="46.170480000" lon="7.447460000">
  <ele>1442.750000</ele>
  <time>2012-05-06T15:08:21Z</time>
</trkpt>
<trkpt lat="46.170440000" lon="7.447550000">
  <ele>1443.679930</ele>
  <time>2012-05-06T15:08:24Z</time>
</trkpt>
<trkpt lat="46.170430000" lon="7.447580000">
  <ele>1443.989990</ele>
  <time>2012-05-06T15:08:25Z</time>
</trkpt>
<trkpt lat="46.170430000" lon="7.447610000">
  <ele>1444.300050</ele>
  <time>2012-05-06T15:08:26Z</time>
</trkpt>
<trkpt lat="46.170410000" lon="7.447640000">
  <ele>1444.609990</ele>
  <time>2012-05-06T15:08:27Z</time>
</trkpt>
<trkpt lat="46.170410000" lon="7.447670000">
  <ele>1444.920040</ele>
  <time>2012-05-06T15:08:28Z</time>
</trkpt>
<trkpt lat="46.170370000" lon="7.447790000">
  <ele>1446.160030</ele>
  <time>2012-05-06T15:08:32Z</time>
</trkpt>
<trkpt lat="46.170360000" lon="7.447830000">
  <ele>1446.469970</ele>
  <time>2012-05-06T15:08:33Z</time>
</trkpt>
<trkpt lat="46.170360000" lon="7.447860000">
  <ele>1446.780030</ele>
  <time>2012-05-06T15:08:34Z</time>
</trkpt>
<trkpt lat="46.170360000" lon="7.447890000">
  <ele>1447.089970</ele>
  <time>2012-05-06T15:08:35Z</time>
</trkpt>
<trkpt lat="46.170360000" lon="7.447920000">
  <ele>1447.400020</ele>
  <time>2012-05-06T15:08:36Z</time>
</trkpt>
<trkpt lat="46.170350000" lon="7.448060000">
  <ele>1447.400020</ele>
  <time>2012-05-06T15:08:40Z</time>
</trkpt>
<trkpt lat="46.170340000" lon="7.448120000">
  <ele>1448.133300</ele>
  <time>2012-05-06T15:08:42Z</time>
</trkpt>
<trkpt lat="46.170330000" lon="7.448160000">
  <ele>1448.500000</ele>
  <time>2012-05-06T15:08:43Z</time>
</trkpt>
<trkpt lat="46.170330000" lon="7.448190000">
  <ele>1448.866700</ele>
  <time>2012-05-06T15:08:44Z</time>
</trkpt>
<trkpt lat="46.170320000" lon="7.448230000">
  <ele>1449.233280</ele>
  <time>2012-05-06T15:08:45Z</time>
</trkpt>
<trkpt lat="46.170320000" lon="7.448260000">
  <ele>1449.599980</ele>
  <time>2012-05-06T15:08:46Z</time>
</trkpt>
<trkpt lat="46.170300000" lon="7.448330000">
  <ele>1449.599980</ele>
  <time>2012-05-06T15:08:48Z</time>
</trkpt>
<trkpt lat="46.170280000" lon="7.448420000">
  <ele>1450.410030</ele>
  <time>2012-05-06T15:08:51Z</time>
</trkpt>
<trkpt lat="46.170270000" lon="7.448450000">
  <ele>1450.679930</ele>
  <time>2012-05-06T15:08:52Z</time>
</trkpt>
<trkpt lat="46.170270000" lon="7.448480000">
  <ele>1450.949950</ele>
  <time>2012-05-06T15:08:53Z</time>
</trkpt>
<trkpt lat="46.170260000" lon="7.448510000">
  <ele>1451.219970</ele>
  <time>2012-05-06T15:08:54Z</time>
</trkpt>
<trkpt lat="46.170250000" lon="7.448540000">
  <ele>1451.489990</ele>
  <time>2012-05-06T15:08:55Z</time>
</trkpt>
<trkpt lat="46.170210000" lon="7.448700000">
  <ele>1452.839970</ele>
  <time>2012-05-06T15:09:00Z</time>
</trkpt>
<trkpt lat="46.170200000" lon="7.448740000">
  <ele>1453.109990</ele>
  <time>2012-05-06T15:09:01Z</time>
</trkpt>
<trkpt lat="46.170190000" lon="7.448770000">
  <ele>1453.380000</ele>
  <time>2012-05-06T15:09:02Z</time>
</trkpt>
<trkpt lat="46.170180000" lon="7.448800000">
  <ele>1453.650020</ele>
  <time>2012-05-06T15:09:03Z</time>
</trkpt>
<trkpt lat="46.170120000" lon="7.448960000">
  <ele>1455.000000</ele>
  <time>2012-05-06T15:09:08Z</time>
</trkpt>
<trkpt lat="46.170110000" lon="7.448990000">
  <ele>1455.270020</ele>
  <time>2012-05-06T15:09:09Z</time>
</trkpt>
<trkpt lat="46.170090000" lon="7.449020000">
  <ele>1455.540040</ele>
  <time>2012-05-06T15:09:10Z</time>
</trkpt>
<trkpt lat="46.170070000" lon="7.449040000">
  <ele>1455.810060</ele>
  <time>2012-05-06T15:09:11Z</time>
</trkpt>
<trkpt lat="46.170050000" lon="7.449070000">
  <ele>1456.079960</ele>
  <time>2012-05-06T15:09:12Z</time>
</trkpt>
<trkpt lat="46.169950000" lon="7.449170000">
  <ele>1457.430050</ele>
  <time>2012-05-06T15:09:17Z</time>
</trkpt>
<trkpt lat="46.169930000" lon="7.449180000">
  <ele>1457.699950</ele>
  <time>2012-05-06T15:09:18Z</time>
</trkpt>
<trkpt lat="46.169910000" lon="7.449180000">
  <ele>1457.969970</ele>
  <time>2012-05-06T15:09:19Z</time>
</trkpt>
<trkpt lat="46.169880000" lon="7.449190000">
  <ele>1458.239990</ele>
  <time>2012-05-06T15:09:20Z</time>
</trkpt>
<trkpt lat="46.169860000" lon="7.449200000">
  <ele>1458.510010</ele>
  <time>2012-05-06T15:09:21Z</time>
</trkpt>
<trkpt lat="46.169750000" lon="7.449230000">
  <ele>1459.589970</ele>
  <time>2012-05-06T15:09:25Z</time>
</trkpt>
<trkpt lat="46.169730000" lon="7.449230000">
  <ele>1459.859990</ele>
  <time>2012-05-06T15:09:26Z</time>
</trkpt>
<trkpt lat="46.169700000" lon="7.449240000">
  <ele>1460.130000</ele>
  <time>2012-05-06T15:09:27Z</time>
</trkpt>
<trkpt lat="46.169680000" lon="7.449250000">
  <ele>1460.400020</ele>
  <time>2012-05-06T15:09:28Z</time>
</trkpt>
<trkpt lat="46.169600000" lon="7.449250000">
  <ele>1460.400020</ele>
  <time>2012-05-06T15:09:31Z</time>
</trkpt>
<trkpt lat="46.169570000" lon="7.449250000">
  <ele>1460.839970</ele>
  <time>2012-05-06T15:09:32Z</time>
</trkpt>
<trkpt lat="46.169550000" lon="7.449250000">
  <ele>1461.280030</ele>
  <time>2012-05-06T15:09:33Z</time>
</trkpt>
<trkpt lat="46.169520000" lon="7.449250000">
  <ele>1461.719970</ele>
  <time>2012-05-06T15:09:34Z</time>
</trkpt>
<trkpt lat="46.169500000" lon="7.449250000">
  <ele>1462.160030</ele>
  <time>2012-05-06T15:09:35Z</time>
</trkpt>
<trkpt lat="46.169480000" lon="7.449240000">
  <ele>1462.599980</ele>
  <time>2012-05-06T15:09:36Z</time>
</trkpt>
<trkpt lat="46.169430000" lon="7.449240000">
  <ele>1462.599980</ele>
  <time>2012-05-06T15:09:38Z</time>
</trkpt>
<trkpt lat="46.169380000" lon="7.449240000">
  <ele>1463.300050</ele>
  <time>2012-05-06T15:09:40Z</time>
</trkpt>
<trkpt lat="46.169360000" lon="7.449250000">
  <ele>1463.650020</ele>
  <time>2012-05-06T15:09:41Z</time>
</trkpt>
<trkpt lat="46.169330000" lon="7.449250000">
  <ele>1464.000000</ele>
  <time>2012-05-06T15:09:42Z</time>
</trkpt>
<trkpt lat="46.169310000" lon="7.449270000">
  <ele>1464.349980</ele>
  <time>2012-05-06T15:09:43Z</time>
</trkpt>
<trkpt lat="46.169290000" lon="7.449280000">
  <ele>1464.699950</ele>
  <time>2012-05-06T15:09:44Z</time>
</trkpt>
<trkpt lat="46.169220000" lon="7.449310000">
  <ele>1465.750000</ele>
  <time>2012-05-06T15:09:47Z</time>
</trkpt>
<trkpt lat="46.169190000" lon="7.449320000">
  <ele>1466.100100</ele>
  <time>2012-05-06T15:09:48Z</time>
</trkpt>
<trkpt lat="46.169170000" lon="7.449330000">
  <ele>1466.450070</ele>
  <time>2012-05-06T15:09:49Z</time>
</trkpt>
<trkpt lat="46.169150000" lon="7.449350000">
  <ele>1466.800050</ele>
  <time>2012-05-06T15:09:50Z</time>
</trkpt>
<trkpt lat="46.169100000" lon="7.449380000">
  <ele>1466.800050</ele>
  <time>2012-05-06T15:09:52Z</time>
</trkpt>
<trkpt lat="46.169060000" lon="7.449420000">
  <ele>1467.466670</ele>
  <time>2012-05-06T15:09:54Z</time>
</trkpt>
<trkpt lat="46.169050000" lon="7.449450000">
  <ele>1467.800050</ele>
  <time>2012-05-06T15:09:55Z</time>
</trkpt>
<trkpt lat="46.169030000" lon="7.449470000">
  <ele>1468.133420</ele>
  <time>2012-05-06T15:09:56Z</time>
</trkpt>
<trkpt lat="46.169010000" lon="7.449500000">
  <ele>1468.466670</ele>
  <time>2012-05-06T15:09:57Z</time>
</trkpt>
<trkpt lat="46.168990000" lon="7.449530000">
  <ele>1468.800050</ele>
  <time>2012-05-06T15:09:58Z</time>
</trkpt>
<trkpt lat="46.168980000" lon="7.449540000">
  <ele>1468.800050</ele>
  <time>2012-05-06T15:09:59Z</time>
</trkpt>
<trkpt lat="46.168910000" lon="7.449650000">
  <ele>1469.800050</ele>
  <time>2012-05-06T15:10:03Z</time>
</trkpt>
<trkpt lat="46.168900000" lon="7.449680000">
  <ele>1470.050050</ele>
  <time>2012-05-06T15:10:04Z</time>
</trkpt>
<trkpt lat="46.168880000" lon="7.449710000">
  <ele>1470.300050</ele>
  <time>2012-05-06T15:10:05Z</time>
</trkpt>
<trkpt lat="46.168860000" lon="7.449740000">
  <ele>1470.550050</ele>
  <time>2012-05-06T15:10:06Z</time>
</trkpt>
<trkpt lat="46.168850000" lon="7.449770000">
  <ele>1470.800050</ele>
  <time>2012-05-06T15:10:07Z</time>
</trkpt>
<trkpt lat="46.168830000" lon="7.449800000">
  <ele>1470.800050</ele>
  <time>2012-05-06T15:10:08Z</time>
</trkpt>
<trkpt lat="46.168750000" lon="7.449980000">
  <ele>1472.266720</ele>
  <time>2012-05-06T15:10:14Z</time>
</trkpt>
<trkpt lat="46.168740000" lon="7.450010000">
  <ele>1472.511110</ele>
  <time>2012-05-06T15:10:15Z</time>
</trkpt>
<trkpt lat="46.168730000" lon="7.450050000">
  <ele>1472.755620</ele>
  <time>2012-05-06T15:10:16Z</time>
</trkpt>
<trkpt lat="46.168710000" lon="7.450080000">
  <ele>1473.000000</ele>
  <time>2012-05-06T15:10:17Z</time>
</trkpt>
<trkpt lat="46.168670000" lon="7.450200000">
  <ele>1473.000000</ele>
  <time>2012-05-06T15:10:21Z</time>
</trkpt>
<trkpt lat="46.168660000" lon="7.450230000">
  <ele>1473.400020</ele>
  <time>2012-05-06T15:10:22Z</time>
</trkpt>
<trkpt lat="46.168640000" lon="7.450270000">
  <ele>1473.800050</ele>
  <time>2012-05-06T15:10:23Z</time>
</trkpt>
<trkpt lat="46.168630000" lon="7.450290000">
  <ele>1474.199950</ele>
  <time>2012-05-06T15:10:24Z</time>
</trkpt>
<trkpt lat="46.168620000" lon="7.450330000">
  <ele>1474.599980</ele>
  <time>2012-05-06T15:10:25Z</time>
</trkpt>
<trkpt lat="46.168610000" lon="7.450360000">
  <ele>1475.000000</ele>
  <time>2012-05-06T15:10:26Z</time>
</trkpt>
<trkpt lat="46.168600000" lon="7.450390000">
  <ele>1475.000000</ele>
  <time>2012-05-06T15:10:27Z</time>
</trkpt>
<trkpt lat="46.168580000" lon="7.450410000">
  <ele>1475.400020</ele>
  <time>2012-05-06T15:10:28Z</time>
</trkpt>
<trkpt lat="46.168570000" lon="7.450440000">
  <ele>1475.800050</ele>
  <time>2012-05-06T15:10:29Z</time>
</trkpt>
<trkpt lat="46.168560000" lon="7.450480000">
  <ele>1476.199950</ele>
  <time>2012-05-06T15:10:30Z</time>
</trkpt>
<trkpt lat="46.168540000" lon="7.450510000">
  <ele>1476.599980</ele>
  <time>2012-05-06T15:10:31Z</time>
</trkpt>
<trkpt lat="46.168530000" lon="7.450540000">
  <ele>1477.000000</ele>
  <time>2012-05-06T15:10:32Z</time>
</trkpt>
<trkpt lat="46.168510000" lon="7.450560000">
  <ele>1477.000000</ele>
  <time>2012-05-06T15:10:33Z</time>
</trkpt>
<trkpt lat="46.168500000" lon="7.450590000">
  <ele>1477.266720</ele>
  <time>2012-05-06T15:10:34Z</time>
</trkpt>
<trkpt lat="46.168420000" lon="7.450760000">
  <ele>1478.599980</ele>
  <time>2012-05-06T15:10:39Z</time>
</trkpt>
<trkpt lat="46.168400000" lon="7.450790000">
  <ele>1478.866700</ele>
  <time>2012-05-06T15:10:40Z</time>
</trkpt>
<trkpt lat="46.168390000" lon="7.450820000">
  <ele>1479.133300</ele>
  <time>2012-05-06T15:10:41Z</time>
</trkpt>
<trkpt lat="46.168370000" lon="7.450850000">
  <ele>1479.400020</ele>
  <time>2012-05-06T15:10:42Z</time>
</trkpt>
<trkpt lat="46.168350000" lon="7.450880000">
  <ele>1479.400020</ele>
  <time>2012-05-06T15:10:43Z</time>
</trkpt>
<trkpt lat="46.168220000" lon="7.451070000">
  <ele>1480.900020</ele>
  <time>2012-05-06T15:10:50Z</time>
</trkpt>
<trkpt lat="46.168200000" lon="7.451100000">
  <ele>1481.114260</ele>
  <time>2012-05-06T15:10:51Z</time>
</trkpt>
<trkpt lat="46.168180000" lon="7.451120000">
  <ele>1481.328610</ele>
  <time>2012-05-06T15:10:52Z</time>
</trkpt>
<trkpt lat="46.168160000" lon="7.451150000">
  <ele>1481.542850</ele>
  <time>2012-05-06T15:10:53Z</time>
</trkpt>
<trkpt lat="46.168140000" lon="7.451170000">
  <ele>1481.757200</ele>
  <time>2012-05-06T15:10:54Z</time>
</trkpt>
<trkpt lat="46.168030000" lon="7.451280000">
  <ele>1482.828610</ele>
  <time>2012-05-06T15:10:59Z</time>
</trkpt>
<trkpt lat="46.168010000" lon="7.451300000">
  <ele>1483.042850</ele>
  <time>2012-05-06T15:11:00Z</time>
</trkpt>
<trkpt lat="46.168000000" lon="7.451320000">
  <ele>1483.257200</ele>
  <time>2012-05-06T15:11:01Z</time>
</trkpt>
<trkpt lat="46.167970000" lon="7.451340000">
  <ele>1483.471440</ele>
  <time>2012-05-06T15:11:02Z</time>
</trkpt>
<trkpt lat="46.167950000" lon="7.451360000">
  <ele>1483.685790</ele>
  <time>2012-05-06T15:11:03Z</time>
</trkpt>
<trkpt lat="46.167870000" lon="7.451440000">
  <ele>1484.542850</ele>
  <time>2012-05-06T15:11:07Z</time>
</trkpt>
<trkpt lat="46.167850000" lon="7.451460000">
  <ele>1484.757200</ele>
  <time>2012-05-06T15:11:08Z</time>
</trkpt>
<trkpt lat="46.167840000" lon="7.451480000">
  <ele>1484.971440</ele>
  <time>2012-05-06T15:11:09Z</time>
</trkpt>
<trkpt lat="46.167820000" lon="7.451500000">
  <ele>1485.185790</ele>
  <time>2012-05-06T15:11:10Z</time>
</trkpt>
<trkpt lat="46.167810000" lon="7.451530000">
  <ele>1485.400020</ele>
  <time>2012-05-06T15:11:11Z</time>
</trkpt>
<trkpt lat="46.167750000" lon="7.451620000">
  <ele>1485.400020</ele>
  <time>2012-05-06T15:11:15Z</time>
</trkpt>
<trkpt lat="46.167740000" lon="7.451650000">
  <ele>1485.839970</ele>
  <time>2012-05-06T15:11:16Z</time>
</trkpt>
<trkpt lat="46.167720000" lon="7.451680000">
  <ele>1486.280030</ele>
  <time>2012-05-06T15:11:17Z</time>
</trkpt>
<trkpt lat="46.167710000" lon="7.451710000">
  <ele>1486.719970</ele>
  <time>2012-05-06T15:11:18Z</time>
</trkpt>
<trkpt lat="46.167690000" lon="7.451740000">
  <ele>1487.160030</ele>
  <time>2012-05-06T15:11:19Z</time>
</trkpt>
<trkpt lat="46.167680000" lon="7.451760000">
  <ele>1487.599980</ele>
  <time>2012-05-06T15:11:20Z</time>
</trkpt>
<trkpt lat="46.167640000" lon="7.451860000">
  <ele>1487.599980</ele>
  <time>2012-05-06T15:11:23Z</time>
</trkpt>
<trkpt lat="46.167630000" lon="7.451890000">
  <ele>1488.040040</ele>
  <time>2012-05-06T15:11:24Z</time>
</trkpt>
<trkpt lat="46.167630000" lon="7.451920000">
  <ele>1488.479980</ele>
  <time>2012-05-06T15:11:25Z</time>
</trkpt>
<trkpt lat="46.167620000" lon="7.451950000">
  <ele>1488.920040</ele>
  <time>2012-05-06T15:11:26Z</time>
</trkpt>
<trkpt lat="46.167610000" lon="7.451980000">
  <ele>1489.359990</ele>
  <time>2012-05-06T15:11:27Z</time>
</trkpt>
<trkpt lat="46.167600000" lon="7.452020000">
  <ele>1489.800050</ele>
  <time>2012-05-06T15:11:28Z</time>
</trkpt>
<trkpt lat="46.167590000" lon="7.452090000">
  <ele>1489.800050</ele>
  <time>2012-05-06T15:11:30Z</time>
</trkpt>
<trkpt lat="46.167590000" lon="7.452160000">
  <ele>1490.466670</ele>
  <time>2012-05-06T15:11:32Z</time>
</trkpt>
<trkpt lat="46.167590000" lon="7.452190000">
  <ele>1490.800050</ele>
  <time>2012-05-06T15:11:33Z</time>
</trkpt>
<trkpt lat="46.167590000" lon="7.452220000">
  <ele>1491.133420</ele>
  <time>2012-05-06T15:11:34Z</time>
</trkpt>
<trkpt lat="46.167590000" lon="7.452250000">
  <ele>1491.466670</ele>
  <time>2012-05-06T15:11:35Z</time>
</trkpt>
<trkpt lat="46.167590000" lon="7.452280000">
  <ele>1491.800050</ele>
  <time>2012-05-06T15:11:36Z</time>
</trkpt>
<trkpt lat="46.167600000" lon="7.452310000">
  <ele>1491.800050</ele>
  <time>2012-05-06T15:11:37Z</time>
</trkpt>
<trkpt lat="46.167610000" lon="7.452470000">
  <ele>1493.133300</ele>
  <time>2012-05-06T15:11:42Z</time>
</trkpt>
<trkpt lat="46.167610000" lon="7.452500000">
  <ele>1493.400020</ele>
  <time>2012-05-06T15:11:43Z</time>
</trkpt>
<trkpt lat="46.167620000" lon="7.452540000">
  <ele>1493.666630</ele>
  <time>2012-05-06T15:11:44Z</time>
</trkpt>
<trkpt lat="46.167620000" lon="7.452570000">
  <ele>1493.933350</ele>
  <time>2012-05-06T15:11:45Z</time>
</trkpt>
<trkpt lat="46.167630000" lon="7.452600000">
  <ele>1494.199950</ele>
  <time>2012-05-06T15:11:46Z</time>
</trkpt>
<trkpt lat="46.167640000" lon="7.452740000">
  <ele>1494.199950</ele>
  <time>2012-05-06T15:11:50Z</time>
</trkpt>
<trkpt lat="46.167650000" lon="7.452800000">
  <ele>1494.866580</ele>
  <time>2012-05-06T15:11:52Z</time>
</trkpt>
<trkpt lat="46.167650000" lon="7.452840000">
  <ele>1495.199950</ele>
  <time>2012-05-06T15:11:53Z</time>
</trkpt>
<trkpt lat="46.167650000" lon="7.452870000">
  <ele>1495.533330</ele>
  <time>2012-05-06T15:11:54Z</time>
</trkpt>
<trkpt lat="46.167650000" lon="7.452910000">
  <ele>1495.866580</ele>
  <time>2012-05-06T15:11:55Z</time>
</trkpt>
<trkpt lat="46.167660000" lon="7.452940000">
  <ele>1496.199950</ele>
  <time>2012-05-06T15:11:56Z</time>
</trkpt>
<trkpt lat="46.167660000" lon="7.453000000">
  <ele>1496.199950</ele>
  <time>2012-05-06T15:11:58Z</time>
</trkpt>
<trkpt lat="46.167670000" lon="7.453090000">
  <ele>1496.905880</ele>
  <time>2012-05-06T15:12:01Z</time>
</trkpt>
<trkpt lat="46.167670000" lon="7.453120000">
  <ele>1497.141110</ele>
  <time>2012-05-06T15:12:02Z</time>
</trkpt>
<trkpt lat="46.167670000" lon="7.453160000">
  <ele>1497.376460</ele>
  <time>2012-05-06T15:12:03Z</time>
</trkpt>
<trkpt lat="46.167680000" lon="7.453200000">
  <ele>1497.611690</ele>
  <time>2012-05-06T15:12:04Z</time>
</trkpt>
<trkpt lat="46.167680000" lon="7.453230000">
  <ele>1497.847050</ele>
  <time>2012-05-06T15:12:05Z</time>
</trkpt>
<trkpt lat="46.167700000" lon="7.453430000">
  <ele>1499.258790</ele>
  <time>2012-05-06T15:12:11Z</time>
</trkpt>
<trkpt lat="46.167700000" lon="7.453460000">
  <ele>1499.494020</ele>
  <time>2012-05-06T15:12:12Z</time>
</trkpt>
<trkpt lat="46.167710000" lon="7.453500000">
  <ele>1499.729370</ele>
  <time>2012-05-06T15:12:13Z</time>
</trkpt>
<trkpt lat="46.167710000" lon="7.453530000">
  <ele>1499.964600</ele>
  <time>2012-05-06T15:12:14Z</time>
</trkpt>
<trkpt lat="46.167720000" lon="7.453560000">
  <ele>1500.199950</ele>
  <time>2012-05-06T15:12:15Z</time>
</trkpt>
<trkpt lat="46.167730000" lon="7.453690000">
  <ele>1500.199950</ele>
  <time>2012-05-06T15:12:19Z</time>
</trkpt>
<trkpt lat="46.167740000" lon="7.453760000">
  <ele>1500.739140</ele>
  <time>2012-05-06T15:12:21Z</time>
</trkpt>
<trkpt lat="46.167740000" lon="7.453790000">
  <ele>1501.008670</ele>
  <time>2012-05-06T15:12:22Z</time>
</trkpt>
<trkpt lat="46.167740000" lon="7.453820000">
  <ele>1501.278200</ele>
  <time>2012-05-06T15:12:23Z</time>
</trkpt>
<trkpt lat="46.167750000" lon="7.453860000">
  <ele>1501.547850</ele>
  <time>2012-05-06T15:12:24Z</time>
</trkpt>
<trkpt lat="46.167760000" lon="7.453890000">
  <ele>1501.817380</ele>
  <time>2012-05-06T15:12:25Z</time>
</trkpt>
<trkpt lat="46.167760000" lon="7.454070000">
  <ele>1503.165160</ele>
  <time>2012-05-06T15:12:30Z</time>
</trkpt>
<trkpt lat="46.167760000" lon="7.454100000">
  <ele>1503.434810</ele>
  <time>2012-05-06T15:12:31Z</time>
</trkpt>
<trkpt lat="46.167760000" lon="7.454140000">
  <ele>1503.704350</ele>
  <time>2012-05-06T15:12:32Z</time>
</trkpt>
<trkpt lat="46.167760000" lon="7.454170000">
  <ele>1503.973880</ele>
  <time>2012-05-06T15:12:33Z</time>
</trkpt>
<trkpt lat="46.167760000" lon="7.454210000">
  <ele>1504.243530</ele>
  <time>2012-05-06T15:12:34Z</time>
</trkpt>
<trkpt lat="46.167760000" lon="7.454340000">
  <ele>1505.321780</ele>
  <time>2012-05-06T15:12:38Z</time>
</trkpt>
<trkpt lat="46.167760000" lon="7.454370000">
  <ele>1505.591310</ele>
  <time>2012-05-06T15:12:39Z</time>
</trkpt>
<trkpt lat="46.167760000" lon="7.454400000">
  <ele>1505.860840</ele>
  <time>2012-05-06T15:12:40Z</time>
</trkpt>
<trkpt lat="46.167770000" lon="7.454440000">
  <ele>1506.130490</ele>
  <time>2012-05-06T15:12:41Z</time>
</trkpt>
<trkpt lat="46.167770000" lon="7.454470000">
  <ele>1506.400020</ele>
  <time>2012-05-06T15:12:42Z</time>
</trkpt>
<trkpt lat="46.167780000" lon="7.454650000">
  <ele>1506.400020</ele>
  <time>2012-05-06T15:12:47Z</time>
</trkpt>
<trkpt lat="46.167780000" lon="7.454710000">
  <ele>1507.200070</ele>
  <time>2012-05-06T15:12:49Z</time>
</trkpt>
<trkpt lat="46.167780000" lon="7.454750000">
  <ele>1507.600100</ele>
  <time>2012-05-06T15:12:50Z</time>
</trkpt>
<trkpt lat="46.167780000" lon="7.454780000">
  <ele>1508.000000</ele>
  <time>2012-05-06T15:12:51Z</time>
</trkpt>
<trkpt lat="46.167780000" lon="7.454810000">
  <ele>1508.400020</ele>
  <time>2012-05-06T15:12:52Z</time>
</trkpt>
<trkpt lat="46.167790000" lon="7.454850000">
  <ele>1508.800050</ele>
  <time>2012-05-06T15:12:53Z</time>
</trkpt>
<trkpt lat="46.167790000" lon="7.454910000">
  <ele>1508.800050</ele>
  <time>2012-05-06T15:12:55Z</time>
</trkpt>
<trkpt lat="46.167790000" lon="7.455020000">
  <ele>1509.640010</ele>
  <time>2012-05-06T15:12:58Z</time>
</trkpt>
<trkpt lat="46.167790000" lon="7.455050000">
  <ele>1509.920040</ele>
  <time>2012-05-06T15:12:59Z</time>
</trkpt>
<trkpt lat="46.167790000" lon="7.455080000">
  <ele>1510.200070</ele>
  <time>2012-05-06T15:13:00Z</time>
</trkpt>
<trkpt lat="46.167790000" lon="7.455110000">
  <ele>1510.479980</ele>
  <time>2012-05-06T15:13:01Z</time>
</trkpt>
<trkpt lat="46.167780000" lon="7.455140000">
  <ele>1510.760010</ele>
  <time>2012-05-06T15:13:02Z</time>
</trkpt>
<trkpt lat="46.167760000" lon="7.455310000">
  <ele>1512.160030</ele>
  <time>2012-05-06T15:13:07Z</time>
</trkpt>
<trkpt lat="46.167760000" lon="7.455340000">
  <ele>1512.440060</ele>
  <time>2012-05-06T15:13:08Z</time>
</trkpt>
<trkpt lat="46.167750000" lon="7.455370000">
  <ele>1512.719970</ele>
  <time>2012-05-06T15:13:09Z</time>
</trkpt>
<trkpt lat="46.167740000" lon="7.455390000">
  <ele>1513.000000</ele>
  <time>2012-05-06T15:13:10Z</time>
</trkpt>
<trkpt lat="46.167740000" lon="7.455420000">
  <ele>1513.000000</ele>
  <time>2012-05-06T15:13:11Z</time>
</trkpt>
<trkpt lat="46.167690000" lon="7.455530000">
  <ele>1514.000000</ele>
  <time>2012-05-06T15:13:15Z</time>
</trkpt>
<trkpt lat="46.167690000" lon="7.455560000">
  <ele>1514.250000</ele>
  <time>2012-05-06T15:13:16Z</time>
</trkpt>
<trkpt lat="46.167680000" lon="7.455590000">
  <ele>1514.500000</ele>
  <time>2012-05-06T15:13:17Z</time>
</trkpt>
<trkpt lat="46.167670000" lon="7.455620000">
  <ele>1514.750000</ele>
  <time>2012-05-06T15:13:18Z</time>
</trkpt>
<trkpt lat="46.167660000" lon="7.455650000">
  <ele>1515.000000</ele>
  <time>2012-05-06T15:13:19Z</time>
</trkpt>
<trkpt lat="46.167640000" lon="7.455710000">
  <ele>1515.000000</ele>
  <time>2012-05-06T15:13:21Z</time>
</trkpt>
<trkpt lat="46.167620000" lon="7.455800000">
  <ele>1515.942870</ele>
  <time>2012-05-06T15:13:24Z</time>
</trkpt>
<trkpt lat="46.167620000" lon="7.455830000">
  <ele>1516.257080</ele>
  <time>2012-05-06T15:13:25Z</time>
</trkpt>
<trkpt lat="46.167610000" lon="7.455860000">
  <ele>1516.571410</ele>
  <time>2012-05-06T15:13:26Z</time>
</trkpt>
<trkpt lat="46.167610000" lon="7.455890000">
  <ele>1516.885620</ele>
  <time>2012-05-06T15:13:27Z</time>
</trkpt>
<trkpt lat="46.167610000" lon="7.455920000">
  <ele>1517.199950</ele>
  <time>2012-05-06T15:13:28Z</time>
</trkpt>
<trkpt lat="46.167600000" lon="7.455950000">
  <ele>1517.199950</ele>
  <time>2012-05-06T15:13:29Z</time>
</trkpt>
<trkpt lat="46.167580000" lon="7.456110000">
  <ele>1518.305180</ele>
  <time>2012-05-06T15:13:34Z</time>
</trkpt>
<trkpt lat="46.167570000" lon="7.456140000">
  <ele>1518.526250</ele>
  <time>2012-05-06T15:13:35Z</time>
</trkpt>
<trkpt lat="46.167570000" lon="7.456170000">
  <ele>1518.747310</ele>
  <time>2012-05-06T15:13:36Z</time>
</trkpt>
<trkpt lat="46.167560000" lon="7.456200000">
  <ele>1518.968380</ele>
  <time>2012-05-06T15:13:37Z</time>
</trkpt>
<trkpt lat="46.167560000" lon="7.456230000">
  <ele>1519.189450</ele>
  <time>2012-05-06T15:13:38Z</time>
</trkpt>
<trkpt lat="46.167550000" lon="7.456420000">
  <ele>1520.515750</ele>
  <time>2012-05-06T15:13:44Z</time>
</trkpt>
<trkpt lat="46.167540000" lon="7.456450000">
  <ele>1520.736820</ele>
  <time>2012-05-06T15:13:45Z</time>
</trkpt>
<trkpt lat="46.167530000" lon="7.456480000">
  <ele>1520.957890</ele>
  <time>2012-05-06T15:13:46Z</time>
</trkpt>
<trkpt lat="46.167530000" lon="7.456510000">
  <ele>1521.178960</ele>
  <time>2012-05-06T15:13:47Z</time>
</trkpt>
<trkpt lat="46.167520000" lon="7.456540000">
  <ele>1521.400020</ele>
  <time>2012-05-06T15:13:48Z</time>
</trkpt>
<trkpt lat="46.167490000" lon="7.456610000">
  <ele>1521.400020</ele>
  <time>2012-05-06T15:13:51Z</time>
</trkpt>
<trkpt lat="46.167450000" lon="7.456670000">
  <ele>1522.500000</ele>
  <time>2012-05-06T15:13:54Z</time>
</trkpt>
<trkpt lat="46.167430000" lon="7.456700000">
  <ele>1522.866700</ele>
  <time>2012-05-06T15:13:55Z</time>
</trkpt>
<trkpt lat="46.167420000" lon="7.456720000">
  <ele>1523.233280</ele>
  <time>2012-05-06T15:13:56Z</time>
</trkpt>
<trkpt lat="46.167410000" lon="7.456750000">
  <ele>1523.599980</ele>
  <time>2012-05-06T15:13:57Z</time>
</trkpt>
<trkpt lat="46.167340000" lon="7.456940000">
  <ele>1523.599980</ele>
  <time>2012-05-06T15:14:04Z</time>
</trkpt>
<trkpt lat="46.167330000" lon="7.456970000">
  <ele>1524.000000</ele>
  <time>2012-05-06T15:14:05Z</time>
</trkpt>
<trkpt lat="46.167320000" lon="7.457000000">
  <ele>1524.400020</ele>
  <time>2012-05-06T15:14:06Z</time>
</trkpt>
<trkpt lat="46.167310000" lon="7.457020000">
  <ele>1524.799930</ele>
  <time>2012-05-06T15:14:07Z</time>
</trkpt>
<trkpt lat="46.167300000" lon="7.457050000">
  <ele>1525.199950</ele>
  <time>2012-05-06T15:14:08Z</time>
</trkpt>
<trkpt lat="46.167290000" lon="7.457080000">
  <ele>1525.599980</ele>
  <time>2012-05-06T15:14:09Z</time>
</trkpt>
<trkpt lat="46.167260000" lon="7.457160000">
  <ele>1525.599980</ele>
  <time>2012-05-06T15:14:12Z</time>
</trkpt>
<trkpt lat="46.167240000" lon="7.457210000">
  <ele>1526.333370</ele>
  <time>2012-05-06T15:14:14Z</time>
</trkpt>
<trkpt lat="46.167230000" lon="7.457230000">
  <ele>1526.699950</ele>
  <time>2012-05-06T15:14:15Z</time>
</trkpt>
<trkpt lat="46.167220000" lon="7.457260000">
  <ele>1527.066650</ele>
  <time>2012-05-06T15:14:16Z</time>
</trkpt>
<trkpt lat="46.167220000" lon="7.457290000">
  <ele>1527.433350</ele>
  <time>2012-05-06T15:14:17Z</time>
</trkpt>
<trkpt lat="46.167210000" lon="7.457310000">
  <ele>1527.800050</ele>
  <time>2012-05-06T15:14:18Z</time>
</trkpt>
<trkpt lat="46.167170000" lon="7.457410000">
  <ele>1527.800050</ele>
  <time>2012-05-06T15:14:22Z</time>
</trkpt>
<trkpt lat="46.167160000" lon="7.457430000">
  <ele>1528.200070</ele>
  <time>2012-05-06T15:14:23Z</time>
</trkpt>
<trkpt lat="46.167140000" lon="7.457460000">
  <ele>1528.600100</ele>
  <time>2012-05-06T15:14:24Z</time>
</trkpt>
<trkpt lat="46.167130000" lon="7.457480000">
  <ele>1529.000000</ele>
  <time>2012-05-06T15:14:25Z</time>
</trkpt>
<trkpt lat="46.167120000" lon="7.457510000">
  <ele>1529.400020</ele>
  <time>2012-05-06T15:14:26Z</time>
</trkpt>
<trkpt lat="46.167110000" lon="7.457540000">
  <ele>1529.800050</ele>
  <time>2012-05-06T15:14:27Z</time>
</trkpt>
<trkpt lat="46.167080000" lon="7.457590000">
  <ele>1529.800050</ele>
  <time>2012-05-06T15:14:29Z</time>
</trkpt>
<trkpt lat="46.167020000" lon="7.457670000">
  <ele>1530.599980</ele>
  <time>2012-05-06T15:14:33Z</time>
</trkpt>
<trkpt lat="46.166970000" lon="7.457730000">
  <ele>1531.200070</ele>
  <time>2012-05-06T15:14:36Z</time>
</trkpt>
<trkpt lat="46.166950000" lon="7.457730000">
  <ele>1531.400020</ele>
  <time>2012-05-06T15:14:37Z</time>
</trkpt>
<trkpt lat="46.166920000" lon="7.457730000">
  <ele>1531.599980</ele>
  <time>2012-05-06T15:14:38Z</time>
</trkpt>
<trkpt lat="46.166900000" lon="7.457720000">
  <ele>1531.800050</ele>
  <time>2012-05-06T15:14:39Z</time>
</trkpt>
<trkpt lat="46.166880000" lon="7.457710000">
  <ele>1532.000000</ele>
  <time>2012-05-06T15:14:40Z</time>
</trkpt>
<trkpt lat="46.166860000" lon="7.457710000">
  <ele>1532.000000</ele>
  <time>2012-05-06T15:14:41Z</time>
</trkpt>
<trkpt lat="46.166840000" lon="7.457700000">
  <ele>1532.314330</ele>
  <time>2012-05-06T15:14:42Z</time>
</trkpt>
<trkpt lat="46.166780000" lon="7.457700000">
  <ele>1533.257080</ele>
  <time>2012-05-06T15:14:45Z</time>
</trkpt>
<trkpt lat="46.166760000" lon="7.457700000">
  <ele>1533.571410</ele>
  <time>2012-05-06T15:14:46Z</time>
</trkpt>
<trkpt lat="46.166740000" lon="7.457700000">
  <ele>1533.885620</ele>
  <time>2012-05-06T15:14:47Z</time>
</trkpt>
<trkpt lat="46.166730000" lon="7.457710000">
  <ele>1534.199950</ele>
  <time>2012-05-06T15:14:48Z</time>
</trkpt>
<trkpt lat="46.166660000" lon="7.457760000">
  <ele>1534.199950</ele>
  <time>2012-05-06T15:14:51Z</time>
</trkpt>
<trkpt lat="46.166620000" lon="7.457840000">
  <ele>1535.142820</ele>
  <time>2012-05-06T15:14:54Z</time>
</trkpt>
<trkpt lat="46.166620000" lon="7.457870000">
  <ele>1535.457150</ele>
  <time>2012-05-06T15:14:55Z</time>
</trkpt>
<trkpt lat="46.166610000" lon="7.457900000">
  <ele>1535.771480</ele>
  <time>2012-05-06T15:14:56Z</time>
</trkpt>
<trkpt lat="46.166610000" lon="7.457940000">
  <ele>1536.085690</ele>
  <time>2012-05-06T15:14:57Z</time>
</trkpt>
<trkpt lat="46.166600000" lon="7.457970000">
  <ele>1536.400020</ele>
  <time>2012-05-06T15:14:58Z</time>
</trkpt>
<trkpt lat="46.166600000" lon="7.458130000">
  <ele>1536.400020</ele>
  <time>2012-05-06T15:15:02Z</time>
</trkpt>
<trkpt lat="46.166560000" lon="7.458280000">
  <ele>1537.452640</ele>
  <time>2012-05-06T15:15:07Z</time>
</trkpt>
<trkpt lat="46.166500000" lon="7.458350000">
  <ele>1538.084230</ele>
  <time>2012-05-06T15:15:10Z</time>
</trkpt>
<trkpt lat="46.166480000" lon="7.458370000">
  <ele>1538.294800</ele>
  <time>2012-05-06T15:15:11Z</time>
</trkpt>
<trkpt lat="46.166470000" lon="7.458390000">
  <ele>1538.505250</ele>
  <time>2012-05-06T15:15:12Z</time>
</trkpt>
<trkpt lat="46.166450000" lon="7.458410000">
  <ele>1538.715820</ele>
  <time>2012-05-06T15:15:13Z</time>
</trkpt>
<trkpt lat="46.166370000" lon="7.458460000">
  <ele>1539.557860</ele>
  <time>2012-05-06T15:15:17Z</time>
</trkpt>
<trkpt lat="46.166350000" lon="7.458460000">
  <ele>1539.768430</ele>
  <time>2012-05-06T15:15:18Z</time>
</trkpt>
<trkpt lat="46.166330000" lon="7.458460000">
  <ele>1539.979000</ele>
  <time>2012-05-06T15:15:19Z</time>
</trkpt>
<trkpt lat="46.166310000" lon="7.458460000">
  <ele>1540.189450</ele>
  <time>2012-05-06T15:15:20Z</time>
</trkpt>
<trkpt lat="46.166290000" lon="7.458460000">
  <ele>1540.400020</ele>
  <time>2012-05-06T15:15:21Z</time>
</trkpt>
<trkpt lat="46.166180000" lon="7.458440000">
  <ele>1540.400020</ele>
  <time>2012-05-06T15:15:26Z</time>
</trkpt>
<trkpt lat="46.166130000" lon="7.458370000">
  <ele>1541.342900</ele>
  <time>2012-05-06T15:15:29Z</time>
</trkpt>
<trkpt lat="46.166130000" lon="7.458350000">
  <ele>1541.657100</ele>
  <time>2012-05-06T15:15:30Z</time>
</trkpt>
<trkpt lat="46.166110000" lon="7.458320000">
  <ele>1541.971440</ele>
  <time>2012-05-06T15:15:31Z</time>
</trkpt>
<trkpt lat="46.166100000" lon="7.458290000">
  <ele>1542.285640</ele>
  <time>2012-05-06T15:15:32Z</time>
</trkpt>
<trkpt lat="46.166090000" lon="7.458260000">
  <ele>1542.599980</ele>
  <time>2012-05-06T15:15:33Z</time>
</trkpt>
<trkpt lat="46.166070000" lon="7.458210000">
  <ele>1542.599980</ele>
  <time>2012-05-06T15:15:35Z</time>
</trkpt>
<trkpt lat="46.166010000" lon="7.458150000">
  <ele>1543.542850</ele>
  <time>2012-05-06T15:15:38Z</time>
</trkpt>
<trkpt lat="46.165990000" lon="7.458140000">
  <ele>1543.857180</ele>
  <time>2012-05-06T15:15:39Z</time>
</trkpt>
<trkpt lat="46.165960000" lon="7.458120000">
  <ele>1544.171510</ele>
  <time>2012-05-06T15:15:40Z</time>
</trkpt>
<trkpt lat="46.165940000" lon="7.458100000">
  <ele>1544.485720</ele>
  <time>2012-05-06T15:15:41Z</time>
</trkpt>
<trkpt lat="46.165920000" lon="7.458090000">
  <ele>1544.800050</ele>
  <time>2012-05-06T15:15:42Z</time>
</trkpt>
<trkpt lat="46.165830000" lon="7.458050000">
  <ele>1544.800050</ele>
  <time>2012-05-06T15:15:47Z</time>
</trkpt>
<trkpt lat="46.165790000" lon="7.458050000">
  <ele>1545.386720</ele>
  <time>2012-05-06T15:15:49Z</time>
</trkpt>
<trkpt lat="46.165770000" lon="7.458050000">
  <ele>1545.680050</ele>
  <time>2012-05-06T15:15:50Z</time>
</trkpt>
<trkpt lat="46.165740000" lon="7.458050000">
  <ele>1545.973390</ele>
  <time>2012-05-06T15:15:51Z</time>
</trkpt>
<trkpt lat="46.165730000" lon="7.458060000">
  <ele>1546.266720</ele>
  <time>2012-05-06T15:15:52Z</time>
</trkpt>
<trkpt lat="46.165710000" lon="7.458070000">
  <ele>1546.560060</ele>
  <time>2012-05-06T15:15:53Z</time>
</trkpt>
<trkpt lat="46.165620000" lon="7.458190000">
  <ele>1548.319950</ele>
  <time>2012-05-06T15:15:59Z</time>
</trkpt>
<trkpt lat="46.165600000" lon="7.458220000">
  <ele>1548.613280</ele>
  <time>2012-05-06T15:16:00Z</time>
</trkpt>
<trkpt lat="46.165600000" lon="7.458240000">
  <ele>1548.906620</ele>
  <time>2012-05-06T15:16:01Z</time>
</trkpt>
<trkpt lat="46.165590000" lon="7.458270000">
  <ele>1549.199950</ele>
  <time>2012-05-06T15:16:02Z</time>
</trkpt>
<trkpt lat="46.165580000" lon="7.458350000">
  <ele>1549.199950</ele>
  <time>2012-05-06T15:16:05Z</time>
</trkpt>
<trkpt lat="46.165570000" lon="7.458510000">
  <ele>1550.311040</ele>
  <time>2012-05-06T15:16:10Z</time>
</trkpt>
<trkpt lat="46.165570000" lon="7.458540000">
  <ele>1550.533330</ele>
  <time>2012-05-06T15:16:11Z</time>
</trkpt>
<trkpt lat="46.165570000" lon="7.458570000">
  <ele>1550.755490</ele>
  <time>2012-05-06T15:16:12Z</time>
</trkpt>
<trkpt lat="46.165570000" lon="7.458600000">
  <ele>1550.977780</ele>
  <time>2012-05-06T15:16:13Z</time>
</trkpt>
<trkpt lat="46.165570000" lon="7.458630000">
  <ele>1551.199950</ele>
  <time>2012-05-06T15:16:14Z</time>
</trkpt>
<trkpt lat="46.165570000" lon="7.458750000">
  <ele>1551.199950</ele>
  <time>2012-05-06T15:16:18Z</time>
</trkpt>
<trkpt lat="46.165580000" lon="7.458890000">
  <ele>1552.457150</ele>
  <time>2012-05-06T15:16:22Z</time>
</trkpt>
<trkpt lat="46.165580000" lon="7.458920000">
  <ele>1552.771480</ele>
  <time>2012-05-06T15:16:23Z</time>
</trkpt>
<trkpt lat="46.165580000" lon="7.458950000">
  <ele>1553.085690</ele>
  <time>2012-05-06T15:16:24Z</time>
</trkpt>
<trkpt lat="46.165590000" lon="7.458980000">
  <ele>1553.400020</ele>
  <time>2012-05-06T15:16:25Z</time>
</trkpt>
<trkpt lat="46.165580000" lon="7.459190000">
  <ele>1553.400020</ele>
  <time>2012-05-06T15:16:31Z</time>
</trkpt>
<trkpt lat="46.165560000" lon="7.459260000">
  <ele>1554.066650</ele>
  <time>2012-05-06T15:16:33Z</time>
</trkpt>
<trkpt lat="46.165540000" lon="7.459280000">
  <ele>1554.400020</ele>
  <time>2012-05-06T15:16:34Z</time>
</trkpt>
<trkpt lat="46.165520000" lon="7.459300000">
  <ele>1554.733400</ele>
  <time>2012-05-06T15:16:35Z</time>
</trkpt>
<trkpt lat="46.165490000" lon="7.459320000">
  <ele>1555.066650</ele>
  <time>2012-05-06T15:16:36Z</time>
</trkpt>
<trkpt lat="46.165470000" lon="7.459330000">
  <ele>1555.400020</ele>
  <time>2012-05-06T15:16:37Z</time>
</trkpt>
<trkpt lat="46.165420000" lon="7.459340000">
  <ele>1555.400020</ele>
  <time>2012-05-06T15:16:39Z</time>
</trkpt>
<trkpt lat="46.165310000" lon="7.459270000">
  <ele>1556.309080</ele>
  <time>2012-05-06T15:16:44Z</time>
</trkpt>
<trkpt lat="46.165250000" lon="7.459240000">
  <ele>1556.854610</ele>
  <time>2012-05-06T15:16:47Z</time>
</trkpt>
<trkpt lat="46.165230000" lon="7.459220000">
  <ele>1557.036380</ele>
  <time>2012-05-06T15:16:48Z</time>
</trkpt>
<trkpt lat="46.165210000" lon="7.459210000">
  <ele>1557.218260</ele>
  <time>2012-05-06T15:16:49Z</time>
</trkpt>
<trkpt lat="46.165190000" lon="7.459200000">
  <ele>1557.400020</ele>
  <time>2012-05-06T15:16:50Z</time>
</trkpt>
<trkpt lat="46.165070000" lon="7.459160000">
  <ele>1557.400020</ele>
  <time>2012-05-06T15:16:55Z</time>
</trkpt>
<trkpt lat="46.165020000" lon="7.459160000">
  <ele>1557.866700</ele>
  <time>2012-05-06T15:16:57Z</time>
</trkpt>
<trkpt lat="46.165000000" lon="7.459150000">
  <ele>1558.099980</ele>
  <time>2012-05-06T15:16:58Z</time>
</trkpt>
<trkpt lat="46.164970000" lon="7.459140000">
  <ele>1558.333370</ele>
  <time>2012-05-06T15:16:59Z</time>
</trkpt>
<trkpt lat="46.164960000" lon="7.459140000">
  <ele>1558.566650</ele>
  <time>2012-05-06T15:17:00Z</time>
</trkpt>
<trkpt lat="46.164930000" lon="7.459130000">
  <ele>1558.800050</ele>
  <time>2012-05-06T15:17:01Z</time>
</trkpt>
<trkpt lat="46.164750000" lon="7.459070000">
  <ele>1560.666630</ele>
  <time>2012-05-06T15:17:09Z</time>
</trkpt>
<trkpt lat="46.164730000" lon="7.459060000">
  <ele>1560.900020</ele>
  <time>2012-05-06T15:17:10Z</time>
</trkpt>
<trkpt lat="46.164710000" lon="7.459040000">
  <ele>1561.133300</ele>
  <time>2012-05-06T15:17:11Z</time>
</trkpt>
<trkpt lat="46.164690000" lon="7.459030000">
  <ele>1561.366700</ele>
  <time>2012-05-06T15:17:12Z</time>
</trkpt>
<trkpt lat="46.164670000" lon="7.459010000">
  <ele>1561.599980</ele>
  <time>2012-05-06T15:17:13Z</time>
</trkpt>
<trkpt lat="46.164640000" lon="7.458980000">
  <ele>1561.599980</ele>
  <time>2012-05-06T15:17:15Z</time>
</trkpt>
<trkpt lat="46.164570000" lon="7.458920000">
  <ele>1562.533330</ele>
  <time>2012-05-06T15:17:19Z</time>
</trkpt>
<trkpt lat="46.164550000" lon="7.458900000">
  <ele>1562.766600</ele>
  <time>2012-05-06T15:17:20Z</time>
</trkpt>
<trkpt lat="46.164530000" lon="7.458880000">
  <ele>1563.000000</ele>
  <time>2012-05-06T15:17:21Z</time>
</trkpt>
<trkpt lat="46.164520000" lon="7.458870000">
  <ele>1563.233400</ele>
  <time>2012-05-06T15:17:22Z</time>
</trkpt>
<trkpt lat="46.164500000" lon="7.458850000">
  <ele>1563.466670</ele>
  <time>2012-05-06T15:17:23Z</time>
</trkpt>
<trkpt lat="46.164380000" lon="7.458790000">
  <ele>1564.866700</ele>
  <time>2012-05-06T15:17:29Z</time>
</trkpt>
<trkpt lat="46.164360000" lon="7.458790000">
  <ele>1565.100100</ele>
  <time>2012-05-06T15:17:30Z</time>
</trkpt>
<trkpt lat="46.164340000" lon="7.458780000">
  <ele>1565.333370</ele>
  <time>2012-05-06T15:17:31Z</time>
</trkpt>
<trkpt lat="46.164320000" lon="7.458780000">
  <ele>1565.566650</ele>
  <time>2012-05-06T15:17:32Z</time>
</trkpt>
<trkpt lat="46.164300000" lon="7.458780000">
  <ele>1565.800050</ele>
  <time>2012-05-06T15:17:33Z</time>
</trkpt>
<trkpt lat="46.164230000" lon="7.458790000">
  <ele>1565.800050</ele>
  <time>2012-05-06T15:17:36Z</time>
</trkpt>
<trkpt lat="46.164170000" lon="7.458800000">
  <ele>1566.900020</ele>
  <time>2012-05-06T15:17:39Z</time>
</trkpt>
<trkpt lat="46.164150000" lon="7.458800000">
  <ele>1567.266720</ele>
  <time>2012-05-06T15:17:40Z</time>
</trkpt>
<trkpt lat="46.164130000" lon="7.458800000">
  <ele>1567.633300</ele>
  <time>2012-05-06T15:17:41Z</time>
</trkpt>
<trkpt lat="46.164110000" lon="7.458800000">
  <ele>1568.000000</ele>
  <time>2012-05-06T15:17:42Z</time>
</trkpt>
<trkpt lat="46.164070000" lon="7.458800000">
  <ele>1568.000000</ele>
  <time>2012-05-06T15:17:44Z</time>
</trkpt>
<trkpt lat="46.163940000" lon="7.458780000">
  <ele>1569.199950</ele>
  <time>2012-05-06T15:17:50Z</time>
</trkpt>
<trkpt lat="46.163920000" lon="7.458780000">
  <ele>1569.400020</ele>
  <time>2012-05-06T15:17:51Z</time>
</trkpt>
<trkpt lat="46.163900000" lon="7.458780000">
  <ele>1569.599980</ele>
  <time>2012-05-06T15:17:52Z</time>
</trkpt>
<trkpt lat="46.163880000" lon="7.458780000">
  <ele>1569.800050</ele>
  <time>2012-05-06T15:17:53Z</time>
</trkpt>
<trkpt lat="46.163850000" lon="7.458770000">
  <ele>1570.000000</ele>
  <time>2012-05-06T15:17:54Z</time>
</trkpt>
<trkpt lat="46.163790000" lon="7.458790000">
  <ele>1570.000000</ele>
  <time>2012-05-06T15:17:57Z</time>
</trkpt>
<trkpt lat="46.163750000" lon="7.458800000">
  <ele>1570.559940</ele>
  <time>2012-05-06T15:17:59Z</time>
</trkpt>
<trkpt lat="46.163730000" lon="7.458810000">
  <ele>1570.839970</ele>
  <time>2012-05-06T15:18:00Z</time>
</trkpt>
<trkpt lat="46.163710000" lon="7.458820000">
  <ele>1571.120000</ele>
  <time>2012-05-06T15:18:01Z</time>
</trkpt>
<trkpt lat="46.163690000" lon="7.458840000">
  <ele>1571.400020</ele>
  <time>2012-05-06T15:18:02Z</time>
</trkpt>
<trkpt lat="46.163670000" lon="7.458860000">
  <ele>1571.679930</ele>
  <time>2012-05-06T15:18:03Z</time>
</trkpt>
<trkpt lat="46.163580000" lon="7.458970000">
  <ele>1573.079960</ele>
  <time>2012-05-06T15:18:08Z</time>
</trkpt>
<trkpt lat="46.163570000" lon="7.458990000">
  <ele>1573.359990</ele>
  <time>2012-05-06T15:18:09Z</time>
</trkpt>
<trkpt lat="46.163550000" lon="7.459020000">
  <ele>1573.640010</ele>
  <time>2012-05-06T15:18:10Z</time>
</trkpt>
<trkpt lat="46.163530000" lon="7.459040000">
  <ele>1573.919920</ele>
  <time>2012-05-06T15:18:11Z</time>
</trkpt>
<trkpt lat="46.163520000" lon="7.459070000">
  <ele>1574.199950</ele>
  <time>2012-05-06T15:18:12Z</time>
</trkpt>
<trkpt lat="46.163420000" lon="7.459200000">
  <ele>1574.199950</ele>
  <time>2012-05-06T15:18:18Z</time>
</trkpt>
<trkpt lat="46.163390000" lon="7.459250000">
  <ele>1574.750000</ele>
  <time>2012-05-06T15:18:20Z</time>
</trkpt>
<trkpt lat="46.163370000" lon="7.459270000">
  <ele>1575.024900</ele>
  <time>2012-05-06T15:18:21Z</time>
</trkpt>
<trkpt lat="46.163350000" lon="7.459290000">
  <ele>1575.299930</ele>
  <time>2012-05-06T15:18:22Z</time>
</trkpt>
<trkpt lat="46.163340000" lon="7.459310000">
  <ele>1575.574950</ele>
  <time>2012-05-06T15:18:23Z</time>
</trkpt>
<trkpt lat="46.163320000" lon="7.459330000">
  <ele>1575.849980</ele>
  <time>2012-05-06T15:18:24Z</time>
</trkpt>
<trkpt lat="46.163200000" lon="7.459420000">
  <ele>1577.500000</ele>
  <time>2012-05-06T15:18:30Z</time>
</trkpt>
<trkpt lat="46.163180000" lon="7.459430000">
  <ele>1577.775020</ele>
  <time>2012-05-06T15:18:31Z</time>
</trkpt>
<trkpt lat="46.163150000" lon="7.459440000">
  <ele>1578.049930</ele>
  <time>2012-05-06T15:18:32Z</time>
</trkpt>
<trkpt lat="46.163130000" lon="7.459440000">
  <ele>1578.324950</ele>
  <time>2012-05-06T15:18:33Z</time>
</trkpt>
<trkpt lat="46.163110000" lon="7.459450000">
  <ele>1578.599980</ele>
  <time>2012-05-06T15:18:34Z</time>
</trkpt>
<trkpt lat="46.163050000" lon="7.459440000">
  <ele>1578.599980</ele>
  <time>2012-05-06T15:18:37Z</time>
</trkpt>
<trkpt lat="46.162970000" lon="7.459380000">
  <ele>1579.599980</ele>
  <time>2012-05-06T15:18:41Z</time>
</trkpt>
<trkpt lat="46.162950000" lon="7.459360000">
  <ele>1579.849980</ele>
  <time>2012-05-06T15:18:42Z</time>
</trkpt>
<trkpt lat="46.162940000" lon="7.459340000">
  <ele>1580.099980</ele>
  <time>2012-05-06T15:18:43Z</time>
</trkpt>
<trkpt lat="46.162930000" lon="7.459310000">
  <ele>1580.349980</ele>
  <time>2012-05-06T15:18:44Z</time>
</trkpt>
<trkpt lat="46.162910000" lon="7.459280000">
  <ele>1580.599980</ele>
  <time>2012-05-06T15:18:45Z</time>
</trkpt>
<trkpt lat="46.162880000" lon="7.459230000">
  <ele>1580.599980</ele>
  <time>2012-05-06T15:18:47Z</time>
</trkpt>
<trkpt lat="46.162870000" lon="7.459200000">
  <ele>1581.000000</ele>
  <time>2012-05-06T15:18:48Z</time>
</trkpt>
<trkpt lat="46.162860000" lon="7.459180000">
  <ele>1581.400020</ele>
  <time>2012-05-06T15:18:49Z</time>
</trkpt>
<trkpt lat="46.162850000" lon="7.459150000">
  <ele>1581.799930</ele>
  <time>2012-05-06T15:18:50Z</time>
</trkpt>
<trkpt lat="46.162830000" lon="7.459130000">
  <ele>1582.199950</ele>
  <time>2012-05-06T15:18:51Z</time>
</trkpt>
<trkpt lat="46.162810000" lon="7.459110000">
  <ele>1582.599980</ele>
  <time>2012-05-06T15:18:52Z</time>
</trkpt>
<trkpt lat="46.162790000" lon="7.459080000">
  <ele>1582.599980</ele>
  <time>2012-05-06T15:18:53Z</time>
</trkpt>
<trkpt lat="46.162710000" lon="7.459040000">
  <ele>1583.457150</ele>
  <time>2012-05-06T15:18:56Z</time>
</trkpt>
<trkpt lat="46.162690000" lon="7.459030000">
  <ele>1583.742800</ele>
  <time>2012-05-06T15:18:57Z</time>
</trkpt>
<trkpt lat="46.162670000" lon="7.459020000">
  <ele>1584.028560</ele>
  <time>2012-05-06T15:18:58Z</time>
</trkpt>
<trkpt lat="46.162650000" lon="7.459020000">
  <ele>1584.314210</ele>
  <time>2012-05-06T15:18:59Z</time>
</trkpt>
<trkpt lat="46.162630000" lon="7.459030000">
  <ele>1584.599980</ele>
  <time>2012-05-06T15:19:00Z</time>
</trkpt>
<trkpt lat="46.162540000" lon="7.459070000">
  <ele>1584.599980</ele>
  <time>2012-05-06T15:19:04Z</time>
</trkpt>
<trkpt lat="46.162410000" lon="7.459160000">
  <ele>1585.699950</ele>
  <time>2012-05-06T15:19:10Z</time>
</trkpt>
<trkpt lat="46.162360000" lon="7.459200000">
  <ele>1586.066650</ele>
  <time>2012-05-06T15:19:12Z</time>
</trkpt>
<trkpt lat="46.162340000" lon="7.459210000">
  <ele>1586.250000</ele>
  <time>2012-05-06T15:19:13Z</time>
</trkpt>
<trkpt lat="46.162320000" lon="7.459230000">
  <ele>1586.433350</ele>
  <time>2012-05-06T15:19:14Z</time>
</trkpt>
<trkpt lat="46.162290000" lon="7.459240000">
  <ele>1586.616700</ele>
  <time>2012-05-06T15:19:15Z</time>
</trkpt>
<trkpt lat="46.162270000" lon="7.459260000">
  <ele>1586.800050</ele>
  <time>2012-05-06T15:19:16Z</time>
</trkpt>
<trkpt lat="46.162170000" lon="7.459340000">
  <ele>1586.800050</ele>
  <time>2012-05-06T15:19:21Z</time>
</trkpt>
<trkpt lat="46.162120000" lon="7.459380000">
  <ele>1587.466670</ele>
  <time>2012-05-06T15:19:23Z</time>
</trkpt>
<trkpt lat="46.162110000" lon="7.459400000">
  <ele>1587.800050</ele>
  <time>2012-05-06T15:19:24Z</time>
</trkpt>
<trkpt lat="46.162080000" lon="7.459420000">
  <ele>1588.133420</ele>
  <time>2012-05-06T15:19:25Z</time>
</trkpt>
<trkpt lat="46.162060000" lon="7.459430000">
  <ele>1588.466670</ele>
  <time>2012-05-06T15:19:26Z</time>
</trkpt>
<trkpt lat="46.162040000" lon="7.459450000">
  <ele>1588.800050</ele>
  <time>2012-05-06T15:19:27Z</time>
</trkpt>
<trkpt lat="46.161940000" lon="7.459500000">
  <ele>1588.800050</ele>
  <time>2012-05-06T15:19:31Z</time>
</trkpt>
<trkpt lat="46.161800000" lon="7.459570000">
  <ele>1590.120000</ele>
  <time>2012-05-06T15:19:37Z</time>
</trkpt>
<trkpt lat="46.161780000" lon="7.459580000">
  <ele>1590.339970</ele>
  <time>2012-05-06T15:19:38Z</time>
</trkpt>
<trkpt lat="46.161750000" lon="7.459590000">
  <ele>1590.560060</ele>
  <time>2012-05-06T15:19:39Z</time>
</trkpt>
<trkpt lat="46.161730000" lon="7.459600000">
  <ele>1590.780030</ele>
  <time>2012-05-06T15:19:40Z</time>
</trkpt>
<trkpt lat="46.161710000" lon="7.459610000">
  <ele>1591.000000</ele>
  <time>2012-05-06T15:19:41Z</time>
</trkpt>
<trkpt lat="46.161640000" lon="7.459650000">
  <ele>1591.000000</ele>
  <time>2012-05-06T15:19:44Z</time>
</trkpt>
<trkpt lat="46.161570000" lon="7.459710000">
  <ele>1591.857180</ele>
  <time>2012-05-06T15:19:47Z</time>
</trkpt>
<trkpt lat="46.161550000" lon="7.459720000">
  <ele>1592.142820</ele>
  <time>2012-05-06T15:19:48Z</time>
</trkpt>
<trkpt lat="46.161520000" lon="7.459750000">
  <ele>1592.428590</ele>
  <time>2012-05-06T15:19:49Z</time>
</trkpt>
<trkpt lat="46.161500000" lon="7.459760000">
  <ele>1592.714230</ele>
  <time>2012-05-06T15:19:50Z</time>
</trkpt>
<trkpt lat="46.161480000" lon="7.459780000">
  <ele>1593.000000</ele>
  <time>2012-05-06T15:19:51Z</time>
</trkpt>
<trkpt lat="46.161390000" lon="7.459830000">
  <ele>1593.000000</ele>
  <time>2012-05-06T15:19:55Z</time>
</trkpt>
<trkpt lat="46.161250000" lon="7.459880000">
  <ele>1594.111080</ele>
  <time>2012-05-06T15:20:00Z</time>
</trkpt>
<trkpt lat="46.161220000" lon="7.459890000">
  <ele>1594.333370</ele>
  <time>2012-05-06T15:20:01Z</time>
</trkpt>
<trkpt lat="46.161190000" lon="7.459890000">
  <ele>1594.555540</ele>
  <time>2012-05-06T15:20:02Z</time>
</trkpt>
<trkpt lat="46.161160000" lon="7.459900000">
  <ele>1594.777830</ele>
  <time>2012-05-06T15:20:03Z</time>
</trkpt>
<trkpt lat="46.161140000" lon="7.459890000">
  <ele>1595.000000</ele>
  <time>2012-05-06T15:20:04Z</time>
</trkpt>
<trkpt lat="46.161070000" lon="7.459890000">
  <ele>1595.000000</ele>
  <time>2012-05-06T15:20:07Z</time>
</trkpt>
<trkpt lat="46.161020000" lon="7.459880000">
  <ele>1595.733280</ele>
  <time>2012-05-06T15:20:09Z</time>
</trkpt>
<trkpt lat="46.160990000" lon="7.459880000">
  <ele>1596.099980</ele>
  <time>2012-05-06T15:20:10Z</time>
</trkpt>
<trkpt lat="46.160960000" lon="7.459880000">
  <ele>1596.466670</ele>
  <time>2012-05-06T15:20:11Z</time>
</trkpt>
<trkpt lat="46.160930000" lon="7.459870000">
  <ele>1596.833250</ele>
  <time>2012-05-06T15:20:12Z</time>
</trkpt>
<trkpt lat="46.160900000" lon="7.459880000">
  <ele>1597.199950</ele>
  <time>2012-05-06T15:20:13Z</time>
</trkpt>
<trkpt lat="46.160750000" lon="7.459960000">
  <ele>1597.199950</ele>
  <time>2012-05-06T15:20:19Z</time>
</trkpt>
<trkpt lat="46.160610000" lon="7.460090000">
  <ele>1598.463130</ele>
  <time>2012-05-06T15:20:25Z</time>
</trkpt>
<trkpt lat="46.160590000" lon="7.460120000">
  <ele>1598.673580</ele>
  <time>2012-05-06T15:20:26Z</time>
</trkpt>
<trkpt lat="46.160560000" lon="7.460150000">
  <ele>1598.884160</ele>
  <time>2012-05-06T15:20:27Z</time>
</trkpt>
<trkpt lat="46.160550000" lon="7.460180000">
  <ele>1599.094730</ele>
  <time>2012-05-06T15:20:28Z</time>
</trkpt>
<trkpt lat="46.160530000" lon="7.460210000">
  <ele>1599.305180</ele>
  <time>2012-05-06T15:20:29Z</time>
</trkpt>
<trkpt lat="46.160450000" lon="7.460380000">
  <ele>1600.357790</ele>
  <time>2012-05-06T15:20:34Z</time>
</trkpt>
<trkpt lat="46.160440000" lon="7.460420000">
  <ele>1600.568360</ele>
  <time>2012-05-06T15:20:35Z</time>
</trkpt>
<trkpt lat="46.160430000" lon="7.460460000">
  <ele>1600.778930</ele>
  <time>2012-05-06T15:20:36Z</time>
</trkpt>
<trkpt lat="46.160420000" lon="7.460490000">
  <ele>1600.989380</ele>
  <time>2012-05-06T15:20:37Z</time>
</trkpt>
<trkpt lat="46.160400000" lon="7.460530000">
  <ele>1601.199950</ele>
  <time>2012-05-06T15:20:38Z</time>
</trkpt>
<trkpt lat="46.160310000" lon="7.460670000">
  <ele>1601.199950</ele>
  <time>2012-05-06T15:20:43Z</time>
</trkpt>
<trkpt lat="46.160230000" lon="7.460720000">
  <ele>1602.142820</ele>
  <time>2012-05-06T15:20:46Z</time>
</trkpt>
<trkpt lat="46.160200000" lon="7.460730000">
  <ele>1602.457150</ele>
  <time>2012-05-06T15:20:47Z</time>
</trkpt>
<trkpt lat="46.160170000" lon="7.460740000">
  <ele>1602.771480</ele>
  <time>2012-05-06T15:20:48Z</time>
</trkpt>
<trkpt lat="46.160140000" lon="7.460740000">
  <ele>1603.085690</ele>
  <time>2012-05-06T15:20:49Z</time>
</trkpt>
<trkpt lat="46.160120000" lon="7.460740000">
  <ele>1603.400020</ele>
  <time>2012-05-06T15:20:50Z</time>
</trkpt>
<trkpt lat="46.159980000" lon="7.460750000">
  <ele>1603.400020</ele>
  <time>2012-05-06T15:20:55Z</time>
</trkpt>
<trkpt lat="46.159930000" lon="7.460760000">
  <ele>1604.280030</ele>
  <time>2012-05-06T15:20:57Z</time>
</trkpt>
<trkpt lat="46.159900000" lon="7.460760000">
  <ele>1604.719970</ele>
  <time>2012-05-06T15:20:58Z</time>
</trkpt>
<trkpt lat="46.159880000" lon="7.460760000">
  <ele>1605.160030</ele>
  <time>2012-05-06T15:20:59Z</time>
</trkpt>
<trkpt lat="46.159850000" lon="7.460760000">
  <ele>1605.599980</ele>
  <time>2012-05-06T15:21:00Z</time>
</trkpt>
<trkpt lat="46.159770000" lon="7.460770000">
  <ele>1605.599980</ele>
  <time>2012-05-06T15:21:03Z</time>
</trkpt>
<trkpt lat="46.159660000" lon="7.460780000">
  <ele>1606.699950</ele>
  <time>2012-05-06T15:21:07Z</time>
</trkpt>
<trkpt lat="46.159630000" lon="7.460790000">
  <ele>1606.974980</ele>
  <time>2012-05-06T15:21:08Z</time>
</trkpt>
<trkpt lat="46.159610000" lon="7.460790000">
  <ele>1607.250000</ele>
  <time>2012-05-06T15:21:09Z</time>
</trkpt>
<trkpt lat="46.159580000" lon="7.460800000">
  <ele>1607.525020</ele>
  <time>2012-05-06T15:21:10Z</time>
</trkpt>
<trkpt lat="46.159560000" lon="7.460800000">
  <ele>1607.800050</ele>
  <time>2012-05-06T15:21:11Z</time>
</trkpt>
<trkpt lat="46.159450000" lon="7.460840000">
  <ele>1607.800050</ele>
  <time>2012-05-06T15:21:15Z</time>
</trkpt>
<trkpt lat="46.159420000" lon="7.460850000">
  <ele>1608.200070</ele>
  <time>2012-05-06T15:21:16Z</time>
</trkpt>
<trkpt lat="46.159400000" lon="7.460860000">
  <ele>1608.600100</ele>
  <time>2012-05-06T15:21:17Z</time>
</trkpt>
<trkpt lat="46.159370000" lon="7.460870000">
  <ele>1609.000000</ele>
  <time>2012-05-06T15:21:18Z</time>
</trkpt>
<trkpt lat="46.159350000" lon="7.460890000">
  <ele>1609.400020</ele>
  <time>2012-05-06T15:21:19Z</time>
</trkpt>
<trkpt lat="46.159320000" lon="7.460900000">
  <ele>1609.800050</ele>
  <time>2012-05-06T15:21:20Z</time>
</trkpt>
<trkpt lat="46.159270000" lon="7.460930000">
  <ele>1609.800050</ele>
  <time>2012-05-06T15:21:22Z</time>
</trkpt>
<trkpt lat="46.159150000" lon="7.461040000">
  <ele>1610.911130</ele>
  <time>2012-05-06T15:21:27Z</time>
</trkpt>
<trkpt lat="46.159120000" lon="7.461060000">
  <ele>1611.133420</ele>
  <time>2012-05-06T15:21:28Z</time>
</trkpt>
<trkpt lat="46.159100000" lon="7.461080000">
  <ele>1611.355590</ele>
  <time>2012-05-06T15:21:29Z</time>
</trkpt>
<trkpt lat="46.159070000" lon="7.461100000">
  <ele>1611.577880</ele>
  <time>2012-05-06T15:21:30Z</time>
</trkpt>
<trkpt lat="46.159050000" lon="7.461120000">
  <ele>1611.800050</ele>
  <time>2012-05-06T15:21:31Z</time>
</trkpt>
<trkpt lat="46.158990000" lon="7.461200000">
  <ele>1611.800050</ele>
  <time>2012-05-06T15:21:34Z</time>
</trkpt>
<trkpt lat="46.158860000" lon="7.461320000">
  <ele>1612.966670</ele>
  <time>2012-05-06T15:21:39Z</time>
</trkpt>
<trkpt lat="46.158830000" lon="7.461340000">
  <ele>1613.200070</ele>
  <time>2012-05-06T15:21:40Z</time>
</trkpt>
<trkpt lat="46.158810000" lon="7.461360000">
  <ele>1613.433350</ele>
  <time>2012-05-06T15:21:41Z</time>
</trkpt>
<trkpt lat="46.158780000" lon="7.461370000">
  <ele>1613.666750</ele>
  <time>2012-05-06T15:21:42Z</time>
</trkpt>
<trkpt lat="46.158760000" lon="7.461390000">
  <ele>1613.900020</ele>
  <time>2012-05-06T15:21:43Z</time>
</trkpt>
<trkpt lat="46.158620000" lon="7.461470000">
  <ele>1615.066650</ele>
  <time>2012-05-06T15:21:48Z</time>
</trkpt>
<trkpt lat="46.158590000" lon="7.461490000">
  <ele>1615.300050</ele>
  <time>2012-05-06T15:21:49Z</time>
</trkpt>
<trkpt lat="46.158560000" lon="7.461510000">
  <ele>1615.533330</ele>
  <time>2012-05-06T15:21:50Z</time>
</trkpt>
<trkpt lat="46.158540000" lon="7.461530000">
  <ele>1615.766720</ele>
  <time>2012-05-06T15:21:51Z</time>
</trkpt>
<trkpt lat="46.158510000" lon="7.461550000">
  <ele>1616.000000</ele>
  <time>2012-05-06T15:21:52Z</time>
</trkpt>
<trkpt lat="46.158400000" lon="7.461670000">
  <ele>1616.000000</ele>
  <time>2012-05-06T15:21:57Z</time>
</trkpt>
<trkpt lat="46.158360000" lon="7.461720000">
  <ele>1616.666630</ele>
  <time>2012-05-06T15:21:59Z</time>
</trkpt>
<trkpt lat="46.158340000" lon="7.461760000">
  <ele>1617.000000</ele>
  <time>2012-05-06T15:22:00Z</time>
</trkpt>
<trkpt lat="46.158330000" lon="7.461800000">
  <ele>1617.333370</ele>
  <time>2012-05-06T15:22:01Z</time>
</trkpt>
<trkpt lat="46.158320000" lon="7.461830000">
  <ele>1617.666630</ele>
  <time>2012-05-06T15:22:02Z</time>
</trkpt>
<trkpt lat="46.158310000" lon="7.461870000">
  <ele>1618.000000</ele>
  <time>2012-05-06T15:22:03Z</time>
</trkpt>
<trkpt lat="46.158180000" lon="7.462100000">
  <ele>1618.000000</ele>
  <time>2012-05-06T15:22:10Z</time>
</trkpt>
<trkpt lat="46.158130000" lon="7.462140000">
  <ele>1618.525020</ele>
  <time>2012-05-06T15:22:12Z</time>
</trkpt>
<trkpt lat="46.158100000" lon="7.462160000">
  <ele>1618.787480</ele>
  <time>2012-05-06T15:22:13Z</time>
</trkpt>
<trkpt lat="46.158080000" lon="7.462170000">
  <ele>1619.050050</ele>
  <time>2012-05-06T15:22:14Z</time>
</trkpt>
<trkpt lat="46.158050000" lon="7.462190000">
  <ele>1619.312500</ele>
  <time>2012-05-06T15:22:15Z</time>
</trkpt>
<trkpt lat="46.158020000" lon="7.462200000">
  <ele>1619.574950</ele>
  <time>2012-05-06T15:22:16Z</time>
</trkpt>
<trkpt lat="46.157880000" lon="7.462300000">
  <ele>1621.149900</ele>
  <time>2012-05-06T15:22:22Z</time>
</trkpt>
<trkpt lat="46.157850000" lon="7.462320000">
  <ele>1621.412480</ele>
  <time>2012-05-06T15:22:23Z</time>
</trkpt>
<trkpt lat="46.157820000" lon="7.462330000">
  <ele>1621.674930</ele>
  <time>2012-05-06T15:22:24Z</time>
</trkpt>
<trkpt lat="46.157800000" lon="7.462350000">
  <ele>1621.937500</ele>
  <time>2012-05-06T15:22:25Z</time>
</trkpt>
<trkpt lat="46.157770000" lon="7.462370000">
  <ele>1622.199950</ele>
  <time>2012-05-06T15:22:26Z</time>
</trkpt>
<trkpt lat="46.157660000" lon="7.462430000">
  <ele>1622.199950</ele>
  <time>2012-05-06T15:22:30Z</time>
</trkpt>
<trkpt lat="46.157580000" lon="7.462460000">
  <ele>1623.199950</ele>
  <time>2012-05-06T15:22:33Z</time>
</trkpt>
<trkpt lat="46.157550000" lon="7.462470000">
  <ele>1623.533330</ele>
  <time>2012-05-06T15:22:34Z</time>
</trkpt>
<trkpt lat="46.157530000" lon="7.462490000">
  <ele>1623.866580</ele>
  <time>2012-05-06T15:22:35Z</time>
</trkpt>
<trkpt lat="46.157500000" lon="7.462510000">
  <ele>1624.199950</ele>
  <time>2012-05-06T15:22:36Z</time>
</trkpt>
<trkpt lat="46.157350000" lon="7.462680000">
  <ele>1624.199950</ele>
  <time>2012-05-06T15:22:42Z</time>
</trkpt>
<trkpt lat="46.157290000" lon="7.462770000">
  <ele>1625.142820</ele>
  <time>2012-05-06T15:22:45Z</time>
</trkpt>
<trkpt lat="46.157260000" lon="7.462800000">
  <ele>1625.457150</ele>
  <time>2012-05-06T15:22:46Z</time>
</trkpt>
<trkpt lat="46.157240000" lon="7.462830000">
  <ele>1625.771480</ele>
  <time>2012-05-06T15:22:47Z</time>
</trkpt>
<trkpt lat="46.157220000" lon="7.462850000">
  <ele>1626.085690</ele>
  <time>2012-05-06T15:22:48Z</time>
</trkpt>
<trkpt lat="46.157190000" lon="7.462880000">
  <ele>1626.400020</ele>
  <time>2012-05-06T15:22:49Z</time>
</trkpt>
<trkpt lat="46.157170000" lon="7.462900000">
  <ele>1626.400020</ele>
  <time>2012-05-06T15:22:50Z</time>
</trkpt>
<trkpt lat="46.157150000" lon="7.462920000">
  <ele>1626.633300</ele>
  <time>2012-05-06T15:22:51Z</time>
</trkpt>
<trkpt lat="46.157010000" lon="7.462980000">
  <ele>1627.800050</ele>
  <time>2012-05-06T15:22:56Z</time>
</trkpt>
<trkpt lat="46.156990000" lon="7.462990000">
  <ele>1628.033330</ele>
  <time>2012-05-06T15:22:57Z</time>
</trkpt>
<trkpt lat="46.156960000" lon="7.463010000">
  <ele>1628.266720</ele>
  <time>2012-05-06T15:22:58Z</time>
</trkpt>
<trkpt lat="46.156940000" lon="7.463020000">
  <ele>1628.500000</ele>
  <time>2012-05-06T15:22:59Z</time>
</trkpt>
<trkpt lat="46.156910000" lon="7.463040000">
  <ele>1628.733280</ele>
  <time>2012-05-06T15:23:00Z</time>
</trkpt>
<trkpt lat="46.156810000" lon="7.463100000">
  <ele>1629.666630</ele>
  <time>2012-05-06T15:23:04Z</time>
</trkpt>
<trkpt lat="46.156790000" lon="7.463110000">
  <ele>1629.900020</ele>
  <time>2012-05-06T15:23:05Z</time>
</trkpt>
<trkpt lat="46.156760000" lon="7.463130000">
  <ele>1630.133300</ele>
  <time>2012-05-06T15:23:06Z</time>
</trkpt>
<trkpt lat="46.156730000" lon="7.463140000">
  <ele>1630.366700</ele>
  <time>2012-05-06T15:23:07Z</time>
</trkpt>
<trkpt lat="46.156710000" lon="7.463160000">
  <ele>1630.599980</ele>
  <time>2012-05-06T15:23:08Z</time>
</trkpt>
<trkpt lat="46.156680000" lon="7.463180000">
  <ele>1630.599980</ele>
  <time>2012-05-06T15:23:09Z</time>
</trkpt>
<trkpt lat="46.156540000" lon="7.463280000">
  <ele>1631.926270</ele>
  <time>2012-05-06T15:23:15Z</time>
</trkpt>
<trkpt lat="46.156510000" lon="7.463290000">
  <ele>1632.147340</ele>
  <time>2012-05-06T15:23:16Z</time>
</trkpt>
<trkpt lat="46.156490000" lon="7.463310000">
  <ele>1632.368410</ele>
  <time>2012-05-06T15:23:17Z</time>
</trkpt>
<trkpt lat="46.156460000" lon="7.463320000">
  <ele>1632.589480</ele>
  <time>2012-05-06T15:23:18Z</time>
</trkpt>
<trkpt lat="46.156440000" lon="7.463340000">
  <ele>1632.810550</ele>
  <time>2012-05-06T15:23:19Z</time>
</trkpt>
<trkpt lat="46.156290000" lon="7.463450000">
  <ele>1634.136840</ele>
  <time>2012-05-06T15:23:25Z</time>
</trkpt>
<trkpt lat="46.156260000" lon="7.463460000">
  <ele>1634.357910</ele>
  <time>2012-05-06T15:23:26Z</time>
</trkpt>
<trkpt lat="46.156230000" lon="7.463480000">
  <ele>1634.578980</ele>
  <time>2012-05-06T15:23:27Z</time>
</trkpt>
<trkpt lat="46.156200000" lon="7.463500000">
  <ele>1634.800050</ele>
  <time>2012-05-06T15:23:28Z</time>
</trkpt>
<trkpt lat="46.156130000" lon="7.463550000">
  <ele>1634.800050</ele>
  <time>2012-05-06T15:23:31Z</time>
</trkpt>
<trkpt lat="46.156090000" lon="7.463600000">
  <ele>1635.466670</ele>
  <time>2012-05-06T15:23:33Z</time>
</trkpt>
<trkpt lat="46.156070000" lon="7.463620000">
  <ele>1635.800050</ele>
  <time>2012-05-06T15:23:34Z</time>
</trkpt>
<trkpt lat="46.156040000" lon="7.463650000">
  <ele>1636.133420</ele>
  <time>2012-05-06T15:23:35Z</time>
</trkpt>
<trkpt lat="46.156020000" lon="7.463680000">
  <ele>1636.466670</ele>
  <time>2012-05-06T15:23:36Z</time>
</trkpt>
<trkpt lat="46.156010000" lon="7.463710000">
  <ele>1636.800050</ele>
  <time>2012-05-06T15:23:37Z</time>
</trkpt>
<trkpt lat="46.155980000" lon="7.463740000">
  <ele>1636.800050</ele>
  <time>2012-05-06T15:23:38Z</time>
</trkpt>
<trkpt lat="46.155890000" lon="7.463890000">
  <ele>1637.911130</ele>
  <time>2012-05-06T15:23:43Z</time>
</trkpt>
<trkpt lat="46.155870000" lon="7.463920000">
  <ele>1638.133420</ele>
  <time>2012-05-06T15:23:44Z</time>
</trkpt>
<trkpt lat="46.155850000" lon="7.463950000">
  <ele>1638.355590</ele>
  <time>2012-05-06T15:23:45Z</time>
</trkpt>
<trkpt lat="46.155830000" lon="7.463990000">
  <ele>1638.577880</ele>
  <time>2012-05-06T15:23:46Z</time>
</trkpt>
<trkpt lat="46.155820000" lon="7.464020000">
  <ele>1638.800050</ele>
  <time>2012-05-06T15:23:47Z</time>
</trkpt>
<trkpt lat="46.155750000" lon="7.464220000">
  <ele>1639.911130</ele>
  <time>2012-05-06T15:23:52Z</time>
</trkpt>
<trkpt lat="46.155740000" lon="7.464260000">
  <ele>1640.133420</ele>
  <time>2012-05-06T15:23:53Z</time>
</trkpt>
<trkpt lat="46.155740000" lon="7.464300000">
  <ele>1640.355590</ele>
  <time>2012-05-06T15:23:54Z</time>
</trkpt>
<trkpt lat="46.155730000" lon="7.464340000">
  <ele>1640.577880</ele>
  <time>2012-05-06T15:23:55Z</time>
</trkpt>
<trkpt lat="46.155720000" lon="7.464390000">
  <ele>1640.800050</ele>
  <time>2012-05-06T15:23:56Z</time>
</trkpt>
<trkpt lat="46.155650000" lon="7.464520000">
  <ele>1640.800050</ele>
  <time>2012-05-06T15:24:00Z</time>
</trkpt>
<trkpt lat="46.155590000" lon="7.464610000">
  <ele>1641.538450</ele>
  <time>2012-05-06T15:24:03Z</time>
</trkpt>
<trkpt lat="46.155570000" lon="7.464640000">
  <ele>1641.784670</ele>
  <time>2012-05-06T15:24:04Z</time>
</trkpt>
<trkpt lat="46.155540000" lon="7.464670000">
  <ele>1642.030760</ele>
  <time>2012-05-06T15:24:05Z</time>
</trkpt>
<trkpt lat="46.155510000" lon="7.464690000">
  <ele>1642.276980</ele>
  <time>2012-05-06T15:24:06Z</time>
</trkpt>
<trkpt lat="46.155490000" lon="7.464710000">
  <ele>1642.523070</ele>
  <time>2012-05-06T15:24:07Z</time>
</trkpt>
<trkpt lat="46.155270000" lon="7.464840000">
  <ele>1644.492310</ele>
  <time>2012-05-06T15:24:15Z</time>
</trkpt>
<trkpt lat="46.155240000" lon="7.464860000">
  <ele>1644.738400</ele>
  <time>2012-05-06T15:24:16Z</time>
</trkpt>
<trkpt lat="46.155220000" lon="7.464880000">
  <ele>1644.984620</ele>
  <time>2012-05-06T15:24:17Z</time>
</trkpt>
<trkpt lat="46.155190000" lon="7.464890000">
  <ele>1645.230710</ele>
  <time>2012-05-06T15:24:18Z</time>
</trkpt>
<trkpt lat="46.155090000" lon="7.464960000">
  <ele>1646.215330</ele>
  <time>2012-05-06T15:24:22Z</time>
</trkpt>
<trkpt lat="46.155070000" lon="7.464980000">
  <ele>1646.461550</ele>
  <time>2012-05-06T15:24:23Z</time>
</trkpt>
<trkpt lat="46.155040000" lon="7.465010000">
  <ele>1646.707640</ele>
  <time>2012-05-06T15:24:24Z</time>
</trkpt>
<trkpt lat="46.155030000" lon="7.465040000">
  <ele>1646.953860</ele>
  <time>2012-05-06T15:24:25Z</time>
</trkpt>
<trkpt lat="46.155000000" lon="7.465080000">
  <ele>1647.199950</ele>
  <time>2012-05-06T15:24:26Z</time>
</trkpt>
<trkpt lat="46.154960000" lon="7.465150000">
  <ele>1647.199950</ele>
  <time>2012-05-06T15:24:28Z</time>
</trkpt>
<trkpt lat="46.154890000" lon="7.465280000">
  <ele>1648.000000</ele>
  <time>2012-05-06T15:24:32Z</time>
</trkpt>
<trkpt lat="46.154800000" lon="7.465400000">
  <ele>1648.799930</ele>
  <time>2012-05-06T15:24:36Z</time>
</trkpt>
<trkpt lat="46.154780000" lon="7.465430000">
  <ele>1649.000000</ele>
  <time>2012-05-06T15:24:37Z</time>
</trkpt>
<trkpt lat="46.154760000" lon="7.465470000">
  <ele>1649.199950</ele>
  <time>2012-05-06T15:24:38Z</time>
</trkpt>
<trkpt lat="46.154740000" lon="7.465500000">
  <ele>1649.400020</ele>
  <time>2012-05-06T15:24:39Z</time>
</trkpt>
<trkpt lat="46.154720000" lon="7.465540000">
  <ele>1649.599980</ele>
  <time>2012-05-06T15:24:40Z</time>
</trkpt>
<trkpt lat="46.154660000" lon="7.465630000">
  <ele>1649.599980</ele>
  <time>2012-05-06T15:24:43Z</time>
</trkpt>
<trkpt lat="46.154510000" lon="7.465850000">
  <ele>1650.523070</ele>
  <time>2012-05-06T15:24:49Z</time>
</trkpt>
<trkpt lat="46.154420000" lon="7.465960000">
  <ele>1650.984620</ele>
  <time>2012-05-06T15:24:52Z</time>
</trkpt>
<trkpt lat="46.154380000" lon="7.465990000">
  <ele>1651.138430</ele>
  <time>2012-05-06T15:24:53Z</time>
</trkpt>
<trkpt lat="46.154360000" lon="7.466030000">
  <ele>1651.292240</ele>
  <time>2012-05-06T15:24:54Z</time>
</trkpt>
<trkpt lat="46.154330000" lon="7.466060000">
  <ele>1651.446170</ele>
  <time>2012-05-06T15:24:55Z</time>
</trkpt>
<trkpt lat="46.154320000" lon="7.466110000">
  <ele>1651.599980</ele>
  <time>2012-05-06T15:24:56Z</time>
</trkpt>
<trkpt lat="46.154270000" lon="7.466380000">
  <ele>1651.599980</ele>
  <time>2012-05-06T15:25:01Z</time>
</trkpt>
<trkpt lat="46.154210000" lon="7.466570000">
  <ele>1652.164670</ele>
  <time>2012-05-06T15:25:05Z</time>
</trkpt>
<trkpt lat="46.154170000" lon="7.466600000">
  <ele>1652.305910</ele>
  <time>2012-05-06T15:25:06Z</time>
</trkpt>
<trkpt lat="46.154070000" lon="7.466630000">
  <ele>1652.729370</ele>
  <time>2012-05-06T15:25:09Z</time>
</trkpt>
<trkpt lat="46.154040000" lon="7.466630000">
  <ele>1652.870610</ele>
  <time>2012-05-06T15:25:10Z</time>
</trkpt>
<trkpt lat="46.153920000" lon="7.466590000">
  <ele>1653.435300</ele>
  <time>2012-05-06T15:25:14Z</time>
</trkpt>
<trkpt lat="46.153890000" lon="7.466590000">
  <ele>1653.576420</ele>
  <time>2012-05-06T15:25:15Z</time>
</trkpt>
<trkpt lat="46.153860000" lon="7.466590000">
  <ele>1653.717650</ele>
  <time>2012-05-06T15:25:16Z</time>
</trkpt>
<trkpt lat="46.153820000" lon="7.466610000">
  <ele>1653.858760</ele>
  <time>2012-05-06T15:25:17Z</time>
</trkpt>
<trkpt lat="46.153790000" lon="7.466620000">
  <ele>1654.000000</ele>
  <time>2012-05-06T15:25:18Z</time>
</trkpt>
<trkpt lat="46.153630000" lon="7.466780000">
  <ele>1654.000000</ele>
  <time>2012-05-06T15:25:24Z</time>
</trkpt>
<trkpt lat="46.153500000" lon="7.466980000">
  <ele>1654.500000</ele>
  <time>2012-05-06T15:25:29Z</time>
</trkpt>
<trkpt lat="46.153480000" lon="7.467030000">
  <ele>1654.599980</ele>
  <time>2012-05-06T15:25:30Z</time>
</trkpt>
<trkpt lat="46.153520000" lon="7.467260000">
  <ele>1655.000000</ele>
  <time>2012-05-06T15:25:34Z</time>
</trkpt>
<trkpt lat="46.153510000" lon="7.467390000">
  <ele>1655.199950</ele>
  <time>2012-05-06T15:25:36Z</time>
</trkpt>
<trkpt lat="46.153510000" lon="7.467450000">
  <ele>1655.300050</ele>
  <time>2012-05-06T15:25:37Z</time>
</trkpt>
<trkpt lat="46.153470000" lon="7.467620000">
  <ele>1655.599980</ele>
  <time>2012-05-06T15:25:40Z</time>
</trkpt>
<trkpt lat="46.153450000" lon="7.467670000">
  <ele>1655.699950</ele>
  <time>2012-05-06T15:25:41Z</time>
</trkpt>
<trkpt lat="46.153430000" lon="7.467720000">
  <ele>1655.800050</ele>
  <time>2012-05-06T15:25:42Z</time>
</trkpt>
<trkpt lat="46.153410000" lon="7.467770000">
  <ele>1655.900020</ele>
  <time>2012-05-06T15:25:43Z</time>
</trkpt>
<trkpt lat="46.153380000" lon="7.467810000">
  <ele>1656.000000</ele>
  <time>2012-05-06T15:25:44Z</time>
</trkpt>
<trkpt lat="46.153300000" lon="7.467920000">
  <ele>1656.000000</ele>
  <time>2012-05-06T15:25:47Z</time>
</trkpt>
<trkpt lat="46.153140000" lon="7.468060000">
  <ele>1657.375000</ele>
  <time>2012-05-06T15:25:52Z</time>
</trkpt>
<trkpt lat="46.153110000" lon="7.468080000">
  <ele>1657.649900</ele>
  <time>2012-05-06T15:25:53Z</time>
</trkpt>
<trkpt lat="46.153080000" lon="7.468090000">
  <ele>1657.924930</ele>
  <time>2012-05-06T15:25:54Z</time>
</trkpt>
<trkpt lat="46.153050000" lon="7.468110000">
  <ele>1658.199950</ele>
  <time>2012-05-06T15:25:55Z</time>
</trkpt>
<trkpt lat="46.152870000" lon="7.468270000">
  <ele>1658.199950</ele>
  <time>2012-05-06T15:26:01Z</time>
</trkpt>
<trkpt lat="46.152860000" lon="7.468320000">
  <ele>1658.322140</ele>
  <time>2012-05-06T15:26:02Z</time>
</trkpt>
<trkpt lat="46.152850000" lon="7.468510000">
  <ele>1658.688840</ele>
  <time>2012-05-06T15:26:05Z</time>
</trkpt>
<trkpt lat="46.152810000" lon="7.468890000">
  <ele>1659.422240</ele>
  <time>2012-05-06T15:26:11Z</time>
</trkpt>
<trkpt lat="46.152780000" lon="7.469010000">
  <ele>1659.666630</ele>
  <time>2012-05-06T15:26:13Z</time>
</trkpt>
<trkpt lat="46.152740000" lon="7.469120000">
  <ele>1659.911130</ele>
  <time>2012-05-06T15:26:15Z</time>
</trkpt>
<trkpt lat="46.152720000" lon="7.469170000">
  <ele>1660.033330</ele>
  <time>2012-05-06T15:26:16Z</time>
</trkpt>
<trkpt lat="46.152690000" lon="7.469210000">
  <ele>1660.155520</ele>
  <time>2012-05-06T15:26:17Z</time>
</trkpt>
<trkpt lat="46.152660000" lon="7.469260000">
  <ele>1660.277830</ele>
  <time>2012-05-06T15:26:18Z</time>
</trkpt>
<trkpt lat="46.152630000" lon="7.469300000">
  <ele>1660.400020</ele>
  <time>2012-05-06T15:26:19Z</time>
</trkpt>
<trkpt lat="46.152380000" lon="7.469570000">
  <ele>1660.400020</ele>
  <time>2012-05-06T15:26:26Z</time>
</trkpt>
<trkpt lat="46.152190000" lon="7.469750000">
  <ele>1661.400020</ele>
  <time>2012-05-06T15:26:31Z</time>
</trkpt>
<trkpt lat="46.152160000" lon="7.469780000">
  <ele>1661.599980</ele>
  <time>2012-05-06T15:26:32Z</time>
</trkpt>
<trkpt lat="46.152120000" lon="7.469810000">
  <ele>1661.800050</ele>
  <time>2012-05-06T15:26:33Z</time>
</trkpt>
<trkpt lat="46.152080000" lon="7.469830000">
  <ele>1662.000000</ele>
  <time>2012-05-06T15:26:34Z</time>
</trkpt>
<trkpt lat="46.152030000" lon="7.469840000">
  <ele>1662.200070</ele>
  <time>2012-05-06T15:26:35Z</time>
</trkpt>
<trkpt lat="46.151990000" lon="7.469830000">
  <ele>1662.400020</ele>
  <time>2012-05-06T15:26:36Z</time>
</trkpt>
<trkpt lat="46.151950000" lon="7.469830000">
  <ele>1662.400020</ele>
  <time>2012-05-06T15:26:37Z</time>
</trkpt>
<trkpt lat="46.151820000" lon="7.469810000">
  <ele>1662.752930</ele>
  <time>2012-05-06T15:26:40Z</time>
</trkpt>
<trkpt lat="46.151750000" lon="7.469850000">
  <ele>1662.988280</ele>
  <time>2012-05-06T15:26:42Z</time>
</trkpt>
<trkpt lat="46.151620000" lon="7.470000000">
  <ele>1663.458860</ele>
  <time>2012-05-06T15:26:46Z</time>
</trkpt>
<trkpt lat="46.151600000" lon="7.470060000">
  <ele>1663.576540</ele>
  <time>2012-05-06T15:26:47Z</time>
</trkpt>
<trkpt lat="46.151520000" lon="7.470210000">
  <ele>1663.929440</ele>
  <time>2012-05-06T15:26:50Z</time>
</trkpt>
<trkpt lat="46.151490000" lon="7.470260000">
  <ele>1664.047120</ele>
  <time>2012-05-06T15:26:51Z</time>
</trkpt>
<trkpt lat="46.151470000" lon="7.470310000">
  <ele>1664.164670</ele>
  <time>2012-05-06T15:26:52Z</time>
</trkpt>
<trkpt lat="46.151440000" lon="7.470360000">
  <ele>1664.282350</ele>
  <time>2012-05-06T15:26:53Z</time>
</trkpt>
<trkpt lat="46.151420000" lon="7.470400000">
  <ele>1664.400020</ele>
  <time>2012-05-06T15:26:54Z</time>
</trkpt>
<trkpt lat="46.151350000" lon="7.470550000">
  <ele>1664.400020</ele>
  <time>2012-05-06T15:26:57Z</time>
</trkpt>
<trkpt lat="46.151250000" lon="7.470740000">
  <ele>1664.917600</ele>
  <time>2012-05-06T15:27:01Z</time>
</trkpt>
<trkpt lat="46.151100000" lon="7.470860000">
  <ele>1665.435300</ele>
  <time>2012-05-06T15:27:05Z</time>
</trkpt>
<trkpt lat="46.150930000" lon="7.470920000">
  <ele>1666.082400</ele>
  <time>2012-05-06T15:27:10Z</time>
</trkpt>
<trkpt lat="46.150900000" lon="7.470910000">
  <ele>1666.211790</ele>
  <time>2012-05-06T15:27:11Z</time>
</trkpt>
<trkpt lat="46.150880000" lon="7.470900000">
  <ele>1666.341190</ele>
  <time>2012-05-06T15:27:12Z</time>
</trkpt>
<trkpt lat="46.150850000" lon="7.470910000">
  <ele>1666.470580</ele>
  <time>2012-05-06T15:27:13Z</time>
</trkpt>
<trkpt lat="46.150840000" lon="7.470920000">
  <ele>1666.599980</ele>
  <time>2012-05-06T15:27:14Z</time>
</trkpt>
<trkpt lat="46.150830000" lon="7.470930000">
  <ele>1666.599980</ele>
  <time>2012-05-06T15:27:15Z</time>
</trkpt>
<trkpt lat="46.150820000" lon="7.470970000">
  <ele>1666.599980</ele>
  <time>2012-05-06T15:27:19Z</time>
</trkpt>
<trkpt lat="46.150820000" lon="7.470970000">
  <ele>1666.599980</ele>
  <time>2012-05-06T15:27:20Z</time>
</trkpt>
</trkseg>
</trk>
</gpx>
